<?xml version="1.0" encoding="UTF-8" standalone="no" ?>
<gpx xmlns="http://www.topografix.com/GPX/1/1" xmlns:xsi="http://www.w3.org/2001/XMLSchema-instance" xsi:schemaLocation="http://www.topografix.com/GPX/1/1 http://www.topografix.com/GPX/1/1/gpx.xsd" version="1.1" creator="VisuGPX - https://www.visugpx.com">
  <metadata>
    <name>Etape 2 - Davos</name>
    <desc><![CDATA[Traversée de la Suisse / Italie / Autriche / Allemagne 3 semaines à vélo]]></desc>
  </metadata>
  <trk>
    <name><![CDATA[OR-7857006--Zizers:sp2]]></name>
    <trkseg>
      <trkpt lat="46.93696" lon="9.55531">
        <ele>527</ele>
        <time>2017-10-23T10:55:29Z</time>
      </trkpt>
      <trkpt lat="46.93688" lon="9.55534">
        <ele>527</ele>
        <time>2017-10-23T10:57:29Z</time>
      </trkpt>
      <trkpt lat="46.93658" lon="9.55545">
        <ele>528</ele>
        <time>2017-10-23T10:59:29Z</time>
      </trkpt>
      <trkpt lat="46.93639" lon="9.55551">
        <ele>528</ele>
        <time>2017-10-23T11:01:29Z</time>
      </trkpt>
      <trkpt lat="46.93626" lon="9.55557">
        <ele>528</ele>
        <time>2017-10-23T11:03:29Z</time>
      </trkpt>
      <trkpt lat="46.93612" lon="9.55564">
        <ele>528</ele>
        <time>2017-10-23T11:05:29Z</time>
      </trkpt>
      <trkpt lat="46.936" lon="9.55571">
        <ele>529</ele>
        <time>2017-10-23T11:07:29Z</time>
      </trkpt>
      <trkpt lat="46.93586" lon="9.5558">
        <ele>529</ele>
        <time>2017-10-23T11:09:29Z</time>
      </trkpt>
      <trkpt lat="46.93573" lon="9.5559">
        <ele>529</ele>
        <time>2017-10-23T11:11:29Z</time>
      </trkpt>
      <trkpt lat="46.9356" lon="9.55602">
        <ele>529</ele>
        <time>2017-10-23T11:13:29Z</time>
      </trkpt>
      <trkpt lat="46.93547" lon="9.55614">
        <ele>529</ele>
        <time>2017-10-23T11:15:29Z</time>
      </trkpt>
      <trkpt lat="46.93547" lon="9.55614">
        <ele>529</ele>
        <time>2017-10-23T11:17:29Z</time>
      </trkpt>
      <trkpt lat="46.93534" lon="9.55627">
        <ele>529</ele>
        <time>2017-10-23T11:19:29Z</time>
      </trkpt>
      <trkpt lat="46.93527" lon="9.55635">
        <ele>529</ele>
        <time>2017-10-23T11:21:29Z</time>
      </trkpt>
      <trkpt lat="46.9351" lon="9.55656">
        <ele>529</ele>
        <time>2017-10-23T11:23:29Z</time>
      </trkpt>
      <trkpt lat="46.93479" lon="9.55701">
        <ele>530</ele>
        <time>2017-10-23T11:25:29Z</time>
      </trkpt>
      <trkpt lat="46.93457" lon="9.55735">
        <ele>531</ele>
        <time>2017-10-23T11:27:29Z</time>
      </trkpt>
      <trkpt lat="46.93451" lon="9.55748">
        <ele>531</ele>
        <time>2017-10-23T11:29:29Z</time>
      </trkpt>
      <trkpt lat="46.93449" lon="9.55756">
        <ele>531</ele>
        <time>2017-10-23T11:31:29Z</time>
      </trkpt>
      <trkpt lat="46.93448" lon="9.55762">
        <ele>531</ele>
        <time>2017-10-23T11:33:29Z</time>
      </trkpt>
      <trkpt lat="46.93447" lon="9.55768">
        <ele>531</ele>
        <time>2017-10-23T11:35:29Z</time>
      </trkpt>
      <trkpt lat="46.93447" lon="9.55782">
        <ele>531</ele>
        <time>2017-10-23T11:37:29Z</time>
      </trkpt>
      <trkpt lat="46.93447" lon="9.55782">
        <ele>531</ele>
        <time>2017-10-23T11:39:29Z</time>
      </trkpt>
      <trkpt lat="46.93415" lon="9.55784">
        <ele>531</ele>
        <time>2017-10-23T11:41:29Z</time>
      </trkpt>
      <trkpt lat="46.93415" lon="9.55784">
        <ele>531</ele>
        <time>2017-10-23T11:43:29Z</time>
      </trkpt>
      <trkpt lat="46.93409" lon="9.55819">
        <ele>531</ele>
        <time>2017-10-23T11:45:29Z</time>
      </trkpt>
      <trkpt lat="46.93399" lon="9.55859">
        <ele>532</ele>
        <time>2017-10-23T11:47:29Z</time>
      </trkpt>
      <trkpt lat="46.93392" lon="9.55892">
        <ele>532</ele>
        <time>2017-10-23T11:49:29Z</time>
      </trkpt>
      <trkpt lat="46.9339" lon="9.55908">
        <ele>533</ele>
        <time>2017-10-23T11:51:29Z</time>
      </trkpt>
      <trkpt lat="46.93389" lon="9.55915">
        <ele>533</ele>
        <time>2017-10-23T11:53:29Z</time>
      </trkpt>
      <trkpt lat="46.93389" lon="9.5592">
        <ele>533</ele>
        <time>2017-10-23T11:55:29Z</time>
      </trkpt>
      <trkpt lat="46.93391" lon="9.55923">
        <ele>533</ele>
        <time>2017-10-23T11:57:29Z</time>
      </trkpt>
      <trkpt lat="46.93391" lon="9.55923">
        <ele>533</ele>
        <time>2017-10-23T11:59:29Z</time>
      </trkpt>
      <trkpt lat="46.93379" lon="9.55925">
        <ele>533</ele>
        <time>2017-10-23T12:01:29Z</time>
      </trkpt>
      <trkpt lat="46.93363" lon="9.55927">
        <ele>533</ele>
        <time>2017-10-23T12:03:29Z</time>
      </trkpt>
      <trkpt lat="46.933" lon="9.55934">
        <ele>535</ele>
        <time>2017-10-23T12:05:29Z</time>
      </trkpt>
      <trkpt lat="46.93286" lon="9.55933">
        <ele>535</ele>
        <time>2017-10-23T12:07:29Z</time>
      </trkpt>
      <trkpt lat="46.93285" lon="9.55933">
        <ele>535</ele>
        <time>2017-10-23T12:09:29Z</time>
      </trkpt>
      <trkpt lat="46.93273" lon="9.55931">
        <ele>536</ele>
        <time>2017-10-23T12:11:29Z</time>
      </trkpt>
      <trkpt lat="46.93246" lon="9.55931">
        <ele>536</ele>
        <time>2017-10-23T12:13:29Z</time>
      </trkpt>
      <trkpt lat="46.93201" lon="9.55938">
        <ele>536</ele>
        <time>2017-10-23T12:15:29Z</time>
      </trkpt>
      <trkpt lat="46.93187" lon="9.55937">
        <ele>536</ele>
        <time>2017-10-23T12:17:29Z</time>
      </trkpt>
      <trkpt lat="46.93186" lon="9.55937">
        <ele>536</ele>
        <time>2017-10-23T12:19:29Z</time>
      </trkpt>
      <trkpt lat="46.9318" lon="9.55937">
        <ele>536</ele>
        <time>2017-10-23T12:21:29Z</time>
      </trkpt>
      <trkpt lat="46.93163" lon="9.55937">
        <ele>536</ele>
        <time>2017-10-23T12:23:29Z</time>
      </trkpt>
      <trkpt lat="46.93116" lon="9.55944">
        <ele>536</ele>
        <time>2017-10-23T12:25:29Z</time>
      </trkpt>
      <trkpt lat="46.93083" lon="9.55948">
        <ele>536</ele>
        <time>2017-10-23T12:27:29Z</time>
      </trkpt>
      <trkpt lat="46.93051" lon="9.55952">
        <ele>535</ele>
        <time>2017-10-23T12:29:29Z</time>
      </trkpt>
      <trkpt lat="46.93032" lon="9.55955">
        <ele>534</ele>
        <time>2017-10-23T12:31:29Z</time>
      </trkpt>
      <trkpt lat="46.93022" lon="9.55957">
        <ele>534</ele>
        <time>2017-10-23T12:33:29Z</time>
      </trkpt>
      <trkpt lat="46.9301" lon="9.55959">
        <ele>534</ele>
        <time>2017-10-23T12:35:29Z</time>
      </trkpt>
      <trkpt lat="46.92984" lon="9.55965">
        <ele>534</ele>
        <time>2017-10-23T12:37:29Z</time>
      </trkpt>
      <trkpt lat="46.92968" lon="9.55971">
        <ele>534</ele>
        <time>2017-10-23T12:39:29Z</time>
      </trkpt>
      <trkpt lat="46.92949" lon="9.55976">
        <ele>535</ele>
        <time>2017-10-23T12:41:29Z</time>
      </trkpt>
      <trkpt lat="46.92933" lon="9.5598">
        <ele>535</ele>
        <time>2017-10-23T12:43:29Z</time>
      </trkpt>
      <trkpt lat="46.92921" lon="9.55983">
        <ele>535</ele>
        <time>2017-10-23T12:45:29Z</time>
      </trkpt>
      <trkpt lat="46.92907" lon="9.55984">
        <ele>535</ele>
        <time>2017-10-23T12:47:29Z</time>
      </trkpt>
      <trkpt lat="46.92905" lon="9.55979">
        <ele>535</ele>
        <time>2017-10-23T12:49:29Z</time>
      </trkpt>
      <trkpt lat="46.92902" lon="9.5597">
        <ele>534</ele>
        <time>2017-10-23T12:51:29Z</time>
      </trkpt>
      <trkpt lat="46.92901" lon="9.55965">
        <ele>534</ele>
        <time>2017-10-23T12:53:29Z</time>
      </trkpt>
      <trkpt lat="46.92899" lon="9.5596">
        <ele>534</ele>
        <time>2017-10-23T12:55:29Z</time>
      </trkpt>
      <trkpt lat="46.92897" lon="9.55958">
        <ele>534</ele>
        <time>2017-10-23T12:57:29Z</time>
      </trkpt>
      <trkpt lat="46.92895" lon="9.55955">
        <ele>534</ele>
        <time>2017-10-23T12:59:29Z</time>
      </trkpt>
      <trkpt lat="46.92893" lon="9.55954">
        <ele>533</ele>
        <time>2017-10-23T13:01:29Z</time>
      </trkpt>
      <trkpt lat="46.9289" lon="9.55953">
        <ele>533</ele>
        <time>2017-10-23T13:03:29Z</time>
      </trkpt>
      <trkpt lat="46.92887" lon="9.55952">
        <ele>533</ele>
        <time>2017-10-23T13:05:29Z</time>
      </trkpt>
      <trkpt lat="46.92885" lon="9.55952">
        <ele>533</ele>
        <time>2017-10-23T13:07:29Z</time>
      </trkpt>
      <trkpt lat="46.92883" lon="9.55952">
        <ele>533</ele>
        <time>2017-10-23T13:09:29Z</time>
      </trkpt>
      <trkpt lat="46.92875" lon="9.55955">
        <ele>534</ele>
        <time>2017-10-23T13:11:29Z</time>
      </trkpt>
      <trkpt lat="46.92864" lon="9.55962">
        <ele>534</ele>
        <time>2017-10-23T13:13:29Z</time>
      </trkpt>
      <trkpt lat="46.92857" lon="9.55966">
        <ele>535</ele>
        <time>2017-10-23T13:15:29Z</time>
      </trkpt>
      <trkpt lat="46.92851" lon="9.55969">
        <ele>535</ele>
        <time>2017-10-23T13:17:29Z</time>
      </trkpt>
      <trkpt lat="46.92836" lon="9.55971">
        <ele>536</ele>
        <time>2017-10-23T13:19:29Z</time>
      </trkpt>
      <trkpt lat="46.92819" lon="9.5597">
        <ele>536</ele>
        <time>2017-10-23T13:21:29Z</time>
      </trkpt>
      <trkpt lat="46.92793" lon="9.55962">
        <ele>536</ele>
        <time>2017-10-23T13:23:29Z</time>
      </trkpt>
      <trkpt lat="46.92738" lon="9.55932">
        <ele>536</ele>
        <time>2017-10-23T13:25:29Z</time>
      </trkpt>
      <trkpt lat="46.92701" lon="9.55906">
        <ele>536</ele>
        <time>2017-10-23T13:27:29Z</time>
      </trkpt>
      <trkpt lat="46.92682" lon="9.55895">
        <ele>536</ele>
        <time>2017-10-23T13:29:29Z</time>
      </trkpt>
      <trkpt lat="46.92671" lon="9.55892">
        <ele>536</ele>
        <time>2017-10-23T13:31:29Z</time>
      </trkpt>
      <trkpt lat="46.92661" lon="9.55893">
        <ele>536</ele>
        <time>2017-10-23T13:33:29Z</time>
      </trkpt>
      <trkpt lat="46.92647" lon="9.55898">
        <ele>537</ele>
        <time>2017-10-23T13:35:29Z</time>
      </trkpt>
      <trkpt lat="46.92618" lon="9.55923">
        <ele>537</ele>
        <time>2017-10-23T13:37:29Z</time>
      </trkpt>
      <trkpt lat="46.9256" lon="9.55968">
        <ele>536</ele>
        <time>2017-10-23T13:39:29Z</time>
      </trkpt>
      <trkpt lat="46.92531" lon="9.55991">
        <ele>535</ele>
        <time>2017-10-23T13:41:29Z</time>
      </trkpt>
      <trkpt lat="46.92519" lon="9.55999">
        <ele>535</ele>
        <time>2017-10-23T13:43:29Z</time>
      </trkpt>
      <trkpt lat="46.92507" lon="9.56006">
        <ele>535</ele>
        <time>2017-10-23T13:45:29Z</time>
      </trkpt>
      <trkpt lat="46.92436" lon="9.56054">
        <ele>536</ele>
        <time>2017-10-23T13:47:29Z</time>
      </trkpt>
      <trkpt lat="46.92411" lon="9.56067">
        <ele>536</ele>
        <time>2017-10-23T13:49:29Z</time>
      </trkpt>
      <trkpt lat="46.92395" lon="9.56077">
        <ele>535</ele>
        <time>2017-10-23T13:51:29Z</time>
      </trkpt>
      <trkpt lat="46.92382" lon="9.56091">
        <ele>535</ele>
        <time>2017-10-23T13:53:29Z</time>
      </trkpt>
      <trkpt lat="46.92368" lon="9.56111">
        <ele>536</ele>
        <time>2017-10-23T13:55:29Z</time>
      </trkpt>
      <trkpt lat="46.92358" lon="9.56117">
        <ele>536</ele>
        <time>2017-10-23T13:57:29Z</time>
      </trkpt>
      <trkpt lat="46.92355" lon="9.56118">
        <ele>536</ele>
        <time>2017-10-23T13:59:29Z</time>
      </trkpt>
      <trkpt lat="46.92349" lon="9.56119">
        <ele>536</ele>
        <time>2017-10-23T14:01:29Z</time>
      </trkpt>
      <trkpt lat="46.9234" lon="9.56118">
        <ele>535</ele>
        <time>2017-10-23T14:03:29Z</time>
      </trkpt>
      <trkpt lat="46.92333" lon="9.56117">
        <ele>535</ele>
        <time>2017-10-23T14:05:29Z</time>
      </trkpt>
      <trkpt lat="46.92289" lon="9.56101">
        <ele>535</ele>
        <time>2017-10-23T14:07:29Z</time>
      </trkpt>
      <trkpt lat="46.9226" lon="9.56089">
        <ele>535</ele>
        <time>2017-10-23T14:09:29Z</time>
      </trkpt>
      <trkpt lat="46.92228" lon="9.56081">
        <ele>536</ele>
        <time>2017-10-23T14:11:29Z</time>
      </trkpt>
      <trkpt lat="46.92195" lon="9.56071">
        <ele>536</ele>
        <time>2017-10-23T14:13:29Z</time>
      </trkpt>
      <trkpt lat="46.92137" lon="9.56043">
        <ele>536</ele>
        <time>2017-10-23T14:15:29Z</time>
      </trkpt>
      <trkpt lat="46.92095" lon="9.56021">
        <ele>537</ele>
        <time>2017-10-23T14:17:29Z</time>
      </trkpt>
      <trkpt lat="46.9209" lon="9.56006">
        <ele>537</ele>
        <time>2017-10-23T14:19:29Z</time>
      </trkpt>
      <trkpt lat="46.92089" lon="9.55991">
        <ele>537</ele>
        <time>2017-10-23T14:21:29Z</time>
      </trkpt>
      <trkpt lat="46.92086" lon="9.55971">
        <ele>537</ele>
        <time>2017-10-23T14:23:29Z</time>
      </trkpt>
      <trkpt lat="46.92083" lon="9.5596">
        <ele>537</ele>
        <time>2017-10-23T14:25:29Z</time>
      </trkpt>
      <trkpt lat="46.92077" lon="9.55945">
        <ele>538</ele>
        <time>2017-10-23T14:27:29Z</time>
      </trkpt>
      <trkpt lat="46.92065" lon="9.55928">
        <ele>538</ele>
        <time>2017-10-23T14:29:29Z</time>
      </trkpt>
      <trkpt lat="46.92055" lon="9.55919">
        <ele>538</ele>
        <time>2017-10-23T14:31:29Z</time>
      </trkpt>
      <trkpt lat="46.92038" lon="9.55906">
        <ele>538</ele>
        <time>2017-10-23T14:33:29Z</time>
      </trkpt>
      <trkpt lat="46.92019" lon="9.55898">
        <ele>538</ele>
        <time>2017-10-23T14:35:29Z</time>
      </trkpt>
      <trkpt lat="46.91996" lon="9.55887">
        <ele>539</ele>
        <time>2017-10-23T14:37:29Z</time>
      </trkpt>
      <trkpt lat="46.91981" lon="9.55877">
        <ele>539</ele>
        <time>2017-10-23T14:39:29Z</time>
      </trkpt>
      <trkpt lat="46.91959" lon="9.55861">
        <ele>539</ele>
        <time>2017-10-23T14:41:29Z</time>
      </trkpt>
      <trkpt lat="46.91949" lon="9.55851">
        <ele>539</ele>
        <time>2017-10-23T14:43:29Z</time>
      </trkpt>
      <trkpt lat="46.91944" lon="9.55841">
        <ele>539</ele>
        <time>2017-10-23T14:45:29Z</time>
      </trkpt>
      <trkpt lat="46.9194" lon="9.55835">
        <ele>539</ele>
        <time>2017-10-23T14:47:29Z</time>
      </trkpt>
      <trkpt lat="46.91938" lon="9.55827">
        <ele>539</ele>
        <time>2017-10-23T14:49:29Z</time>
      </trkpt>
      <trkpt lat="46.91936" lon="9.55816">
        <ele>539</ele>
        <time>2017-10-23T14:51:29Z</time>
      </trkpt>
      <trkpt lat="46.91936" lon="9.55796">
        <ele>539</ele>
        <time>2017-10-23T14:53:29Z</time>
      </trkpt>
      <trkpt lat="46.91936" lon="9.55768">
        <ele>539</ele>
        <time>2017-10-23T14:55:29Z</time>
      </trkpt>
      <trkpt lat="46.91935" lon="9.55749">
        <ele>539</ele>
        <time>2017-10-23T14:57:29Z</time>
      </trkpt>
      <trkpt lat="46.91941" lon="9.55718">
        <ele>538</ele>
        <time>2017-10-23T14:59:29Z</time>
      </trkpt>
      <trkpt lat="46.91937" lon="9.55696">
        <ele>538</ele>
        <time>2017-10-23T15:01:29Z</time>
      </trkpt>
      <trkpt lat="46.91929" lon="9.55684">
        <ele>538</ele>
        <time>2017-10-23T15:03:29Z</time>
      </trkpt>
      <trkpt lat="46.91915" lon="9.55675">
        <ele>537</ele>
        <time>2017-10-23T15:05:29Z</time>
      </trkpt>
      <trkpt lat="46.91904" lon="9.5567">
        <ele>537</ele>
        <time>2017-10-23T15:07:29Z</time>
      </trkpt>
      <trkpt lat="46.91896" lon="9.55668">
        <ele>537</ele>
        <time>2017-10-23T15:09:29Z</time>
      </trkpt>
      <trkpt lat="46.91889" lon="9.55667">
        <ele>536</ele>
        <time>2017-10-23T15:11:29Z</time>
      </trkpt>
      <trkpt lat="46.91885" lon="9.55666">
        <ele>536</ele>
        <time>2017-10-23T15:13:29Z</time>
      </trkpt>
      <trkpt lat="46.91878" lon="9.55665">
        <ele>536</ele>
        <time>2017-10-23T15:15:29Z</time>
      </trkpt>
      <trkpt lat="46.91873" lon="9.55663">
        <ele>536</ele>
        <time>2017-10-23T15:17:29Z</time>
      </trkpt>
      <trkpt lat="46.9187" lon="9.55662">
        <ele>536</ele>
        <time>2017-10-23T15:19:29Z</time>
      </trkpt>
      <trkpt lat="46.91852" lon="9.55653">
        <ele>535</ele>
        <time>2017-10-23T15:21:29Z</time>
      </trkpt>
      <trkpt lat="46.91821" lon="9.55639">
        <ele>535</ele>
        <time>2017-10-23T15:23:29Z</time>
      </trkpt>
      <trkpt lat="46.91782" lon="9.55629">
        <ele>535</ele>
        <time>2017-10-23T15:25:29Z</time>
      </trkpt>
      <trkpt lat="46.91746" lon="9.55618">
        <ele>534</ele>
        <time>2017-10-23T15:27:29Z</time>
      </trkpt>
      <trkpt lat="46.91709" lon="9.55606">
        <ele>534</ele>
        <time>2017-10-23T15:29:29Z</time>
      </trkpt>
      <trkpt lat="46.91665" lon="9.55593">
        <ele>534</ele>
        <time>2017-10-23T15:31:29Z</time>
      </trkpt>
      <trkpt lat="46.9163" lon="9.55583">
        <ele>536</ele>
        <time>2017-10-23T15:33:29Z</time>
      </trkpt>
      <trkpt lat="46.91592" lon="9.55572">
        <ele>538</ele>
        <time>2017-10-23T15:35:29Z</time>
      </trkpt>
      <trkpt lat="46.91541" lon="9.55561">
        <ele>539</ele>
        <time>2017-10-23T15:37:29Z</time>
      </trkpt>
      <trkpt lat="46.91486" lon="9.55545">
        <ele>539</ele>
        <time>2017-10-23T15:39:29Z</time>
      </trkpt>
      <trkpt lat="46.91458" lon="9.5554">
        <ele>538</ele>
        <time>2017-10-23T15:41:29Z</time>
      </trkpt>
      <trkpt lat="46.91448" lon="9.55538">
        <ele>538</ele>
        <time>2017-10-23T15:43:29Z</time>
      </trkpt>
      <trkpt lat="46.9144" lon="9.55539">
        <ele>537</ele>
        <time>2017-10-23T15:45:29Z</time>
      </trkpt>
      <trkpt lat="46.91432" lon="9.5554">
        <ele>537</ele>
        <time>2017-10-23T15:47:29Z</time>
      </trkpt>
      <trkpt lat="46.91423" lon="9.55544">
        <ele>537</ele>
        <time>2017-10-23T15:49:29Z</time>
      </trkpt>
      <trkpt lat="46.91408" lon="9.5555">
        <ele>537</ele>
        <time>2017-10-23T15:51:29Z</time>
      </trkpt>
      <trkpt lat="46.91399" lon="9.55552">
        <ele>537</ele>
        <time>2017-10-23T15:53:29Z</time>
      </trkpt>
      <trkpt lat="46.91389" lon="9.55552">
        <ele>538</ele>
        <time>2017-10-23T15:55:29Z</time>
      </trkpt>
      <trkpt lat="46.91383" lon="9.5555">
        <ele>538</ele>
        <time>2017-10-23T15:57:29Z</time>
      </trkpt>
      <trkpt lat="46.91365" lon="9.5554">
        <ele>538</ele>
        <time>2017-10-23T15:59:29Z</time>
      </trkpt>
      <trkpt lat="46.91344" lon="9.55526">
        <ele>538</ele>
        <time>2017-10-23T16:01:29Z</time>
      </trkpt>
      <trkpt lat="46.91318" lon="9.55511">
        <ele>539</ele>
        <time>2017-10-23T16:03:29Z</time>
      </trkpt>
      <trkpt lat="46.913" lon="9.55501">
        <ele>539</ele>
        <time>2017-10-23T16:05:29Z</time>
      </trkpt>
      <trkpt lat="46.91258" lon="9.55476">
        <ele>540</ele>
        <time>2017-10-23T16:07:29Z</time>
      </trkpt>
      <trkpt lat="46.9122" lon="9.55454">
        <ele>541</ele>
        <time>2017-10-23T16:09:29Z</time>
      </trkpt>
      <trkpt lat="46.91188" lon="9.5543">
        <ele>542</ele>
        <time>2017-10-23T16:11:29Z</time>
      </trkpt>
      <trkpt lat="46.91172" lon="9.55422">
        <ele>543</ele>
        <time>2017-10-23T16:13:29Z</time>
      </trkpt>
      <trkpt lat="46.9115" lon="9.55405">
        <ele>543</ele>
        <time>2017-10-23T16:15:29Z</time>
      </trkpt>
      <trkpt lat="46.91135" lon="9.55395">
        <ele>542</ele>
        <time>2017-10-23T16:17:29Z</time>
      </trkpt>
      <trkpt lat="46.9112" lon="9.5538">
        <ele>542</ele>
        <time>2017-10-23T16:19:29Z</time>
      </trkpt>
      <trkpt lat="46.91106" lon="9.55365">
        <ele>543</ele>
        <time>2017-10-23T16:21:29Z</time>
      </trkpt>
      <trkpt lat="46.91085" lon="9.55343">
        <ele>543</ele>
        <time>2017-10-23T16:23:29Z</time>
      </trkpt>
      <trkpt lat="46.91057" lon="9.55317">
        <ele>542</ele>
        <time>2017-10-23T16:25:29Z</time>
      </trkpt>
      <trkpt lat="46.91013" lon="9.55278">
        <ele>540</ele>
        <time>2017-10-23T16:27:29Z</time>
      </trkpt>
      <trkpt lat="46.90987" lon="9.55251">
        <ele>540</ele>
        <time>2017-10-23T16:29:29Z</time>
      </trkpt>
      <trkpt lat="46.90953" lon="9.55214">
        <ele>540</ele>
        <time>2017-10-23T16:31:29Z</time>
      </trkpt>
      <trkpt lat="46.90935" lon="9.552">
        <ele>541</ele>
        <time>2017-10-23T16:33:29Z</time>
      </trkpt>
      <trkpt lat="46.90928" lon="9.55196">
        <ele>541</ele>
        <time>2017-10-23T16:35:29Z</time>
      </trkpt>
      <trkpt lat="46.9092" lon="9.55196">
        <ele>541</ele>
        <time>2017-10-23T16:37:29Z</time>
      </trkpt>
      <trkpt lat="46.90906" lon="9.55203">
        <ele>541</ele>
        <time>2017-10-23T16:39:29Z</time>
      </trkpt>
      <trkpt lat="46.90896" lon="9.55214">
        <ele>541</ele>
        <time>2017-10-23T16:41:29Z</time>
      </trkpt>
      <trkpt lat="46.90891" lon="9.55216">
        <ele>541</ele>
        <time>2017-10-23T16:43:29Z</time>
      </trkpt>
      <trkpt lat="46.90887" lon="9.55215">
        <ele>541</ele>
        <time>2017-10-23T16:45:29Z</time>
      </trkpt>
      <trkpt lat="46.90882" lon="9.55213">
        <ele>541</ele>
        <time>2017-10-23T16:47:29Z</time>
      </trkpt>
      <trkpt lat="46.90874" lon="9.55207">
        <ele>541</ele>
        <time>2017-10-23T16:49:29Z</time>
      </trkpt>
      <trkpt lat="46.90853" lon="9.55181">
        <ele>541</ele>
        <time>2017-10-23T16:51:29Z</time>
      </trkpt>
      <trkpt lat="46.90846" lon="9.55169">
        <ele>541</ele>
        <time>2017-10-23T16:53:29Z</time>
      </trkpt>
      <trkpt lat="46.90837" lon="9.55155">
        <ele>541</ele>
        <time>2017-10-23T16:55:29Z</time>
      </trkpt>
      <trkpt lat="46.90828" lon="9.55144">
        <ele>541</ele>
        <time>2017-10-23T16:57:29Z</time>
      </trkpt>
      <trkpt lat="46.90817" lon="9.5513">
        <ele>541</ele>
        <time>2017-10-23T16:59:29Z</time>
      </trkpt>
      <trkpt lat="46.90808" lon="9.55117">
        <ele>541</ele>
        <time>2017-10-23T17:01:29Z</time>
      </trkpt>
      <trkpt lat="46.90794" lon="9.55094">
        <ele>541</ele>
        <time>2017-10-23T17:03:29Z</time>
      </trkpt>
      <trkpt lat="46.90789" lon="9.5508">
        <ele>541</ele>
        <time>2017-10-23T17:05:29Z</time>
      </trkpt>
      <trkpt lat="46.90789" lon="9.5508">
        <ele>541</ele>
        <time>2017-10-23T17:07:29Z</time>
      </trkpt>
      <trkpt lat="46.90794" lon="9.55066">
        <ele>541</ele>
        <time>2017-10-23T17:09:29Z</time>
      </trkpt>
      <trkpt lat="46.90799" lon="9.55046">
        <ele>541</ele>
        <time>2017-10-23T17:11:29Z</time>
      </trkpt>
      <trkpt lat="46.90804" lon="9.5502">
        <ele>541</ele>
        <time>2017-10-23T17:13:29Z</time>
      </trkpt>
      <trkpt lat="46.9081" lon="9.54992">
        <ele>541</ele>
        <time>2017-10-23T17:15:29Z</time>
      </trkpt>
      <trkpt lat="46.90813" lon="9.54978">
        <ele>542</ele>
        <time>2017-10-23T17:17:29Z</time>
      </trkpt>
      <trkpt lat="46.90814" lon="9.54968">
        <ele>542</ele>
        <time>2017-10-23T17:19:29Z</time>
      </trkpt>
      <trkpt lat="46.90814" lon="9.5496">
        <ele>542</ele>
        <time>2017-10-23T17:21:29Z</time>
      </trkpt>
      <trkpt lat="46.90814" lon="9.54953">
        <ele>542</ele>
        <time>2017-10-23T17:23:29Z</time>
      </trkpt>
      <trkpt lat="46.90813" lon="9.54947">
        <ele>542</ele>
        <time>2017-10-23T17:25:29Z</time>
      </trkpt>
      <trkpt lat="46.90811" lon="9.54942">
        <ele>542</ele>
        <time>2017-10-23T17:27:29Z</time>
      </trkpt>
      <trkpt lat="46.90807" lon="9.54933">
        <ele>542</ele>
        <time>2017-10-23T17:29:29Z</time>
      </trkpt>
      <trkpt lat="46.90788" lon="9.54909">
        <ele>542</ele>
        <time>2017-10-23T17:31:29Z</time>
      </trkpt>
      <trkpt lat="46.90765" lon="9.5488">
        <ele>541</ele>
        <time>2017-10-23T17:33:29Z</time>
      </trkpt>
      <trkpt lat="46.90743" lon="9.54855">
        <ele>541</ele>
        <time>2017-10-23T17:35:29Z</time>
      </trkpt>
      <trkpt lat="46.90712" lon="9.54816">
        <ele>542</ele>
        <time>2017-10-23T17:37:29Z</time>
      </trkpt>
      <trkpt lat="46.90689" lon="9.54785">
        <ele>543</ele>
        <time>2017-10-23T17:39:29Z</time>
      </trkpt>
      <trkpt lat="46.90673" lon="9.54761">
        <ele>544</ele>
        <time>2017-10-23T17:41:29Z</time>
      </trkpt>
      <trkpt lat="46.90647" lon="9.54721">
        <ele>545</ele>
        <time>2017-10-23T17:43:29Z</time>
      </trkpt>
      <trkpt lat="46.90624" lon="9.54685">
        <ele>546</ele>
        <time>2017-10-23T17:45:29Z</time>
      </trkpt>
      <trkpt lat="46.90581" lon="9.54618">
        <ele>546</ele>
        <time>2017-10-23T17:47:29Z</time>
      </trkpt>
      <trkpt lat="46.90544" lon="9.54559">
        <ele>544</ele>
        <time>2017-10-23T17:49:29Z</time>
      </trkpt>
      <trkpt lat="46.90517" lon="9.54516">
        <ele>542</ele>
        <time>2017-10-23T17:51:29Z</time>
      </trkpt>
      <trkpt lat="46.90475" lon="9.54448">
        <ele>541</ele>
        <time>2017-10-23T17:53:29Z</time>
      </trkpt>
      <trkpt lat="46.90457" lon="9.5442">
        <ele>542</ele>
        <time>2017-10-23T17:55:29Z</time>
      </trkpt>
      <trkpt lat="46.90446" lon="9.54404">
        <ele>541</ele>
        <time>2017-10-23T17:57:29Z</time>
      </trkpt>
      <trkpt lat="46.90435" lon="9.54391">
        <ele>541</ele>
        <time>2017-10-23T17:59:29Z</time>
      </trkpt>
      <trkpt lat="46.90425" lon="9.54383">
        <ele>541</ele>
        <time>2017-10-23T18:01:29Z</time>
      </trkpt>
      <trkpt lat="46.90415" lon="9.54377">
        <ele>541</ele>
        <time>2017-10-23T18:03:29Z</time>
      </trkpt>
      <trkpt lat="46.90383" lon="9.54363">
        <ele>542</ele>
        <time>2017-10-23T18:05:29Z</time>
      </trkpt>
      <trkpt lat="46.90333" lon="9.54343">
        <ele>543</ele>
        <time>2017-10-23T18:07:29Z</time>
      </trkpt>
      <trkpt lat="46.90297" lon="9.54327">
        <ele>543</ele>
        <time>2017-10-23T18:09:29Z</time>
      </trkpt>
      <trkpt lat="46.90265" lon="9.54315">
        <ele>543</ele>
        <time>2017-10-23T18:11:29Z</time>
      </trkpt>
      <trkpt lat="46.90226" lon="9.54297">
        <ele>543</ele>
        <time>2017-10-23T18:13:29Z</time>
      </trkpt>
      <trkpt lat="46.90195" lon="9.54282">
        <ele>543</ele>
        <time>2017-10-23T18:15:29Z</time>
      </trkpt>
      <trkpt lat="46.90085" lon="9.54234">
        <ele>543</ele>
        <time>2017-10-23T18:17:29Z</time>
      </trkpt>
      <trkpt lat="46.90017" lon="9.54204">
        <ele>540</ele>
        <time>2017-10-23T18:19:29Z</time>
      </trkpt>
      <trkpt lat="46.89962" lon="9.54181">
        <ele>541</ele>
        <time>2017-10-23T18:21:29Z</time>
      </trkpt>
      <trkpt lat="46.89868" lon="9.54136">
        <ele>544</ele>
        <time>2017-10-23T18:23:29Z</time>
      </trkpt>
      <trkpt lat="46.89859" lon="9.54131">
        <ele>544</ele>
        <time>2017-10-23T18:25:29Z</time>
      </trkpt>
      <trkpt lat="46.89857" lon="9.5413">
        <ele>544</ele>
        <time>2017-10-23T18:27:29Z</time>
      </trkpt>
      <trkpt lat="46.89854" lon="9.5413">
        <ele>544</ele>
        <time>2017-10-23T18:29:29Z</time>
      </trkpt>
      <trkpt lat="46.89852" lon="9.5413">
        <ele>544</ele>
        <time>2017-10-23T18:31:29Z</time>
      </trkpt>
      <trkpt lat="46.89849" lon="9.54132">
        <ele>545</ele>
        <time>2017-10-23T18:33:29Z</time>
      </trkpt>
      <trkpt lat="46.89845" lon="9.54134">
        <ele>545</ele>
        <time>2017-10-23T18:35:29Z</time>
      </trkpt>
      <trkpt lat="46.89841" lon="9.54138">
        <ele>545</ele>
        <time>2017-10-23T18:37:29Z</time>
      </trkpt>
      <trkpt lat="46.89838" lon="9.54141">
        <ele>546</ele>
        <time>2017-10-23T18:39:29Z</time>
      </trkpt>
      <trkpt lat="46.89836" lon="9.54143">
        <ele>546</ele>
        <time>2017-10-23T18:41:29Z</time>
      </trkpt>
      <trkpt lat="46.89833" lon="9.54144">
        <ele>546</ele>
        <time>2017-10-23T18:43:29Z</time>
      </trkpt>
      <trkpt lat="46.89828" lon="9.54145">
        <ele>546</ele>
        <time>2017-10-23T18:45:29Z</time>
      </trkpt>
      <trkpt lat="46.89824" lon="9.54145">
        <ele>546</ele>
        <time>2017-10-23T18:47:29Z</time>
      </trkpt>
      <trkpt lat="46.89815" lon="9.54145">
        <ele>547</ele>
        <time>2017-10-23T18:49:29Z</time>
      </trkpt>
      <trkpt lat="46.89794" lon="9.54147">
        <ele>548</ele>
        <time>2017-10-23T18:51:29Z</time>
      </trkpt>
      <trkpt lat="46.89788" lon="9.54149">
        <ele>548</ele>
        <time>2017-10-23T18:53:29Z</time>
      </trkpt>
      <trkpt lat="46.89764" lon="9.54155">
        <ele>549</ele>
        <time>2017-10-23T18:55:29Z</time>
      </trkpt>
      <trkpt lat="46.89757" lon="9.54157">
        <ele>549</ele>
        <time>2017-10-23T18:57:29Z</time>
      </trkpt>
      <trkpt lat="46.89733" lon="9.54164">
        <ele>549</ele>
        <time>2017-10-23T18:59:29Z</time>
      </trkpt>
      <trkpt lat="46.8972" lon="9.54168">
        <ele>549</ele>
        <time>2017-10-23T19:01:29Z</time>
      </trkpt>
      <trkpt lat="46.89709" lon="9.5417">
        <ele>548</ele>
        <time>2017-10-23T19:03:29Z</time>
      </trkpt>
      <trkpt lat="46.89698" lon="9.54168">
        <ele>548</ele>
        <time>2017-10-23T19:05:29Z</time>
      </trkpt>
      <trkpt lat="46.89685" lon="9.54164">
        <ele>548</ele>
        <time>2017-10-23T19:07:29Z</time>
      </trkpt>
      <trkpt lat="46.8967" lon="9.54156">
        <ele>547</ele>
        <time>2017-10-23T19:09:29Z</time>
      </trkpt>
      <trkpt lat="46.89648" lon="9.54143">
        <ele>547</ele>
        <time>2017-10-23T19:11:29Z</time>
      </trkpt>
      <trkpt lat="46.89626" lon="9.54128">
        <ele>547</ele>
        <time>2017-10-23T19:13:29Z</time>
      </trkpt>
      <trkpt lat="46.89585" lon="9.541">
        <ele>547</ele>
        <time>2017-10-23T19:15:29Z</time>
      </trkpt>
      <trkpt lat="46.89539" lon="9.54066">
        <ele>545</ele>
        <time>2017-10-23T19:17:29Z</time>
      </trkpt>
      <trkpt lat="46.89522" lon="9.54049">
        <ele>543</ele>
        <time>2017-10-23T19:19:29Z</time>
      </trkpt>
      <trkpt lat="46.89506" lon="9.54032">
        <ele>542</ele>
        <time>2017-10-23T19:21:29Z</time>
      </trkpt>
      <trkpt lat="46.89485" lon="9.5402">
        <ele>542</ele>
        <time>2017-10-23T19:23:29Z</time>
      </trkpt>
      <trkpt lat="46.89472" lon="9.54011">
        <ele>543</ele>
        <time>2017-10-23T19:25:29Z</time>
      </trkpt>
      <trkpt lat="46.8944" lon="9.54">
        <ele>544</ele>
        <time>2017-10-23T19:27:29Z</time>
      </trkpt>
      <trkpt lat="46.89391" lon="9.53999">
        <ele>546</ele>
        <time>2017-10-23T19:29:29Z</time>
      </trkpt>
      <trkpt lat="46.89356" lon="9.53999">
        <ele>546</ele>
        <time>2017-10-23T19:31:29Z</time>
      </trkpt>
      <trkpt lat="46.89318" lon="9.54">
        <ele>547</ele>
        <time>2017-10-23T19:33:29Z</time>
      </trkpt>
      <trkpt lat="46.89297" lon="9.53999">
        <ele>546</ele>
        <time>2017-10-23T19:35:29Z</time>
      </trkpt>
      <trkpt lat="46.89279" lon="9.53995">
        <ele>546</ele>
        <time>2017-10-23T19:37:29Z</time>
      </trkpt>
      <trkpt lat="46.89266" lon="9.53994">
        <ele>546</ele>
        <time>2017-10-23T19:39:29Z</time>
      </trkpt>
      <trkpt lat="46.89247" lon="9.53994">
        <ele>546</ele>
        <time>2017-10-23T19:41:29Z</time>
      </trkpt>
      <trkpt lat="46.89238" lon="9.53991">
        <ele>546</ele>
        <time>2017-10-23T19:43:29Z</time>
      </trkpt>
      <trkpt lat="46.89227" lon="9.53987">
        <ele>546</ele>
        <time>2017-10-23T19:45:29Z</time>
      </trkpt>
      <trkpt lat="46.89212" lon="9.5398">
        <ele>546</ele>
        <time>2017-10-23T19:47:29Z</time>
      </trkpt>
      <trkpt lat="46.89197" lon="9.53975">
        <ele>547</ele>
        <time>2017-10-23T19:49:29Z</time>
      </trkpt>
      <trkpt lat="46.89182" lon="9.5397">
        <ele>547</ele>
        <time>2017-10-23T19:51:29Z</time>
      </trkpt>
      <trkpt lat="46.89162" lon="9.5396">
        <ele>547</ele>
        <time>2017-10-23T19:53:29Z</time>
      </trkpt>
      <trkpt lat="46.89136" lon="9.53948">
        <ele>548</ele>
        <time>2017-10-23T19:55:29Z</time>
      </trkpt>
      <trkpt lat="46.89114" lon="9.53933">
        <ele>548</ele>
        <time>2017-10-23T19:57:29Z</time>
      </trkpt>
      <trkpt lat="46.89057" lon="9.53898">
        <ele>550</ele>
        <time>2017-10-23T19:59:29Z</time>
      </trkpt>
      <trkpt lat="46.89039" lon="9.53888">
        <ele>550</ele>
        <time>2017-10-23T20:01:29Z</time>
      </trkpt>
      <trkpt lat="46.89001" lon="9.53863">
        <ele>551</ele>
        <time>2017-10-23T20:03:29Z</time>
      </trkpt>
      <trkpt lat="46.88964" lon="9.53842">
        <ele>551</ele>
        <time>2017-10-23T20:05:29Z</time>
      </trkpt>
      <trkpt lat="46.88958" lon="9.53839">
        <ele>551</ele>
        <time>2017-10-23T20:07:29Z</time>
      </trkpt>
      <trkpt lat="46.88955" lon="9.53839">
        <ele>551</ele>
        <time>2017-10-23T20:09:29Z</time>
      </trkpt>
      <trkpt lat="46.88952" lon="9.53839">
        <ele>551</ele>
        <time>2017-10-23T20:11:29Z</time>
      </trkpt>
      <trkpt lat="46.8895" lon="9.53839">
        <ele>551</ele>
        <time>2017-10-23T20:13:29Z</time>
      </trkpt>
      <trkpt lat="46.88946" lon="9.53841">
        <ele>551</ele>
        <time>2017-10-23T20:15:29Z</time>
      </trkpt>
      <trkpt lat="46.88936" lon="9.53844">
        <ele>551</ele>
        <time>2017-10-23T20:17:29Z</time>
      </trkpt>
      <trkpt lat="46.88932" lon="9.53844">
        <ele>551</ele>
        <time>2017-10-23T20:19:29Z</time>
      </trkpt>
      <trkpt lat="46.88929" lon="9.53843">
        <ele>551</ele>
        <time>2017-10-23T20:21:29Z</time>
      </trkpt>
      <trkpt lat="46.88884" lon="9.53824">
        <ele>553</ele>
        <time>2017-10-23T20:23:29Z</time>
      </trkpt>
      <trkpt lat="46.88863" lon="9.53816">
        <ele>554</ele>
        <time>2017-10-23T20:25:29Z</time>
      </trkpt>
      <trkpt lat="46.88857" lon="9.53815">
        <ele>554</ele>
        <time>2017-10-23T20:27:29Z</time>
      </trkpt>
      <trkpt lat="46.88853" lon="9.53816">
        <ele>554</ele>
        <time>2017-10-23T20:29:29Z</time>
      </trkpt>
      <trkpt lat="46.88846" lon="9.5382">
        <ele>555</ele>
        <time>2017-10-23T20:31:29Z</time>
      </trkpt>
      <trkpt lat="46.88833" lon="9.53828">
        <ele>557</ele>
        <time>2017-10-23T20:33:29Z</time>
      </trkpt>
      <trkpt lat="46.88831" lon="9.53828">
        <ele>557</ele>
        <time>2017-10-23T20:35:29Z</time>
      </trkpt>
      <trkpt lat="46.88828" lon="9.53828">
        <ele>557</ele>
        <time>2017-10-23T20:37:29Z</time>
      </trkpt>
      <trkpt lat="46.88824" lon="9.53827">
        <ele>557</ele>
        <time>2017-10-23T20:39:29Z</time>
      </trkpt>
      <trkpt lat="46.88815" lon="9.53824">
        <ele>556</ele>
        <time>2017-10-23T20:41:29Z</time>
      </trkpt>
      <trkpt lat="46.8877" lon="9.53804">
        <ele>556</ele>
        <time>2017-10-23T20:43:29Z</time>
      </trkpt>
      <trkpt lat="46.88706" lon="9.53772">
        <ele>555</ele>
        <time>2017-10-23T20:45:29Z</time>
      </trkpt>
      <trkpt lat="46.88656" lon="9.53742">
        <ele>555</ele>
        <time>2017-10-23T20:47:29Z</time>
      </trkpt>
      <trkpt lat="46.88613" lon="9.53711">
        <ele>555</ele>
        <time>2017-10-23T20:49:29Z</time>
      </trkpt>
      <trkpt lat="46.88568" lon="9.53676">
        <ele>556</ele>
        <time>2017-10-23T20:51:29Z</time>
      </trkpt>
      <trkpt lat="46.88523" lon="9.5364">
        <ele>557</ele>
        <time>2017-10-23T20:53:29Z</time>
      </trkpt>
      <trkpt lat="46.8847" lon="9.536">
        <ele>557</ele>
        <time>2017-10-23T20:55:29Z</time>
      </trkpt>
      <trkpt lat="46.88412" lon="9.53559">
        <ele>558</ele>
        <time>2017-10-23T20:57:29Z</time>
      </trkpt>
      <trkpt lat="46.8835" lon="9.5352">
        <ele>559</ele>
        <time>2017-10-23T20:59:29Z</time>
      </trkpt>
      <trkpt lat="46.8828" lon="9.53481">
        <ele>559</ele>
        <time>2017-10-23T21:01:29Z</time>
      </trkpt>
      <trkpt lat="46.88243" lon="9.53461">
        <ele>559</ele>
        <time>2017-10-23T21:03:29Z</time>
      </trkpt>
      <trkpt lat="46.88205" lon="9.53442">
        <ele>560</ele>
        <time>2017-10-23T21:05:29Z</time>
      </trkpt>
      <trkpt lat="46.88149" lon="9.53417">
        <ele>560</ele>
        <time>2017-10-23T21:07:29Z</time>
      </trkpt>
      <trkpt lat="46.88104" lon="9.53399">
        <ele>561</ele>
        <time>2017-10-23T21:09:29Z</time>
      </trkpt>
      <trkpt lat="46.8806" lon="9.53384">
        <ele>561</ele>
        <time>2017-10-23T21:11:29Z</time>
      </trkpt>
      <trkpt lat="46.88028" lon="9.53372">
        <ele>561</ele>
        <time>2017-10-23T21:13:29Z</time>
      </trkpt>
      <trkpt lat="46.88013" lon="9.53365">
        <ele>560</ele>
        <time>2017-10-23T21:15:29Z</time>
      </trkpt>
      <trkpt lat="46.87998" lon="9.53357">
        <ele>560</ele>
        <time>2017-10-23T21:17:29Z</time>
      </trkpt>
      <trkpt lat="46.87976" lon="9.53349">
        <ele>560</ele>
        <time>2017-10-23T21:19:29Z</time>
      </trkpt>
      <trkpt lat="46.87955" lon="9.5334">
        <ele>559</ele>
        <time>2017-10-23T21:21:29Z</time>
      </trkpt>
      <trkpt lat="46.87929" lon="9.53334">
        <ele>559</ele>
        <time>2017-10-23T21:23:29Z</time>
      </trkpt>
      <trkpt lat="46.879" lon="9.53329">
        <ele>559</ele>
        <time>2017-10-23T21:25:29Z</time>
      </trkpt>
      <trkpt lat="46.87876" lon="9.53327">
        <ele>559</ele>
        <time>2017-10-23T21:27:29Z</time>
      </trkpt>
      <trkpt lat="46.87871" lon="9.53325">
        <ele>559</ele>
        <time>2017-10-23T21:29:29Z</time>
      </trkpt>
      <trkpt lat="46.87865" lon="9.53322">
        <ele>558</ele>
        <time>2017-10-23T21:31:29Z</time>
      </trkpt>
      <trkpt lat="46.87863" lon="9.5332">
        <ele>558</ele>
        <time>2017-10-23T21:33:29Z</time>
      </trkpt>
      <trkpt lat="46.87862" lon="9.53319">
        <ele>558</ele>
        <time>2017-10-23T21:35:29Z</time>
      </trkpt>
      <trkpt lat="46.87861" lon="9.53317">
        <ele>558</ele>
        <time>2017-10-23T21:37:29Z</time>
      </trkpt>
      <trkpt lat="46.8786" lon="9.53313">
        <ele>558</ele>
        <time>2017-10-23T21:39:29Z</time>
      </trkpt>
      <trkpt lat="46.87859" lon="9.53304">
        <ele>557</ele>
        <time>2017-10-23T21:41:29Z</time>
      </trkpt>
      <trkpt lat="46.8786" lon="9.53288">
        <ele>555</ele>
        <time>2017-10-23T21:43:29Z</time>
      </trkpt>
      <trkpt lat="46.87861" lon="9.53273">
        <ele>553</ele>
        <time>2017-10-23T21:45:29Z</time>
      </trkpt>
      <trkpt lat="46.87862" lon="9.53256">
        <ele>552</ele>
        <time>2017-10-23T21:47:29Z</time>
      </trkpt>
      <trkpt lat="46.87861" lon="9.53248">
        <ele>551</ele>
        <time>2017-10-23T21:49:29Z</time>
      </trkpt>
      <trkpt lat="46.8786" lon="9.53244">
        <ele>551</ele>
        <time>2017-10-23T21:51:29Z</time>
      </trkpt>
      <trkpt lat="46.87858" lon="9.5324">
        <ele>551</ele>
        <time>2017-10-23T21:53:29Z</time>
      </trkpt>
      <trkpt lat="46.87856" lon="9.53237">
        <ele>551</ele>
        <time>2017-10-23T21:55:29Z</time>
      </trkpt>
      <trkpt lat="46.87854" lon="9.53234">
        <ele>550</ele>
        <time>2017-10-23T21:57:29Z</time>
      </trkpt>
      <trkpt lat="46.87851" lon="9.53232">
        <ele>550</ele>
        <time>2017-10-23T21:59:29Z</time>
      </trkpt>
      <trkpt lat="46.87848" lon="9.53231">
        <ele>550</ele>
        <time>2017-10-23T22:01:29Z</time>
      </trkpt>
      <trkpt lat="46.87845" lon="9.5323">
        <ele>550</ele>
        <time>2017-10-23T22:03:29Z</time>
      </trkpt>
      <trkpt lat="46.87842" lon="9.53229">
        <ele>550</ele>
        <time>2017-10-23T22:05:29Z</time>
      </trkpt>
      <trkpt lat="46.87812" lon="9.53227">
        <ele>551</ele>
        <time>2017-10-23T22:07:29Z</time>
      </trkpt>
      <trkpt lat="46.87758" lon="9.53221">
        <ele>554</ele>
        <time>2017-10-23T22:09:29Z</time>
      </trkpt>
      <trkpt lat="46.87703" lon="9.53215">
        <ele>552</ele>
        <time>2017-10-23T22:11:29Z</time>
      </trkpt>
      <trkpt lat="46.87699" lon="9.53214">
        <ele>552</ele>
        <time>2017-10-23T22:13:29Z</time>
      </trkpt>
      <trkpt lat="46.87695" lon="9.53214">
        <ele>552</ele>
        <time>2017-10-23T22:15:29Z</time>
      </trkpt>
      <trkpt lat="46.87692" lon="9.53216">
        <ele>552</ele>
        <time>2017-10-23T22:17:29Z</time>
      </trkpt>
      <trkpt lat="46.87688" lon="9.53219">
        <ele>552</ele>
        <time>2017-10-23T22:19:29Z</time>
      </trkpt>
      <trkpt lat="46.87686" lon="9.53221">
        <ele>552</ele>
        <time>2017-10-23T22:21:29Z</time>
      </trkpt>
      <trkpt lat="46.87682" lon="9.53224">
        <ele>552</ele>
        <time>2017-10-23T22:23:29Z</time>
      </trkpt>
      <trkpt lat="46.87672" lon="9.53224">
        <ele>552</ele>
        <time>2017-10-23T22:25:29Z</time>
      </trkpt>
      <trkpt lat="46.87672" lon="9.53224">
        <ele>552</ele>
        <time>2017-10-23T22:27:29Z</time>
      </trkpt>
      <trkpt lat="46.87671" lon="9.53228">
        <ele>553</ele>
        <time>2017-10-23T22:29:29Z</time>
      </trkpt>
      <trkpt lat="46.87669" lon="9.53234">
        <ele>553</ele>
        <time>2017-10-23T22:31:29Z</time>
      </trkpt>
      <trkpt lat="46.87666" lon="9.5324">
        <ele>553</ele>
        <time>2017-10-23T22:33:29Z</time>
      </trkpt>
      <trkpt lat="46.87663" lon="9.53247">
        <ele>554</ele>
        <time>2017-10-23T22:35:29Z</time>
      </trkpt>
      <trkpt lat="46.87659" lon="9.53253">
        <ele>555</ele>
        <time>2017-10-23T22:37:29Z</time>
      </trkpt>
      <trkpt lat="46.87656" lon="9.53258">
        <ele>555</ele>
        <time>2017-10-23T22:39:29Z</time>
      </trkpt>
      <trkpt lat="46.87652" lon="9.53262">
        <ele>556</ele>
        <time>2017-10-23T22:41:29Z</time>
      </trkpt>
      <trkpt lat="46.87651" lon="9.53264">
        <ele>556</ele>
        <time>2017-10-23T22:43:29Z</time>
      </trkpt>
      <trkpt lat="46.87646" lon="9.5327">
        <ele>557</ele>
        <time>2017-10-23T22:45:29Z</time>
      </trkpt>
      <trkpt lat="46.8764" lon="9.53274">
        <ele>558</ele>
        <time>2017-10-23T22:47:29Z</time>
      </trkpt>
      <trkpt lat="46.87634" lon="9.53277">
        <ele>558</ele>
        <time>2017-10-23T22:49:29Z</time>
      </trkpt>
      <trkpt lat="46.87627" lon="9.53279">
        <ele>559</ele>
        <time>2017-10-23T22:51:29Z</time>
      </trkpt>
      <trkpt lat="46.87623" lon="9.53279">
        <ele>559</ele>
        <time>2017-10-23T22:53:29Z</time>
      </trkpt>
      <trkpt lat="46.87621" lon="9.53278">
        <ele>559</ele>
        <time>2017-10-23T22:55:29Z</time>
      </trkpt>
      <trkpt lat="46.87619" lon="9.53278">
        <ele>559</ele>
        <time>2017-10-23T22:57:29Z</time>
      </trkpt>
      <trkpt lat="46.87615" lon="9.53278">
        <ele>559</ele>
        <time>2017-10-23T22:59:29Z</time>
      </trkpt>
      <trkpt lat="46.87611" lon="9.53278">
        <ele>559</ele>
        <time>2017-10-23T23:01:29Z</time>
      </trkpt>
      <trkpt lat="46.87607" lon="9.53277">
        <ele>559</ele>
        <time>2017-10-23T23:03:29Z</time>
      </trkpt>
      <trkpt lat="46.87604" lon="9.53276">
        <ele>560</ele>
        <time>2017-10-23T23:05:29Z</time>
      </trkpt>
      <trkpt lat="46.87599" lon="9.53274">
        <ele>560</ele>
        <time>2017-10-23T23:07:29Z</time>
      </trkpt>
      <trkpt lat="46.87595" lon="9.53272">
        <ele>560</ele>
        <time>2017-10-23T23:09:29Z</time>
      </trkpt>
      <trkpt lat="46.8759" lon="9.5327">
        <ele>560</ele>
        <time>2017-10-23T23:11:29Z</time>
      </trkpt>
      <trkpt lat="46.87587" lon="9.53267">
        <ele>559</ele>
        <time>2017-10-23T23:13:29Z</time>
      </trkpt>
      <trkpt lat="46.8758" lon="9.53262">
        <ele>559</ele>
        <time>2017-10-23T23:15:29Z</time>
      </trkpt>
      <trkpt lat="46.87574" lon="9.53257">
        <ele>559</ele>
        <time>2017-10-23T23:17:29Z</time>
      </trkpt>
      <trkpt lat="46.87567" lon="9.53252">
        <ele>558</ele>
        <time>2017-10-23T23:19:29Z</time>
      </trkpt>
      <trkpt lat="46.8754" lon="9.5323">
        <ele>556</ele>
        <time>2017-10-23T23:21:29Z</time>
      </trkpt>
      <trkpt lat="46.87511" lon="9.53215">
        <ele>555</ele>
        <time>2017-10-23T23:23:29Z</time>
      </trkpt>
      <trkpt lat="46.87509" lon="9.53215">
        <ele>555</ele>
        <time>2017-10-23T23:25:29Z</time>
      </trkpt>
      <trkpt lat="46.87502" lon="9.53212">
        <ele>555</ele>
        <time>2017-10-23T23:27:29Z</time>
      </trkpt>
      <trkpt lat="46.87498" lon="9.53212">
        <ele>555</ele>
        <time>2017-10-23T23:29:29Z</time>
      </trkpt>
      <trkpt lat="46.87493" lon="9.53211">
        <ele>555</ele>
        <time>2017-10-23T23:31:29Z</time>
      </trkpt>
      <trkpt lat="46.87486" lon="9.53211">
        <ele>556</ele>
        <time>2017-10-23T23:33:29Z</time>
      </trkpt>
      <trkpt lat="46.87479" lon="9.53212">
        <ele>556</ele>
        <time>2017-10-23T23:35:29Z</time>
      </trkpt>
      <trkpt lat="46.87473" lon="9.53213">
        <ele>557</ele>
        <time>2017-10-23T23:37:29Z</time>
      </trkpt>
      <trkpt lat="46.87469" lon="9.53214">
        <ele>557</ele>
        <time>2017-10-23T23:39:29Z</time>
      </trkpt>
      <trkpt lat="46.87465" lon="9.53215">
        <ele>557</ele>
        <time>2017-10-23T23:41:29Z</time>
      </trkpt>
      <trkpt lat="46.87462" lon="9.53215">
        <ele>557</ele>
        <time>2017-10-23T23:43:29Z</time>
      </trkpt>
      <trkpt lat="46.87457" lon="9.53217">
        <ele>557</ele>
        <time>2017-10-23T23:45:29Z</time>
      </trkpt>
      <trkpt lat="46.87452" lon="9.5322">
        <ele>558</ele>
        <time>2017-10-23T23:47:29Z</time>
      </trkpt>
      <trkpt lat="46.87448" lon="9.53222">
        <ele>558</ele>
        <time>2017-10-23T23:49:29Z</time>
      </trkpt>
      <trkpt lat="46.87443" lon="9.53226">
        <ele>559</ele>
        <time>2017-10-23T23:51:29Z</time>
      </trkpt>
      <trkpt lat="46.87428" lon="9.53236">
        <ele>560</ele>
        <time>2017-10-23T23:53:29Z</time>
      </trkpt>
      <trkpt lat="46.87413" lon="9.53247">
        <ele>561</ele>
        <time>2017-10-23T23:55:29Z</time>
      </trkpt>
      <trkpt lat="46.87413" lon="9.53247">
        <ele>561</ele>
        <time>2017-10-23T23:57:29Z</time>
      </trkpt>
      <trkpt lat="46.87412" lon="9.53247">
        <ele>561</ele>
        <time>2017-10-23T23:59:29Z</time>
      </trkpt>
      <trkpt lat="46.87412" lon="9.53246">
        <ele>561</ele>
        <time>2017-10-24T00:01:29Z</time>
      </trkpt>
      <trkpt lat="46.87411" lon="9.53246">
        <ele>561</ele>
        <time>2017-10-24T00:03:29Z</time>
      </trkpt>
      <trkpt lat="46.87411" lon="9.53245">
        <ele>561</ele>
        <time>2017-10-24T00:05:29Z</time>
      </trkpt>
      <trkpt lat="46.8741" lon="9.53245">
        <ele>561</ele>
        <time>2017-10-24T00:07:29Z</time>
      </trkpt>
      <trkpt lat="46.87409" lon="9.53244">
        <ele>561</ele>
        <time>2017-10-24T00:09:29Z</time>
      </trkpt>
      <trkpt lat="46.87408" lon="9.53244">
        <ele>561</ele>
        <time>2017-10-24T00:11:29Z</time>
      </trkpt>
      <trkpt lat="46.87407" lon="9.53244">
        <ele>561</ele>
        <time>2017-10-24T00:13:29Z</time>
      </trkpt>
      <trkpt lat="46.874" lon="9.5324">
        <ele>561</ele>
        <time>2017-10-24T00:15:29Z</time>
      </trkpt>
      <trkpt lat="46.87398" lon="9.53238">
        <ele>561</ele>
        <time>2017-10-24T00:17:29Z</time>
      </trkpt>
      <trkpt lat="46.87396" lon="9.53237">
        <ele>561</ele>
        <time>2017-10-24T00:19:29Z</time>
      </trkpt>
      <trkpt lat="46.87393" lon="9.53236">
        <ele>561</ele>
        <time>2017-10-24T00:21:29Z</time>
      </trkpt>
      <trkpt lat="46.87391" lon="9.53235">
        <ele>560</ele>
        <time>2017-10-24T00:23:29Z</time>
      </trkpt>
      <trkpt lat="46.87389" lon="9.53235">
        <ele>560</ele>
        <time>2017-10-24T00:25:29Z</time>
      </trkpt>
      <trkpt lat="46.87384" lon="9.53233">
        <ele>560</ele>
        <time>2017-10-24T00:27:29Z</time>
      </trkpt>
      <trkpt lat="46.8738" lon="9.53232">
        <ele>560</ele>
        <time>2017-10-24T00:29:29Z</time>
      </trkpt>
      <trkpt lat="46.87376" lon="9.53231">
        <ele>560</ele>
        <time>2017-10-24T00:31:29Z</time>
      </trkpt>
      <trkpt lat="46.87371" lon="9.53231">
        <ele>560</ele>
        <time>2017-10-24T00:33:29Z</time>
      </trkpt>
      <trkpt lat="46.8737" lon="9.5323">
        <ele>560</ele>
        <time>2017-10-24T00:35:29Z</time>
      </trkpt>
      <trkpt lat="46.87368" lon="9.5323">
        <ele>560</ele>
        <time>2017-10-24T00:37:29Z</time>
      </trkpt>
      <trkpt lat="46.87364" lon="9.53229">
        <ele>560</ele>
        <time>2017-10-24T00:39:29Z</time>
      </trkpt>
      <trkpt lat="46.87362" lon="9.5323">
        <ele>560</ele>
        <time>2017-10-24T00:41:29Z</time>
      </trkpt>
      <trkpt lat="46.87352" lon="9.53229">
        <ele>560</ele>
        <time>2017-10-24T00:43:29Z</time>
      </trkpt>
      <trkpt lat="46.87339" lon="9.53229">
        <ele>560</ele>
        <time>2017-10-24T00:45:29Z</time>
      </trkpt>
      <trkpt lat="46.87334" lon="9.53228">
        <ele>560</ele>
        <time>2017-10-24T00:47:29Z</time>
      </trkpt>
      <trkpt lat="46.8731" lon="9.53228">
        <ele>560</ele>
        <time>2017-10-24T00:49:29Z</time>
      </trkpt>
      <trkpt lat="46.87309" lon="9.53228">
        <ele>560</ele>
        <time>2017-10-24T00:51:29Z</time>
      </trkpt>
      <trkpt lat="46.87298" lon="9.53228">
        <ele>560</ele>
        <time>2017-10-24T00:53:29Z</time>
      </trkpt>
      <trkpt lat="46.87289" lon="9.53227">
        <ele>560</ele>
        <time>2017-10-24T00:55:29Z</time>
      </trkpt>
      <trkpt lat="46.87286" lon="9.53226">
        <ele>560</ele>
        <time>2017-10-24T00:57:29Z</time>
      </trkpt>
      <trkpt lat="46.87282" lon="9.53225">
        <ele>560</ele>
        <time>2017-10-24T00:59:29Z</time>
      </trkpt>
      <trkpt lat="46.87268" lon="9.5322">
        <ele>560</ele>
        <time>2017-10-24T01:01:29Z</time>
      </trkpt>
      <trkpt lat="46.87263" lon="9.53218">
        <ele>559</ele>
        <time>2017-10-24T01:03:29Z</time>
      </trkpt>
      <trkpt lat="46.8726" lon="9.53216">
        <ele>559</ele>
        <time>2017-10-24T01:05:29Z</time>
      </trkpt>
      <trkpt lat="46.87245" lon="9.53209">
        <ele>559</ele>
        <time>2017-10-24T01:07:29Z</time>
      </trkpt>
      <trkpt lat="46.87232" lon="9.53201">
        <ele>558</ele>
        <time>2017-10-24T01:09:29Z</time>
      </trkpt>
      <trkpt lat="46.87205" lon="9.53184">
        <ele>557</ele>
        <time>2017-10-24T01:11:29Z</time>
      </trkpt>
      <trkpt lat="46.87135" lon="9.53137">
        <ele>556</ele>
        <time>2017-10-24T01:13:29Z</time>
      </trkpt>
      <trkpt lat="46.87122" lon="9.53128">
        <ele>556</ele>
        <time>2017-10-24T01:15:29Z</time>
      </trkpt>
      <trkpt lat="46.87108" lon="9.53117">
        <ele>555</ele>
        <time>2017-10-24T01:17:29Z</time>
      </trkpt>
      <trkpt lat="46.87099" lon="9.53112">
        <ele>555</ele>
        <time>2017-10-24T01:19:29Z</time>
      </trkpt>
      <trkpt lat="46.87085" lon="9.53105">
        <ele>555</ele>
        <time>2017-10-24T01:21:29Z</time>
      </trkpt>
      <trkpt lat="46.87071" lon="9.53098">
        <ele>555</ele>
        <time>2017-10-24T01:23:29Z</time>
      </trkpt>
      <trkpt lat="46.87034" lon="9.53085">
        <ele>555</ele>
        <time>2017-10-24T01:25:29Z</time>
      </trkpt>
      <trkpt lat="46.87008" lon="9.53079">
        <ele>555</ele>
        <time>2017-10-24T01:27:29Z</time>
      </trkpt>
      <trkpt lat="46.86986" lon="9.53073">
        <ele>555</ele>
        <time>2017-10-24T01:29:29Z</time>
      </trkpt>
      <trkpt lat="46.86974" lon="9.53071">
        <ele>556</ele>
        <time>2017-10-24T01:31:29Z</time>
      </trkpt>
      <trkpt lat="46.86966" lon="9.53071">
        <ele>556</ele>
        <time>2017-10-24T01:33:29Z</time>
      </trkpt>
      <trkpt lat="46.86961" lon="9.53073">
        <ele>556</ele>
        <time>2017-10-24T01:35:29Z</time>
      </trkpt>
      <trkpt lat="46.86956" lon="9.53077">
        <ele>556</ele>
        <time>2017-10-24T01:37:29Z</time>
      </trkpt>
      <trkpt lat="46.86956" lon="9.53077">
        <ele>556</ele>
        <time>2017-10-24T01:39:29Z</time>
      </trkpt>
      <trkpt lat="46.86901" lon="9.53063">
        <ele>557</ele>
        <time>2017-10-24T01:41:29Z</time>
      </trkpt>
      <trkpt lat="46.86871" lon="9.53057">
        <ele>557</ele>
        <time>2017-10-24T01:43:29Z</time>
      </trkpt>
      <trkpt lat="46.86845" lon="9.53052">
        <ele>557</ele>
        <time>2017-10-24T01:45:29Z</time>
      </trkpt>
      <trkpt lat="46.86785" lon="9.5305">
        <ele>557</ele>
        <time>2017-10-24T01:47:29Z</time>
      </trkpt>
      <trkpt lat="46.86685" lon="9.53049">
        <ele>558</ele>
        <time>2017-10-24T01:49:29Z</time>
      </trkpt>
      <trkpt lat="46.86605" lon="9.53052">
        <ele>560</ele>
        <time>2017-10-24T01:51:29Z</time>
      </trkpt>
      <trkpt lat="46.86605" lon="9.53052">
        <ele>560</ele>
        <time>2017-10-24T01:53:29Z</time>
      </trkpt>
      <trkpt lat="46.86596" lon="9.53051">
        <ele>560</ele>
        <time>2017-10-24T01:55:29Z</time>
      </trkpt>
      <trkpt lat="46.86553" lon="9.53049">
        <ele>561</ele>
        <time>2017-10-24T01:57:29Z</time>
      </trkpt>
      <trkpt lat="46.86498" lon="9.53048">
        <ele>563</ele>
        <time>2017-10-24T01:59:29Z</time>
      </trkpt>
      <trkpt lat="46.86454" lon="9.53048">
        <ele>564</ele>
        <time>2017-10-24T02:01:29Z</time>
      </trkpt>
      <trkpt lat="46.86382" lon="9.53048">
        <ele>568</ele>
        <time>2017-10-24T02:03:29Z</time>
      </trkpt>
      <trkpt lat="46.86374" lon="9.5305">
        <ele>568</ele>
        <time>2017-10-24T02:05:29Z</time>
      </trkpt>
      <trkpt lat="46.86365" lon="9.5305">
        <ele>568</ele>
        <time>2017-10-24T02:07:29Z</time>
      </trkpt>
      <trkpt lat="46.86338" lon="9.53048">
        <ele>570</ele>
        <time>2017-10-24T02:09:29Z</time>
      </trkpt>
      <trkpt lat="46.86292" lon="9.53048">
        <ele>571</ele>
        <time>2017-10-24T02:11:29Z</time>
      </trkpt>
      <trkpt lat="46.86249" lon="9.53045">
        <ele>572</ele>
        <time>2017-10-24T02:13:29Z</time>
      </trkpt>
      <trkpt lat="46.86162" lon="9.53044">
        <ele>575</ele>
        <time>2017-10-24T02:15:29Z</time>
      </trkpt>
      <trkpt lat="46.8612" lon="9.53048">
        <ele>576</ele>
        <time>2017-10-24T02:17:29Z</time>
      </trkpt>
      <trkpt lat="46.86085" lon="9.53055">
        <ele>576</ele>
        <time>2017-10-24T02:19:29Z</time>
      </trkpt>
      <trkpt lat="46.86037" lon="9.53069">
        <ele>577</ele>
        <time>2017-10-24T02:21:29Z</time>
      </trkpt>
      <trkpt lat="46.86009" lon="9.53077">
        <ele>577</ele>
        <time>2017-10-24T02:23:29Z</time>
      </trkpt>
      <trkpt lat="46.85992" lon="9.53075">
        <ele>577</ele>
        <time>2017-10-24T02:25:29Z</time>
      </trkpt>
      <trkpt lat="46.85992" lon="9.53073">
        <ele>577</ele>
        <time>2017-10-24T02:27:29Z</time>
      </trkpt>
      <trkpt lat="46.85991" lon="9.53071">
        <ele>578</ele>
        <time>2017-10-24T02:29:29Z</time>
      </trkpt>
      <trkpt lat="46.8599" lon="9.5307">
        <ele>578</ele>
        <time>2017-10-24T02:31:29Z</time>
      </trkpt>
      <trkpt lat="46.85989" lon="9.53069">
        <ele>578</ele>
        <time>2017-10-24T02:33:29Z</time>
      </trkpt>
      <trkpt lat="46.85988" lon="9.53068">
        <ele>578</ele>
        <time>2017-10-24T02:35:29Z</time>
      </trkpt>
      <trkpt lat="46.85987" lon="9.53067">
        <ele>578</ele>
        <time>2017-10-24T02:37:29Z</time>
      </trkpt>
      <trkpt lat="46.85986" lon="9.53067">
        <ele>578</ele>
        <time>2017-10-24T02:39:29Z</time>
      </trkpt>
      <trkpt lat="46.85984" lon="9.53066">
        <ele>578</ele>
        <time>2017-10-24T02:41:29Z</time>
      </trkpt>
      <trkpt lat="46.85983" lon="9.53067">
        <ele>578</ele>
        <time>2017-10-24T02:43:29Z</time>
      </trkpt>
      <trkpt lat="46.85982" lon="9.53067">
        <ele>578</ele>
        <time>2017-10-24T02:45:29Z</time>
      </trkpt>
      <trkpt lat="46.85981" lon="9.53067">
        <ele>578</ele>
        <time>2017-10-24T02:47:29Z</time>
      </trkpt>
      <trkpt lat="46.85979" lon="9.53068">
        <ele>578</ele>
        <time>2017-10-24T02:49:29Z</time>
      </trkpt>
      <trkpt lat="46.85979" lon="9.53069">
        <ele>578</ele>
        <time>2017-10-24T02:51:29Z</time>
      </trkpt>
      <trkpt lat="46.85978" lon="9.5307">
        <ele>578</ele>
        <time>2017-10-24T02:53:29Z</time>
      </trkpt>
      <trkpt lat="46.85977" lon="9.53071">
        <ele>578</ele>
        <time>2017-10-24T02:55:29Z</time>
      </trkpt>
      <trkpt lat="46.85977" lon="9.53072">
        <ele>578</ele>
        <time>2017-10-24T02:57:29Z</time>
      </trkpt>
      <trkpt lat="46.85976" lon="9.53074">
        <ele>578</ele>
        <time>2017-10-24T02:59:29Z</time>
      </trkpt>
      <trkpt lat="46.85976" lon="9.53076">
        <ele>577</ele>
        <time>2017-10-24T03:01:29Z</time>
      </trkpt>
      <trkpt lat="46.85962" lon="9.53081">
        <ele>578</ele>
        <time>2017-10-24T03:03:29Z</time>
      </trkpt>
      <trkpt lat="46.85955" lon="9.53082">
        <ele>578</ele>
        <time>2017-10-24T03:05:29Z</time>
      </trkpt>
      <trkpt lat="46.85944" lon="9.53081">
        <ele>578</ele>
        <time>2017-10-24T03:07:29Z</time>
      </trkpt>
      <trkpt lat="46.85931" lon="9.53081">
        <ele>578</ele>
        <time>2017-10-24T03:09:29Z</time>
      </trkpt>
      <trkpt lat="46.85916" lon="9.53079">
        <ele>578</ele>
        <time>2017-10-24T03:11:29Z</time>
      </trkpt>
      <trkpt lat="46.85888" lon="9.53075">
        <ele>578</ele>
        <time>2017-10-24T03:13:29Z</time>
      </trkpt>
      <trkpt lat="46.85863" lon="9.53071">
        <ele>579</ele>
        <time>2017-10-24T03:15:29Z</time>
      </trkpt>
      <trkpt lat="46.85829" lon="9.53068">
        <ele>579</ele>
        <time>2017-10-24T03:17:29Z</time>
      </trkpt>
      <trkpt lat="46.85808" lon="9.53066">
        <ele>579</ele>
        <time>2017-10-24T03:19:29Z</time>
      </trkpt>
      <trkpt lat="46.85788" lon="9.53066">
        <ele>580</ele>
        <time>2017-10-24T03:21:29Z</time>
      </trkpt>
      <trkpt lat="46.85761" lon="9.53065">
        <ele>580</ele>
        <time>2017-10-24T03:23:29Z</time>
      </trkpt>
      <trkpt lat="46.85724" lon="9.53071">
        <ele>581</ele>
        <time>2017-10-24T03:25:29Z</time>
      </trkpt>
      <trkpt lat="46.85696" lon="9.5308">
        <ele>581</ele>
        <time>2017-10-24T03:27:29Z</time>
      </trkpt>
      <trkpt lat="46.85675" lon="9.53087">
        <ele>582</ele>
        <time>2017-10-24T03:29:29Z</time>
      </trkpt>
      <trkpt lat="46.8564" lon="9.53094">
        <ele>582</ele>
        <time>2017-10-24T03:31:29Z</time>
      </trkpt>
      <trkpt lat="46.8564" lon="9.53094">
        <ele>582</ele>
        <time>2017-10-24T03:33:29Z</time>
      </trkpt>
      <trkpt lat="46.85633" lon="9.5309">
        <ele>582</ele>
        <time>2017-10-24T03:35:29Z</time>
      </trkpt>
      <trkpt lat="46.85623" lon="9.53078">
        <ele>582</ele>
        <time>2017-10-24T03:37:29Z</time>
      </trkpt>
      <trkpt lat="46.85578" lon="9.53022">
        <ele>583</ele>
        <time>2017-10-24T03:39:29Z</time>
      </trkpt>
      <trkpt lat="46.85534" lon="9.52969">
        <ele>583</ele>
        <time>2017-10-24T03:41:29Z</time>
      </trkpt>
      <trkpt lat="46.8549" lon="9.52914">
        <ele>584</ele>
        <time>2017-10-24T03:43:29Z</time>
      </trkpt>
      <trkpt lat="46.85446" lon="9.52863">
        <ele>585</ele>
        <time>2017-10-24T03:45:29Z</time>
      </trkpt>
      <trkpt lat="46.85446" lon="9.52863">
        <ele>585</ele>
        <time>2017-10-24T03:47:29Z</time>
      </trkpt>
      <trkpt lat="46.85436" lon="9.52869">
        <ele>585</ele>
        <time>2017-10-24T03:49:29Z</time>
      </trkpt>
      <trkpt lat="46.85343" lon="9.52977">
        <ele>586</ele>
        <time>2017-10-24T03:51:29Z</time>
      </trkpt>
      <trkpt lat="46.85343" lon="9.52977">
        <ele>586</ele>
        <time>2017-10-24T03:53:29Z</time>
      </trkpt>
      <trkpt lat="46.85337" lon="9.52965">
        <ele>586</ele>
        <time>2017-10-24T03:55:29Z</time>
      </trkpt>
      <trkpt lat="46.85334" lon="9.52957">
        <ele>585</ele>
        <time>2017-10-24T03:57:29Z</time>
      </trkpt>
      <trkpt lat="46.85326" lon="9.52944">
        <ele>586</ele>
        <time>2017-10-24T03:59:29Z</time>
      </trkpt>
      <trkpt lat="46.85313" lon="9.5292">
        <ele>586</ele>
        <time>2017-10-24T04:01:29Z</time>
      </trkpt>
      <trkpt lat="46.85301" lon="9.52898">
        <ele>586</ele>
        <time>2017-10-24T04:03:29Z</time>
      </trkpt>
      <trkpt lat="46.85292" lon="9.52885">
        <ele>587</ele>
        <time>2017-10-24T04:05:29Z</time>
      </trkpt>
      <trkpt lat="46.85291" lon="9.52883">
        <ele>587</ele>
        <time>2017-10-24T04:07:29Z</time>
      </trkpt>
      <trkpt lat="46.85283" lon="9.52877">
        <ele>588</ele>
        <time>2017-10-24T04:09:29Z</time>
      </trkpt>
      <trkpt lat="46.85277" lon="9.52875">
        <ele>588</ele>
        <time>2017-10-24T04:11:29Z</time>
      </trkpt>
      <trkpt lat="46.8527" lon="9.52875">
        <ele>588</ele>
        <time>2017-10-24T04:13:29Z</time>
      </trkpt>
      <trkpt lat="46.85263" lon="9.52875">
        <ele>589</ele>
        <time>2017-10-24T04:15:29Z</time>
      </trkpt>
      <trkpt lat="46.85253" lon="9.52874">
        <ele>589</ele>
        <time>2017-10-24T04:17:29Z</time>
      </trkpt>
      <trkpt lat="46.85253" lon="9.52874">
        <ele>589</ele>
        <time>2017-10-24T04:19:29Z</time>
      </trkpt>
      <trkpt lat="46.85253" lon="9.52878">
        <ele>589</ele>
        <time>2017-10-24T04:21:29Z</time>
      </trkpt>
      <trkpt lat="46.85252" lon="9.52883">
        <ele>589</ele>
        <time>2017-10-24T04:23:29Z</time>
      </trkpt>
      <trkpt lat="46.85252" lon="9.52883">
        <ele>589</ele>
        <time>2017-10-24T04:25:29Z</time>
      </trkpt>
      <trkpt lat="46.85234" lon="9.5288">
        <ele>590</ele>
        <time>2017-10-24T04:27:29Z</time>
      </trkpt>
      <trkpt lat="46.85215" lon="9.52877">
        <ele>592</ele>
        <time>2017-10-24T04:29:29Z</time>
      </trkpt>
      <trkpt lat="46.85182" lon="9.52875">
        <ele>594</ele>
        <time>2017-10-24T04:31:29Z</time>
      </trkpt>
      <trkpt lat="46.85172" lon="9.52874">
        <ele>594</ele>
        <time>2017-10-24T04:33:29Z</time>
      </trkpt>
      <trkpt lat="46.85149" lon="9.52873">
        <ele>595</ele>
        <time>2017-10-24T04:35:29Z</time>
      </trkpt>
      <trkpt lat="46.85149" lon="9.52872">
        <ele>595</ele>
        <time>2017-10-24T04:37:29Z</time>
      </trkpt>
      <trkpt lat="46.85149" lon="9.52871">
        <ele>595</ele>
        <time>2017-10-24T04:39:29Z</time>
      </trkpt>
      <trkpt lat="46.85149" lon="9.5287">
        <ele>595</ele>
        <time>2017-10-24T04:41:29Z</time>
      </trkpt>
      <trkpt lat="46.85149" lon="9.52869">
        <ele>595</ele>
        <time>2017-10-24T04:43:29Z</time>
      </trkpt>
      <trkpt lat="46.85149" lon="9.52868">
        <ele>595</ele>
        <time>2017-10-24T04:45:29Z</time>
      </trkpt>
      <trkpt lat="46.85149" lon="9.52867">
        <ele>595</ele>
        <time>2017-10-24T04:47:29Z</time>
      </trkpt>
      <trkpt lat="46.85148" lon="9.52866">
        <ele>595</ele>
        <time>2017-10-24T04:49:29Z</time>
      </trkpt>
      <trkpt lat="46.85148" lon="9.52865">
        <ele>595</ele>
        <time>2017-10-24T04:51:29Z</time>
      </trkpt>
      <trkpt lat="46.85148" lon="9.52864">
        <ele>595</ele>
        <time>2017-10-24T04:53:29Z</time>
      </trkpt>
      <trkpt lat="46.85147" lon="9.52864">
        <ele>595</ele>
        <time>2017-10-24T04:55:29Z</time>
      </trkpt>
      <trkpt lat="46.85147" lon="9.52863">
        <ele>595</ele>
        <time>2017-10-24T04:57:29Z</time>
      </trkpt>
      <trkpt lat="46.85147" lon="9.52862">
        <ele>595</ele>
        <time>2017-10-24T04:59:29Z</time>
      </trkpt>
      <trkpt lat="46.85146" lon="9.52862">
        <ele>595</ele>
        <time>2017-10-24T05:01:29Z</time>
      </trkpt>
      <trkpt lat="46.85145" lon="9.52861">
        <ele>595</ele>
        <time>2017-10-24T05:03:29Z</time>
      </trkpt>
      <trkpt lat="46.85143" lon="9.5286">
        <ele>595</ele>
        <time>2017-10-24T05:05:29Z</time>
      </trkpt>
      <trkpt lat="46.85141" lon="9.5286">
        <ele>596</ele>
        <time>2017-10-24T05:07:29Z</time>
      </trkpt>
      <trkpt lat="46.8514" lon="9.5286">
        <ele>596</ele>
        <time>2017-10-24T05:09:29Z</time>
      </trkpt>
      <trkpt lat="46.85139" lon="9.5286">
        <ele>596</ele>
        <time>2017-10-24T05:11:29Z</time>
      </trkpt>
      <trkpt lat="46.85137" lon="9.52861">
        <ele>596</ele>
        <time>2017-10-24T05:13:29Z</time>
      </trkpt>
      <trkpt lat="46.85135" lon="9.52863">
        <ele>596</ele>
        <time>2017-10-24T05:15:29Z</time>
      </trkpt>
      <trkpt lat="46.85135" lon="9.52864">
        <ele>596</ele>
        <time>2017-10-24T05:17:29Z</time>
      </trkpt>
      <trkpt lat="46.85134" lon="9.52864">
        <ele>596</ele>
        <time>2017-10-24T05:19:29Z</time>
      </trkpt>
      <trkpt lat="46.85134" lon="9.52865">
        <ele>596</ele>
        <time>2017-10-24T05:21:29Z</time>
      </trkpt>
      <trkpt lat="46.85133" lon="9.52866">
        <ele>596</ele>
        <time>2017-10-24T05:23:29Z</time>
      </trkpt>
      <trkpt lat="46.85133" lon="9.52867">
        <ele>596</ele>
        <time>2017-10-24T05:25:29Z</time>
      </trkpt>
      <trkpt lat="46.85133" lon="9.52868">
        <ele>596</ele>
        <time>2017-10-24T05:27:29Z</time>
      </trkpt>
      <trkpt lat="46.85132" lon="9.52869">
        <ele>596</ele>
        <time>2017-10-24T05:29:29Z</time>
      </trkpt>
      <trkpt lat="46.85132" lon="9.5287">
        <ele>596</ele>
        <time>2017-10-24T05:31:29Z</time>
      </trkpt>
      <trkpt lat="46.85132" lon="9.52871">
        <ele>596</ele>
        <time>2017-10-24T05:33:29Z</time>
      </trkpt>
      <trkpt lat="46.85132" lon="9.52872">
        <ele>596</ele>
        <time>2017-10-24T05:35:29Z</time>
      </trkpt>
      <trkpt lat="46.85131" lon="9.52872">
        <ele>596</ele>
        <time>2017-10-24T05:37:29Z</time>
      </trkpt>
      <trkpt lat="46.85131" lon="9.52873">
        <ele>596</ele>
        <time>2017-10-24T05:39:29Z</time>
      </trkpt>
      <trkpt lat="46.85131" lon="9.52874">
        <ele>596</ele>
        <time>2017-10-24T05:41:29Z</time>
      </trkpt>
      <trkpt lat="46.85131" lon="9.52875">
        <ele>596</ele>
        <time>2017-10-24T05:43:29Z</time>
      </trkpt>
      <trkpt lat="46.85131" lon="9.52876">
        <ele>596</ele>
        <time>2017-10-24T05:45:29Z</time>
      </trkpt>
      <trkpt lat="46.85109" lon="9.52879">
        <ele>596</ele>
        <time>2017-10-24T05:47:29Z</time>
      </trkpt>
      <trkpt lat="46.85074" lon="9.52888">
        <ele>597</ele>
        <time>2017-10-24T05:49:29Z</time>
      </trkpt>
      <trkpt lat="46.85044" lon="9.52895">
        <ele>597</ele>
        <time>2017-10-24T05:51:29Z</time>
      </trkpt>
      <trkpt lat="46.85018" lon="9.52901">
        <ele>597</ele>
        <time>2017-10-24T05:53:29Z</time>
      </trkpt>
      <trkpt lat="46.84966" lon="9.52911">
        <ele>597</ele>
        <time>2017-10-24T05:55:29Z</time>
      </trkpt>
      <trkpt lat="46.84944" lon="9.52915">
        <ele>597</ele>
        <time>2017-10-24T05:57:29Z</time>
      </trkpt>
      <trkpt lat="46.84912" lon="9.52922">
        <ele>597</ele>
        <time>2017-10-24T05:59:29Z</time>
      </trkpt>
      <trkpt lat="46.84892" lon="9.52925">
        <ele>598</ele>
        <time>2017-10-24T06:01:29Z</time>
      </trkpt>
      <trkpt lat="46.84885" lon="9.52927">
        <ele>598</ele>
        <time>2017-10-24T06:03:29Z</time>
      </trkpt>
      <trkpt lat="46.8488" lon="9.52931">
        <ele>598</ele>
        <time>2017-10-24T06:05:29Z</time>
      </trkpt>
      <trkpt lat="46.8488" lon="9.52931">
        <ele>598</ele>
        <time>2017-10-24T06:07:29Z</time>
      </trkpt>
      <trkpt lat="46.84874" lon="9.52927">
        <ele>598</ele>
        <time>2017-10-24T06:09:29Z</time>
      </trkpt>
      <trkpt lat="46.84867" lon="9.52925">
        <ele>598</ele>
        <time>2017-10-24T06:11:29Z</time>
      </trkpt>
      <trkpt lat="46.84863" lon="9.52924">
        <ele>598</ele>
        <time>2017-10-24T06:13:29Z</time>
      </trkpt>
      <trkpt lat="46.84859" lon="9.52923">
        <ele>598</ele>
        <time>2017-10-24T06:15:29Z</time>
      </trkpt>
      <trkpt lat="46.84853" lon="9.52923">
        <ele>598</ele>
        <time>2017-10-24T06:17:29Z</time>
      </trkpt>
      <trkpt lat="46.8484" lon="9.52925">
        <ele>598</ele>
        <time>2017-10-24T06:19:29Z</time>
      </trkpt>
      <trkpt lat="46.8482" lon="9.52931">
        <ele>599</ele>
        <time>2017-10-24T06:21:29Z</time>
      </trkpt>
      <trkpt lat="46.84813" lon="9.52933">
        <ele>599</ele>
        <time>2017-10-24T06:23:29Z</time>
      </trkpt>
      <trkpt lat="46.84807" lon="9.52937">
        <ele>599</ele>
        <time>2017-10-24T06:25:29Z</time>
      </trkpt>
      <trkpt lat="46.84797" lon="9.52943">
        <ele>600</ele>
        <time>2017-10-24T06:27:29Z</time>
      </trkpt>
      <trkpt lat="46.84797" lon="9.52942">
        <ele>600</ele>
        <time>2017-10-24T06:29:29Z</time>
      </trkpt>
      <trkpt lat="46.84797" lon="9.52941">
        <ele>600</ele>
        <time>2017-10-24T06:31:29Z</time>
      </trkpt>
      <trkpt lat="46.84796" lon="9.5294">
        <ele>600</ele>
        <time>2017-10-24T06:33:29Z</time>
      </trkpt>
      <trkpt lat="46.84796" lon="9.52939">
        <ele>600</ele>
        <time>2017-10-24T06:35:29Z</time>
      </trkpt>
      <trkpt lat="46.84796" lon="9.52938">
        <ele>600</ele>
        <time>2017-10-24T06:37:29Z</time>
      </trkpt>
      <trkpt lat="46.84795" lon="9.52938">
        <ele>600</ele>
        <time>2017-10-24T06:39:29Z</time>
      </trkpt>
      <trkpt lat="46.84795" lon="9.52937">
        <ele>600</ele>
        <time>2017-10-24T06:41:29Z</time>
      </trkpt>
      <trkpt lat="46.84795" lon="9.52936">
        <ele>600</ele>
        <time>2017-10-24T06:43:29Z</time>
      </trkpt>
      <trkpt lat="46.84794" lon="9.52936">
        <ele>600</ele>
        <time>2017-10-24T06:45:29Z</time>
      </trkpt>
      <trkpt lat="46.84794" lon="9.52935">
        <ele>600</ele>
        <time>2017-10-24T06:47:29Z</time>
      </trkpt>
      <trkpt lat="46.84793" lon="9.52935">
        <ele>600</ele>
        <time>2017-10-24T06:49:29Z</time>
      </trkpt>
      <trkpt lat="46.84793" lon="9.52934">
        <ele>600</ele>
        <time>2017-10-24T06:51:29Z</time>
      </trkpt>
      <trkpt lat="46.84792" lon="9.52934">
        <ele>600</ele>
        <time>2017-10-24T06:53:29Z</time>
      </trkpt>
      <trkpt lat="46.84792" lon="9.52933">
        <ele>600</ele>
        <time>2017-10-24T06:55:29Z</time>
      </trkpt>
      <trkpt lat="46.84791" lon="9.52933">
        <ele>600</ele>
        <time>2017-10-24T06:57:29Z</time>
      </trkpt>
      <trkpt lat="46.84791" lon="9.52932">
        <ele>600</ele>
        <time>2017-10-24T06:59:29Z</time>
      </trkpt>
      <trkpt lat="46.8479" lon="9.52932">
        <ele>600</ele>
        <time>2017-10-24T07:01:29Z</time>
      </trkpt>
      <trkpt lat="46.84789" lon="9.52932">
        <ele>600</ele>
        <time>2017-10-24T07:03:29Z</time>
      </trkpt>
      <trkpt lat="46.84788" lon="9.52931">
        <ele>600</ele>
        <time>2017-10-24T07:05:29Z</time>
      </trkpt>
      <trkpt lat="46.84787" lon="9.52931">
        <ele>600</ele>
        <time>2017-10-24T07:07:29Z</time>
      </trkpt>
      <trkpt lat="46.84786" lon="9.52931">
        <ele>600</ele>
        <time>2017-10-24T07:09:29Z</time>
      </trkpt>
      <trkpt lat="46.84785" lon="9.52932">
        <ele>600</ele>
        <time>2017-10-24T07:11:29Z</time>
      </trkpt>
      <trkpt lat="46.84784" lon="9.52932">
        <ele>600</ele>
        <time>2017-10-24T07:13:29Z</time>
      </trkpt>
      <trkpt lat="46.84783" lon="9.52932">
        <ele>600</ele>
        <time>2017-10-24T07:15:29Z</time>
      </trkpt>
      <trkpt lat="46.84782" lon="9.52933">
        <ele>600</ele>
        <time>2017-10-24T07:17:29Z</time>
      </trkpt>
      <trkpt lat="46.84781" lon="9.52933">
        <ele>600</ele>
        <time>2017-10-24T07:19:29Z</time>
      </trkpt>
      <trkpt lat="46.84781" lon="9.52934">
        <ele>600</ele>
        <time>2017-10-24T07:21:29Z</time>
      </trkpt>
      <trkpt lat="46.8478" lon="9.52934">
        <ele>600</ele>
        <time>2017-10-24T07:23:29Z</time>
      </trkpt>
      <trkpt lat="46.84779" lon="9.52935">
        <ele>600</ele>
        <time>2017-10-24T07:25:29Z</time>
      </trkpt>
      <trkpt lat="46.84767" lon="9.52925">
        <ele>600</ele>
        <time>2017-10-24T07:27:29Z</time>
      </trkpt>
      <trkpt lat="46.84762" lon="9.52922">
        <ele>601</ele>
        <time>2017-10-24T07:29:29Z</time>
      </trkpt>
      <trkpt lat="46.8476" lon="9.52922">
        <ele>601</ele>
        <time>2017-10-24T07:31:29Z</time>
      </trkpt>
      <trkpt lat="46.84756" lon="9.52921">
        <ele>601</ele>
        <time>2017-10-24T07:33:29Z</time>
      </trkpt>
      <trkpt lat="46.84754" lon="9.52921">
        <ele>601</ele>
        <time>2017-10-24T07:35:29Z</time>
      </trkpt>
      <trkpt lat="46.84751" lon="9.52921">
        <ele>601</ele>
        <time>2017-10-24T07:37:29Z</time>
      </trkpt>
      <trkpt lat="46.84748" lon="9.52922">
        <ele>601</ele>
        <time>2017-10-24T07:39:29Z</time>
      </trkpt>
      <trkpt lat="46.84745" lon="9.52923">
        <ele>602</ele>
        <time>2017-10-24T07:41:29Z</time>
      </trkpt>
      <trkpt lat="46.84737" lon="9.52925">
        <ele>604</ele>
        <time>2017-10-24T07:43:29Z</time>
      </trkpt>
      <trkpt lat="46.84737" lon="9.52925">
        <ele>604</ele>
        <time>2017-10-24T07:45:29Z</time>
      </trkpt>
      <trkpt lat="46.8473" lon="9.52966">
        <ele>605</ele>
        <time>2017-10-24T07:47:29Z</time>
      </trkpt>
      <trkpt lat="46.84728" lon="9.52978">
        <ele>606</ele>
        <time>2017-10-24T07:49:29Z</time>
      </trkpt>
      <trkpt lat="46.84726" lon="9.52984">
        <ele>607</ele>
        <time>2017-10-24T07:51:29Z</time>
      </trkpt>
      <trkpt lat="46.84724" lon="9.52989">
        <ele>607</ele>
        <time>2017-10-24T07:53:29Z</time>
      </trkpt>
      <trkpt lat="46.84723" lon="9.5299">
        <ele>608</ele>
        <time>2017-10-24T07:55:29Z</time>
      </trkpt>
      <trkpt lat="46.84722" lon="9.52992">
        <ele>608</ele>
        <time>2017-10-24T07:57:29Z</time>
      </trkpt>
      <trkpt lat="46.8472" lon="9.52992">
        <ele>608</ele>
        <time>2017-10-24T07:59:29Z</time>
      </trkpt>
      <trkpt lat="46.84718" lon="9.52993">
        <ele>609</ele>
        <time>2017-10-24T08:01:29Z</time>
      </trkpt>
      <trkpt lat="46.84711" lon="9.52997">
        <ele>611</ele>
        <time>2017-10-24T08:03:29Z</time>
      </trkpt>
      <trkpt lat="46.84699" lon="9.5302">
        <ele>613</ele>
        <time>2017-10-24T08:05:29Z</time>
      </trkpt>
      <trkpt lat="46.84691" lon="9.53037">
        <ele>613</ele>
        <time>2017-10-24T08:07:29Z</time>
      </trkpt>
      <trkpt lat="46.84676" lon="9.53065">
        <ele>613</ele>
        <time>2017-10-24T08:09:29Z</time>
      </trkpt>
      <trkpt lat="46.84669" lon="9.53078">
        <ele>612</ele>
        <time>2017-10-24T08:11:29Z</time>
      </trkpt>
      <trkpt lat="46.84657" lon="9.53095">
        <ele>615</ele>
        <time>2017-10-24T08:13:29Z</time>
      </trkpt>
      <trkpt lat="46.84626" lon="9.53131">
        <ele>621</ele>
        <time>2017-10-24T08:15:29Z</time>
      </trkpt>
      <trkpt lat="46.84601" lon="9.53157">
        <ele>625</ele>
        <time>2017-10-24T08:17:29Z</time>
      </trkpt>
      <trkpt lat="46.84583" lon="9.53169">
        <ele>629</ele>
        <time>2017-10-24T08:19:29Z</time>
      </trkpt>
      <trkpt lat="46.84564" lon="9.53192">
        <ele>631</ele>
        <time>2017-10-24T08:21:29Z</time>
      </trkpt>
      <trkpt lat="46.84534" lon="9.53228">
        <ele>638</ele>
        <time>2017-10-24T08:23:29Z</time>
      </trkpt>
      <trkpt lat="46.84521" lon="9.53238">
        <ele>643</ele>
        <time>2017-10-24T08:25:29Z</time>
      </trkpt>
      <trkpt lat="46.84517" lon="9.53243">
        <ele>644</ele>
        <time>2017-10-24T08:27:29Z</time>
      </trkpt>
      <trkpt lat="46.84511" lon="9.53248">
        <ele>646</ele>
        <time>2017-10-24T08:29:29Z</time>
      </trkpt>
      <trkpt lat="46.84505" lon="9.53252">
        <ele>649</ele>
        <time>2017-10-24T08:31:29Z</time>
      </trkpt>
      <trkpt lat="46.845" lon="9.53255">
        <ele>651</ele>
        <time>2017-10-24T08:33:29Z</time>
      </trkpt>
      <trkpt lat="46.84494" lon="9.53254">
        <ele>652</ele>
        <time>2017-10-24T08:35:29Z</time>
      </trkpt>
      <trkpt lat="46.8449" lon="9.53252">
        <ele>654</ele>
        <time>2017-10-24T08:37:29Z</time>
      </trkpt>
      <trkpt lat="46.84489" lon="9.53245">
        <ele>654</ele>
        <time>2017-10-24T08:39:29Z</time>
      </trkpt>
      <trkpt lat="46.84484" lon="9.53235">
        <ele>657</ele>
        <time>2017-10-24T08:41:29Z</time>
      </trkpt>
      <trkpt lat="46.84479" lon="9.53202">
        <ele>660</ele>
        <time>2017-10-24T08:43:29Z</time>
      </trkpt>
      <trkpt lat="46.84479" lon="9.53202">
        <ele>660</ele>
        <time>2017-10-24T08:45:29Z</time>
      </trkpt>
      <trkpt lat="46.84471" lon="9.53214">
        <ele>662</ele>
        <time>2017-10-24T08:47:29Z</time>
      </trkpt>
      <trkpt lat="46.84467" lon="9.53221">
        <ele>662</ele>
        <time>2017-10-24T08:49:29Z</time>
      </trkpt>
      <trkpt lat="46.84462" lon="9.53227">
        <ele>663</ele>
        <time>2017-10-24T08:51:29Z</time>
      </trkpt>
      <trkpt lat="46.84459" lon="9.5323">
        <ele>664</ele>
        <time>2017-10-24T08:53:29Z</time>
      </trkpt>
      <trkpt lat="46.84447" lon="9.5324">
        <ele>666</ele>
        <time>2017-10-24T08:55:29Z</time>
      </trkpt>
      <trkpt lat="46.84447" lon="9.5324">
        <ele>666</ele>
        <time>2017-10-24T08:57:29Z</time>
      </trkpt>
      <trkpt lat="46.84443" lon="9.53221">
        <ele>668</ele>
        <time>2017-10-24T08:59:29Z</time>
      </trkpt>
      <trkpt lat="46.8444" lon="9.53206">
        <ele>670</ele>
        <time>2017-10-24T09:01:29Z</time>
      </trkpt>
      <trkpt lat="46.84443" lon="9.53188">
        <ele>670</ele>
        <time>2017-10-24T09:03:29Z</time>
      </trkpt>
      <trkpt lat="46.84448" lon="9.53173">
        <ele>670</ele>
        <time>2017-10-24T09:05:29Z</time>
      </trkpt>
      <trkpt lat="46.84457" lon="9.5316">
        <ele>669</ele>
        <time>2017-10-24T09:07:29Z</time>
      </trkpt>
      <trkpt lat="46.84463" lon="9.53151">
        <ele>669</ele>
        <time>2017-10-24T09:09:29Z</time>
      </trkpt>
      <trkpt lat="46.84477" lon="9.53139">
        <ele>668</ele>
        <time>2017-10-24T09:11:29Z</time>
      </trkpt>
      <trkpt lat="46.84498" lon="9.53125">
        <ele>664</ele>
        <time>2017-10-24T09:13:29Z</time>
      </trkpt>
      <trkpt lat="46.84498" lon="9.53125">
        <ele>664</ele>
        <time>2017-10-24T09:15:29Z</time>
      </trkpt>
      <trkpt lat="46.84496" lon="9.53116">
        <ele>666</ele>
        <time>2017-10-24T09:17:29Z</time>
      </trkpt>
      <trkpt lat="46.84496" lon="9.53104">
        <ele>667</ele>
        <time>2017-10-24T09:19:29Z</time>
      </trkpt>
      <trkpt lat="46.845" lon="9.53067">
        <ele>669</ele>
        <time>2017-10-24T09:21:29Z</time>
      </trkpt>
      <trkpt lat="46.845" lon="9.53059">
        <ele>670</ele>
        <time>2017-10-24T09:23:29Z</time>
      </trkpt>
      <trkpt lat="46.84499" lon="9.53054">
        <ele>670</ele>
        <time>2017-10-24T09:25:29Z</time>
      </trkpt>
      <trkpt lat="46.84498" lon="9.5305">
        <ele>671</ele>
        <time>2017-10-24T09:27:29Z</time>
      </trkpt>
      <trkpt lat="46.84496" lon="9.53047">
        <ele>671</ele>
        <time>2017-10-24T09:29:29Z</time>
      </trkpt>
      <trkpt lat="46.84493" lon="9.53044">
        <ele>673</ele>
        <time>2017-10-24T09:31:29Z</time>
      </trkpt>
      <trkpt lat="46.8449" lon="9.53044">
        <ele>674</ele>
        <time>2017-10-24T09:33:29Z</time>
      </trkpt>
      <trkpt lat="46.84486" lon="9.53045">
        <ele>675</ele>
        <time>2017-10-24T09:35:29Z</time>
      </trkpt>
      <trkpt lat="46.84483" lon="9.53046">
        <ele>676</ele>
        <time>2017-10-24T09:37:29Z</time>
      </trkpt>
      <trkpt lat="46.84481" lon="9.53049">
        <ele>677</ele>
        <time>2017-10-24T09:39:29Z</time>
      </trkpt>
      <trkpt lat="46.84477" lon="9.53053">
        <ele>678</ele>
        <time>2017-10-24T09:41:29Z</time>
      </trkpt>
      <trkpt lat="46.84471" lon="9.53067">
        <ele>679</ele>
        <time>2017-10-24T09:43:29Z</time>
      </trkpt>
      <trkpt lat="46.84466" lon="9.53078">
        <ele>680</ele>
        <time>2017-10-24T09:45:29Z</time>
      </trkpt>
      <trkpt lat="46.8446" lon="9.53088">
        <ele>680</ele>
        <time>2017-10-24T09:47:29Z</time>
      </trkpt>
      <trkpt lat="46.84454" lon="9.53095">
        <ele>681</ele>
        <time>2017-10-24T09:49:29Z</time>
      </trkpt>
      <trkpt lat="46.84443" lon="9.53104">
        <ele>683</ele>
        <time>2017-10-24T09:51:29Z</time>
      </trkpt>
      <trkpt lat="46.84417" lon="9.53125">
        <ele>686</ele>
        <time>2017-10-24T09:53:29Z</time>
      </trkpt>
      <trkpt lat="46.84405" lon="9.53137">
        <ele>692</ele>
        <time>2017-10-24T09:55:29Z</time>
      </trkpt>
      <trkpt lat="46.84397" lon="9.53147">
        <ele>696</ele>
        <time>2017-10-24T09:57:29Z</time>
      </trkpt>
      <trkpt lat="46.84393" lon="9.53153">
        <ele>698</ele>
        <time>2017-10-24T09:59:29Z</time>
      </trkpt>
      <trkpt lat="46.8439" lon="9.53159">
        <ele>699</ele>
        <time>2017-10-24T10:01:29Z</time>
      </trkpt>
      <trkpt lat="46.84384" lon="9.53171">
        <ele>702</ele>
        <time>2017-10-24T10:03:29Z</time>
      </trkpt>
      <trkpt lat="46.84377" lon="9.5319">
        <ele>705</ele>
        <time>2017-10-24T10:05:29Z</time>
      </trkpt>
      <trkpt lat="46.84372" lon="9.53209">
        <ele>706</ele>
        <time>2017-10-24T10:07:29Z</time>
      </trkpt>
      <trkpt lat="46.84358" lon="9.53255">
        <ele>709</ele>
        <time>2017-10-24T10:09:29Z</time>
      </trkpt>
      <trkpt lat="46.84337" lon="9.53321">
        <ele>707</ele>
        <time>2017-10-24T10:11:29Z</time>
      </trkpt>
      <trkpt lat="46.84321" lon="9.53368">
        <ele>709</ele>
        <time>2017-10-24T10:13:29Z</time>
      </trkpt>
      <trkpt lat="46.84315" lon="9.53382">
        <ele>710</ele>
        <time>2017-10-24T10:15:29Z</time>
      </trkpt>
      <trkpt lat="46.84303" lon="9.53405">
        <ele>714</ele>
        <time>2017-10-24T10:17:29Z</time>
      </trkpt>
      <trkpt lat="46.84278" lon="9.53456">
        <ele>719</ele>
        <time>2017-10-24T10:19:29Z</time>
      </trkpt>
      <trkpt lat="46.84242" lon="9.53523">
        <ele>722</ele>
        <time>2017-10-24T10:21:29Z</time>
      </trkpt>
      <trkpt lat="46.84227" lon="9.53543">
        <ele>725</ele>
        <time>2017-10-24T10:23:29Z</time>
      </trkpt>
      <trkpt lat="46.84216" lon="9.53559">
        <ele>726</ele>
        <time>2017-10-24T10:25:29Z</time>
      </trkpt>
      <trkpt lat="46.84197" lon="9.53584">
        <ele>730</ele>
        <time>2017-10-24T10:27:29Z</time>
      </trkpt>
      <trkpt lat="46.84186" lon="9.53596">
        <ele>732</ele>
        <time>2017-10-24T10:29:29Z</time>
      </trkpt>
      <trkpt lat="46.84179" lon="9.53602">
        <ele>734</ele>
        <time>2017-10-24T10:31:29Z</time>
      </trkpt>
      <trkpt lat="46.84169" lon="9.53609">
        <ele>736</ele>
        <time>2017-10-24T10:33:29Z</time>
      </trkpt>
      <trkpt lat="46.8415" lon="9.53619">
        <ele>741</ele>
        <time>2017-10-24T10:35:29Z</time>
      </trkpt>
      <trkpt lat="46.84139" lon="9.53627">
        <ele>743</ele>
        <time>2017-10-24T10:37:29Z</time>
      </trkpt>
      <trkpt lat="46.84131" lon="9.53634">
        <ele>744</ele>
        <time>2017-10-24T10:39:29Z</time>
      </trkpt>
      <trkpt lat="46.8412" lon="9.53647">
        <ele>745</ele>
        <time>2017-10-24T10:41:29Z</time>
      </trkpt>
      <trkpt lat="46.8407" lon="9.53713">
        <ele>748</ele>
        <time>2017-10-24T10:43:29Z</time>
      </trkpt>
      <trkpt lat="46.84064" lon="9.53721">
        <ele>749</ele>
        <time>2017-10-24T10:45:29Z</time>
      </trkpt>
      <trkpt lat="46.84058" lon="9.53737">
        <ele>749</ele>
        <time>2017-10-24T10:47:29Z</time>
      </trkpt>
      <trkpt lat="46.84052" lon="9.53756">
        <ele>748</ele>
        <time>2017-10-24T10:49:29Z</time>
      </trkpt>
      <trkpt lat="46.84046" lon="9.53782">
        <ele>749</ele>
        <time>2017-10-24T10:51:29Z</time>
      </trkpt>
      <trkpt lat="46.8404" lon="9.53801">
        <ele>750</ele>
        <time>2017-10-24T10:53:29Z</time>
      </trkpt>
      <trkpt lat="46.84023" lon="9.53849">
        <ele>751</ele>
        <time>2017-10-24T10:55:29Z</time>
      </trkpt>
      <trkpt lat="46.84006" lon="9.53896">
        <ele>748</ele>
        <time>2017-10-24T10:57:29Z</time>
      </trkpt>
      <trkpt lat="46.84002" lon="9.539">
        <ele>748</ele>
        <time>2017-10-24T10:59:29Z</time>
      </trkpt>
      <trkpt lat="46.83999" lon="9.53902">
        <ele>749</ele>
        <time>2017-10-24T11:01:29Z</time>
      </trkpt>
      <trkpt lat="46.83997" lon="9.53903">
        <ele>749</ele>
        <time>2017-10-24T11:03:29Z</time>
      </trkpt>
      <trkpt lat="46.83995" lon="9.53903">
        <ele>750</ele>
        <time>2017-10-24T11:05:29Z</time>
      </trkpt>
      <trkpt lat="46.83994" lon="9.53902">
        <ele>750</ele>
        <time>2017-10-24T11:07:29Z</time>
      </trkpt>
      <trkpt lat="46.83991" lon="9.539">
        <ele>752</ele>
        <time>2017-10-24T11:09:29Z</time>
      </trkpt>
      <trkpt lat="46.83991" lon="9.539">
        <ele>752</ele>
        <time>2017-10-24T11:11:29Z</time>
      </trkpt>
      <trkpt lat="46.8399" lon="9.53899">
        <ele>753</ele>
        <time>2017-10-24T11:13:29Z</time>
      </trkpt>
      <trkpt lat="46.83989" lon="9.53896">
        <ele>754</ele>
        <time>2017-10-24T11:15:29Z</time>
      </trkpt>
      <trkpt lat="46.83988" lon="9.53894">
        <ele>754</ele>
        <time>2017-10-24T11:17:29Z</time>
      </trkpt>
      <trkpt lat="46.83988" lon="9.5389">
        <ele>755</ele>
        <time>2017-10-24T11:19:29Z</time>
      </trkpt>
      <trkpt lat="46.83988" lon="9.53885">
        <ele>757</ele>
        <time>2017-10-24T11:21:29Z</time>
      </trkpt>
      <trkpt lat="46.83989" lon="9.53881">
        <ele>757</ele>
        <time>2017-10-24T11:23:29Z</time>
      </trkpt>
      <trkpt lat="46.83989" lon="9.53878">
        <ele>758</ele>
        <time>2017-10-24T11:25:29Z</time>
      </trkpt>
      <trkpt lat="46.83993" lon="9.53869">
        <ele>759</ele>
        <time>2017-10-24T11:27:29Z</time>
      </trkpt>
      <trkpt lat="46.83997" lon="9.53859">
        <ele>759</ele>
        <time>2017-10-24T11:29:29Z</time>
      </trkpt>
      <trkpt lat="46.84" lon="9.5385">
        <ele>760</ele>
        <time>2017-10-24T11:31:29Z</time>
      </trkpt>
      <trkpt lat="46.84003" lon="9.5383">
        <ele>763</ele>
        <time>2017-10-24T11:33:29Z</time>
      </trkpt>
      <trkpt lat="46.84004" lon="9.53816">
        <ele>765</ele>
        <time>2017-10-24T11:35:29Z</time>
      </trkpt>
      <trkpt lat="46.84006" lon="9.53781">
        <ele>771</ele>
        <time>2017-10-24T11:37:29Z</time>
      </trkpt>
      <trkpt lat="46.84006" lon="9.53756">
        <ele>775</ele>
        <time>2017-10-24T11:39:29Z</time>
      </trkpt>
      <trkpt lat="46.84004" lon="9.53718">
        <ele>784</ele>
        <time>2017-10-24T11:41:29Z</time>
      </trkpt>
      <trkpt lat="46.84003" lon="9.53687">
        <ele>790</ele>
        <time>2017-10-24T11:43:29Z</time>
      </trkpt>
      <trkpt lat="46.84003" lon="9.53671">
        <ele>793</ele>
        <time>2017-10-24T11:45:29Z</time>
      </trkpt>
      <trkpt lat="46.84004" lon="9.53655">
        <ele>796</ele>
        <time>2017-10-24T11:47:29Z</time>
      </trkpt>
      <trkpt lat="46.84009" lon="9.53633">
        <ele>798</ele>
        <time>2017-10-24T11:49:29Z</time>
      </trkpt>
      <trkpt lat="46.8402" lon="9.53608">
        <ele>799</ele>
        <time>2017-10-24T11:51:29Z</time>
      </trkpt>
      <trkpt lat="46.84031" lon="9.53585">
        <ele>800</ele>
        <time>2017-10-24T11:53:29Z</time>
      </trkpt>
      <trkpt lat="46.84048" lon="9.53554">
        <ele>801</ele>
        <time>2017-10-24T11:55:29Z</time>
      </trkpt>
      <trkpt lat="46.84075" lon="9.5352">
        <ele>799</ele>
        <time>2017-10-24T11:57:29Z</time>
      </trkpt>
      <trkpt lat="46.84087" lon="9.535">
        <ele>799</ele>
        <time>2017-10-24T11:59:29Z</time>
      </trkpt>
      <trkpt lat="46.84095" lon="9.53482">
        <ele>802</ele>
        <time>2017-10-24T12:01:29Z</time>
      </trkpt>
      <trkpt lat="46.84104" lon="9.53463">
        <ele>804</ele>
        <time>2017-10-24T12:03:29Z</time>
      </trkpt>
      <trkpt lat="46.84108" lon="9.53455">
        <ele>805</ele>
        <time>2017-10-24T12:05:29Z</time>
      </trkpt>
      <trkpt lat="46.84115" lon="9.53443">
        <ele>805</ele>
        <time>2017-10-24T12:07:29Z</time>
      </trkpt>
      <trkpt lat="46.8412" lon="9.53439">
        <ele>804</ele>
        <time>2017-10-24T12:09:29Z</time>
      </trkpt>
      <trkpt lat="46.84135" lon="9.53427">
        <ele>801</ele>
        <time>2017-10-24T12:11:29Z</time>
      </trkpt>
      <trkpt lat="46.84137" lon="9.53425">
        <ele>801</ele>
        <time>2017-10-24T12:13:29Z</time>
      </trkpt>
      <trkpt lat="46.84138" lon="9.53422">
        <ele>801</ele>
        <time>2017-10-24T12:15:29Z</time>
      </trkpt>
      <trkpt lat="46.84139" lon="9.5342">
        <ele>801</ele>
        <time>2017-10-24T12:17:29Z</time>
      </trkpt>
      <trkpt lat="46.84139" lon="9.53416">
        <ele>803</ele>
        <time>2017-10-24T12:19:29Z</time>
      </trkpt>
      <trkpt lat="46.84139" lon="9.53414">
        <ele>803</ele>
        <time>2017-10-24T12:21:29Z</time>
      </trkpt>
      <trkpt lat="46.84139" lon="9.53411">
        <ele>804</ele>
        <time>2017-10-24T12:23:29Z</time>
      </trkpt>
      <trkpt lat="46.84138" lon="9.53409">
        <ele>805</ele>
        <time>2017-10-24T12:25:29Z</time>
      </trkpt>
      <trkpt lat="46.84137" lon="9.53406">
        <ele>807</ele>
        <time>2017-10-24T12:27:29Z</time>
      </trkpt>
      <trkpt lat="46.84135" lon="9.53403">
        <ele>809</ele>
        <time>2017-10-24T12:29:29Z</time>
      </trkpt>
      <trkpt lat="46.84128" lon="9.53405">
        <ele>812</ele>
        <time>2017-10-24T12:31:29Z</time>
      </trkpt>
      <trkpt lat="46.84117" lon="9.53415">
        <ele>813</ele>
        <time>2017-10-24T12:33:29Z</time>
      </trkpt>
      <trkpt lat="46.84095" lon="9.53439">
        <ele>816</ele>
        <time>2017-10-24T12:35:29Z</time>
      </trkpt>
      <trkpt lat="46.84077" lon="9.53463">
        <ele>816</ele>
        <time>2017-10-24T12:37:29Z</time>
      </trkpt>
      <trkpt lat="46.84065" lon="9.53479">
        <ele>816</ele>
        <time>2017-10-24T12:39:29Z</time>
      </trkpt>
      <trkpt lat="46.8404" lon="9.53504">
        <ele>819</ele>
        <time>2017-10-24T12:41:29Z</time>
      </trkpt>
      <trkpt lat="46.83991" lon="9.5354">
        <ele>830</ele>
        <time>2017-10-24T12:43:29Z</time>
      </trkpt>
      <trkpt lat="46.83963" lon="9.53561">
        <ele>838</ele>
        <time>2017-10-24T12:45:29Z</time>
      </trkpt>
      <trkpt lat="46.83951" lon="9.53574">
        <ele>841</ele>
        <time>2017-10-24T12:47:29Z</time>
      </trkpt>
      <trkpt lat="46.83946" lon="9.53585">
        <ele>841</ele>
        <time>2017-10-24T12:49:29Z</time>
      </trkpt>
      <trkpt lat="46.83932" lon="9.53616">
        <ele>840</ele>
        <time>2017-10-24T12:51:29Z</time>
      </trkpt>
      <trkpt lat="46.83922" lon="9.53639">
        <ele>839</ele>
        <time>2017-10-24T12:53:29Z</time>
      </trkpt>
      <trkpt lat="46.8391" lon="9.53665">
        <ele>837</ele>
        <time>2017-10-24T12:55:29Z</time>
      </trkpt>
      <trkpt lat="46.83897" lon="9.53686">
        <ele>839</ele>
        <time>2017-10-24T12:57:29Z</time>
      </trkpt>
      <trkpt lat="46.83886" lon="9.537">
        <ele>841</ele>
        <time>2017-10-24T12:59:29Z</time>
      </trkpt>
      <trkpt lat="46.8387" lon="9.53719">
        <ele>842</ele>
        <time>2017-10-24T13:01:29Z</time>
      </trkpt>
      <trkpt lat="46.83835" lon="9.53745">
        <ele>848</ele>
        <time>2017-10-24T13:03:29Z</time>
      </trkpt>
      <trkpt lat="46.83718" lon="9.53816">
        <ele>853</ele>
        <time>2017-10-24T13:05:29Z</time>
      </trkpt>
      <trkpt lat="46.83677" lon="9.53842">
        <ele>848</ele>
        <time>2017-10-24T13:07:29Z</time>
      </trkpt>
      <trkpt lat="46.83665" lon="9.53845">
        <ele>848</ele>
        <time>2017-10-24T13:09:29Z</time>
      </trkpt>
      <trkpt lat="46.83655" lon="9.53845">
        <ele>850</ele>
        <time>2017-10-24T13:11:29Z</time>
      </trkpt>
      <trkpt lat="46.83648" lon="9.53842">
        <ele>851</ele>
        <time>2017-10-24T13:13:29Z</time>
      </trkpt>
      <trkpt lat="46.83632" lon="9.53835">
        <ele>855</ele>
        <time>2017-10-24T13:15:29Z</time>
      </trkpt>
      <trkpt lat="46.83617" lon="9.53831">
        <ele>858</ele>
        <time>2017-10-24T13:17:29Z</time>
      </trkpt>
      <trkpt lat="46.83609" lon="9.53832">
        <ele>859</ele>
        <time>2017-10-24T13:19:29Z</time>
      </trkpt>
      <trkpt lat="46.836" lon="9.53837">
        <ele>859</ele>
        <time>2017-10-24T13:21:29Z</time>
      </trkpt>
      <trkpt lat="46.83585" lon="9.53848">
        <ele>859</ele>
        <time>2017-10-24T13:23:29Z</time>
      </trkpt>
      <trkpt lat="46.83569" lon="9.53858">
        <ele>859</ele>
        <time>2017-10-24T13:25:29Z</time>
      </trkpt>
      <trkpt lat="46.83557" lon="9.53862">
        <ele>860</ele>
        <time>2017-10-24T13:27:29Z</time>
      </trkpt>
      <trkpt lat="46.83536" lon="9.53863">
        <ele>862</ele>
        <time>2017-10-24T13:29:29Z</time>
      </trkpt>
      <trkpt lat="46.83516" lon="9.53862">
        <ele>865</ele>
        <time>2017-10-24T13:31:29Z</time>
      </trkpt>
      <trkpt lat="46.83498" lon="9.53858">
        <ele>867</ele>
        <time>2017-10-24T13:33:29Z</time>
      </trkpt>
      <trkpt lat="46.83475" lon="9.5385">
        <ele>869</ele>
        <time>2017-10-24T13:35:29Z</time>
      </trkpt>
      <trkpt lat="46.8346" lon="9.53844">
        <ele>870</ele>
        <time>2017-10-24T13:37:29Z</time>
      </trkpt>
      <trkpt lat="46.83444" lon="9.53834">
        <ele>873</ele>
        <time>2017-10-24T13:39:29Z</time>
      </trkpt>
      <trkpt lat="46.83425" lon="9.53821">
        <ele>877</ele>
        <time>2017-10-24T13:41:29Z</time>
      </trkpt>
      <trkpt lat="46.83411" lon="9.5381">
        <ele>882</ele>
        <time>2017-10-24T13:43:29Z</time>
      </trkpt>
      <trkpt lat="46.83388" lon="9.53788">
        <ele>894</ele>
        <time>2017-10-24T13:45:29Z</time>
      </trkpt>
      <trkpt lat="46.83381" lon="9.53782">
        <ele>898</ele>
        <time>2017-10-24T13:47:29Z</time>
      </trkpt>
      <trkpt lat="46.83376" lon="9.53778">
        <ele>900</ele>
        <time>2017-10-24T13:49:29Z</time>
      </trkpt>
      <trkpt lat="46.83369" lon="9.53775">
        <ele>902</ele>
        <time>2017-10-24T13:51:29Z</time>
      </trkpt>
      <trkpt lat="46.83365" lon="9.53775">
        <ele>903</ele>
        <time>2017-10-24T13:53:29Z</time>
      </trkpt>
      <trkpt lat="46.83361" lon="9.53777">
        <ele>903</ele>
        <time>2017-10-24T13:55:29Z</time>
      </trkpt>
      <trkpt lat="46.83357" lon="9.53781">
        <ele>902</ele>
        <time>2017-10-24T13:57:29Z</time>
      </trkpt>
      <trkpt lat="46.83352" lon="9.53787">
        <ele>900</ele>
        <time>2017-10-24T13:59:29Z</time>
      </trkpt>
      <trkpt lat="46.83348" lon="9.53795">
        <ele>897</ele>
        <time>2017-10-24T14:01:29Z</time>
      </trkpt>
      <trkpt lat="46.83344" lon="9.53805">
        <ele>893</ele>
        <time>2017-10-24T14:03:29Z</time>
      </trkpt>
      <trkpt lat="46.8334" lon="9.53812">
        <ele>891</ele>
        <time>2017-10-24T14:05:29Z</time>
      </trkpt>
      <trkpt lat="46.83338" lon="9.53816">
        <ele>889</ele>
        <time>2017-10-24T14:07:29Z</time>
      </trkpt>
      <trkpt lat="46.83334" lon="9.53819">
        <ele>888</ele>
        <time>2017-10-24T14:09:29Z</time>
      </trkpt>
      <trkpt lat="46.83326" lon="9.53824">
        <ele>887</ele>
        <time>2017-10-24T14:11:29Z</time>
      </trkpt>
      <trkpt lat="46.83322" lon="9.53823">
        <ele>888</ele>
        <time>2017-10-24T14:13:29Z</time>
      </trkpt>
      <trkpt lat="46.83318" lon="9.53821">
        <ele>889</ele>
        <time>2017-10-24T14:15:29Z</time>
      </trkpt>
      <trkpt lat="46.83311" lon="9.53817">
        <ele>892</ele>
        <time>2017-10-24T14:17:29Z</time>
      </trkpt>
      <trkpt lat="46.83297" lon="9.53803">
        <ele>899</ele>
        <time>2017-10-24T14:19:29Z</time>
      </trkpt>
      <trkpt lat="46.8329" lon="9.53796">
        <ele>902</ele>
        <time>2017-10-24T14:21:29Z</time>
      </trkpt>
      <trkpt lat="46.83284" lon="9.5379">
        <ele>905</ele>
        <time>2017-10-24T14:23:29Z</time>
      </trkpt>
      <trkpt lat="46.83279" lon="9.53787">
        <ele>907</ele>
        <time>2017-10-24T14:25:29Z</time>
      </trkpt>
      <trkpt lat="46.83275" lon="9.53786">
        <ele>908</ele>
        <time>2017-10-24T14:27:29Z</time>
      </trkpt>
      <trkpt lat="46.8327" lon="9.53786">
        <ele>908</ele>
        <time>2017-10-24T14:29:29Z</time>
      </trkpt>
      <trkpt lat="46.83261" lon="9.53785">
        <ele>909</ele>
        <time>2017-10-24T14:31:29Z</time>
      </trkpt>
      <trkpt lat="46.83242" lon="9.53788">
        <ele>910</ele>
        <time>2017-10-24T14:33:29Z</time>
      </trkpt>
      <trkpt lat="46.83226" lon="9.53792">
        <ele>912</ele>
        <time>2017-10-24T14:35:29Z</time>
      </trkpt>
      <trkpt lat="46.83211" lon="9.53801">
        <ele>911</ele>
        <time>2017-10-24T14:37:29Z</time>
      </trkpt>
      <trkpt lat="46.83198" lon="9.53809">
        <ele>911</ele>
        <time>2017-10-24T14:39:29Z</time>
      </trkpt>
      <trkpt lat="46.83182" lon="9.53822">
        <ele>909</ele>
        <time>2017-10-24T14:41:29Z</time>
      </trkpt>
      <trkpt lat="46.83169" lon="9.53831">
        <ele>908</ele>
        <time>2017-10-24T14:43:29Z</time>
      </trkpt>
      <trkpt lat="46.83153" lon="9.53838">
        <ele>910</ele>
        <time>2017-10-24T14:45:29Z</time>
      </trkpt>
      <trkpt lat="46.83145" lon="9.53841">
        <ele>912</ele>
        <time>2017-10-24T14:47:29Z</time>
      </trkpt>
      <trkpt lat="46.83132" lon="9.53845">
        <ele>914</ele>
        <time>2017-10-24T14:49:29Z</time>
      </trkpt>
      <trkpt lat="46.83124" lon="9.53848">
        <ele>915</ele>
        <time>2017-10-24T14:51:29Z</time>
      </trkpt>
      <trkpt lat="46.83113" lon="9.53852">
        <ele>917</ele>
        <time>2017-10-24T14:53:29Z</time>
      </trkpt>
      <trkpt lat="46.83106" lon="9.53854">
        <ele>918</ele>
        <time>2017-10-24T14:55:29Z</time>
      </trkpt>
      <trkpt lat="46.831" lon="9.53856">
        <ele>919</ele>
        <time>2017-10-24T14:57:29Z</time>
      </trkpt>
      <trkpt lat="46.83096" lon="9.53857">
        <ele>919</ele>
        <time>2017-10-24T14:59:29Z</time>
      </trkpt>
      <trkpt lat="46.83091" lon="9.53857">
        <ele>920</ele>
        <time>2017-10-24T15:01:29Z</time>
      </trkpt>
      <trkpt lat="46.83083" lon="9.53854">
        <ele>923</ele>
        <time>2017-10-24T15:03:29Z</time>
      </trkpt>
      <trkpt lat="46.83068" lon="9.53848">
        <ele>927</ele>
        <time>2017-10-24T15:05:29Z</time>
      </trkpt>
      <trkpt lat="46.83064" lon="9.53847">
        <ele>928</ele>
        <time>2017-10-24T15:07:29Z</time>
      </trkpt>
      <trkpt lat="46.83058" lon="9.53847">
        <ele>929</ele>
        <time>2017-10-24T15:09:29Z</time>
      </trkpt>
      <trkpt lat="46.83052" lon="9.53848">
        <ele>929</ele>
        <time>2017-10-24T15:11:29Z</time>
      </trkpt>
      <trkpt lat="46.83048" lon="9.5385">
        <ele>929</ele>
        <time>2017-10-24T15:13:29Z</time>
      </trkpt>
      <trkpt lat="46.83044" lon="9.53854">
        <ele>929</ele>
        <time>2017-10-24T15:15:29Z</time>
      </trkpt>
      <trkpt lat="46.83036" lon="9.53864">
        <ele>927</ele>
        <time>2017-10-24T15:17:29Z</time>
      </trkpt>
      <trkpt lat="46.83025" lon="9.53877">
        <ele>925</ele>
        <time>2017-10-24T15:19:29Z</time>
      </trkpt>
      <trkpt lat="46.83016" lon="9.53887">
        <ele>924</ele>
        <time>2017-10-24T15:21:29Z</time>
      </trkpt>
      <trkpt lat="46.83009" lon="9.53893">
        <ele>923</ele>
        <time>2017-10-24T15:23:29Z</time>
      </trkpt>
      <trkpt lat="46.83002" lon="9.53897">
        <ele>923</ele>
        <time>2017-10-24T15:25:29Z</time>
      </trkpt>
      <trkpt lat="46.82998" lon="9.53898">
        <ele>923</ele>
        <time>2017-10-24T15:27:29Z</time>
      </trkpt>
      <trkpt lat="46.82994" lon="9.53898">
        <ele>924</ele>
        <time>2017-10-24T15:29:29Z</time>
      </trkpt>
      <trkpt lat="46.82989" lon="9.53899">
        <ele>925</ele>
        <time>2017-10-24T15:31:29Z</time>
      </trkpt>
      <trkpt lat="46.82968" lon="9.53902">
        <ele>928</ele>
        <time>2017-10-24T15:33:29Z</time>
      </trkpt>
      <trkpt lat="46.82953" lon="9.5391">
        <ele>929</ele>
        <time>2017-10-24T15:35:29Z</time>
      </trkpt>
      <trkpt lat="46.82942" lon="9.53916">
        <ele>930</ele>
        <time>2017-10-24T15:37:29Z</time>
      </trkpt>
      <trkpt lat="46.82928" lon="9.53929">
        <ele>930</ele>
        <time>2017-10-24T15:39:29Z</time>
      </trkpt>
      <trkpt lat="46.82916" lon="9.53944">
        <ele>929</ele>
        <time>2017-10-24T15:41:29Z</time>
      </trkpt>
      <trkpt lat="46.829" lon="9.53963">
        <ele>927</ele>
        <time>2017-10-24T15:43:29Z</time>
      </trkpt>
      <trkpt lat="46.82879" lon="9.53992">
        <ele>924</ele>
        <time>2017-10-24T15:45:29Z</time>
      </trkpt>
      <trkpt lat="46.82865" lon="9.54009">
        <ele>923</ele>
        <time>2017-10-24T15:47:29Z</time>
      </trkpt>
      <trkpt lat="46.82854" lon="9.5402">
        <ele>923</ele>
        <time>2017-10-24T15:49:29Z</time>
      </trkpt>
      <trkpt lat="46.82844" lon="9.54029">
        <ele>923</ele>
        <time>2017-10-24T15:51:29Z</time>
      </trkpt>
      <trkpt lat="46.82835" lon="9.54033">
        <ele>924</ele>
        <time>2017-10-24T15:53:29Z</time>
      </trkpt>
      <trkpt lat="46.82828" lon="9.54035">
        <ele>924</ele>
        <time>2017-10-24T15:55:29Z</time>
      </trkpt>
      <trkpt lat="46.82822" lon="9.54035">
        <ele>925</ele>
        <time>2017-10-24T15:57:29Z</time>
      </trkpt>
      <trkpt lat="46.82813" lon="9.54035">
        <ele>926</ele>
        <time>2017-10-24T15:59:29Z</time>
      </trkpt>
      <trkpt lat="46.82803" lon="9.54031">
        <ele>927</ele>
        <time>2017-10-24T16:01:29Z</time>
      </trkpt>
      <trkpt lat="46.82793" lon="9.54025">
        <ele>930</ele>
        <time>2017-10-24T16:03:29Z</time>
      </trkpt>
      <trkpt lat="46.82778" lon="9.54014">
        <ele>933</ele>
        <time>2017-10-24T16:05:29Z</time>
      </trkpt>
      <trkpt lat="46.82769" lon="9.54009">
        <ele>935</ele>
        <time>2017-10-24T16:07:29Z</time>
      </trkpt>
      <trkpt lat="46.82759" lon="9.54002">
        <ele>938</ele>
        <time>2017-10-24T16:09:29Z</time>
      </trkpt>
      <trkpt lat="46.82748" lon="9.53996">
        <ele>940</ele>
        <time>2017-10-24T16:11:29Z</time>
      </trkpt>
      <trkpt lat="46.82737" lon="9.5399">
        <ele>942</ele>
        <time>2017-10-24T16:13:29Z</time>
      </trkpt>
      <trkpt lat="46.82728" lon="9.53988">
        <ele>943</ele>
        <time>2017-10-24T16:15:29Z</time>
      </trkpt>
      <trkpt lat="46.82722" lon="9.53989">
        <ele>943</ele>
        <time>2017-10-24T16:17:29Z</time>
      </trkpt>
      <trkpt lat="46.82708" lon="9.5399">
        <ele>943</ele>
        <time>2017-10-24T16:19:29Z</time>
      </trkpt>
      <trkpt lat="46.82703" lon="9.53991">
        <ele>943</ele>
        <time>2017-10-24T16:21:29Z</time>
      </trkpt>
      <trkpt lat="46.82699" lon="9.5399">
        <ele>944</ele>
        <time>2017-10-24T16:23:29Z</time>
      </trkpt>
      <trkpt lat="46.82697" lon="9.5399">
        <ele>944</ele>
        <time>2017-10-24T16:25:29Z</time>
      </trkpt>
      <trkpt lat="46.82694" lon="9.53989">
        <ele>944</ele>
        <time>2017-10-24T16:27:29Z</time>
      </trkpt>
      <trkpt lat="46.82692" lon="9.53987">
        <ele>945</ele>
        <time>2017-10-24T16:29:29Z</time>
      </trkpt>
      <trkpt lat="46.82689" lon="9.53983">
        <ele>946</ele>
        <time>2017-10-24T16:31:29Z</time>
      </trkpt>
      <trkpt lat="46.82689" lon="9.53983">
        <ele>946</ele>
        <time>2017-10-24T16:33:29Z</time>
      </trkpt>
      <trkpt lat="46.82687" lon="9.5398">
        <ele>947</ele>
        <time>2017-10-24T16:35:29Z</time>
      </trkpt>
      <trkpt lat="46.82686" lon="9.53977">
        <ele>948</ele>
        <time>2017-10-24T16:37:29Z</time>
      </trkpt>
      <trkpt lat="46.82686" lon="9.53975">
        <ele>948</ele>
        <time>2017-10-24T16:39:29Z</time>
      </trkpt>
      <trkpt lat="46.82686" lon="9.53973">
        <ele>949</ele>
        <time>2017-10-24T16:41:29Z</time>
      </trkpt>
      <trkpt lat="46.82686" lon="9.5397">
        <ele>950</ele>
        <time>2017-10-24T16:43:29Z</time>
      </trkpt>
      <trkpt lat="46.82687" lon="9.53965">
        <ele>951</ele>
        <time>2017-10-24T16:45:29Z</time>
      </trkpt>
      <trkpt lat="46.82688" lon="9.53963">
        <ele>951</ele>
        <time>2017-10-24T16:47:29Z</time>
      </trkpt>
      <trkpt lat="46.82689" lon="9.53961">
        <ele>952</ele>
        <time>2017-10-24T16:49:29Z</time>
      </trkpt>
      <trkpt lat="46.82691" lon="9.53958">
        <ele>952</ele>
        <time>2017-10-24T16:51:29Z</time>
      </trkpt>
      <trkpt lat="46.82697" lon="9.53954">
        <ele>953</ele>
        <time>2017-10-24T16:53:29Z</time>
      </trkpt>
      <trkpt lat="46.82703" lon="9.53952">
        <ele>953</ele>
        <time>2017-10-24T16:55:29Z</time>
      </trkpt>
      <trkpt lat="46.82707" lon="9.53952">
        <ele>953</ele>
        <time>2017-10-24T16:57:29Z</time>
      </trkpt>
      <trkpt lat="46.8272" lon="9.53953">
        <ele>952</ele>
        <time>2017-10-24T16:59:29Z</time>
      </trkpt>
      <trkpt lat="46.82727" lon="9.53955">
        <ele>951</ele>
        <time>2017-10-24T17:01:29Z</time>
      </trkpt>
      <trkpt lat="46.8274" lon="9.53959">
        <ele>949</ele>
        <time>2017-10-24T17:03:29Z</time>
      </trkpt>
      <trkpt lat="46.8275" lon="9.53965">
        <ele>947</ele>
        <time>2017-10-24T17:05:29Z</time>
      </trkpt>
      <trkpt lat="46.8276" lon="9.53968">
        <ele>946</ele>
        <time>2017-10-24T17:07:29Z</time>
      </trkpt>
      <trkpt lat="46.82765" lon="9.53969">
        <ele>945</ele>
        <time>2017-10-24T17:09:29Z</time>
      </trkpt>
      <trkpt lat="46.8277" lon="9.53968">
        <ele>945</ele>
        <time>2017-10-24T17:11:29Z</time>
      </trkpt>
      <trkpt lat="46.82772" lon="9.53968">
        <ele>945</ele>
        <time>2017-10-24T17:13:29Z</time>
      </trkpt>
      <trkpt lat="46.82774" lon="9.53966">
        <ele>945</ele>
        <time>2017-10-24T17:15:29Z</time>
      </trkpt>
      <trkpt lat="46.82775" lon="9.53965">
        <ele>946</ele>
        <time>2017-10-24T17:17:29Z</time>
      </trkpt>
      <trkpt lat="46.82777" lon="9.53959">
        <ele>947</ele>
        <time>2017-10-24T17:19:29Z</time>
      </trkpt>
      <trkpt lat="46.82777" lon="9.53956">
        <ele>948</ele>
        <time>2017-10-24T17:21:29Z</time>
      </trkpt>
      <trkpt lat="46.82778" lon="9.53954">
        <ele>948</ele>
        <time>2017-10-24T17:23:29Z</time>
      </trkpt>
      <trkpt lat="46.82777" lon="9.5395">
        <ele>949</ele>
        <time>2017-10-24T17:25:29Z</time>
      </trkpt>
      <trkpt lat="46.82776" lon="9.53945">
        <ele>950</ele>
        <time>2017-10-24T17:27:29Z</time>
      </trkpt>
      <trkpt lat="46.82775" lon="9.53942">
        <ele>951</ele>
        <time>2017-10-24T17:29:29Z</time>
      </trkpt>
      <trkpt lat="46.82774" lon="9.53939">
        <ele>952</ele>
        <time>2017-10-24T17:31:29Z</time>
      </trkpt>
      <trkpt lat="46.82772" lon="9.53936">
        <ele>953</ele>
        <time>2017-10-24T17:33:29Z</time>
      </trkpt>
      <trkpt lat="46.82769" lon="9.53933">
        <ele>954</ele>
        <time>2017-10-24T17:35:29Z</time>
      </trkpt>
      <trkpt lat="46.82764" lon="9.5393">
        <ele>955</ele>
        <time>2017-10-24T17:37:29Z</time>
      </trkpt>
      <trkpt lat="46.82737" lon="9.53923">
        <ele>958</ele>
        <time>2017-10-24T17:39:29Z</time>
      </trkpt>
      <trkpt lat="46.82708" lon="9.53914">
        <ele>962</ele>
        <time>2017-10-24T17:41:29Z</time>
      </trkpt>
      <trkpt lat="46.82693" lon="9.53911">
        <ele>965</ele>
        <time>2017-10-24T17:43:29Z</time>
      </trkpt>
      <trkpt lat="46.82689" lon="9.53911">
        <ele>965</ele>
        <time>2017-10-24T17:45:29Z</time>
      </trkpt>
      <trkpt lat="46.82683" lon="9.53912">
        <ele>965</ele>
        <time>2017-10-24T17:47:29Z</time>
      </trkpt>
      <trkpt lat="46.82671" lon="9.53916">
        <ele>964</ele>
        <time>2017-10-24T17:49:29Z</time>
      </trkpt>
      <trkpt lat="46.82653" lon="9.53924">
        <ele>966</ele>
        <time>2017-10-24T17:51:29Z</time>
      </trkpt>
      <trkpt lat="46.8264" lon="9.5393">
        <ele>968</ele>
        <time>2017-10-24T17:53:29Z</time>
      </trkpt>
      <trkpt lat="46.82633" lon="9.53935">
        <ele>969</ele>
        <time>2017-10-24T17:55:29Z</time>
      </trkpt>
      <trkpt lat="46.82621" lon="9.53947">
        <ele>969</ele>
        <time>2017-10-24T17:57:29Z</time>
      </trkpt>
      <trkpt lat="46.82618" lon="9.53951">
        <ele>969</ele>
        <time>2017-10-24T17:59:29Z</time>
      </trkpt>
      <trkpt lat="46.82614" lon="9.53957">
        <ele>969</ele>
        <time>2017-10-24T18:01:29Z</time>
      </trkpt>
      <trkpt lat="46.8261" lon="9.53966">
        <ele>969</ele>
        <time>2017-10-24T18:03:29Z</time>
      </trkpt>
      <trkpt lat="46.82605" lon="9.5398">
        <ele>967</ele>
        <time>2017-10-24T18:05:29Z</time>
      </trkpt>
      <trkpt lat="46.82601" lon="9.53993">
        <ele>966</ele>
        <time>2017-10-24T18:07:29Z</time>
      </trkpt>
      <trkpt lat="46.82593" lon="9.54011">
        <ele>965</ele>
        <time>2017-10-24T18:09:29Z</time>
      </trkpt>
      <trkpt lat="46.82591" lon="9.54013">
        <ele>965</ele>
        <time>2017-10-24T18:11:29Z</time>
      </trkpt>
      <trkpt lat="46.8259" lon="9.54015">
        <ele>965</ele>
        <time>2017-10-24T18:13:29Z</time>
      </trkpt>
      <trkpt lat="46.82587" lon="9.54017">
        <ele>965</ele>
        <time>2017-10-24T18:15:29Z</time>
      </trkpt>
      <trkpt lat="46.82584" lon="9.54018">
        <ele>966</ele>
        <time>2017-10-24T18:17:29Z</time>
      </trkpt>
      <trkpt lat="46.82575" lon="9.54019">
        <ele>967</ele>
        <time>2017-10-24T18:19:29Z</time>
      </trkpt>
      <trkpt lat="46.82555" lon="9.54021">
        <ele>971</ele>
        <time>2017-10-24T18:21:29Z</time>
      </trkpt>
      <trkpt lat="46.82533" lon="9.54023">
        <ele>974</ele>
        <time>2017-10-24T18:23:29Z</time>
      </trkpt>
      <trkpt lat="46.82522" lon="9.54024">
        <ele>976</ele>
        <time>2017-10-24T18:25:29Z</time>
      </trkpt>
      <trkpt lat="46.82511" lon="9.54022">
        <ele>978</ele>
        <time>2017-10-24T18:27:29Z</time>
      </trkpt>
      <trkpt lat="46.82503" lon="9.54018">
        <ele>981</ele>
        <time>2017-10-24T18:29:29Z</time>
      </trkpt>
      <trkpt lat="46.82497" lon="9.54013">
        <ele>983</ele>
        <time>2017-10-24T18:31:29Z</time>
      </trkpt>
      <trkpt lat="46.8249" lon="9.54007">
        <ele>985</ele>
        <time>2017-10-24T18:33:29Z</time>
      </trkpt>
      <trkpt lat="46.82479" lon="9.53997">
        <ele>988</ele>
        <time>2017-10-24T18:35:29Z</time>
      </trkpt>
      <trkpt lat="46.82464" lon="9.53986">
        <ele>991</ele>
        <time>2017-10-24T18:37:29Z</time>
      </trkpt>
      <trkpt lat="46.82452" lon="9.53979">
        <ele>993</ele>
        <time>2017-10-24T18:39:29Z</time>
      </trkpt>
      <trkpt lat="46.82445" lon="9.53975">
        <ele>995</ele>
        <time>2017-10-24T18:41:29Z</time>
      </trkpt>
      <trkpt lat="46.82438" lon="9.53972">
        <ele>996</ele>
        <time>2017-10-24T18:43:29Z</time>
      </trkpt>
      <trkpt lat="46.82422" lon="9.5397">
        <ele>998</ele>
        <time>2017-10-24T18:45:29Z</time>
      </trkpt>
      <trkpt lat="46.82417" lon="9.53971">
        <ele>998</ele>
        <time>2017-10-24T18:47:29Z</time>
      </trkpt>
      <trkpt lat="46.82411" lon="9.53973">
        <ele>997</ele>
        <time>2017-10-24T18:49:29Z</time>
      </trkpt>
      <trkpt lat="46.82393" lon="9.53979">
        <ele>995</ele>
        <time>2017-10-24T18:51:29Z</time>
      </trkpt>
      <trkpt lat="46.82378" lon="9.53983">
        <ele>994</ele>
        <time>2017-10-24T18:53:29Z</time>
      </trkpt>
      <trkpt lat="46.8237" lon="9.53984">
        <ele>993</ele>
        <time>2017-10-24T18:55:29Z</time>
      </trkpt>
      <trkpt lat="46.82363" lon="9.53981">
        <ele>994</ele>
        <time>2017-10-24T18:57:29Z</time>
      </trkpt>
      <trkpt lat="46.82357" lon="9.5398">
        <ele>994</ele>
        <time>2017-10-24T18:59:29Z</time>
      </trkpt>
      <trkpt lat="46.82258" lon="9.53934">
        <ele>1008</ele>
        <time>2017-10-24T19:01:29Z</time>
      </trkpt>
      <trkpt lat="46.82212" lon="9.53916">
        <ele>1010</ele>
        <time>2017-10-24T19:03:29Z</time>
      </trkpt>
      <trkpt lat="46.82195" lon="9.5391">
        <ele>1010</ele>
        <time>2017-10-24T19:05:29Z</time>
      </trkpt>
      <trkpt lat="46.82182" lon="9.539">
        <ele>1011</ele>
        <time>2017-10-24T19:07:29Z</time>
      </trkpt>
      <trkpt lat="46.82174" lon="9.53892">
        <ele>1013</ele>
        <time>2017-10-24T19:09:29Z</time>
      </trkpt>
      <trkpt lat="46.82161" lon="9.5388">
        <ele>1015</ele>
        <time>2017-10-24T19:11:29Z</time>
      </trkpt>
      <trkpt lat="46.82141" lon="9.5386">
        <ele>1019</ele>
        <time>2017-10-24T19:13:29Z</time>
      </trkpt>
      <trkpt lat="46.82116" lon="9.53834">
        <ele>1024</ele>
        <time>2017-10-24T19:15:29Z</time>
      </trkpt>
      <trkpt lat="46.82103" lon="9.5382">
        <ele>1028</ele>
        <time>2017-10-24T19:17:29Z</time>
      </trkpt>
      <trkpt lat="46.8209" lon="9.53807">
        <ele>1030</ele>
        <time>2017-10-24T19:19:29Z</time>
      </trkpt>
      <trkpt lat="46.82079" lon="9.538">
        <ele>1031</ele>
        <time>2017-10-24T19:21:29Z</time>
      </trkpt>
      <trkpt lat="46.82069" lon="9.53796">
        <ele>1032</ele>
        <time>2017-10-24T19:23:29Z</time>
      </trkpt>
      <trkpt lat="46.82042" lon="9.53786">
        <ele>1033</ele>
        <time>2017-10-24T19:25:29Z</time>
      </trkpt>
      <trkpt lat="46.82012" lon="9.53777">
        <ele>1033</ele>
        <time>2017-10-24T19:27:29Z</time>
      </trkpt>
      <trkpt lat="46.82001" lon="9.53772">
        <ele>1034</ele>
        <time>2017-10-24T19:29:29Z</time>
      </trkpt>
      <trkpt lat="46.81983" lon="9.53765">
        <ele>1034</ele>
        <time>2017-10-24T19:31:29Z</time>
      </trkpt>
      <trkpt lat="46.81966" lon="9.53753">
        <ele>1036</ele>
        <time>2017-10-24T19:33:29Z</time>
      </trkpt>
      <trkpt lat="46.81953" lon="9.53743">
        <ele>1037</ele>
        <time>2017-10-24T19:35:29Z</time>
      </trkpt>
      <trkpt lat="46.81938" lon="9.53728">
        <ele>1041</ele>
        <time>2017-10-24T19:37:29Z</time>
      </trkpt>
      <trkpt lat="46.81913" lon="9.53705">
        <ele>1046</ele>
        <time>2017-10-24T19:39:29Z</time>
      </trkpt>
      <trkpt lat="46.81891" lon="9.53687">
        <ele>1051</ele>
        <time>2017-10-24T19:41:29Z</time>
      </trkpt>
      <trkpt lat="46.8187" lon="9.53671">
        <ele>1053</ele>
        <time>2017-10-24T19:43:29Z</time>
      </trkpt>
      <trkpt lat="46.81838" lon="9.53648">
        <ele>1056</ele>
        <time>2017-10-24T19:45:29Z</time>
      </trkpt>
      <trkpt lat="46.81819" lon="9.53634">
        <ele>1058</ele>
        <time>2017-10-24T19:47:29Z</time>
      </trkpt>
      <trkpt lat="46.81798" lon="9.53618">
        <ele>1060</ele>
        <time>2017-10-24T19:49:29Z</time>
      </trkpt>
      <trkpt lat="46.81791" lon="9.53613">
        <ele>1061</ele>
        <time>2017-10-24T19:51:29Z</time>
      </trkpt>
      <trkpt lat="46.81777" lon="9.53601">
        <ele>1062</ele>
        <time>2017-10-24T19:53:29Z</time>
      </trkpt>
      <trkpt lat="46.81764" lon="9.53587">
        <ele>1065</ele>
        <time>2017-10-24T19:55:29Z</time>
      </trkpt>
      <trkpt lat="46.8175" lon="9.53576">
        <ele>1066</ele>
        <time>2017-10-24T19:57:29Z</time>
      </trkpt>
      <trkpt lat="46.81708" lon="9.53548">
        <ele>1072</ele>
        <time>2017-10-24T19:59:29Z</time>
      </trkpt>
      <trkpt lat="46.81622" lon="9.53498">
        <ele>1080</ele>
        <time>2017-10-24T20:01:29Z</time>
      </trkpt>
      <trkpt lat="46.81612" lon="9.53493">
        <ele>1081</ele>
        <time>2017-10-24T20:03:29Z</time>
      </trkpt>
      <trkpt lat="46.81604" lon="9.53488">
        <ele>1082</ele>
        <time>2017-10-24T20:05:29Z</time>
      </trkpt>
      <trkpt lat="46.81557" lon="9.53463">
        <ele>1083</ele>
        <time>2017-10-24T20:07:29Z</time>
      </trkpt>
      <trkpt lat="46.81549" lon="9.53458">
        <ele>1083</ele>
        <time>2017-10-24T20:09:29Z</time>
      </trkpt>
      <trkpt lat="46.81542" lon="9.53452">
        <ele>1084</ele>
        <time>2017-10-24T20:11:29Z</time>
      </trkpt>
      <trkpt lat="46.81537" lon="9.53445">
        <ele>1084</ele>
        <time>2017-10-24T20:13:29Z</time>
      </trkpt>
      <trkpt lat="46.81531" lon="9.53436">
        <ele>1085</ele>
        <time>2017-10-24T20:15:29Z</time>
      </trkpt>
      <trkpt lat="46.81528" lon="9.53428">
        <ele>1086</ele>
        <time>2017-10-24T20:17:29Z</time>
      </trkpt>
      <trkpt lat="46.81524" lon="9.53412">
        <ele>1089</ele>
        <time>2017-10-24T20:19:29Z</time>
      </trkpt>
      <trkpt lat="46.81517" lon="9.53381">
        <ele>1094</ele>
        <time>2017-10-24T20:21:29Z</time>
      </trkpt>
      <trkpt lat="46.81507" lon="9.53329">
        <ele>1104</ele>
        <time>2017-10-24T20:23:29Z</time>
      </trkpt>
      <trkpt lat="46.81504" lon="9.53317">
        <ele>1106</ele>
        <time>2017-10-24T20:25:29Z</time>
      </trkpt>
      <trkpt lat="46.81501" lon="9.53308">
        <ele>1108</ele>
        <time>2017-10-24T20:27:29Z</time>
      </trkpt>
      <trkpt lat="46.81499" lon="9.53302">
        <ele>1110</ele>
        <time>2017-10-24T20:29:29Z</time>
      </trkpt>
      <trkpt lat="46.81497" lon="9.53298">
        <ele>1110</ele>
        <time>2017-10-24T20:31:29Z</time>
      </trkpt>
      <trkpt lat="46.81495" lon="9.53295">
        <ele>1111</ele>
        <time>2017-10-24T20:33:29Z</time>
      </trkpt>
      <trkpt lat="46.81493" lon="9.53292">
        <ele>1112</ele>
        <time>2017-10-24T20:35:29Z</time>
      </trkpt>
      <trkpt lat="46.8149" lon="9.5329">
        <ele>1112</ele>
        <time>2017-10-24T20:37:29Z</time>
      </trkpt>
      <trkpt lat="46.81486" lon="9.53288">
        <ele>1113</ele>
        <time>2017-10-24T20:39:29Z</time>
      </trkpt>
      <trkpt lat="46.81482" lon="9.53288">
        <ele>1113</ele>
        <time>2017-10-24T20:41:29Z</time>
      </trkpt>
      <trkpt lat="46.81478" lon="9.53288">
        <ele>1113</ele>
        <time>2017-10-24T20:43:29Z</time>
      </trkpt>
      <trkpt lat="46.81475" lon="9.53289">
        <ele>1112</ele>
        <time>2017-10-24T20:45:29Z</time>
      </trkpt>
      <trkpt lat="46.81468" lon="9.53293">
        <ele>1111</ele>
        <time>2017-10-24T20:47:29Z</time>
      </trkpt>
      <trkpt lat="46.81462" lon="9.53295">
        <ele>1111</ele>
        <time>2017-10-24T20:49:29Z</time>
      </trkpt>
      <trkpt lat="46.81456" lon="9.53297">
        <ele>1110</ele>
        <time>2017-10-24T20:51:29Z</time>
      </trkpt>
      <trkpt lat="46.81451" lon="9.53297">
        <ele>1110</ele>
        <time>2017-10-24T20:53:29Z</time>
      </trkpt>
      <trkpt lat="46.81444" lon="9.53297">
        <ele>1110</ele>
        <time>2017-10-24T20:55:29Z</time>
      </trkpt>
      <trkpt lat="46.81435" lon="9.53297">
        <ele>1110</ele>
        <time>2017-10-24T20:57:29Z</time>
      </trkpt>
      <trkpt lat="46.8141" lon="9.53295">
        <ele>1111</ele>
        <time>2017-10-24T20:59:29Z</time>
      </trkpt>
      <trkpt lat="46.81347" lon="9.53289">
        <ele>1116</ele>
        <time>2017-10-24T21:01:29Z</time>
      </trkpt>
      <trkpt lat="46.81306" lon="9.53286">
        <ele>1117</ele>
        <time>2017-10-24T21:03:29Z</time>
      </trkpt>
      <trkpt lat="46.81212" lon="9.53277">
        <ele>1119</ele>
        <time>2017-10-24T21:05:29Z</time>
      </trkpt>
      <trkpt lat="46.81174" lon="9.53274">
        <ele>1119</ele>
        <time>2017-10-24T21:07:29Z</time>
      </trkpt>
      <trkpt lat="46.81083" lon="9.53265">
        <ele>1120</ele>
        <time>2017-10-24T21:09:29Z</time>
      </trkpt>
      <trkpt lat="46.81051" lon="9.53263">
        <ele>1120</ele>
        <time>2017-10-24T21:11:29Z</time>
      </trkpt>
      <trkpt lat="46.81002" lon="9.53256">
        <ele>1121</ele>
        <time>2017-10-24T21:13:29Z</time>
      </trkpt>
      <trkpt lat="46.80988" lon="9.53252">
        <ele>1121</ele>
        <time>2017-10-24T21:15:29Z</time>
      </trkpt>
      <trkpt lat="46.8097" lon="9.53246">
        <ele>1121</ele>
        <time>2017-10-24T21:17:29Z</time>
      </trkpt>
      <trkpt lat="46.80926" lon="9.53229">
        <ele>1121</ele>
        <time>2017-10-24T21:19:29Z</time>
      </trkpt>
      <trkpt lat="46.8087" lon="9.53205">
        <ele>1122</ele>
        <time>2017-10-24T21:21:29Z</time>
      </trkpt>
      <trkpt lat="46.80846" lon="9.53214">
        <ele>1120</ele>
        <time>2017-10-24T21:23:29Z</time>
      </trkpt>
      <trkpt lat="46.8081" lon="9.53225">
        <ele>1119</ele>
        <time>2017-10-24T21:25:29Z</time>
      </trkpt>
      <trkpt lat="46.80783" lon="9.53234">
        <ele>1117</ele>
        <time>2017-10-24T21:27:29Z</time>
      </trkpt>
      <trkpt lat="46.80778" lon="9.53234">
        <ele>1117</ele>
        <time>2017-10-24T21:29:29Z</time>
      </trkpt>
      <trkpt lat="46.80774" lon="9.53234">
        <ele>1118</ele>
        <time>2017-10-24T21:31:29Z</time>
      </trkpt>
      <trkpt lat="46.8077" lon="9.53233">
        <ele>1118</ele>
        <time>2017-10-24T21:33:29Z</time>
      </trkpt>
      <trkpt lat="46.80764" lon="9.5323">
        <ele>1118</ele>
        <time>2017-10-24T21:35:29Z</time>
      </trkpt>
      <trkpt lat="46.80759" lon="9.53226">
        <ele>1119</ele>
        <time>2017-10-24T21:37:29Z</time>
      </trkpt>
      <trkpt lat="46.80754" lon="9.53221">
        <ele>1120</ele>
        <time>2017-10-24T21:39:29Z</time>
      </trkpt>
      <trkpt lat="46.80749" lon="9.53214">
        <ele>1121</ele>
        <time>2017-10-24T21:41:29Z</time>
      </trkpt>
      <trkpt lat="46.80744" lon="9.53206">
        <ele>1122</ele>
        <time>2017-10-24T21:43:29Z</time>
      </trkpt>
      <trkpt lat="46.80733" lon="9.53193">
        <ele>1124</ele>
        <time>2017-10-24T21:45:29Z</time>
      </trkpt>
      <trkpt lat="46.80727" lon="9.53189">
        <ele>1125</ele>
        <time>2017-10-24T21:47:29Z</time>
      </trkpt>
      <trkpt lat="46.80721" lon="9.53187">
        <ele>1125</ele>
        <time>2017-10-24T21:49:29Z</time>
      </trkpt>
      <trkpt lat="46.80718" lon="9.53186">
        <ele>1125</ele>
        <time>2017-10-24T21:51:29Z</time>
      </trkpt>
      <trkpt lat="46.80712" lon="9.53185">
        <ele>1125</ele>
        <time>2017-10-24T21:53:29Z</time>
      </trkpt>
      <trkpt lat="46.80701" lon="9.53187">
        <ele>1124</ele>
        <time>2017-10-24T21:55:29Z</time>
      </trkpt>
      <trkpt lat="46.80693" lon="9.5319">
        <ele>1123</ele>
        <time>2017-10-24T21:57:29Z</time>
      </trkpt>
      <trkpt lat="46.80688" lon="9.53193">
        <ele>1123</ele>
        <time>2017-10-24T21:59:29Z</time>
      </trkpt>
      <trkpt lat="46.80683" lon="9.53198">
        <ele>1122</ele>
        <time>2017-10-24T22:01:29Z</time>
      </trkpt>
      <trkpt lat="46.80677" lon="9.53205">
        <ele>1121</ele>
        <time>2017-10-24T22:03:29Z</time>
      </trkpt>
      <trkpt lat="46.80671" lon="9.53215">
        <ele>1119</ele>
        <time>2017-10-24T22:05:29Z</time>
      </trkpt>
      <trkpt lat="46.80659" lon="9.53239">
        <ele>1116</ele>
        <time>2017-10-24T22:07:29Z</time>
      </trkpt>
      <trkpt lat="46.80655" lon="9.53245">
        <ele>1115</ele>
        <time>2017-10-24T22:09:29Z</time>
      </trkpt>
      <trkpt lat="46.8065" lon="9.5325">
        <ele>1114</ele>
        <time>2017-10-24T22:11:29Z</time>
      </trkpt>
      <trkpt lat="46.80646" lon="9.53252">
        <ele>1114</ele>
        <time>2017-10-24T22:13:29Z</time>
      </trkpt>
      <trkpt lat="46.8064" lon="9.53254">
        <ele>1114</ele>
        <time>2017-10-24T22:15:29Z</time>
      </trkpt>
      <trkpt lat="46.80635" lon="9.53254">
        <ele>1114</ele>
        <time>2017-10-24T22:17:29Z</time>
      </trkpt>
      <trkpt lat="46.80625" lon="9.53255">
        <ele>1114</ele>
        <time>2017-10-24T22:19:29Z</time>
      </trkpt>
      <trkpt lat="46.80615" lon="9.53256">
        <ele>1114</ele>
        <time>2017-10-24T22:21:29Z</time>
      </trkpt>
      <trkpt lat="46.80611" lon="9.53254">
        <ele>1115</ele>
        <time>2017-10-24T22:23:29Z</time>
      </trkpt>
      <trkpt lat="46.80607" lon="9.53252">
        <ele>1115</ele>
        <time>2017-10-24T22:25:29Z</time>
      </trkpt>
      <trkpt lat="46.80604" lon="9.53249">
        <ele>1116</ele>
        <time>2017-10-24T22:27:29Z</time>
      </trkpt>
      <trkpt lat="46.80602" lon="9.53246">
        <ele>1116</ele>
        <time>2017-10-24T22:29:29Z</time>
      </trkpt>
      <trkpt lat="46.80587" lon="9.53215">
        <ele>1119</ele>
        <time>2017-10-24T22:31:29Z</time>
      </trkpt>
      <trkpt lat="46.80566" lon="9.53162">
        <ele>1124</ele>
        <time>2017-10-24T22:33:29Z</time>
      </trkpt>
      <trkpt lat="46.8056" lon="9.53145">
        <ele>1126</ele>
        <time>2017-10-24T22:35:29Z</time>
      </trkpt>
      <trkpt lat="46.80556" lon="9.53137">
        <ele>1127</ele>
        <time>2017-10-24T22:37:29Z</time>
      </trkpt>
      <trkpt lat="46.80554" lon="9.53132">
        <ele>1127</ele>
        <time>2017-10-24T22:39:29Z</time>
      </trkpt>
      <trkpt lat="46.8055" lon="9.53127">
        <ele>1128</ele>
        <time>2017-10-24T22:41:29Z</time>
      </trkpt>
      <trkpt lat="46.80547" lon="9.53122">
        <ele>1128</ele>
        <time>2017-10-24T22:43:29Z</time>
      </trkpt>
      <trkpt lat="46.80543" lon="9.53118">
        <ele>1129</ele>
        <time>2017-10-24T22:45:29Z</time>
      </trkpt>
      <trkpt lat="46.8054" lon="9.53116">
        <ele>1129</ele>
        <time>2017-10-24T22:47:29Z</time>
      </trkpt>
      <trkpt lat="46.80535" lon="9.53114">
        <ele>1129</ele>
        <time>2017-10-24T22:49:29Z</time>
      </trkpt>
      <trkpt lat="46.80531" lon="9.53113">
        <ele>1129</ele>
        <time>2017-10-24T22:51:29Z</time>
      </trkpt>
      <trkpt lat="46.80525" lon="9.53112">
        <ele>1129</ele>
        <time>2017-10-24T22:53:29Z</time>
      </trkpt>
      <trkpt lat="46.80521" lon="9.53112">
        <ele>1129</ele>
        <time>2017-10-24T22:55:29Z</time>
      </trkpt>
      <trkpt lat="46.80515" lon="9.53113">
        <ele>1129</ele>
        <time>2017-10-24T22:57:29Z</time>
      </trkpt>
      <trkpt lat="46.8051" lon="9.53115">
        <ele>1129</ele>
        <time>2017-10-24T22:59:29Z</time>
      </trkpt>
      <trkpt lat="46.80503" lon="9.53118">
        <ele>1129</ele>
        <time>2017-10-24T23:01:29Z</time>
      </trkpt>
      <trkpt lat="46.80497" lon="9.53124">
        <ele>1129</ele>
        <time>2017-10-24T23:03:29Z</time>
      </trkpt>
      <trkpt lat="46.80483" lon="9.53139">
        <ele>1131</ele>
        <time>2017-10-24T23:05:29Z</time>
      </trkpt>
      <trkpt lat="46.80477" lon="9.53162">
        <ele>1129</ele>
        <time>2017-10-24T23:07:29Z</time>
      </trkpt>
      <trkpt lat="46.80475" lon="9.5317">
        <ele>1129</ele>
        <time>2017-10-24T23:09:29Z</time>
      </trkpt>
      <trkpt lat="46.80473" lon="9.53174">
        <ele>1129</ele>
        <time>2017-10-24T23:11:29Z</time>
      </trkpt>
      <trkpt lat="46.80472" lon="9.53178">
        <ele>1129</ele>
        <time>2017-10-24T23:13:29Z</time>
      </trkpt>
      <trkpt lat="46.80469" lon="9.53184">
        <ele>1129</ele>
        <time>2017-10-24T23:15:29Z</time>
      </trkpt>
      <trkpt lat="46.80467" lon="9.53187">
        <ele>1129</ele>
        <time>2017-10-24T23:17:29Z</time>
      </trkpt>
      <trkpt lat="46.80463" lon="9.53191">
        <ele>1129</ele>
        <time>2017-10-24T23:19:29Z</time>
      </trkpt>
      <trkpt lat="46.80461" lon="9.53193">
        <ele>1129</ele>
        <time>2017-10-24T23:21:29Z</time>
      </trkpt>
      <trkpt lat="46.80458" lon="9.53195">
        <ele>1129</ele>
        <time>2017-10-24T23:23:29Z</time>
      </trkpt>
      <trkpt lat="46.80454" lon="9.53197">
        <ele>1129</ele>
        <time>2017-10-24T23:25:29Z</time>
      </trkpt>
      <trkpt lat="46.80448" lon="9.53198">
        <ele>1130</ele>
        <time>2017-10-24T23:27:29Z</time>
      </trkpt>
      <trkpt lat="46.80438" lon="9.53198">
        <ele>1131</ele>
        <time>2017-10-24T23:29:29Z</time>
      </trkpt>
      <trkpt lat="46.80436" lon="9.53198">
        <ele>1131</ele>
        <time>2017-10-24T23:31:29Z</time>
      </trkpt>
      <trkpt lat="46.80426" lon="9.53198">
        <ele>1132</ele>
        <time>2017-10-24T23:33:29Z</time>
      </trkpt>
      <trkpt lat="46.80422" lon="9.53197">
        <ele>1132</ele>
        <time>2017-10-24T23:35:29Z</time>
      </trkpt>
      <trkpt lat="46.80419" lon="9.53195">
        <ele>1133</ele>
        <time>2017-10-24T23:37:29Z</time>
      </trkpt>
      <trkpt lat="46.80415" lon="9.53192">
        <ele>1133</ele>
        <time>2017-10-24T23:39:29Z</time>
      </trkpt>
      <trkpt lat="46.80411" lon="9.53188">
        <ele>1132</ele>
        <time>2017-10-24T23:41:29Z</time>
      </trkpt>
      <trkpt lat="46.80406" lon="9.53178">
        <ele>1133</ele>
        <time>2017-10-24T23:43:29Z</time>
      </trkpt>
      <trkpt lat="46.80399" lon="9.53164">
        <ele>1133</ele>
        <time>2017-10-24T23:45:29Z</time>
      </trkpt>
      <trkpt lat="46.80391" lon="9.53146">
        <ele>1135</ele>
        <time>2017-10-24T23:47:29Z</time>
      </trkpt>
      <trkpt lat="46.80385" lon="9.53137">
        <ele>1135</ele>
        <time>2017-10-24T23:49:29Z</time>
      </trkpt>
      <trkpt lat="46.80378" lon="9.53129">
        <ele>1136</ele>
        <time>2017-10-24T23:51:29Z</time>
      </trkpt>
      <trkpt lat="46.80362" lon="9.5311">
        <ele>1137</ele>
        <time>2017-10-24T23:53:29Z</time>
      </trkpt>
      <trkpt lat="46.80334" lon="9.53089">
        <ele>1138</ele>
        <time>2017-10-24T23:55:29Z</time>
      </trkpt>
      <trkpt lat="46.80298" lon="9.53068">
        <ele>1140</ele>
        <time>2017-10-24T23:57:29Z</time>
      </trkpt>
      <trkpt lat="46.80273" lon="9.53057">
        <ele>1141</ele>
        <time>2017-10-24T23:59:29Z</time>
      </trkpt>
      <trkpt lat="46.80257" lon="9.53052">
        <ele>1142</ele>
        <time>2017-10-25T00:01:29Z</time>
      </trkpt>
      <trkpt lat="46.80236" lon="9.53048">
        <ele>1142</ele>
        <time>2017-10-25T00:03:29Z</time>
      </trkpt>
      <trkpt lat="46.80213" lon="9.53047">
        <ele>1143</ele>
        <time>2017-10-25T00:05:29Z</time>
      </trkpt>
      <trkpt lat="46.80165" lon="9.5305">
        <ele>1142</ele>
        <time>2017-10-25T00:07:29Z</time>
      </trkpt>
      <trkpt lat="46.80138" lon="9.5305">
        <ele>1146</ele>
        <time>2017-10-25T00:09:29Z</time>
      </trkpt>
      <trkpt lat="46.80124" lon="9.53049">
        <ele>1148</ele>
        <time>2017-10-25T00:11:29Z</time>
      </trkpt>
      <trkpt lat="46.80107" lon="9.53045">
        <ele>1151</ele>
        <time>2017-10-25T00:13:29Z</time>
      </trkpt>
      <trkpt lat="46.80098" lon="9.53044">
        <ele>1152</ele>
        <time>2017-10-25T00:15:29Z</time>
      </trkpt>
      <trkpt lat="46.80094" lon="9.53044">
        <ele>1153</ele>
        <time>2017-10-25T00:17:29Z</time>
      </trkpt>
      <trkpt lat="46.80089" lon="9.53044">
        <ele>1153</ele>
        <time>2017-10-25T00:19:29Z</time>
      </trkpt>
      <trkpt lat="46.80083" lon="9.53045">
        <ele>1154</ele>
        <time>2017-10-25T00:21:29Z</time>
      </trkpt>
      <trkpt lat="46.8008" lon="9.53046">
        <ele>1155</ele>
        <time>2017-10-25T00:23:29Z</time>
      </trkpt>
      <trkpt lat="46.80077" lon="9.53047">
        <ele>1156</ele>
        <time>2017-10-25T00:25:29Z</time>
      </trkpt>
      <trkpt lat="46.80074" lon="9.53049">
        <ele>1156</ele>
        <time>2017-10-25T00:27:29Z</time>
      </trkpt>
      <trkpt lat="46.80072" lon="9.53051">
        <ele>1156</ele>
        <time>2017-10-25T00:29:29Z</time>
      </trkpt>
      <trkpt lat="46.8007" lon="9.53053">
        <ele>1157</ele>
        <time>2017-10-25T00:31:29Z</time>
      </trkpt>
      <trkpt lat="46.80068" lon="9.53055">
        <ele>1157</ele>
        <time>2017-10-25T00:33:29Z</time>
      </trkpt>
      <trkpt lat="46.80066" lon="9.53058">
        <ele>1157</ele>
        <time>2017-10-25T00:35:29Z</time>
      </trkpt>
      <trkpt lat="46.80063" lon="9.53062">
        <ele>1157</ele>
        <time>2017-10-25T00:37:29Z</time>
      </trkpt>
      <trkpt lat="46.80055" lon="9.53078">
        <ele>1156</ele>
        <time>2017-10-25T00:39:29Z</time>
      </trkpt>
      <trkpt lat="46.80049" lon="9.53092">
        <ele>1155</ele>
        <time>2017-10-25T00:41:29Z</time>
      </trkpt>
      <trkpt lat="46.80043" lon="9.53107">
        <ele>1153</ele>
        <time>2017-10-25T00:43:29Z</time>
      </trkpt>
      <trkpt lat="46.80035" lon="9.53125">
        <ele>1151</ele>
        <time>2017-10-25T00:45:29Z</time>
      </trkpt>
      <trkpt lat="46.8003" lon="9.53135">
        <ele>1150</ele>
        <time>2017-10-25T00:47:29Z</time>
      </trkpt>
      <trkpt lat="46.80022" lon="9.53145">
        <ele>1148</ele>
        <time>2017-10-25T00:49:29Z</time>
      </trkpt>
      <trkpt lat="46.80007" lon="9.53146">
        <ele>1150</ele>
        <time>2017-10-25T00:51:29Z</time>
      </trkpt>
      <trkpt lat="46.79994" lon="9.53143">
        <ele>1153</ele>
        <time>2017-10-25T00:53:29Z</time>
      </trkpt>
      <trkpt lat="46.79978" lon="9.53139">
        <ele>1156</ele>
        <time>2017-10-25T00:55:29Z</time>
      </trkpt>
      <trkpt lat="46.79966" lon="9.53137">
        <ele>1159</ele>
        <time>2017-10-25T00:57:29Z</time>
      </trkpt>
      <trkpt lat="46.7995" lon="9.53137">
        <ele>1161</ele>
        <time>2017-10-25T00:59:29Z</time>
      </trkpt>
      <trkpt lat="46.79939" lon="9.53138">
        <ele>1162</ele>
        <time>2017-10-25T01:01:29Z</time>
      </trkpt>
      <trkpt lat="46.79894" lon="9.53146">
        <ele>1167</ele>
        <time>2017-10-25T01:03:29Z</time>
      </trkpt>
      <trkpt lat="46.79845" lon="9.53152">
        <ele>1178</ele>
        <time>2017-10-25T01:05:29Z</time>
      </trkpt>
      <trkpt lat="46.79803" lon="9.53164">
        <ele>1178</ele>
        <time>2017-10-25T01:07:29Z</time>
      </trkpt>
      <trkpt lat="46.79779" lon="9.53171">
        <ele>1176</ele>
        <time>2017-10-25T01:09:29Z</time>
      </trkpt>
      <trkpt lat="46.79761" lon="9.53175">
        <ele>1176</ele>
        <time>2017-10-25T01:11:29Z</time>
      </trkpt>
      <trkpt lat="46.79744" lon="9.53178">
        <ele>1176</ele>
        <time>2017-10-25T01:13:29Z</time>
      </trkpt>
      <trkpt lat="46.79705" lon="9.53181">
        <ele>1179</ele>
        <time>2017-10-25T01:15:29Z</time>
      </trkpt>
      <trkpt lat="46.79646" lon="9.53183">
        <ele>1183</ele>
        <time>2017-10-25T01:17:29Z</time>
      </trkpt>
      <trkpt lat="46.79575" lon="9.53184">
        <ele>1188</ele>
        <time>2017-10-25T01:19:29Z</time>
      </trkpt>
      <trkpt lat="46.79539" lon="9.53186">
        <ele>1189</ele>
        <time>2017-10-25T01:21:29Z</time>
      </trkpt>
      <trkpt lat="46.79515" lon="9.53188">
        <ele>1190</ele>
        <time>2017-10-25T01:23:29Z</time>
      </trkpt>
      <trkpt lat="46.79469" lon="9.53195">
        <ele>1193</ele>
        <time>2017-10-25T01:25:29Z</time>
      </trkpt>
      <trkpt lat="46.79427" lon="9.53204">
        <ele>1194</ele>
        <time>2017-10-25T01:27:29Z</time>
      </trkpt>
      <trkpt lat="46.7939" lon="9.53215">
        <ele>1199</ele>
        <time>2017-10-25T01:29:29Z</time>
      </trkpt>
      <trkpt lat="46.79369" lon="9.53221">
        <ele>1203</ele>
        <time>2017-10-25T01:31:29Z</time>
      </trkpt>
      <trkpt lat="46.79354" lon="9.53226">
        <ele>1206</ele>
        <time>2017-10-25T01:33:29Z</time>
      </trkpt>
      <trkpt lat="46.79337" lon="9.53232">
        <ele>1210</ele>
        <time>2017-10-25T01:35:29Z</time>
      </trkpt>
      <trkpt lat="46.79322" lon="9.53238">
        <ele>1212</ele>
        <time>2017-10-25T01:37:29Z</time>
      </trkpt>
      <trkpt lat="46.79316" lon="9.53241">
        <ele>1213</ele>
        <time>2017-10-25T01:39:29Z</time>
      </trkpt>
      <trkpt lat="46.79308" lon="9.53246">
        <ele>1214</ele>
        <time>2017-10-25T01:41:29Z</time>
      </trkpt>
      <trkpt lat="46.79293" lon="9.53258">
        <ele>1215</ele>
        <time>2017-10-25T01:43:29Z</time>
      </trkpt>
      <trkpt lat="46.79286" lon="9.53265">
        <ele>1214</ele>
        <time>2017-10-25T01:45:29Z</time>
      </trkpt>
      <trkpt lat="46.79273" lon="9.5328">
        <ele>1213</ele>
        <time>2017-10-25T01:47:29Z</time>
      </trkpt>
      <trkpt lat="46.79266" lon="9.53289">
        <ele>1212</ele>
        <time>2017-10-25T01:49:29Z</time>
      </trkpt>
      <trkpt lat="46.79254" lon="9.53304">
        <ele>1210</ele>
        <time>2017-10-25T01:51:29Z</time>
      </trkpt>
      <trkpt lat="46.79246" lon="9.53313">
        <ele>1209</ele>
        <time>2017-10-25T01:53:29Z</time>
      </trkpt>
      <trkpt lat="46.79239" lon="9.53319">
        <ele>1208</ele>
        <time>2017-10-25T01:55:29Z</time>
      </trkpt>
      <trkpt lat="46.79232" lon="9.53323">
        <ele>1207</ele>
        <time>2017-10-25T01:57:29Z</time>
      </trkpt>
      <trkpt lat="46.79223" lon="9.53328">
        <ele>1207</ele>
        <time>2017-10-25T01:59:29Z</time>
      </trkpt>
      <trkpt lat="46.79213" lon="9.53332">
        <ele>1207</ele>
        <time>2017-10-25T02:01:29Z</time>
      </trkpt>
      <trkpt lat="46.79204" lon="9.53334">
        <ele>1208</ele>
        <time>2017-10-25T02:03:29Z</time>
      </trkpt>
      <trkpt lat="46.7919" lon="9.53337">
        <ele>1210</ele>
        <time>2017-10-25T02:05:29Z</time>
      </trkpt>
      <trkpt lat="46.7916" lon="9.53344">
        <ele>1214</ele>
        <time>2017-10-25T02:07:29Z</time>
      </trkpt>
      <trkpt lat="46.79147" lon="9.53348">
        <ele>1216</ele>
        <time>2017-10-25T02:09:29Z</time>
      </trkpt>
      <trkpt lat="46.7913" lon="9.53355">
        <ele>1218</ele>
        <time>2017-10-25T02:11:29Z</time>
      </trkpt>
      <trkpt lat="46.79116" lon="9.5336">
        <ele>1220</ele>
        <time>2017-10-25T02:13:29Z</time>
      </trkpt>
      <trkpt lat="46.79098" lon="9.53372">
        <ele>1221</ele>
        <time>2017-10-25T02:15:29Z</time>
      </trkpt>
      <trkpt lat="46.79081" lon="9.53384">
        <ele>1222</ele>
        <time>2017-10-25T02:17:29Z</time>
      </trkpt>
      <trkpt lat="46.79072" lon="9.53393">
        <ele>1221</ele>
        <time>2017-10-25T02:19:29Z</time>
      </trkpt>
      <trkpt lat="46.79061" lon="9.53406">
        <ele>1219</ele>
        <time>2017-10-25T02:21:29Z</time>
      </trkpt>
      <trkpt lat="46.79051" lon="9.53419">
        <ele>1218</ele>
        <time>2017-10-25T02:23:29Z</time>
      </trkpt>
      <trkpt lat="46.79041" lon="9.53436">
        <ele>1216</ele>
        <time>2017-10-25T02:25:29Z</time>
      </trkpt>
      <trkpt lat="46.7903" lon="9.53452">
        <ele>1214</ele>
        <time>2017-10-25T02:27:29Z</time>
      </trkpt>
      <trkpt lat="46.79024" lon="9.53462">
        <ele>1213</ele>
        <time>2017-10-25T02:29:29Z</time>
      </trkpt>
      <trkpt lat="46.79017" lon="9.53471">
        <ele>1213</ele>
        <time>2017-10-25T02:31:29Z</time>
      </trkpt>
      <trkpt lat="46.79004" lon="9.53486">
        <ele>1212</ele>
        <time>2017-10-25T02:33:29Z</time>
      </trkpt>
      <trkpt lat="46.78997" lon="9.53493">
        <ele>1211</ele>
        <time>2017-10-25T02:35:29Z</time>
      </trkpt>
      <trkpt lat="46.7899" lon="9.535">
        <ele>1210</ele>
        <time>2017-10-25T02:37:29Z</time>
      </trkpt>
      <trkpt lat="46.78978" lon="9.53509">
        <ele>1210</ele>
        <time>2017-10-25T02:39:29Z</time>
      </trkpt>
      <trkpt lat="46.78968" lon="9.53516">
        <ele>1211</ele>
        <time>2017-10-25T02:41:29Z</time>
      </trkpt>
      <trkpt lat="46.78953" lon="9.53525">
        <ele>1211</ele>
        <time>2017-10-25T02:43:29Z</time>
      </trkpt>
      <trkpt lat="46.78925" lon="9.53541">
        <ele>1212</ele>
        <time>2017-10-25T02:45:29Z</time>
      </trkpt>
      <trkpt lat="46.78895" lon="9.53558">
        <ele>1213</ele>
        <time>2017-10-25T02:47:29Z</time>
      </trkpt>
      <trkpt lat="46.78884" lon="9.5357">
        <ele>1211</ele>
        <time>2017-10-25T02:49:29Z</time>
      </trkpt>
      <trkpt lat="46.78877" lon="9.53577">
        <ele>1210</ele>
        <time>2017-10-25T02:51:29Z</time>
      </trkpt>
      <trkpt lat="46.78871" lon="9.53585">
        <ele>1209</ele>
        <time>2017-10-25T02:53:29Z</time>
      </trkpt>
      <trkpt lat="46.78856" lon="9.53604">
        <ele>1208</ele>
        <time>2017-10-25T02:55:29Z</time>
      </trkpt>
      <trkpt lat="46.78845" lon="9.53618">
        <ele>1208</ele>
        <time>2017-10-25T02:57:29Z</time>
      </trkpt>
      <trkpt lat="46.7883" lon="9.53637">
        <ele>1208</ele>
        <time>2017-10-25T02:59:29Z</time>
      </trkpt>
      <trkpt lat="46.78817" lon="9.53652">
        <ele>1208</ele>
        <time>2017-10-25T03:01:29Z</time>
      </trkpt>
      <trkpt lat="46.78809" lon="9.53661">
        <ele>1208</ele>
        <time>2017-10-25T03:03:29Z</time>
      </trkpt>
      <trkpt lat="46.78799" lon="9.53671">
        <ele>1209</ele>
        <time>2017-10-25T03:05:29Z</time>
      </trkpt>
      <trkpt lat="46.78785" lon="9.53682">
        <ele>1209</ele>
        <time>2017-10-25T03:07:29Z</time>
      </trkpt>
      <trkpt lat="46.7876" lon="9.53698">
        <ele>1211</ele>
        <time>2017-10-25T03:09:29Z</time>
      </trkpt>
      <trkpt lat="46.78743" lon="9.53708">
        <ele>1211</ele>
        <time>2017-10-25T03:11:29Z</time>
      </trkpt>
      <trkpt lat="46.78727" lon="9.53716">
        <ele>1212</ele>
        <time>2017-10-25T03:13:29Z</time>
      </trkpt>
      <trkpt lat="46.78709" lon="9.53724">
        <ele>1212</ele>
        <time>2017-10-25T03:15:29Z</time>
      </trkpt>
      <trkpt lat="46.787" lon="9.53727">
        <ele>1212</ele>
        <time>2017-10-25T03:17:29Z</time>
      </trkpt>
      <trkpt lat="46.78679" lon="9.53732">
        <ele>1212</ele>
        <time>2017-10-25T03:19:29Z</time>
      </trkpt>
      <trkpt lat="46.78662" lon="9.53735">
        <ele>1212</ele>
        <time>2017-10-25T03:21:29Z</time>
      </trkpt>
      <trkpt lat="46.78629" lon="9.5374">
        <ele>1211</ele>
        <time>2017-10-25T03:23:29Z</time>
      </trkpt>
      <trkpt lat="46.78612" lon="9.53745">
        <ele>1210</ele>
        <time>2017-10-25T03:25:29Z</time>
      </trkpt>
      <trkpt lat="46.78604" lon="9.53748">
        <ele>1210</ele>
        <time>2017-10-25T03:27:29Z</time>
      </trkpt>
      <trkpt lat="46.78596" lon="9.53753">
        <ele>1210</ele>
        <time>2017-10-25T03:29:29Z</time>
      </trkpt>
      <trkpt lat="46.78588" lon="9.53759">
        <ele>1210</ele>
        <time>2017-10-25T03:31:29Z</time>
      </trkpt>
      <trkpt lat="46.78583" lon="9.53764">
        <ele>1210</ele>
        <time>2017-10-25T03:33:29Z</time>
      </trkpt>
      <trkpt lat="46.78577" lon="9.5377">
        <ele>1210</ele>
        <time>2017-10-25T03:35:29Z</time>
      </trkpt>
      <trkpt lat="46.78567" lon="9.53788">
        <ele>1210</ele>
        <time>2017-10-25T03:37:29Z</time>
      </trkpt>
      <trkpt lat="46.78551" lon="9.53829">
        <ele>1211</ele>
        <time>2017-10-25T03:39:29Z</time>
      </trkpt>
      <trkpt lat="46.78535" lon="9.53876">
        <ele>1210</ele>
        <time>2017-10-25T03:41:29Z</time>
      </trkpt>
      <trkpt lat="46.78511" lon="9.53953">
        <ele>1211</ele>
        <time>2017-10-25T03:43:29Z</time>
      </trkpt>
      <trkpt lat="46.78498" lon="9.53989">
        <ele>1213</ele>
        <time>2017-10-25T03:45:29Z</time>
      </trkpt>
      <trkpt lat="46.78473" lon="9.54042">
        <ele>1214</ele>
        <time>2017-10-25T03:47:29Z</time>
      </trkpt>
      <trkpt lat="46.78462" lon="9.54064">
        <ele>1213</ele>
        <time>2017-10-25T03:49:29Z</time>
      </trkpt>
      <trkpt lat="46.78448" lon="9.54091">
        <ele>1213</ele>
        <time>2017-10-25T03:51:29Z</time>
      </trkpt>
      <trkpt lat="46.7843" lon="9.54119">
        <ele>1214</ele>
        <time>2017-10-25T03:53:29Z</time>
      </trkpt>
      <trkpt lat="46.78416" lon="9.54137">
        <ele>1214</ele>
        <time>2017-10-25T03:55:29Z</time>
      </trkpt>
      <trkpt lat="46.78415" lon="9.54139">
        <ele>1214</ele>
        <time>2017-10-25T03:57:29Z</time>
      </trkpt>
      <trkpt lat="46.78403" lon="9.54151">
        <ele>1215</ele>
        <time>2017-10-25T03:59:29Z</time>
      </trkpt>
      <trkpt lat="46.7839" lon="9.54164">
        <ele>1216</ele>
        <time>2017-10-25T04:01:29Z</time>
      </trkpt>
      <trkpt lat="46.78378" lon="9.54173">
        <ele>1217</ele>
        <time>2017-10-25T04:03:29Z</time>
      </trkpt>
      <trkpt lat="46.78367" lon="9.54181">
        <ele>1218</ele>
        <time>2017-10-25T04:05:29Z</time>
      </trkpt>
      <trkpt lat="46.78343" lon="9.54193">
        <ele>1220</ele>
        <time>2017-10-25T04:07:29Z</time>
      </trkpt>
      <trkpt lat="46.78332" lon="9.54196">
        <ele>1221</ele>
        <time>2017-10-25T04:09:29Z</time>
      </trkpt>
      <trkpt lat="46.78311" lon="9.54204">
        <ele>1222</ele>
        <time>2017-10-25T04:11:29Z</time>
      </trkpt>
      <trkpt lat="46.78304" lon="9.54206">
        <ele>1223</ele>
        <time>2017-10-25T04:13:29Z</time>
      </trkpt>
      <trkpt lat="46.78288" lon="9.54215">
        <ele>1224</ele>
        <time>2017-10-25T04:15:29Z</time>
      </trkpt>
      <trkpt lat="46.78276" lon="9.54223">
        <ele>1224</ele>
        <time>2017-10-25T04:17:29Z</time>
      </trkpt>
      <trkpt lat="46.78258" lon="9.54234">
        <ele>1225</ele>
        <time>2017-10-25T04:19:29Z</time>
      </trkpt>
      <trkpt lat="46.78193" lon="9.54283">
        <ele>1230</ele>
        <time>2017-10-25T04:21:29Z</time>
      </trkpt>
      <trkpt lat="46.78152" lon="9.54309">
        <ele>1230</ele>
        <time>2017-10-25T04:23:29Z</time>
      </trkpt>
      <trkpt lat="46.78105" lon="9.5434">
        <ele>1233</ele>
        <time>2017-10-25T04:25:29Z</time>
      </trkpt>
      <trkpt lat="46.78097" lon="9.54343">
        <ele>1234</ele>
        <time>2017-10-25T04:27:29Z</time>
      </trkpt>
      <trkpt lat="46.78091" lon="9.54345">
        <ele>1234</ele>
        <time>2017-10-25T04:29:29Z</time>
      </trkpt>
      <trkpt lat="46.78069" lon="9.54349">
        <ele>1235</ele>
        <time>2017-10-25T04:31:29Z</time>
      </trkpt>
      <trkpt lat="46.78043" lon="9.54354">
        <ele>1235</ele>
        <time>2017-10-25T04:33:29Z</time>
      </trkpt>
      <trkpt lat="46.78037" lon="9.54355">
        <ele>1235</ele>
        <time>2017-10-25T04:35:29Z</time>
      </trkpt>
      <trkpt lat="46.78009" lon="9.54359">
        <ele>1235</ele>
        <time>2017-10-25T04:37:29Z</time>
      </trkpt>
      <trkpt lat="46.77936" lon="9.5437">
        <ele>1237</ele>
        <time>2017-10-25T04:39:29Z</time>
      </trkpt>
      <trkpt lat="46.77922" lon="9.54373">
        <ele>1237</ele>
        <time>2017-10-25T04:41:29Z</time>
      </trkpt>
      <trkpt lat="46.77891" lon="9.54378">
        <ele>1237</ele>
        <time>2017-10-25T04:43:29Z</time>
      </trkpt>
      <trkpt lat="46.77871" lon="9.54381">
        <ele>1237</ele>
        <time>2017-10-25T04:45:29Z</time>
      </trkpt>
      <trkpt lat="46.7785" lon="9.54385">
        <ele>1237</ele>
        <time>2017-10-25T04:47:29Z</time>
      </trkpt>
      <trkpt lat="46.77831" lon="9.54389">
        <ele>1236</ele>
        <time>2017-10-25T04:49:29Z</time>
      </trkpt>
      <trkpt lat="46.77819" lon="9.54391">
        <ele>1237</ele>
        <time>2017-10-25T04:51:29Z</time>
      </trkpt>
      <trkpt lat="46.77793" lon="9.54394">
        <ele>1238</ele>
        <time>2017-10-25T04:53:29Z</time>
      </trkpt>
      <trkpt lat="46.77788" lon="9.54395">
        <ele>1238</ele>
        <time>2017-10-25T04:55:29Z</time>
      </trkpt>
      <trkpt lat="46.7778" lon="9.54395">
        <ele>1238</ele>
        <time>2017-10-25T04:57:29Z</time>
      </trkpt>
      <trkpt lat="46.7777" lon="9.54399">
        <ele>1239</ele>
        <time>2017-10-25T04:59:29Z</time>
      </trkpt>
      <trkpt lat="46.77763" lon="9.54402">
        <ele>1239</ele>
        <time>2017-10-25T05:01:29Z</time>
      </trkpt>
      <trkpt lat="46.77757" lon="9.54407">
        <ele>1240</ele>
        <time>2017-10-25T05:03:29Z</time>
      </trkpt>
      <trkpt lat="46.77752" lon="9.54414">
        <ele>1240</ele>
        <time>2017-10-25T05:05:29Z</time>
      </trkpt>
      <trkpt lat="46.77747" lon="9.54421">
        <ele>1240</ele>
        <time>2017-10-25T05:07:29Z</time>
      </trkpt>
      <trkpt lat="46.77735" lon="9.54456">
        <ele>1243</ele>
        <time>2017-10-25T05:09:29Z</time>
      </trkpt>
      <trkpt lat="46.77717" lon="9.54509">
        <ele>1246</ele>
        <time>2017-10-25T05:11:29Z</time>
      </trkpt>
      <trkpt lat="46.777" lon="9.54559">
        <ele>1251</ele>
        <time>2017-10-25T05:13:29Z</time>
      </trkpt>
      <trkpt lat="46.77675" lon="9.54605">
        <ele>1256</ele>
        <time>2017-10-25T05:15:29Z</time>
      </trkpt>
      <trkpt lat="46.77654" lon="9.54639">
        <ele>1259</ele>
        <time>2017-10-25T05:17:29Z</time>
      </trkpt>
      <trkpt lat="46.77632" lon="9.54677">
        <ele>1262</ele>
        <time>2017-10-25T05:19:29Z</time>
      </trkpt>
      <trkpt lat="46.77622" lon="9.54694">
        <ele>1264</ele>
        <time>2017-10-25T05:21:29Z</time>
      </trkpt>
      <trkpt lat="46.77612" lon="9.54711">
        <ele>1267</ele>
        <time>2017-10-25T05:23:29Z</time>
      </trkpt>
      <trkpt lat="46.77606" lon="9.5472">
        <ele>1268</ele>
        <time>2017-10-25T05:25:29Z</time>
      </trkpt>
      <trkpt lat="46.776" lon="9.54731">
        <ele>1270</ele>
        <time>2017-10-25T05:27:29Z</time>
      </trkpt>
      <trkpt lat="46.77597" lon="9.54737">
        <ele>1270</ele>
        <time>2017-10-25T05:29:29Z</time>
      </trkpt>
      <trkpt lat="46.77595" lon="9.54744">
        <ele>1271</ele>
        <time>2017-10-25T05:31:29Z</time>
      </trkpt>
      <trkpt lat="46.77593" lon="9.5475">
        <ele>1272</ele>
        <time>2017-10-25T05:33:29Z</time>
      </trkpt>
      <trkpt lat="46.77593" lon="9.54757">
        <ele>1273</ele>
        <time>2017-10-25T05:35:29Z</time>
      </trkpt>
      <trkpt lat="46.77593" lon="9.54763">
        <ele>1273</ele>
        <time>2017-10-25T05:37:29Z</time>
      </trkpt>
      <trkpt lat="46.77593" lon="9.54769">
        <ele>1273</ele>
        <time>2017-10-25T05:39:29Z</time>
      </trkpt>
      <trkpt lat="46.77595" lon="9.54779">
        <ele>1274</ele>
        <time>2017-10-25T05:41:29Z</time>
      </trkpt>
      <trkpt lat="46.77598" lon="9.54789">
        <ele>1274</ele>
        <time>2017-10-25T05:43:29Z</time>
      </trkpt>
      <trkpt lat="46.776" lon="9.54795">
        <ele>1274</ele>
        <time>2017-10-25T05:45:29Z</time>
      </trkpt>
      <trkpt lat="46.77607" lon="9.54812">
        <ele>1274</ele>
        <time>2017-10-25T05:47:29Z</time>
      </trkpt>
      <trkpt lat="46.77619" lon="9.54845">
        <ele>1274</ele>
        <time>2017-10-25T05:49:29Z</time>
      </trkpt>
      <trkpt lat="46.77622" lon="9.54855">
        <ele>1274</ele>
        <time>2017-10-25T05:51:29Z</time>
      </trkpt>
      <trkpt lat="46.77624" lon="9.54863">
        <ele>1274</ele>
        <time>2017-10-25T05:53:29Z</time>
      </trkpt>
      <trkpt lat="46.77625" lon="9.5487">
        <ele>1274</ele>
        <time>2017-10-25T05:55:29Z</time>
      </trkpt>
      <trkpt lat="46.77625" lon="9.54875">
        <ele>1274</ele>
        <time>2017-10-25T05:57:29Z</time>
      </trkpt>
      <trkpt lat="46.77625" lon="9.54884">
        <ele>1274</ele>
        <time>2017-10-25T05:59:29Z</time>
      </trkpt>
      <trkpt lat="46.77624" lon="9.54891">
        <ele>1275</ele>
        <time>2017-10-25T06:01:29Z</time>
      </trkpt>
      <trkpt lat="46.77622" lon="9.54901">
        <ele>1276</ele>
        <time>2017-10-25T06:03:29Z</time>
      </trkpt>
      <trkpt lat="46.77617" lon="9.54921">
        <ele>1278</ele>
        <time>2017-10-25T06:05:29Z</time>
      </trkpt>
      <trkpt lat="46.77608" lon="9.54946">
        <ele>1281</ele>
        <time>2017-10-25T06:07:29Z</time>
      </trkpt>
      <trkpt lat="46.77589" lon="9.54992">
        <ele>1287</ele>
        <time>2017-10-25T06:09:29Z</time>
      </trkpt>
      <trkpt lat="46.77582" lon="9.55009">
        <ele>1288</ele>
        <time>2017-10-25T06:11:29Z</time>
      </trkpt>
      <trkpt lat="46.77575" lon="9.55026">
        <ele>1289</ele>
        <time>2017-10-25T06:13:29Z</time>
      </trkpt>
      <trkpt lat="46.77561" lon="9.55047">
        <ele>1292</ele>
        <time>2017-10-25T06:15:29Z</time>
      </trkpt>
      <trkpt lat="46.77551" lon="9.55061">
        <ele>1294</ele>
        <time>2017-10-25T06:17:29Z</time>
      </trkpt>
      <trkpt lat="46.77534" lon="9.55085">
        <ele>1298</ele>
        <time>2017-10-25T06:19:29Z</time>
      </trkpt>
      <trkpt lat="46.77517" lon="9.55105">
        <ele>1302</ele>
        <time>2017-10-25T06:21:29Z</time>
      </trkpt>
      <trkpt lat="46.77485" lon="9.55143">
        <ele>1309</ele>
        <time>2017-10-25T06:23:29Z</time>
      </trkpt>
      <trkpt lat="46.77465" lon="9.55162">
        <ele>1312</ele>
        <time>2017-10-25T06:25:29Z</time>
      </trkpt>
      <trkpt lat="46.7743" lon="9.55193">
        <ele>1317</ele>
        <time>2017-10-25T06:27:29Z</time>
      </trkpt>
      <trkpt lat="46.77421" lon="9.55203">
        <ele>1318</ele>
        <time>2017-10-25T06:29:29Z</time>
      </trkpt>
      <trkpt lat="46.77394" lon="9.55228">
        <ele>1321</ele>
        <time>2017-10-25T06:31:29Z</time>
      </trkpt>
      <trkpt lat="46.77387" lon="9.55234">
        <ele>1323</ele>
        <time>2017-10-25T06:33:29Z</time>
      </trkpt>
      <trkpt lat="46.7737" lon="9.55246">
        <ele>1326</ele>
        <time>2017-10-25T06:35:29Z</time>
      </trkpt>
      <trkpt lat="46.77351" lon="9.55259">
        <ele>1331</ele>
        <time>2017-10-25T06:37:29Z</time>
      </trkpt>
      <trkpt lat="46.77162" lon="9.55378">
        <ele>1353</ele>
        <time>2017-10-25T06:39:29Z</time>
      </trkpt>
      <trkpt lat="46.77113" lon="9.55408">
        <ele>1355</ele>
        <time>2017-10-25T06:41:29Z</time>
      </trkpt>
      <trkpt lat="46.77026" lon="9.55485">
        <ele>1369</ele>
        <time>2017-10-25T06:43:29Z</time>
      </trkpt>
      <trkpt lat="46.77018" lon="9.55492">
        <ele>1371</ele>
        <time>2017-10-25T06:45:29Z</time>
      </trkpt>
      <trkpt lat="46.76974" lon="9.5552">
        <ele>1379</ele>
        <time>2017-10-25T06:47:29Z</time>
      </trkpt>
      <trkpt lat="46.76964" lon="9.55526">
        <ele>1381</ele>
        <time>2017-10-25T06:49:29Z</time>
      </trkpt>
      <trkpt lat="46.76951" lon="9.55529">
        <ele>1382</ele>
        <time>2017-10-25T06:51:29Z</time>
      </trkpt>
      <trkpt lat="46.76937" lon="9.55532">
        <ele>1383</ele>
        <time>2017-10-25T06:53:29Z</time>
      </trkpt>
      <trkpt lat="46.76917" lon="9.55531">
        <ele>1383</ele>
        <time>2017-10-25T06:55:29Z</time>
      </trkpt>
      <trkpt lat="46.76843" lon="9.55435">
        <ele>1392</ele>
        <time>2017-10-25T06:57:29Z</time>
      </trkpt>
      <trkpt lat="46.7683" lon="9.55422">
        <ele>1394</ele>
        <time>2017-10-25T06:59:29Z</time>
      </trkpt>
      <trkpt lat="46.76821" lon="9.55413">
        <ele>1396</ele>
        <time>2017-10-25T07:01:29Z</time>
      </trkpt>
      <trkpt lat="46.76807" lon="9.55399">
        <ele>1397</ele>
        <time>2017-10-25T07:03:29Z</time>
      </trkpt>
      <trkpt lat="46.76794" lon="9.55386">
        <ele>1399</ele>
        <time>2017-10-25T07:05:29Z</time>
      </trkpt>
      <trkpt lat="46.76781" lon="9.55373">
        <ele>1399</ele>
        <time>2017-10-25T07:07:29Z</time>
      </trkpt>
      <trkpt lat="46.76774" lon="9.55369">
        <ele>1400</ele>
        <time>2017-10-25T07:09:29Z</time>
      </trkpt>
      <trkpt lat="46.76766" lon="9.55365">
        <ele>1402</ele>
        <time>2017-10-25T07:11:29Z</time>
      </trkpt>
      <trkpt lat="46.7676" lon="9.55363">
        <ele>1403</ele>
        <time>2017-10-25T07:13:29Z</time>
      </trkpt>
      <trkpt lat="46.7675" lon="9.55361">
        <ele>1405</ele>
        <time>2017-10-25T07:15:29Z</time>
      </trkpt>
      <trkpt lat="46.76735" lon="9.5536">
        <ele>1406</ele>
        <time>2017-10-25T07:17:29Z</time>
      </trkpt>
      <trkpt lat="46.76726" lon="9.5536">
        <ele>1407</ele>
        <time>2017-10-25T07:19:29Z</time>
      </trkpt>
      <trkpt lat="46.7671" lon="9.55359">
        <ele>1409</ele>
        <time>2017-10-25T07:21:29Z</time>
      </trkpt>
      <trkpt lat="46.76706" lon="9.55359">
        <ele>1409</ele>
        <time>2017-10-25T07:23:29Z</time>
      </trkpt>
      <trkpt lat="46.76701" lon="9.5536">
        <ele>1410</ele>
        <time>2017-10-25T07:25:29Z</time>
      </trkpt>
      <trkpt lat="46.76695" lon="9.55361">
        <ele>1411</ele>
        <time>2017-10-25T07:27:29Z</time>
      </trkpt>
      <trkpt lat="46.76687" lon="9.55365">
        <ele>1413</ele>
        <time>2017-10-25T07:29:29Z</time>
      </trkpt>
      <trkpt lat="46.76679" lon="9.5537">
        <ele>1415</ele>
        <time>2017-10-25T07:31:29Z</time>
      </trkpt>
      <trkpt lat="46.76672" lon="9.55376">
        <ele>1417</ele>
        <time>2017-10-25T07:33:29Z</time>
      </trkpt>
      <trkpt lat="46.7665" lon="9.55393">
        <ele>1421</ele>
        <time>2017-10-25T07:35:29Z</time>
      </trkpt>
      <trkpt lat="46.7664" lon="9.55402">
        <ele>1423</ele>
        <time>2017-10-25T07:37:29Z</time>
      </trkpt>
      <trkpt lat="46.76632" lon="9.5541">
        <ele>1424</ele>
        <time>2017-10-25T07:39:29Z</time>
      </trkpt>
      <trkpt lat="46.76623" lon="9.55418">
        <ele>1426</ele>
        <time>2017-10-25T07:41:29Z</time>
      </trkpt>
      <trkpt lat="46.76615" lon="9.55423">
        <ele>1427</ele>
        <time>2017-10-25T07:43:29Z</time>
      </trkpt>
      <trkpt lat="46.76607" lon="9.55427">
        <ele>1429</ele>
        <time>2017-10-25T07:45:29Z</time>
      </trkpt>
      <trkpt lat="46.766" lon="9.55429">
        <ele>1429</ele>
        <time>2017-10-25T07:47:29Z</time>
      </trkpt>
      <trkpt lat="46.76584" lon="9.5543">
        <ele>1430</ele>
        <time>2017-10-25T07:49:29Z</time>
      </trkpt>
      <trkpt lat="46.76568" lon="9.5543">
        <ele>1431</ele>
        <time>2017-10-25T07:51:29Z</time>
      </trkpt>
      <trkpt lat="46.7656" lon="9.55431">
        <ele>1432</ele>
        <time>2017-10-25T07:53:29Z</time>
      </trkpt>
      <trkpt lat="46.76554" lon="9.55432">
        <ele>1433</ele>
        <time>2017-10-25T07:55:29Z</time>
      </trkpt>
      <trkpt lat="46.76546" lon="9.55435">
        <ele>1435</ele>
        <time>2017-10-25T07:57:29Z</time>
      </trkpt>
      <trkpt lat="46.7654" lon="9.55439">
        <ele>1436</ele>
        <time>2017-10-25T07:59:29Z</time>
      </trkpt>
      <trkpt lat="46.76535" lon="9.55442">
        <ele>1437</ele>
        <time>2017-10-25T08:01:29Z</time>
      </trkpt>
      <trkpt lat="46.76527" lon="9.55447">
        <ele>1439</ele>
        <time>2017-10-25T08:03:29Z</time>
      </trkpt>
      <trkpt lat="46.76519" lon="9.55453">
        <ele>1440</ele>
        <time>2017-10-25T08:05:29Z</time>
      </trkpt>
      <trkpt lat="46.76513" lon="9.55456">
        <ele>1441</ele>
        <time>2017-10-25T08:07:29Z</time>
      </trkpt>
      <trkpt lat="46.76507" lon="9.55457">
        <ele>1442</ele>
        <time>2017-10-25T08:09:29Z</time>
      </trkpt>
      <trkpt lat="46.76504" lon="9.55456">
        <ele>1442</ele>
        <time>2017-10-25T08:11:29Z</time>
      </trkpt>
      <trkpt lat="46.76499" lon="9.55454">
        <ele>1442</ele>
        <time>2017-10-25T08:13:29Z</time>
      </trkpt>
      <trkpt lat="46.76495" lon="9.55452">
        <ele>1442</ele>
        <time>2017-10-25T08:15:29Z</time>
      </trkpt>
      <trkpt lat="46.76485" lon="9.55444">
        <ele>1443</ele>
        <time>2017-10-25T08:17:29Z</time>
      </trkpt>
      <trkpt lat="46.76479" lon="9.55438">
        <ele>1443</ele>
        <time>2017-10-25T08:19:29Z</time>
      </trkpt>
      <trkpt lat="46.76473" lon="9.55432">
        <ele>1444</ele>
        <time>2017-10-25T08:21:29Z</time>
      </trkpt>
      <trkpt lat="46.76465" lon="9.55427">
        <ele>1444</ele>
        <time>2017-10-25T08:23:29Z</time>
      </trkpt>
      <trkpt lat="46.76457" lon="9.55422">
        <ele>1445</ele>
        <time>2017-10-25T08:25:29Z</time>
      </trkpt>
      <trkpt lat="46.76448" lon="9.55421">
        <ele>1447</ele>
        <time>2017-10-25T08:27:29Z</time>
      </trkpt>
      <trkpt lat="46.76441" lon="9.55421">
        <ele>1448</ele>
        <time>2017-10-25T08:29:29Z</time>
      </trkpt>
      <trkpt lat="46.76435" lon="9.55423">
        <ele>1449</ele>
        <time>2017-10-25T08:31:29Z</time>
      </trkpt>
      <trkpt lat="46.7643" lon="9.55425">
        <ele>1450</ele>
        <time>2017-10-25T08:33:29Z</time>
      </trkpt>
      <trkpt lat="46.76417" lon="9.55431">
        <ele>1453</ele>
        <time>2017-10-25T08:35:29Z</time>
      </trkpt>
      <trkpt lat="46.76397" lon="9.5544">
        <ele>1456</ele>
        <time>2017-10-25T08:37:29Z</time>
      </trkpt>
      <trkpt lat="46.76383" lon="9.55447">
        <ele>1458</ele>
        <time>2017-10-25T08:39:29Z</time>
      </trkpt>
      <trkpt lat="46.76363" lon="9.55456">
        <ele>1462</ele>
        <time>2017-10-25T08:41:29Z</time>
      </trkpt>
      <trkpt lat="46.76356" lon="9.55459">
        <ele>1463</ele>
        <time>2017-10-25T08:43:29Z</time>
      </trkpt>
      <trkpt lat="46.76348" lon="9.55462">
        <ele>1464</ele>
        <time>2017-10-25T08:45:29Z</time>
      </trkpt>
      <trkpt lat="46.76339" lon="9.55463">
        <ele>1465</ele>
        <time>2017-10-25T08:47:29Z</time>
      </trkpt>
      <trkpt lat="46.76325" lon="9.55463">
        <ele>1466</ele>
        <time>2017-10-25T08:49:29Z</time>
      </trkpt>
      <trkpt lat="46.76304" lon="9.55466">
        <ele>1468</ele>
        <time>2017-10-25T08:51:29Z</time>
      </trkpt>
      <trkpt lat="46.76265" lon="9.55469">
        <ele>1472</ele>
        <time>2017-10-25T08:53:29Z</time>
      </trkpt>
      <trkpt lat="46.76187" lon="9.55481">
        <ele>1476</ele>
        <time>2017-10-25T08:55:29Z</time>
      </trkpt>
      <trkpt lat="46.76179" lon="9.55481">
        <ele>1476</ele>
        <time>2017-10-25T08:57:29Z</time>
      </trkpt>
      <trkpt lat="46.76171" lon="9.55482">
        <ele>1477</ele>
        <time>2017-10-25T08:59:29Z</time>
      </trkpt>
      <trkpt lat="46.76162" lon="9.55483">
        <ele>1478</ele>
        <time>2017-10-25T09:01:29Z</time>
      </trkpt>
      <trkpt lat="46.76158" lon="9.55485">
        <ele>1478</ele>
        <time>2017-10-25T09:03:29Z</time>
      </trkpt>
      <trkpt lat="46.76152" lon="9.55491">
        <ele>1479</ele>
        <time>2017-10-25T09:05:29Z</time>
      </trkpt>
      <trkpt lat="46.76148" lon="9.55496">
        <ele>1479</ele>
        <time>2017-10-25T09:07:29Z</time>
      </trkpt>
      <trkpt lat="46.76143" lon="9.55504">
        <ele>1481</ele>
        <time>2017-10-25T09:09:29Z</time>
      </trkpt>
      <trkpt lat="46.76117" lon="9.55548">
        <ele>1487</ele>
        <time>2017-10-25T09:11:29Z</time>
      </trkpt>
      <trkpt lat="46.76097" lon="9.55582">
        <ele>1488</ele>
        <time>2017-10-25T09:13:29Z</time>
      </trkpt>
      <trkpt lat="46.7608" lon="9.55597">
        <ele>1488</ele>
        <time>2017-10-25T09:15:29Z</time>
      </trkpt>
      <trkpt lat="46.76065" lon="9.55614">
        <ele>1492</ele>
        <time>2017-10-25T09:17:29Z</time>
      </trkpt>
      <trkpt lat="46.76056" lon="9.55626">
        <ele>1494</ele>
        <time>2017-10-25T09:19:29Z</time>
      </trkpt>
      <trkpt lat="46.76044" lon="9.55649">
        <ele>1496</ele>
        <time>2017-10-25T09:21:29Z</time>
      </trkpt>
      <trkpt lat="46.76035" lon="9.55674">
        <ele>1497</ele>
        <time>2017-10-25T09:23:29Z</time>
      </trkpt>
      <trkpt lat="46.76025" lon="9.55704">
        <ele>1497</ele>
        <time>2017-10-25T09:25:29Z</time>
      </trkpt>
      <trkpt lat="46.76013" lon="9.55745">
        <ele>1497</ele>
        <time>2017-10-25T09:27:29Z</time>
      </trkpt>
      <trkpt lat="46.76003" lon="9.55774">
        <ele>1497</ele>
        <time>2017-10-25T09:29:29Z</time>
      </trkpt>
      <trkpt lat="46.75989" lon="9.55798">
        <ele>1498</ele>
        <time>2017-10-25T09:31:29Z</time>
      </trkpt>
      <trkpt lat="46.75964" lon="9.55839">
        <ele>1500</ele>
        <time>2017-10-25T09:33:29Z</time>
      </trkpt>
      <trkpt lat="46.7594" lon="9.55876">
        <ele>1501</ele>
        <time>2017-10-25T09:35:29Z</time>
      </trkpt>
      <trkpt lat="46.75924" lon="9.559">
        <ele>1502</ele>
        <time>2017-10-25T09:37:29Z</time>
      </trkpt>
      <trkpt lat="46.75905" lon="9.55933">
        <ele>1503</ele>
        <time>2017-10-25T09:39:29Z</time>
      </trkpt>
      <trkpt lat="46.75886" lon="9.55964">
        <ele>1505</ele>
        <time>2017-10-25T09:41:29Z</time>
      </trkpt>
      <trkpt lat="46.75881" lon="9.55973">
        <ele>1506</ele>
        <time>2017-10-25T09:43:29Z</time>
      </trkpt>
      <trkpt lat="46.75843" lon="9.56022">
        <ele>1510</ele>
        <time>2017-10-25T09:45:29Z</time>
      </trkpt>
      <trkpt lat="46.75816" lon="9.56054">
        <ele>1514</ele>
        <time>2017-10-25T09:47:29Z</time>
      </trkpt>
      <trkpt lat="46.75798" lon="9.56074">
        <ele>1516</ele>
        <time>2017-10-25T09:49:29Z</time>
      </trkpt>
      <trkpt lat="46.75784" lon="9.56087">
        <ele>1518</ele>
        <time>2017-10-25T09:51:29Z</time>
      </trkpt>
      <trkpt lat="46.75765" lon="9.56101">
        <ele>1520</ele>
        <time>2017-10-25T09:53:29Z</time>
      </trkpt>
      <trkpt lat="46.75755" lon="9.56106">
        <ele>1521</ele>
        <time>2017-10-25T09:55:29Z</time>
      </trkpt>
      <trkpt lat="46.75733" lon="9.56113">
        <ele>1524</ele>
        <time>2017-10-25T09:57:29Z</time>
      </trkpt>
      <trkpt lat="46.75718" lon="9.56118">
        <ele>1526</ele>
        <time>2017-10-25T09:59:29Z</time>
      </trkpt>
      <trkpt lat="46.75707" lon="9.56123">
        <ele>1527</ele>
        <time>2017-10-25T10:01:29Z</time>
      </trkpt>
      <trkpt lat="46.75697" lon="9.56126">
        <ele>1529</ele>
        <time>2017-10-25T10:03:29Z</time>
      </trkpt>
      <trkpt lat="46.75664" lon="9.56123">
        <ele>1534</ele>
        <time>2017-10-25T10:05:29Z</time>
      </trkpt>
      <trkpt lat="46.75631" lon="9.56113">
        <ele>1540</ele>
        <time>2017-10-25T10:07:29Z</time>
      </trkpt>
      <trkpt lat="46.75623" lon="9.56111">
        <ele>1542</ele>
        <time>2017-10-25T10:09:29Z</time>
      </trkpt>
      <trkpt lat="46.75617" lon="9.56108">
        <ele>1543</ele>
        <time>2017-10-25T10:11:29Z</time>
      </trkpt>
      <trkpt lat="46.7561" lon="9.56104">
        <ele>1545</ele>
        <time>2017-10-25T10:13:29Z</time>
      </trkpt>
      <trkpt lat="46.75601" lon="9.56097">
        <ele>1547</ele>
        <time>2017-10-25T10:15:29Z</time>
      </trkpt>
      <trkpt lat="46.75594" lon="9.56089">
        <ele>1548</ele>
        <time>2017-10-25T10:17:29Z</time>
      </trkpt>
      <trkpt lat="46.75589" lon="9.56082">
        <ele>1549</ele>
        <time>2017-10-25T10:19:29Z</time>
      </trkpt>
      <trkpt lat="46.75579" lon="9.56066">
        <ele>1551</ele>
        <time>2017-10-25T10:21:29Z</time>
      </trkpt>
      <trkpt lat="46.75567" lon="9.56045">
        <ele>1552</ele>
        <time>2017-10-25T10:23:29Z</time>
      </trkpt>
      <trkpt lat="46.75553" lon="9.56024">
        <ele>1554</ele>
        <time>2017-10-25T10:25:29Z</time>
      </trkpt>
      <trkpt lat="46.7554" lon="9.56006">
        <ele>1556</ele>
        <time>2017-10-25T10:27:29Z</time>
      </trkpt>
      <trkpt lat="46.7553" lon="9.55993">
        <ele>1557</ele>
        <time>2017-10-25T10:29:29Z</time>
      </trkpt>
      <trkpt lat="46.75525" lon="9.55988">
        <ele>1558</ele>
        <time>2017-10-25T10:31:29Z</time>
      </trkpt>
      <trkpt lat="46.75487" lon="9.55959">
        <ele>1561</ele>
        <time>2017-10-25T10:33:29Z</time>
      </trkpt>
      <trkpt lat="46.75431" lon="9.55917">
        <ele>1559</ele>
        <time>2017-10-25T10:35:29Z</time>
      </trkpt>
      <trkpt lat="46.75424" lon="9.55912">
        <ele>1559</ele>
        <time>2017-10-25T10:37:29Z</time>
      </trkpt>
      <trkpt lat="46.75388" lon="9.55883">
        <ele>1558</ele>
        <time>2017-10-25T10:39:29Z</time>
      </trkpt>
      <trkpt lat="46.75372" lon="9.55871">
        <ele>1557</ele>
        <time>2017-10-25T10:41:29Z</time>
      </trkpt>
      <trkpt lat="46.75359" lon="9.55861">
        <ele>1556</ele>
        <time>2017-10-25T10:43:29Z</time>
      </trkpt>
      <trkpt lat="46.7535" lon="9.55852">
        <ele>1555</ele>
        <time>2017-10-25T10:45:29Z</time>
      </trkpt>
      <trkpt lat="46.75341" lon="9.55843">
        <ele>1554</ele>
        <time>2017-10-25T10:47:29Z</time>
      </trkpt>
      <trkpt lat="46.75332" lon="9.55833">
        <ele>1553</ele>
        <time>2017-10-25T10:49:29Z</time>
      </trkpt>
      <trkpt lat="46.75328" lon="9.55827">
        <ele>1552</ele>
        <time>2017-10-25T10:51:29Z</time>
      </trkpt>
      <trkpt lat="46.75312" lon="9.55797">
        <ele>1550</ele>
        <time>2017-10-25T10:53:29Z</time>
      </trkpt>
      <trkpt lat="46.75298" lon="9.55769">
        <ele>1548</ele>
        <time>2017-10-25T10:55:29Z</time>
      </trkpt>
      <trkpt lat="46.75285" lon="9.55745">
        <ele>1546</ele>
        <time>2017-10-25T10:57:29Z</time>
      </trkpt>
      <trkpt lat="46.75276" lon="9.55728">
        <ele>1545</ele>
        <time>2017-10-25T10:59:29Z</time>
      </trkpt>
      <trkpt lat="46.75267" lon="9.5571">
        <ele>1545</ele>
        <time>2017-10-25T11:01:29Z</time>
      </trkpt>
      <trkpt lat="46.7526" lon="9.557">
        <ele>1546</ele>
        <time>2017-10-25T11:03:29Z</time>
      </trkpt>
      <trkpt lat="46.75255" lon="9.55694">
        <ele>1546</ele>
        <time>2017-10-25T11:05:29Z</time>
      </trkpt>
      <trkpt lat="46.75251" lon="9.55691">
        <ele>1546</ele>
        <time>2017-10-25T11:07:29Z</time>
      </trkpt>
      <trkpt lat="46.75244" lon="9.55686">
        <ele>1546</ele>
        <time>2017-10-25T11:09:29Z</time>
      </trkpt>
      <trkpt lat="46.75236" lon="9.55683">
        <ele>1546</ele>
        <time>2017-10-25T11:11:29Z</time>
      </trkpt>
      <trkpt lat="46.75228" lon="9.55682">
        <ele>1546</ele>
        <time>2017-10-25T11:13:29Z</time>
      </trkpt>
      <trkpt lat="46.75222" lon="9.55683">
        <ele>1546</ele>
        <time>2017-10-25T11:15:29Z</time>
      </trkpt>
      <trkpt lat="46.75209" lon="9.55687">
        <ele>1545</ele>
        <time>2017-10-25T11:17:29Z</time>
      </trkpt>
      <trkpt lat="46.75193" lon="9.55695">
        <ele>1545</ele>
        <time>2017-10-25T11:19:29Z</time>
      </trkpt>
      <trkpt lat="46.75184" lon="9.55699">
        <ele>1544</ele>
        <time>2017-10-25T11:21:29Z</time>
      </trkpt>
      <trkpt lat="46.7518" lon="9.55701">
        <ele>1544</ele>
        <time>2017-10-25T11:23:29Z</time>
      </trkpt>
      <trkpt lat="46.75174" lon="9.55703">
        <ele>1544</ele>
        <time>2017-10-25T11:25:29Z</time>
      </trkpt>
      <trkpt lat="46.75165" lon="9.55706">
        <ele>1543</ele>
        <time>2017-10-25T11:27:29Z</time>
      </trkpt>
      <trkpt lat="46.75161" lon="9.55706">
        <ele>1543</ele>
        <time>2017-10-25T11:29:29Z</time>
      </trkpt>
      <trkpt lat="46.75157" lon="9.55706">
        <ele>1543</ele>
        <time>2017-10-25T11:31:29Z</time>
      </trkpt>
      <trkpt lat="46.75151" lon="9.55705">
        <ele>1543</ele>
        <time>2017-10-25T11:33:29Z</time>
      </trkpt>
      <trkpt lat="46.75145" lon="9.55702">
        <ele>1543</ele>
        <time>2017-10-25T11:35:29Z</time>
      </trkpt>
      <trkpt lat="46.75138" lon="9.55697">
        <ele>1544</ele>
        <time>2017-10-25T11:37:29Z</time>
      </trkpt>
      <trkpt lat="46.75084" lon="9.55638">
        <ele>1545</ele>
        <time>2017-10-25T11:39:29Z</time>
      </trkpt>
      <trkpt lat="46.7508" lon="9.55634">
        <ele>1545</ele>
        <time>2017-10-25T11:41:29Z</time>
      </trkpt>
      <trkpt lat="46.75073" lon="9.55629">
        <ele>1544</ele>
        <time>2017-10-25T11:43:29Z</time>
      </trkpt>
      <trkpt lat="46.75059" lon="9.55621">
        <ele>1543</ele>
        <time>2017-10-25T11:45:29Z</time>
      </trkpt>
      <trkpt lat="46.75023" lon="9.55605">
        <ele>1540</ele>
        <time>2017-10-25T11:47:29Z</time>
      </trkpt>
      <trkpt lat="46.75004" lon="9.55597">
        <ele>1538</ele>
        <time>2017-10-25T11:49:29Z</time>
      </trkpt>
      <trkpt lat="46.74996" lon="9.55594">
        <ele>1538</ele>
        <time>2017-10-25T11:51:29Z</time>
      </trkpt>
      <trkpt lat="46.74988" lon="9.55592">
        <ele>1538</ele>
        <time>2017-10-25T11:53:29Z</time>
      </trkpt>
      <trkpt lat="46.74975" lon="9.5559">
        <ele>1537</ele>
        <time>2017-10-25T11:55:29Z</time>
      </trkpt>
      <trkpt lat="46.74964" lon="9.5559">
        <ele>1537</ele>
        <time>2017-10-25T11:57:29Z</time>
      </trkpt>
      <trkpt lat="46.74949" lon="9.55592">
        <ele>1536</ele>
        <time>2017-10-25T11:59:29Z</time>
      </trkpt>
      <trkpt lat="46.74927" lon="9.55595">
        <ele>1535</ele>
        <time>2017-10-25T12:01:29Z</time>
      </trkpt>
      <trkpt lat="46.74871" lon="9.55601">
        <ele>1533</ele>
        <time>2017-10-25T12:03:29Z</time>
      </trkpt>
      <trkpt lat="46.74857" lon="9.556">
        <ele>1532</ele>
        <time>2017-10-25T12:05:29Z</time>
      </trkpt>
      <trkpt lat="46.74848" lon="9.556">
        <ele>1531</ele>
        <time>2017-10-25T12:07:29Z</time>
      </trkpt>
      <trkpt lat="46.74831" lon="9.55597">
        <ele>1530</ele>
        <time>2017-10-25T12:09:29Z</time>
      </trkpt>
      <trkpt lat="46.74813" lon="9.55593">
        <ele>1530</ele>
        <time>2017-10-25T12:11:29Z</time>
      </trkpt>
      <trkpt lat="46.74797" lon="9.5559">
        <ele>1529</ele>
        <time>2017-10-25T12:13:29Z</time>
      </trkpt>
      <trkpt lat="46.74776" lon="9.55586">
        <ele>1529</ele>
        <time>2017-10-25T12:15:29Z</time>
      </trkpt>
      <trkpt lat="46.74749" lon="9.55579">
        <ele>1529</ele>
        <time>2017-10-25T12:17:29Z</time>
      </trkpt>
      <trkpt lat="46.74732" lon="9.55574">
        <ele>1527</ele>
        <time>2017-10-25T12:19:29Z</time>
      </trkpt>
      <trkpt lat="46.74714" lon="9.55567">
        <ele>1525</ele>
        <time>2017-10-25T12:21:29Z</time>
      </trkpt>
      <trkpt lat="46.74698" lon="9.5556">
        <ele>1524</ele>
        <time>2017-10-25T12:23:29Z</time>
      </trkpt>
      <trkpt lat="46.7469" lon="9.55556">
        <ele>1523</ele>
        <time>2017-10-25T12:25:29Z</time>
      </trkpt>
      <trkpt lat="46.74681" lon="9.55552">
        <ele>1522</ele>
        <time>2017-10-25T12:27:29Z</time>
      </trkpt>
      <trkpt lat="46.74674" lon="9.5555">
        <ele>1521</ele>
        <time>2017-10-25T12:29:29Z</time>
      </trkpt>
      <trkpt lat="46.74667" lon="9.55548">
        <ele>1521</ele>
        <time>2017-10-25T12:31:29Z</time>
      </trkpt>
      <trkpt lat="46.74657" lon="9.55548">
        <ele>1519</ele>
        <time>2017-10-25T12:33:29Z</time>
      </trkpt>
      <trkpt lat="46.74647" lon="9.55549">
        <ele>1518</ele>
        <time>2017-10-25T12:35:29Z</time>
      </trkpt>
      <trkpt lat="46.74638" lon="9.5555">
        <ele>1516</ele>
        <time>2017-10-25T12:37:29Z</time>
      </trkpt>
      <trkpt lat="46.7463" lon="9.55553">
        <ele>1515</ele>
        <time>2017-10-25T12:39:29Z</time>
      </trkpt>
      <trkpt lat="46.74606" lon="9.55569">
        <ele>1511</ele>
        <time>2017-10-25T12:41:29Z</time>
      </trkpt>
      <trkpt lat="46.74595" lon="9.55578">
        <ele>1510</ele>
        <time>2017-10-25T12:43:29Z</time>
      </trkpt>
      <trkpt lat="46.74579" lon="9.55592">
        <ele>1508</ele>
        <time>2017-10-25T12:45:29Z</time>
      </trkpt>
      <trkpt lat="46.74546" lon="9.55618">
        <ele>1506</ele>
        <time>2017-10-25T12:47:29Z</time>
      </trkpt>
      <trkpt lat="46.74539" lon="9.55622">
        <ele>1506</ele>
        <time>2017-10-25T12:49:29Z</time>
      </trkpt>
      <trkpt lat="46.74534" lon="9.55626">
        <ele>1505</ele>
        <time>2017-10-25T12:51:29Z</time>
      </trkpt>
      <trkpt lat="46.74528" lon="9.5563">
        <ele>1505</ele>
        <time>2017-10-25T12:53:29Z</time>
      </trkpt>
      <trkpt lat="46.74524" lon="9.55631">
        <ele>1505</ele>
        <time>2017-10-25T12:55:29Z</time>
      </trkpt>
      <trkpt lat="46.74513" lon="9.55635">
        <ele>1504</ele>
        <time>2017-10-25T12:57:29Z</time>
      </trkpt>
      <trkpt lat="46.74504" lon="9.55637">
        <ele>1504</ele>
        <time>2017-10-25T12:59:29Z</time>
      </trkpt>
      <trkpt lat="46.74499" lon="9.55638">
        <ele>1503</ele>
        <time>2017-10-25T13:01:29Z</time>
      </trkpt>
      <trkpt lat="46.74493" lon="9.55638">
        <ele>1503</ele>
        <time>2017-10-25T13:03:29Z</time>
      </trkpt>
      <trkpt lat="46.74488" lon="9.55639">
        <ele>1503</ele>
        <time>2017-10-25T13:05:29Z</time>
      </trkpt>
      <trkpt lat="46.74482" lon="9.5564">
        <ele>1502</ele>
        <time>2017-10-25T13:07:29Z</time>
      </trkpt>
      <trkpt lat="46.74474" lon="9.55642">
        <ele>1502</ele>
        <time>2017-10-25T13:09:29Z</time>
      </trkpt>
      <trkpt lat="46.74469" lon="9.55644">
        <ele>1502</ele>
        <time>2017-10-25T13:11:29Z</time>
      </trkpt>
      <trkpt lat="46.74464" lon="9.55647">
        <ele>1502</ele>
        <time>2017-10-25T13:13:29Z</time>
      </trkpt>
      <trkpt lat="46.74457" lon="9.55651">
        <ele>1502</ele>
        <time>2017-10-25T13:15:29Z</time>
      </trkpt>
      <trkpt lat="46.74448" lon="9.55657">
        <ele>1501</ele>
        <time>2017-10-25T13:17:29Z</time>
      </trkpt>
      <trkpt lat="46.74442" lon="9.55661">
        <ele>1501</ele>
        <time>2017-10-25T13:19:29Z</time>
      </trkpt>
      <trkpt lat="46.74435" lon="9.55665">
        <ele>1501</ele>
        <time>2017-10-25T13:21:29Z</time>
      </trkpt>
      <trkpt lat="46.74428" lon="9.55668">
        <ele>1501</ele>
        <time>2017-10-25T13:23:29Z</time>
      </trkpt>
      <trkpt lat="46.74419" lon="9.55671">
        <ele>1501</ele>
        <time>2017-10-25T13:25:29Z</time>
      </trkpt>
      <trkpt lat="46.74417" lon="9.55671">
        <ele>1501</ele>
        <time>2017-10-25T13:27:29Z</time>
      </trkpt>
      <trkpt lat="46.74413" lon="9.55671">
        <ele>1501</ele>
        <time>2017-10-25T13:29:29Z</time>
      </trkpt>
      <trkpt lat="46.74408" lon="9.55671">
        <ele>1502</ele>
        <time>2017-10-25T13:31:29Z</time>
      </trkpt>
      <trkpt lat="46.74403" lon="9.5567">
        <ele>1502</ele>
        <time>2017-10-25T13:33:29Z</time>
      </trkpt>
      <trkpt lat="46.74397" lon="9.55668">
        <ele>1502</ele>
        <time>2017-10-25T13:35:29Z</time>
      </trkpt>
      <trkpt lat="46.74386" lon="9.55662">
        <ele>1502</ele>
        <time>2017-10-25T13:37:29Z</time>
      </trkpt>
      <trkpt lat="46.74377" lon="9.55655">
        <ele>1502</ele>
        <time>2017-10-25T13:39:29Z</time>
      </trkpt>
      <trkpt lat="46.74367" lon="9.55648">
        <ele>1502</ele>
        <time>2017-10-25T13:41:29Z</time>
      </trkpt>
      <trkpt lat="46.74355" lon="9.55636">
        <ele>1500</ele>
        <time>2017-10-25T13:43:29Z</time>
      </trkpt>
      <trkpt lat="46.74341" lon="9.55625">
        <ele>1499</ele>
        <time>2017-10-25T13:45:29Z</time>
      </trkpt>
      <trkpt lat="46.74333" lon="9.55617">
        <ele>1497</ele>
        <time>2017-10-25T13:47:29Z</time>
      </trkpt>
      <trkpt lat="46.74322" lon="9.5561">
        <ele>1496</ele>
        <time>2017-10-25T13:49:29Z</time>
      </trkpt>
      <trkpt lat="46.74311" lon="9.55604">
        <ele>1496</ele>
        <time>2017-10-25T13:51:29Z</time>
      </trkpt>
      <trkpt lat="46.74302" lon="9.556">
        <ele>1495</ele>
        <time>2017-10-25T13:53:29Z</time>
      </trkpt>
      <trkpt lat="46.74281" lon="9.55592">
        <ele>1494</ele>
        <time>2017-10-25T13:55:29Z</time>
      </trkpt>
      <trkpt lat="46.74239" lon="9.55576">
        <ele>1494</ele>
        <time>2017-10-25T13:57:29Z</time>
      </trkpt>
      <trkpt lat="46.74203" lon="9.55562">
        <ele>1494</ele>
        <time>2017-10-25T13:59:29Z</time>
      </trkpt>
      <trkpt lat="46.74175" lon="9.55552">
        <ele>1494</ele>
        <time>2017-10-25T14:01:29Z</time>
      </trkpt>
      <trkpt lat="46.7415" lon="9.55544">
        <ele>1492</ele>
        <time>2017-10-25T14:03:29Z</time>
      </trkpt>
      <trkpt lat="46.74135" lon="9.55542">
        <ele>1492</ele>
        <time>2017-10-25T14:05:29Z</time>
      </trkpt>
      <trkpt lat="46.74133" lon="9.55542">
        <ele>1492</ele>
        <time>2017-10-25T14:07:29Z</time>
      </trkpt>
      <trkpt lat="46.7412" lon="9.55542">
        <ele>1491</ele>
        <time>2017-10-25T14:09:29Z</time>
      </trkpt>
      <trkpt lat="46.74105" lon="9.55545">
        <ele>1491</ele>
        <time>2017-10-25T14:11:29Z</time>
      </trkpt>
      <trkpt lat="46.7409" lon="9.55551">
        <ele>1491</ele>
        <time>2017-10-25T14:13:29Z</time>
      </trkpt>
      <trkpt lat="46.74075" lon="9.55559">
        <ele>1492</ele>
        <time>2017-10-25T14:15:29Z</time>
      </trkpt>
      <trkpt lat="46.74054" lon="9.55572">
        <ele>1492</ele>
        <time>2017-10-25T14:17:29Z</time>
      </trkpt>
      <trkpt lat="46.74047" lon="9.55577">
        <ele>1492</ele>
        <time>2017-10-25T14:19:29Z</time>
      </trkpt>
      <trkpt lat="46.74021" lon="9.55593">
        <ele>1492</ele>
        <time>2017-10-25T14:21:29Z</time>
      </trkpt>
      <trkpt lat="46.74007" lon="9.55601">
        <ele>1492</ele>
        <time>2017-10-25T14:23:29Z</time>
      </trkpt>
      <trkpt lat="46.73999" lon="9.55604">
        <ele>1492</ele>
        <time>2017-10-25T14:25:29Z</time>
      </trkpt>
      <trkpt lat="46.73989" lon="9.55605">
        <ele>1492</ele>
        <time>2017-10-25T14:27:29Z</time>
      </trkpt>
      <trkpt lat="46.73979" lon="9.55603">
        <ele>1493</ele>
        <time>2017-10-25T14:29:29Z</time>
      </trkpt>
      <trkpt lat="46.73973" lon="9.55601">
        <ele>1493</ele>
        <time>2017-10-25T14:31:29Z</time>
      </trkpt>
      <trkpt lat="46.73966" lon="9.55598">
        <ele>1493</ele>
        <time>2017-10-25T14:33:29Z</time>
      </trkpt>
      <trkpt lat="46.73956" lon="9.55593">
        <ele>1494</ele>
        <time>2017-10-25T14:35:29Z</time>
      </trkpt>
      <trkpt lat="46.73953" lon="9.5559">
        <ele>1494</ele>
        <time>2017-10-25T14:37:29Z</time>
      </trkpt>
      <trkpt lat="46.73948" lon="9.55585">
        <ele>1494</ele>
        <time>2017-10-25T14:39:29Z</time>
      </trkpt>
      <trkpt lat="46.73944" lon="9.55579">
        <ele>1494</ele>
        <time>2017-10-25T14:41:29Z</time>
      </trkpt>
      <trkpt lat="46.7394" lon="9.55574">
        <ele>1495</ele>
        <time>2017-10-25T14:43:29Z</time>
      </trkpt>
      <trkpt lat="46.73937" lon="9.55569">
        <ele>1495</ele>
        <time>2017-10-25T14:45:29Z</time>
      </trkpt>
      <trkpt lat="46.73933" lon="9.55562">
        <ele>1495</ele>
        <time>2017-10-25T14:47:29Z</time>
      </trkpt>
      <trkpt lat="46.7393" lon="9.55553">
        <ele>1496</ele>
        <time>2017-10-25T14:49:29Z</time>
      </trkpt>
      <trkpt lat="46.73927" lon="9.55545">
        <ele>1496</ele>
        <time>2017-10-25T14:51:29Z</time>
      </trkpt>
      <trkpt lat="46.73924" lon="9.55535">
        <ele>1497</ele>
        <time>2017-10-25T14:53:29Z</time>
      </trkpt>
      <trkpt lat="46.73923" lon="9.55524">
        <ele>1497</ele>
        <time>2017-10-25T14:55:29Z</time>
      </trkpt>
      <trkpt lat="46.73922" lon="9.55518">
        <ele>1497</ele>
        <time>2017-10-25T14:57:29Z</time>
      </trkpt>
      <trkpt lat="46.73922" lon="9.55505">
        <ele>1497</ele>
        <time>2017-10-25T14:59:29Z</time>
      </trkpt>
      <trkpt lat="46.73923" lon="9.55493">
        <ele>1497</ele>
        <time>2017-10-25T15:01:29Z</time>
      </trkpt>
      <trkpt lat="46.73923" lon="9.55483">
        <ele>1497</ele>
        <time>2017-10-25T15:03:29Z</time>
      </trkpt>
      <trkpt lat="46.73925" lon="9.55474">
        <ele>1497</ele>
        <time>2017-10-25T15:05:29Z</time>
      </trkpt>
      <trkpt lat="46.73928" lon="9.55457">
        <ele>1497</ele>
        <time>2017-10-25T15:07:29Z</time>
      </trkpt>
      <trkpt lat="46.73936" lon="9.55417">
        <ele>1497</ele>
        <time>2017-10-25T15:09:29Z</time>
      </trkpt>
      <trkpt lat="46.73938" lon="9.55402">
        <ele>1495</ele>
        <time>2017-10-25T15:11:29Z</time>
      </trkpt>
      <trkpt lat="46.7394" lon="9.55391">
        <ele>1494</ele>
        <time>2017-10-25T15:13:29Z</time>
      </trkpt>
      <trkpt lat="46.7394" lon="9.55381">
        <ele>1493</ele>
        <time>2017-10-25T15:15:29Z</time>
      </trkpt>
      <trkpt lat="46.73941" lon="9.55373">
        <ele>1492</ele>
        <time>2017-10-25T15:17:29Z</time>
      </trkpt>
      <trkpt lat="46.7394" lon="9.55366">
        <ele>1492</ele>
        <time>2017-10-25T15:19:29Z</time>
      </trkpt>
      <trkpt lat="46.73939" lon="9.55357">
        <ele>1491</ele>
        <time>2017-10-25T15:21:29Z</time>
      </trkpt>
      <trkpt lat="46.73938" lon="9.55348">
        <ele>1491</ele>
        <time>2017-10-25T15:23:29Z</time>
      </trkpt>
      <trkpt lat="46.73935" lon="9.55339">
        <ele>1490</ele>
        <time>2017-10-25T15:25:29Z</time>
      </trkpt>
      <trkpt lat="46.73932" lon="9.55331">
        <ele>1490</ele>
        <time>2017-10-25T15:27:29Z</time>
      </trkpt>
      <trkpt lat="46.73929" lon="9.55325">
        <ele>1490</ele>
        <time>2017-10-25T15:29:29Z</time>
      </trkpt>
      <trkpt lat="46.73926" lon="9.55319">
        <ele>1490</ele>
        <time>2017-10-25T15:31:29Z</time>
      </trkpt>
      <trkpt lat="46.73923" lon="9.55314">
        <ele>1490</ele>
        <time>2017-10-25T15:33:29Z</time>
      </trkpt>
      <trkpt lat="46.7392" lon="9.5531">
        <ele>1490</ele>
        <time>2017-10-25T15:35:29Z</time>
      </trkpt>
      <trkpt lat="46.73916" lon="9.55306">
        <ele>1490</ele>
        <time>2017-10-25T15:37:29Z</time>
      </trkpt>
      <trkpt lat="46.73911" lon="9.55302">
        <ele>1490</ele>
        <time>2017-10-25T15:39:29Z</time>
      </trkpt>
      <trkpt lat="46.73909" lon="9.553">
        <ele>1490</ele>
        <time>2017-10-25T15:41:29Z</time>
      </trkpt>
      <trkpt lat="46.73905" lon="9.55298">
        <ele>1490</ele>
        <time>2017-10-25T15:43:29Z</time>
      </trkpt>
      <trkpt lat="46.73901" lon="9.55296">
        <ele>1490</ele>
        <time>2017-10-25T15:45:29Z</time>
      </trkpt>
      <trkpt lat="46.73897" lon="9.55294">
        <ele>1490</ele>
        <time>2017-10-25T15:47:29Z</time>
      </trkpt>
      <trkpt lat="46.73893" lon="9.55293">
        <ele>1490</ele>
        <time>2017-10-25T15:49:29Z</time>
      </trkpt>
      <trkpt lat="46.73889" lon="9.55292">
        <ele>1490</ele>
        <time>2017-10-25T15:51:29Z</time>
      </trkpt>
      <trkpt lat="46.73884" lon="9.55292">
        <ele>1490</ele>
        <time>2017-10-25T15:53:29Z</time>
      </trkpt>
      <trkpt lat="46.73878" lon="9.55292">
        <ele>1490</ele>
        <time>2017-10-25T15:55:29Z</time>
      </trkpt>
      <trkpt lat="46.73868" lon="9.55293">
        <ele>1491</ele>
        <time>2017-10-25T15:57:29Z</time>
      </trkpt>
      <trkpt lat="46.73858" lon="9.55295">
        <ele>1492</ele>
        <time>2017-10-25T15:59:29Z</time>
      </trkpt>
      <trkpt lat="46.73837" lon="9.55299">
        <ele>1493</ele>
        <time>2017-10-25T16:01:29Z</time>
      </trkpt>
      <trkpt lat="46.73837" lon="9.55299">
        <ele>1493</ele>
        <time>2017-10-25T16:03:29Z</time>
      </trkpt>
      <trkpt lat="46.73836" lon="9.55281">
        <ele>1491</ele>
        <time>2017-10-25T16:05:29Z</time>
      </trkpt>
      <trkpt lat="46.73835" lon="9.5526">
        <ele>1488</ele>
        <time>2017-10-25T16:07:29Z</time>
      </trkpt>
      <trkpt lat="46.73835" lon="9.55053">
        <ele>1482</ele>
        <time>2017-10-25T16:09:29Z</time>
      </trkpt>
      <trkpt lat="46.73835" lon="9.55043">
        <ele>1482</ele>
        <time>2017-10-25T16:11:29Z</time>
      </trkpt>
      <trkpt lat="46.73833" lon="9.55034">
        <ele>1482</ele>
        <time>2017-10-25T16:13:29Z</time>
      </trkpt>
      <trkpt lat="46.73824" lon="9.55025">
        <ele>1482</ele>
        <time>2017-10-25T16:15:29Z</time>
      </trkpt>
      <trkpt lat="46.73814" lon="9.55019">
        <ele>1482</ele>
        <time>2017-10-25T16:17:29Z</time>
      </trkpt>
      <trkpt lat="46.738" lon="9.55012">
        <ele>1482</ele>
        <time>2017-10-25T16:19:29Z</time>
      </trkpt>
      <trkpt lat="46.73774" lon="9.55003">
        <ele>1482</ele>
        <time>2017-10-25T16:21:29Z</time>
      </trkpt>
      <trkpt lat="46.73721" lon="9.54988">
        <ele>1482</ele>
        <time>2017-10-25T16:23:29Z</time>
      </trkpt>
      <trkpt lat="46.73682" lon="9.54974">
        <ele>1484</ele>
        <time>2017-10-25T16:25:29Z</time>
      </trkpt>
      <trkpt lat="46.73669" lon="9.54963">
        <ele>1486</ele>
        <time>2017-10-25T16:27:29Z</time>
      </trkpt>
      <trkpt lat="46.73657" lon="9.54948">
        <ele>1487</ele>
        <time>2017-10-25T16:29:29Z</time>
      </trkpt>
      <trkpt lat="46.73645" lon="9.54923">
        <ele>1489</ele>
        <time>2017-10-25T16:31:29Z</time>
      </trkpt>
      <trkpt lat="46.7364" lon="9.54898">
        <ele>1489</ele>
        <time>2017-10-25T16:33:29Z</time>
      </trkpt>
      <trkpt lat="46.7364" lon="9.54898">
        <ele>1489</ele>
        <time>2017-10-25T16:35:29Z</time>
      </trkpt>
      <trkpt lat="46.73638" lon="9.54891">
        <ele>1489</ele>
        <time>2017-10-25T16:37:29Z</time>
      </trkpt>
      <trkpt lat="46.73631" lon="9.54883">
        <ele>1489</ele>
        <time>2017-10-25T16:39:29Z</time>
      </trkpt>
      <trkpt lat="46.73621" lon="9.54882">
        <ele>1489</ele>
        <time>2017-10-25T16:41:29Z</time>
      </trkpt>
      <trkpt lat="46.73616" lon="9.5488">
        <ele>1489</ele>
        <time>2017-10-25T16:43:29Z</time>
      </trkpt>
      <trkpt lat="46.73604" lon="9.54864">
        <ele>1489</ele>
        <time>2017-10-25T16:45:29Z</time>
      </trkpt>
      <trkpt lat="46.73599" lon="9.54857">
        <ele>1489</ele>
        <time>2017-10-25T16:47:29Z</time>
      </trkpt>
      <trkpt lat="46.73595" lon="9.5485">
        <ele>1489</ele>
        <time>2017-10-25T16:49:29Z</time>
      </trkpt>
      <trkpt lat="46.73589" lon="9.54846">
        <ele>1489</ele>
        <time>2017-10-25T16:51:29Z</time>
      </trkpt>
      <trkpt lat="46.73581" lon="9.54845">
        <ele>1490</ele>
        <time>2017-10-25T16:53:29Z</time>
      </trkpt>
      <trkpt lat="46.73572" lon="9.54842">
        <ele>1490</ele>
        <time>2017-10-25T16:55:29Z</time>
      </trkpt>
      <trkpt lat="46.73555" lon="9.54834">
        <ele>1490</ele>
        <time>2017-10-25T16:57:29Z</time>
      </trkpt>
      <trkpt lat="46.73545" lon="9.54834">
        <ele>1490</ele>
        <time>2017-10-25T16:59:29Z</time>
      </trkpt>
      <trkpt lat="46.73542" lon="9.54834">
        <ele>1490</ele>
        <time>2017-10-25T17:01:29Z</time>
      </trkpt>
      <trkpt lat="46.73542" lon="9.54833">
        <ele>1490</ele>
        <time>2017-10-25T17:03:29Z</time>
      </trkpt>
      <trkpt lat="46.73525" lon="9.54828">
        <ele>1490</ele>
        <time>2017-10-25T17:05:29Z</time>
      </trkpt>
      <trkpt lat="46.73525" lon="9.54828">
        <ele>1490</ele>
        <time>2017-10-25T17:07:29Z</time>
      </trkpt>
      <trkpt lat="46.73525" lon="9.54834">
        <ele>1490</ele>
        <time>2017-10-25T17:09:29Z</time>
      </trkpt>
      <trkpt lat="46.73513" lon="9.54872">
        <ele>1489</ele>
        <time>2017-10-25T17:11:29Z</time>
      </trkpt>
      <trkpt lat="46.73504" lon="9.54898">
        <ele>1488</ele>
        <time>2017-10-25T17:13:29Z</time>
      </trkpt>
      <trkpt lat="46.73502" lon="9.54914">
        <ele>1488</ele>
        <time>2017-10-25T17:15:29Z</time>
      </trkpt>
      <trkpt lat="46.735" lon="9.54919">
        <ele>1488</ele>
        <time>2017-10-25T17:17:29Z</time>
      </trkpt>
      <trkpt lat="46.73497" lon="9.5493">
        <ele>1487</ele>
        <time>2017-10-25T17:19:29Z</time>
      </trkpt>
      <trkpt lat="46.73494" lon="9.5494">
        <ele>1486</ele>
        <time>2017-10-25T17:21:29Z</time>
      </trkpt>
      <trkpt lat="46.73493" lon="9.54948">
        <ele>1485</ele>
        <time>2017-10-25T17:23:29Z</time>
      </trkpt>
      <trkpt lat="46.73494" lon="9.54964">
        <ele>1484</ele>
        <time>2017-10-25T17:25:29Z</time>
      </trkpt>
      <trkpt lat="46.73498" lon="9.54981">
        <ele>1483</ele>
        <time>2017-10-25T17:27:29Z</time>
      </trkpt>
      <trkpt lat="46.73497" lon="9.54981">
        <ele>1482</ele>
        <time>2017-10-25T17:29:29Z</time>
      </trkpt>
      <trkpt lat="46.73496" lon="9.54996">
        <ele>1481</ele>
        <time>2017-10-25T17:31:29Z</time>
      </trkpt>
      <trkpt lat="46.73496" lon="9.55015">
        <ele>1481</ele>
        <time>2017-10-25T17:33:29Z</time>
      </trkpt>
      <trkpt lat="46.73494" lon="9.55035">
        <ele>1480</ele>
        <time>2017-10-25T17:35:29Z</time>
      </trkpt>
      <trkpt lat="46.73491" lon="9.55054">
        <ele>1480</ele>
        <time>2017-10-25T17:37:29Z</time>
      </trkpt>
      <trkpt lat="46.73482" lon="9.55082">
        <ele>1480</ele>
        <time>2017-10-25T17:39:29Z</time>
      </trkpt>
      <trkpt lat="46.73465" lon="9.55131">
        <ele>1485</ele>
        <time>2017-10-25T17:41:29Z</time>
      </trkpt>
      <trkpt lat="46.73458" lon="9.55159">
        <ele>1488</ele>
        <time>2017-10-25T17:43:29Z</time>
      </trkpt>
      <trkpt lat="46.73456" lon="9.55165">
        <ele>1489</ele>
        <time>2017-10-25T17:45:29Z</time>
      </trkpt>
      <trkpt lat="46.73448" lon="9.55185">
        <ele>1492</ele>
        <time>2017-10-25T17:47:29Z</time>
      </trkpt>
      <trkpt lat="46.73448" lon="9.55185">
        <ele>1492</ele>
        <time>2017-10-25T17:49:29Z</time>
      </trkpt>
      <trkpt lat="46.73442" lon="9.55184">
        <ele>1492</ele>
        <time>2017-10-25T17:51:29Z</time>
      </trkpt>
      <trkpt lat="46.73434" lon="9.55183">
        <ele>1492</ele>
        <time>2017-10-25T17:53:29Z</time>
      </trkpt>
      <trkpt lat="46.73427" lon="9.55183">
        <ele>1492</ele>
        <time>2017-10-25T17:55:29Z</time>
      </trkpt>
      <trkpt lat="46.73419" lon="9.55186">
        <ele>1493</ele>
        <time>2017-10-25T17:57:29Z</time>
      </trkpt>
      <trkpt lat="46.73411" lon="9.55189">
        <ele>1493</ele>
        <time>2017-10-25T17:59:29Z</time>
      </trkpt>
      <trkpt lat="46.73394" lon="9.55198">
        <ele>1494</ele>
        <time>2017-10-25T18:01:29Z</time>
      </trkpt>
      <trkpt lat="46.7337" lon="9.55211">
        <ele>1495</ele>
        <time>2017-10-25T18:03:29Z</time>
      </trkpt>
      <trkpt lat="46.73341" lon="9.55229">
        <ele>1494</ele>
        <time>2017-10-25T18:05:29Z</time>
      </trkpt>
      <trkpt lat="46.73313" lon="9.55251">
        <ele>1492</ele>
        <time>2017-10-25T18:07:29Z</time>
      </trkpt>
      <trkpt lat="46.73277" lon="9.55292">
        <ele>1494</ele>
        <time>2017-10-25T18:09:29Z</time>
      </trkpt>
      <trkpt lat="46.73254" lon="9.55315">
        <ele>1494</ele>
        <time>2017-10-25T18:11:29Z</time>
      </trkpt>
      <trkpt lat="46.73231" lon="9.55334">
        <ele>1493</ele>
        <time>2017-10-25T18:13:29Z</time>
      </trkpt>
      <trkpt lat="46.73211" lon="9.55344">
        <ele>1492</ele>
        <time>2017-10-25T18:15:29Z</time>
      </trkpt>
      <trkpt lat="46.7319" lon="9.55356">
        <ele>1491</ele>
        <time>2017-10-25T18:17:29Z</time>
      </trkpt>
      <trkpt lat="46.73183" lon="9.5536">
        <ele>1491</ele>
        <time>2017-10-25T18:19:29Z</time>
      </trkpt>
      <trkpt lat="46.73173" lon="9.55369">
        <ele>1490</ele>
        <time>2017-10-25T18:21:29Z</time>
      </trkpt>
      <trkpt lat="46.73168" lon="9.55373">
        <ele>1490</ele>
        <time>2017-10-25T18:23:29Z</time>
      </trkpt>
      <trkpt lat="46.73159" lon="9.55382">
        <ele>1490</ele>
        <time>2017-10-25T18:25:29Z</time>
      </trkpt>
      <trkpt lat="46.73147" lon="9.55399">
        <ele>1489</ele>
        <time>2017-10-25T18:27:29Z</time>
      </trkpt>
      <trkpt lat="46.73133" lon="9.55419">
        <ele>1489</ele>
        <time>2017-10-25T18:29:29Z</time>
      </trkpt>
      <trkpt lat="46.73105" lon="9.55469">
        <ele>1485</ele>
        <time>2017-10-25T18:31:29Z</time>
      </trkpt>
      <trkpt lat="46.73065" lon="9.55533">
        <ele>1482</ele>
        <time>2017-10-25T18:33:29Z</time>
      </trkpt>
      <trkpt lat="46.73049" lon="9.55557">
        <ele>1482</ele>
        <time>2017-10-25T18:35:29Z</time>
      </trkpt>
      <trkpt lat="46.73039" lon="9.55574">
        <ele>1482</ele>
        <time>2017-10-25T18:37:29Z</time>
      </trkpt>
      <trkpt lat="46.72991" lon="9.55645">
        <ele>1480</ele>
        <time>2017-10-25T18:39:29Z</time>
      </trkpt>
      <trkpt lat="46.7297" lon="9.55675">
        <ele>1480</ele>
        <time>2017-10-25T18:41:29Z</time>
      </trkpt>
      <trkpt lat="46.72957" lon="9.55692">
        <ele>1480</ele>
        <time>2017-10-25T18:43:29Z</time>
      </trkpt>
      <trkpt lat="46.72948" lon="9.557">
        <ele>1479</ele>
        <time>2017-10-25T18:45:29Z</time>
      </trkpt>
      <trkpt lat="46.72942" lon="9.55705">
        <ele>1479</ele>
        <time>2017-10-25T18:47:29Z</time>
      </trkpt>
      <trkpt lat="46.72937" lon="9.55711">
        <ele>1479</ele>
        <time>2017-10-25T18:49:29Z</time>
      </trkpt>
      <trkpt lat="46.72914" lon="9.55724">
        <ele>1477</ele>
        <time>2017-10-25T18:51:29Z</time>
      </trkpt>
      <trkpt lat="46.72897" lon="9.55733">
        <ele>1477</ele>
        <time>2017-10-25T18:53:29Z</time>
      </trkpt>
      <trkpt lat="46.7288" lon="9.55742">
        <ele>1477</ele>
        <time>2017-10-25T18:55:29Z</time>
      </trkpt>
      <trkpt lat="46.72862" lon="9.55751">
        <ele>1477</ele>
        <time>2017-10-25T18:57:29Z</time>
      </trkpt>
      <trkpt lat="46.72839" lon="9.55759">
        <ele>1477</ele>
        <time>2017-10-25T18:59:29Z</time>
      </trkpt>
      <trkpt lat="46.72822" lon="9.55765">
        <ele>1477</ele>
        <time>2017-10-25T19:01:29Z</time>
      </trkpt>
      <trkpt lat="46.72785" lon="9.55776">
        <ele>1478</ele>
        <time>2017-10-25T19:03:29Z</time>
      </trkpt>
      <trkpt lat="46.72763" lon="9.55779">
        <ele>1478</ele>
        <time>2017-10-25T19:05:29Z</time>
      </trkpt>
      <trkpt lat="46.72735" lon="9.55783">
        <ele>1478</ele>
        <time>2017-10-25T19:07:29Z</time>
      </trkpt>
      <trkpt lat="46.7272" lon="9.55783">
        <ele>1477</ele>
        <time>2017-10-25T19:09:29Z</time>
      </trkpt>
      <trkpt lat="46.727" lon="9.55784">
        <ele>1477</ele>
        <time>2017-10-25T19:11:29Z</time>
      </trkpt>
      <trkpt lat="46.72675" lon="9.55781">
        <ele>1477</ele>
        <time>2017-10-25T19:13:29Z</time>
      </trkpt>
      <trkpt lat="46.72645" lon="9.55774">
        <ele>1476</ele>
        <time>2017-10-25T19:15:29Z</time>
      </trkpt>
      <trkpt lat="46.72625" lon="9.55769">
        <ele>1476</ele>
        <time>2017-10-25T19:17:29Z</time>
      </trkpt>
      <trkpt lat="46.72608" lon="9.55766">
        <ele>1476</ele>
        <time>2017-10-25T19:19:29Z</time>
      </trkpt>
      <trkpt lat="46.72594" lon="9.55765">
        <ele>1476</ele>
        <time>2017-10-25T19:21:29Z</time>
      </trkpt>
      <trkpt lat="46.7257" lon="9.55766">
        <ele>1476</ele>
        <time>2017-10-25T19:23:29Z</time>
      </trkpt>
      <trkpt lat="46.72517" lon="9.55776">
        <ele>1476</ele>
        <time>2017-10-25T19:25:29Z</time>
      </trkpt>
      <trkpt lat="46.72413" lon="9.55794">
        <ele>1473</ele>
        <time>2017-10-25T19:27:29Z</time>
      </trkpt>
      <trkpt lat="46.72402" lon="9.55797">
        <ele>1472</ele>
        <time>2017-10-25T19:29:29Z</time>
      </trkpt>
      <trkpt lat="46.72388" lon="9.55805">
        <ele>1472</ele>
        <time>2017-10-25T19:31:29Z</time>
      </trkpt>
      <trkpt lat="46.72376" lon="9.55813">
        <ele>1472</ele>
        <time>2017-10-25T19:33:29Z</time>
      </trkpt>
      <trkpt lat="46.7233" lon="9.55851">
        <ele>1472</ele>
        <time>2017-10-25T19:35:29Z</time>
      </trkpt>
      <trkpt lat="46.72328" lon="9.55853">
        <ele>1472</ele>
        <time>2017-10-25T19:37:29Z</time>
      </trkpt>
      <trkpt lat="46.72308" lon="9.55864">
        <ele>1471</ele>
        <time>2017-10-25T19:39:29Z</time>
      </trkpt>
      <trkpt lat="46.7229" lon="9.55875">
        <ele>1471</ele>
        <time>2017-10-25T19:41:29Z</time>
      </trkpt>
      <trkpt lat="46.72274" lon="9.55883">
        <ele>1470</ele>
        <time>2017-10-25T19:43:29Z</time>
      </trkpt>
      <trkpt lat="46.72259" lon="9.55888">
        <ele>1470</ele>
        <time>2017-10-25T19:45:29Z</time>
      </trkpt>
      <trkpt lat="46.72245" lon="9.5589">
        <ele>1469</ele>
        <time>2017-10-25T19:47:29Z</time>
      </trkpt>
      <trkpt lat="46.72234" lon="9.55891">
        <ele>1469</ele>
        <time>2017-10-25T19:49:29Z</time>
      </trkpt>
      <trkpt lat="46.7222" lon="9.55891">
        <ele>1468</ele>
        <time>2017-10-25T19:51:29Z</time>
      </trkpt>
      <trkpt lat="46.72197" lon="9.55887">
        <ele>1467</ele>
        <time>2017-10-25T19:53:29Z</time>
      </trkpt>
      <trkpt lat="46.72164" lon="9.55872">
        <ele>1464</ele>
        <time>2017-10-25T19:55:29Z</time>
      </trkpt>
      <trkpt lat="46.72164" lon="9.55872">
        <ele>1464</ele>
        <time>2017-10-25T19:57:29Z</time>
      </trkpt>
      <trkpt lat="46.72162" lon="9.55861">
        <ele>1463</ele>
        <time>2017-10-25T19:59:29Z</time>
      </trkpt>
      <trkpt lat="46.72162" lon="9.55859">
        <ele>1463</ele>
        <time>2017-10-25T20:01:29Z</time>
      </trkpt>
      <trkpt lat="46.7216" lon="9.55857">
        <ele>1462</ele>
        <time>2017-10-25T20:03:29Z</time>
      </trkpt>
      <trkpt lat="46.72151" lon="9.55848">
        <ele>1460</ele>
        <time>2017-10-25T20:05:29Z</time>
      </trkpt>
      <trkpt lat="46.72138" lon="9.55838">
        <ele>1458</ele>
        <time>2017-10-25T20:07:29Z</time>
      </trkpt>
      <trkpt lat="46.72128" lon="9.5583">
        <ele>1456</ele>
        <time>2017-10-25T20:09:29Z</time>
      </trkpt>
      <trkpt lat="46.72122" lon="9.55826">
        <ele>1455</ele>
        <time>2017-10-25T20:11:29Z</time>
      </trkpt>
      <trkpt lat="46.72119" lon="9.55823">
        <ele>1454</ele>
        <time>2017-10-25T20:13:29Z</time>
      </trkpt>
      <trkpt lat="46.72118" lon="9.55821">
        <ele>1454</ele>
        <time>2017-10-25T20:15:29Z</time>
      </trkpt>
      <trkpt lat="46.72116" lon="9.55816">
        <ele>1453</ele>
        <time>2017-10-25T20:17:29Z</time>
      </trkpt>
      <trkpt lat="46.7211" lon="9.55802">
        <ele>1452</ele>
        <time>2017-10-25T20:19:29Z</time>
      </trkpt>
      <trkpt lat="46.72106" lon="9.5579">
        <ele>1450</ele>
        <time>2017-10-25T20:21:29Z</time>
      </trkpt>
      <trkpt lat="46.721" lon="9.55776">
        <ele>1449</ele>
        <time>2017-10-25T20:23:29Z</time>
      </trkpt>
      <trkpt lat="46.72099" lon="9.55773">
        <ele>1448</ele>
        <time>2017-10-25T20:25:29Z</time>
      </trkpt>
      <trkpt lat="46.72098" lon="9.55771">
        <ele>1448</ele>
        <time>2017-10-25T20:27:29Z</time>
      </trkpt>
      <trkpt lat="46.72096" lon="9.5577">
        <ele>1448</ele>
        <time>2017-10-25T20:29:29Z</time>
      </trkpt>
      <trkpt lat="46.72095" lon="9.55769">
        <ele>1448</ele>
        <time>2017-10-25T20:31:29Z</time>
      </trkpt>
      <trkpt lat="46.72094" lon="9.55768">
        <ele>1447</ele>
        <time>2017-10-25T20:33:29Z</time>
      </trkpt>
      <trkpt lat="46.72091" lon="9.55768">
        <ele>1447</ele>
        <time>2017-10-25T20:35:29Z</time>
      </trkpt>
      <trkpt lat="46.72081" lon="9.55767">
        <ele>1446</ele>
        <time>2017-10-25T20:37:29Z</time>
      </trkpt>
      <trkpt lat="46.72072" lon="9.55766">
        <ele>1445</ele>
        <time>2017-10-25T20:39:29Z</time>
      </trkpt>
      <trkpt lat="46.72064" lon="9.55766">
        <ele>1445</ele>
        <time>2017-10-25T20:41:29Z</time>
      </trkpt>
      <trkpt lat="46.72058" lon="9.55765">
        <ele>1444</ele>
        <time>2017-10-25T20:43:29Z</time>
      </trkpt>
      <trkpt lat="46.72054" lon="9.55764">
        <ele>1444</ele>
        <time>2017-10-25T20:45:29Z</time>
      </trkpt>
      <trkpt lat="46.72052" lon="9.55763">
        <ele>1444</ele>
        <time>2017-10-25T20:47:29Z</time>
      </trkpt>
      <trkpt lat="46.72049" lon="9.5576">
        <ele>1444</ele>
        <time>2017-10-25T20:49:29Z</time>
      </trkpt>
      <trkpt lat="46.72047" lon="9.55757">
        <ele>1443</ele>
        <time>2017-10-25T20:51:29Z</time>
      </trkpt>
      <trkpt lat="46.72046" lon="9.55756">
        <ele>1443</ele>
        <time>2017-10-25T20:53:29Z</time>
      </trkpt>
      <trkpt lat="46.72043" lon="9.55753">
        <ele>1443</ele>
        <time>2017-10-25T20:55:29Z</time>
      </trkpt>
      <trkpt lat="46.7204" lon="9.55745">
        <ele>1442</ele>
        <time>2017-10-25T20:57:29Z</time>
      </trkpt>
      <trkpt lat="46.72036" lon="9.55737">
        <ele>1442</ele>
        <time>2017-10-25T20:59:29Z</time>
      </trkpt>
      <trkpt lat="46.72031" lon="9.55725">
        <ele>1441</ele>
        <time>2017-10-25T21:01:29Z</time>
      </trkpt>
      <trkpt lat="46.72031" lon="9.55725">
        <ele>1441</ele>
        <time>2017-10-25T21:03:29Z</time>
      </trkpt>
      <trkpt lat="46.72024" lon="9.55721">
        <ele>1441</ele>
        <time>2017-10-25T21:05:29Z</time>
      </trkpt>
      <trkpt lat="46.72008" lon="9.55713">
        <ele>1439</ele>
        <time>2017-10-25T21:07:29Z</time>
      </trkpt>
      <trkpt lat="46.72002" lon="9.5571">
        <ele>1439</ele>
        <time>2017-10-25T21:09:29Z</time>
      </trkpt>
      <trkpt lat="46.71996" lon="9.55709">
        <ele>1438</ele>
        <time>2017-10-25T21:11:29Z</time>
      </trkpt>
      <trkpt lat="46.71991" lon="9.55708">
        <ele>1438</ele>
        <time>2017-10-25T21:13:29Z</time>
      </trkpt>
      <trkpt lat="46.71983" lon="9.55709">
        <ele>1438</ele>
        <time>2017-10-25T21:15:29Z</time>
      </trkpt>
      <trkpt lat="46.71971" lon="9.55711">
        <ele>1438</ele>
        <time>2017-10-25T21:17:29Z</time>
      </trkpt>
      <trkpt lat="46.7196" lon="9.55715">
        <ele>1438</ele>
        <time>2017-10-25T21:19:29Z</time>
      </trkpt>
      <trkpt lat="46.71954" lon="9.55718">
        <ele>1438</ele>
        <time>2017-10-25T21:21:29Z</time>
      </trkpt>
      <trkpt lat="46.7195" lon="9.55721">
        <ele>1438</ele>
        <time>2017-10-25T21:23:29Z</time>
      </trkpt>
      <trkpt lat="46.71947" lon="9.55725">
        <ele>1438</ele>
        <time>2017-10-25T21:25:29Z</time>
      </trkpt>
      <trkpt lat="46.71945" lon="9.55734">
        <ele>1439</ele>
        <time>2017-10-25T21:27:29Z</time>
      </trkpt>
      <trkpt lat="46.71945" lon="9.55734">
        <ele>1439</ele>
        <time>2017-10-25T21:29:29Z</time>
      </trkpt>
      <trkpt lat="46.71892" lon="9.55752">
        <ele>1436</ele>
        <time>2017-10-25T21:31:29Z</time>
      </trkpt>
      <trkpt lat="46.71884" lon="9.55755">
        <ele>1434</ele>
        <time>2017-10-25T21:33:29Z</time>
      </trkpt>
      <trkpt lat="46.71878" lon="9.55758">
        <ele>1434</ele>
        <time>2017-10-25T21:35:29Z</time>
      </trkpt>
      <trkpt lat="46.71869" lon="9.55766">
        <ele>1433</ele>
        <time>2017-10-25T21:37:29Z</time>
      </trkpt>
      <trkpt lat="46.71854" lon="9.55786">
        <ele>1431</ele>
        <time>2017-10-25T21:39:29Z</time>
      </trkpt>
      <trkpt lat="46.71843" lon="9.558">
        <ele>1431</ele>
        <time>2017-10-25T21:41:29Z</time>
      </trkpt>
      <trkpt lat="46.71836" lon="9.55806">
        <ele>1430</ele>
        <time>2017-10-25T21:43:29Z</time>
      </trkpt>
      <trkpt lat="46.7183" lon="9.5581">
        <ele>1430</ele>
        <time>2017-10-25T21:45:29Z</time>
      </trkpt>
      <trkpt lat="46.71826" lon="9.55811">
        <ele>1430</ele>
        <time>2017-10-25T21:47:29Z</time>
      </trkpt>
      <trkpt lat="46.71821" lon="9.55811">
        <ele>1429</ele>
        <time>2017-10-25T21:49:29Z</time>
      </trkpt>
      <trkpt lat="46.71784" lon="9.55811">
        <ele>1427</ele>
        <time>2017-10-25T21:51:29Z</time>
      </trkpt>
      <trkpt lat="46.7174" lon="9.55811">
        <ele>1425</ele>
        <time>2017-10-25T21:53:29Z</time>
      </trkpt>
      <trkpt lat="46.71686" lon="9.55793">
        <ele>1422</ele>
        <time>2017-10-25T21:55:29Z</time>
      </trkpt>
      <trkpt lat="46.71535" lon="9.55745">
        <ele>1411</ele>
        <time>2017-10-25T21:57:29Z</time>
      </trkpt>
      <trkpt lat="46.71519" lon="9.55743">
        <ele>1410</ele>
        <time>2017-10-25T21:59:29Z</time>
      </trkpt>
      <trkpt lat="46.71453" lon="9.55748">
        <ele>1411</ele>
        <time>2017-10-25T22:01:29Z</time>
      </trkpt>
      <trkpt lat="46.71418" lon="9.55744">
        <ele>1411</ele>
        <time>2017-10-25T22:03:29Z</time>
      </trkpt>
      <trkpt lat="46.71418" lon="9.55744">
        <ele>1411</ele>
        <time>2017-10-25T22:05:29Z</time>
      </trkpt>
      <trkpt lat="46.71413" lon="9.55759">
        <ele>1413</ele>
        <time>2017-10-25T22:07:29Z</time>
      </trkpt>
      <trkpt lat="46.71403" lon="9.55788">
        <ele>1417</ele>
        <time>2017-10-25T22:09:29Z</time>
      </trkpt>
      <trkpt lat="46.71402" lon="9.55792">
        <ele>1418</ele>
        <time>2017-10-25T22:11:29Z</time>
      </trkpt>
      <trkpt lat="46.71379" lon="9.55825">
        <ele>1423</ele>
        <time>2017-10-25T22:13:29Z</time>
      </trkpt>
      <trkpt lat="46.71372" lon="9.55838">
        <ele>1425</ele>
        <time>2017-10-25T22:15:29Z</time>
      </trkpt>
      <trkpt lat="46.71364" lon="9.55852">
        <ele>1427</ele>
        <time>2017-10-25T22:17:29Z</time>
      </trkpt>
      <trkpt lat="46.71364" lon="9.55852">
        <ele>1427</ele>
        <time>2017-10-25T22:19:29Z</time>
      </trkpt>
      <trkpt lat="46.71363" lon="9.55851">
        <ele>1427</ele>
        <time>2017-10-25T22:21:29Z</time>
      </trkpt>
      <trkpt lat="46.71349" lon="9.55848">
        <ele>1428</ele>
        <time>2017-10-25T22:23:29Z</time>
      </trkpt>
      <trkpt lat="46.71339" lon="9.55849">
        <ele>1428</ele>
        <time>2017-10-25T22:25:29Z</time>
      </trkpt>
      <trkpt lat="46.71331" lon="9.55858">
        <ele>1430</ele>
        <time>2017-10-25T22:27:29Z</time>
      </trkpt>
      <trkpt lat="46.71317" lon="9.55858">
        <ele>1430</ele>
        <time>2017-10-25T22:29:29Z</time>
      </trkpt>
      <trkpt lat="46.71306" lon="9.55854">
        <ele>1429</ele>
        <time>2017-10-25T22:31:29Z</time>
      </trkpt>
      <trkpt lat="46.71293" lon="9.55857">
        <ele>1430</ele>
        <time>2017-10-25T22:33:29Z</time>
      </trkpt>
      <trkpt lat="46.71279" lon="9.55861">
        <ele>1430</ele>
        <time>2017-10-25T22:35:29Z</time>
      </trkpt>
      <trkpt lat="46.71263" lon="9.55858">
        <ele>1430</ele>
        <time>2017-10-25T22:37:29Z</time>
      </trkpt>
      <trkpt lat="46.71254" lon="9.55858">
        <ele>1430</ele>
        <time>2017-10-25T22:39:29Z</time>
      </trkpt>
      <trkpt lat="46.7123" lon="9.55854">
        <ele>1430</ele>
        <time>2017-10-25T22:41:29Z</time>
      </trkpt>
      <trkpt lat="46.71217" lon="9.55855">
        <ele>1430</ele>
        <time>2017-10-25T22:43:29Z</time>
      </trkpt>
      <trkpt lat="46.712" lon="9.55856">
        <ele>1431</ele>
        <time>2017-10-25T22:45:29Z</time>
      </trkpt>
      <trkpt lat="46.71184" lon="9.55862">
        <ele>1432</ele>
        <time>2017-10-25T22:47:29Z</time>
      </trkpt>
      <trkpt lat="46.7117" lon="9.55866">
        <ele>1432</ele>
        <time>2017-10-25T22:49:29Z</time>
      </trkpt>
      <trkpt lat="46.71156" lon="9.55864">
        <ele>1432</ele>
        <time>2017-10-25T22:51:29Z</time>
      </trkpt>
      <trkpt lat="46.71139" lon="9.5587">
        <ele>1432</ele>
        <time>2017-10-25T22:53:29Z</time>
      </trkpt>
      <trkpt lat="46.71123" lon="9.55874">
        <ele>1432</ele>
        <time>2017-10-25T22:55:29Z</time>
      </trkpt>
      <trkpt lat="46.71105" lon="9.55873">
        <ele>1432</ele>
        <time>2017-10-25T22:57:29Z</time>
      </trkpt>
      <trkpt lat="46.71093" lon="9.55876">
        <ele>1432</ele>
        <time>2017-10-25T22:59:29Z</time>
      </trkpt>
      <trkpt lat="46.71079" lon="9.55876">
        <ele>1431</ele>
        <time>2017-10-25T23:01:29Z</time>
      </trkpt>
      <trkpt lat="46.71066" lon="9.55876">
        <ele>1431</ele>
        <time>2017-10-25T23:03:29Z</time>
      </trkpt>
      <trkpt lat="46.71051" lon="9.55879">
        <ele>1431</ele>
        <time>2017-10-25T23:05:29Z</time>
      </trkpt>
      <trkpt lat="46.71036" lon="9.55879">
        <ele>1431</ele>
        <time>2017-10-25T23:07:29Z</time>
      </trkpt>
      <trkpt lat="46.71012" lon="9.55869">
        <ele>1429</ele>
        <time>2017-10-25T23:09:29Z</time>
      </trkpt>
      <trkpt lat="46.71001" lon="9.55858">
        <ele>1427</ele>
        <time>2017-10-25T23:11:29Z</time>
      </trkpt>
      <trkpt lat="46.70987" lon="9.55851">
        <ele>1426</ele>
        <time>2017-10-25T23:13:29Z</time>
      </trkpt>
      <trkpt lat="46.70969" lon="9.55841">
        <ele>1425</ele>
        <time>2017-10-25T23:15:29Z</time>
      </trkpt>
      <trkpt lat="46.70954" lon="9.55837">
        <ele>1424</ele>
        <time>2017-10-25T23:17:29Z</time>
      </trkpt>
      <trkpt lat="46.70947" lon="9.55835">
        <ele>1424</ele>
        <time>2017-10-25T23:19:29Z</time>
      </trkpt>
      <trkpt lat="46.70935" lon="9.55829">
        <ele>1424</ele>
        <time>2017-10-25T23:21:29Z</time>
      </trkpt>
      <trkpt lat="46.70923" lon="9.55836">
        <ele>1424</ele>
        <time>2017-10-25T23:23:29Z</time>
      </trkpt>
      <trkpt lat="46.70911" lon="9.5584">
        <ele>1424</ele>
        <time>2017-10-25T23:25:29Z</time>
      </trkpt>
      <trkpt lat="46.70897" lon="9.55844">
        <ele>1424</ele>
        <time>2017-10-25T23:27:29Z</time>
      </trkpt>
      <trkpt lat="46.70886" lon="9.55851">
        <ele>1424</ele>
        <time>2017-10-25T23:29:29Z</time>
      </trkpt>
      <trkpt lat="46.70877" lon="9.55861">
        <ele>1425</ele>
        <time>2017-10-25T23:31:29Z</time>
      </trkpt>
      <trkpt lat="46.70864" lon="9.55866">
        <ele>1425</ele>
        <time>2017-10-25T23:33:29Z</time>
      </trkpt>
      <trkpt lat="46.70849" lon="9.55872">
        <ele>1425</ele>
        <time>2017-10-25T23:35:29Z</time>
      </trkpt>
      <trkpt lat="46.70839" lon="9.55874">
        <ele>1425</ele>
        <time>2017-10-25T23:37:29Z</time>
      </trkpt>
      <trkpt lat="46.70832" lon="9.55878">
        <ele>1425</ele>
        <time>2017-10-25T23:39:29Z</time>
      </trkpt>
      <trkpt lat="46.70825" lon="9.5589">
        <ele>1425</ele>
        <time>2017-10-25T23:41:29Z</time>
      </trkpt>
      <trkpt lat="46.70813" lon="9.55909">
        <ele>1426</ele>
        <time>2017-10-25T23:43:29Z</time>
      </trkpt>
      <trkpt lat="46.70801" lon="9.55914">
        <ele>1425</ele>
        <time>2017-10-25T23:45:29Z</time>
      </trkpt>
      <trkpt lat="46.70792" lon="9.55922">
        <ele>1424</ele>
        <time>2017-10-25T23:47:29Z</time>
      </trkpt>
      <trkpt lat="46.70787" lon="9.55926">
        <ele>1424</ele>
        <time>2017-10-25T23:49:29Z</time>
      </trkpt>
      <trkpt lat="46.7077" lon="9.55931">
        <ele>1422</ele>
        <time>2017-10-25T23:51:29Z</time>
      </trkpt>
      <trkpt lat="46.70743" lon="9.55943">
        <ele>1420</ele>
        <time>2017-10-25T23:53:29Z</time>
      </trkpt>
      <trkpt lat="46.70725" lon="9.55955">
        <ele>1420</ele>
        <time>2017-10-25T23:55:29Z</time>
      </trkpt>
      <trkpt lat="46.70713" lon="9.5596">
        <ele>1420</ele>
        <time>2017-10-25T23:57:29Z</time>
      </trkpt>
      <trkpt lat="46.70697" lon="9.55969">
        <ele>1419</ele>
        <time>2017-10-25T23:59:29Z</time>
      </trkpt>
      <trkpt lat="46.70684" lon="9.55972">
        <ele>1419</ele>
        <time>2017-10-26T00:01:29Z</time>
      </trkpt>
      <trkpt lat="46.70673" lon="9.5598">
        <ele>1418</ele>
        <time>2017-10-26T00:03:29Z</time>
      </trkpt>
      <trkpt lat="46.70655" lon="9.55988">
        <ele>1418</ele>
        <time>2017-10-26T00:05:29Z</time>
      </trkpt>
      <trkpt lat="46.70645" lon="9.55999">
        <ele>1419</ele>
        <time>2017-10-26T00:07:29Z</time>
      </trkpt>
      <trkpt lat="46.70635" lon="9.56006">
        <ele>1420</ele>
        <time>2017-10-26T00:09:29Z</time>
      </trkpt>
      <trkpt lat="46.70629" lon="9.5601">
        <ele>1420</ele>
        <time>2017-10-26T00:11:29Z</time>
      </trkpt>
      <trkpt lat="46.70615" lon="9.56007">
        <ele>1420</ele>
        <time>2017-10-26T00:13:29Z</time>
      </trkpt>
      <trkpt lat="46.70604" lon="9.56006">
        <ele>1420</ele>
        <time>2017-10-26T00:15:29Z</time>
      </trkpt>
      <trkpt lat="46.70592" lon="9.56006">
        <ele>1420</ele>
        <time>2017-10-26T00:17:29Z</time>
      </trkpt>
      <trkpt lat="46.70577" lon="9.56003">
        <ele>1420</ele>
        <time>2017-10-26T00:19:29Z</time>
      </trkpt>
      <trkpt lat="46.70563" lon="9.5601">
        <ele>1421</ele>
        <time>2017-10-26T00:21:29Z</time>
      </trkpt>
      <trkpt lat="46.7055" lon="9.55998">
        <ele>1421</ele>
        <time>2017-10-26T00:23:29Z</time>
      </trkpt>
      <trkpt lat="46.70533" lon="9.55985">
        <ele>1421</ele>
        <time>2017-10-26T00:25:29Z</time>
      </trkpt>
      <trkpt lat="46.70529" lon="9.55983">
        <ele>1421</ele>
        <time>2017-10-26T00:27:29Z</time>
      </trkpt>
      <trkpt lat="46.70516" lon="9.55991">
        <ele>1423</ele>
        <time>2017-10-26T00:29:29Z</time>
      </trkpt>
      <trkpt lat="46.7051" lon="9.55993">
        <ele>1424</ele>
        <time>2017-10-26T00:31:29Z</time>
      </trkpt>
      <trkpt lat="46.70501" lon="9.5599">
        <ele>1424</ele>
        <time>2017-10-26T00:33:29Z</time>
      </trkpt>
      <trkpt lat="46.70488" lon="9.55991">
        <ele>1424</ele>
        <time>2017-10-26T00:35:29Z</time>
      </trkpt>
      <trkpt lat="46.70472" lon="9.55987">
        <ele>1425</ele>
        <time>2017-10-26T00:37:29Z</time>
      </trkpt>
      <trkpt lat="46.70461" lon="9.5598">
        <ele>1424</ele>
        <time>2017-10-26T00:39:29Z</time>
      </trkpt>
      <trkpt lat="46.70448" lon="9.55975">
        <ele>1425</ele>
        <time>2017-10-26T00:41:29Z</time>
      </trkpt>
      <trkpt lat="46.70441" lon="9.55968">
        <ele>1424</ele>
        <time>2017-10-26T00:43:29Z</time>
      </trkpt>
      <trkpt lat="46.70425" lon="9.5596">
        <ele>1424</ele>
        <time>2017-10-26T00:45:29Z</time>
      </trkpt>
      <trkpt lat="46.70415" lon="9.55956">
        <ele>1424</ele>
        <time>2017-10-26T00:47:29Z</time>
      </trkpt>
      <trkpt lat="46.70403" lon="9.55953">
        <ele>1425</ele>
        <time>2017-10-26T00:49:29Z</time>
      </trkpt>
      <trkpt lat="46.70392" lon="9.55947">
        <ele>1425</ele>
        <time>2017-10-26T00:51:29Z</time>
      </trkpt>
      <trkpt lat="46.70381" lon="9.55938">
        <ele>1425</ele>
        <time>2017-10-26T00:53:29Z</time>
      </trkpt>
      <trkpt lat="46.70367" lon="9.5593">
        <ele>1425</ele>
        <time>2017-10-26T00:55:29Z</time>
      </trkpt>
      <trkpt lat="46.70356" lon="9.55918">
        <ele>1425</ele>
        <time>2017-10-26T00:57:29Z</time>
      </trkpt>
      <trkpt lat="46.70343" lon="9.55907">
        <ele>1425</ele>
        <time>2017-10-26T00:59:29Z</time>
      </trkpt>
      <trkpt lat="46.70344" lon="9.55886">
        <ele>1423</ele>
        <time>2017-10-26T01:01:29Z</time>
      </trkpt>
      <trkpt lat="46.70343" lon="9.55872">
        <ele>1423</ele>
        <time>2017-10-26T01:03:29Z</time>
      </trkpt>
      <trkpt lat="46.70341" lon="9.55848">
        <ele>1421</ele>
        <time>2017-10-26T01:05:29Z</time>
      </trkpt>
      <trkpt lat="46.70341" lon="9.55848">
        <ele>1421</ele>
        <time>2017-10-26T01:07:29Z</time>
      </trkpt>
      <trkpt lat="46.70338" lon="9.55849">
        <ele>1421</ele>
        <time>2017-10-26T01:09:29Z</time>
      </trkpt>
      <trkpt lat="46.70271" lon="9.55808">
        <ele>1423</ele>
        <time>2017-10-26T01:11:29Z</time>
      </trkpt>
      <trkpt lat="46.70222" lon="9.55764">
        <ele>1423</ele>
        <time>2017-10-26T01:13:29Z</time>
      </trkpt>
      <trkpt lat="46.70187" lon="9.5573">
        <ele>1420</ele>
        <time>2017-10-26T01:15:29Z</time>
      </trkpt>
      <trkpt lat="46.7016" lon="9.55731">
        <ele>1421</ele>
        <time>2017-10-26T01:17:29Z</time>
      </trkpt>
      <trkpt lat="46.70141" lon="9.55731">
        <ele>1421</ele>
        <time>2017-10-26T01:19:29Z</time>
      </trkpt>
      <trkpt lat="46.70122" lon="9.55713">
        <ele>1419</ele>
        <time>2017-10-26T01:21:29Z</time>
      </trkpt>
      <trkpt lat="46.70104" lon="9.55697">
        <ele>1417</ele>
        <time>2017-10-26T01:23:29Z</time>
      </trkpt>
      <trkpt lat="46.70091" lon="9.55688">
        <ele>1416</ele>
        <time>2017-10-26T01:25:29Z</time>
      </trkpt>
      <trkpt lat="46.70069" lon="9.55677">
        <ele>1414</ele>
        <time>2017-10-26T01:27:29Z</time>
      </trkpt>
      <trkpt lat="46.70058" lon="9.55671">
        <ele>1413</ele>
        <time>2017-10-26T01:29:29Z</time>
      </trkpt>
      <trkpt lat="46.70052" lon="9.55671">
        <ele>1413</ele>
        <time>2017-10-26T01:31:29Z</time>
      </trkpt>
      <trkpt lat="46.70047" lon="9.55671">
        <ele>1414</ele>
        <time>2017-10-26T01:33:29Z</time>
      </trkpt>
      <trkpt lat="46.7004" lon="9.55671">
        <ele>1414</ele>
        <time>2017-10-26T01:35:29Z</time>
      </trkpt>
      <trkpt lat="46.70015" lon="9.55667">
        <ele>1414</ele>
        <time>2017-10-26T01:37:29Z</time>
      </trkpt>
      <trkpt lat="46.70007" lon="9.55666">
        <ele>1414</ele>
        <time>2017-10-26T01:39:29Z</time>
      </trkpt>
      <trkpt lat="46.69992" lon="9.55665">
        <ele>1414</ele>
        <time>2017-10-26T01:41:29Z</time>
      </trkpt>
      <trkpt lat="46.69988" lon="9.55666">
        <ele>1414</ele>
        <time>2017-10-26T01:43:29Z</time>
      </trkpt>
      <trkpt lat="46.69987" lon="9.55667">
        <ele>1415</ele>
        <time>2017-10-26T01:45:29Z</time>
      </trkpt>
      <trkpt lat="46.69982" lon="9.5567">
        <ele>1415</ele>
        <time>2017-10-26T01:47:29Z</time>
      </trkpt>
      <trkpt lat="46.69975" lon="9.55673">
        <ele>1416</ele>
        <time>2017-10-26T01:49:29Z</time>
      </trkpt>
      <trkpt lat="46.69967" lon="9.55673">
        <ele>1416</ele>
        <time>2017-10-26T01:51:29Z</time>
      </trkpt>
      <trkpt lat="46.69934" lon="9.55678">
        <ele>1418</ele>
        <time>2017-10-26T01:53:29Z</time>
      </trkpt>
      <trkpt lat="46.69896" lon="9.55687">
        <ele>1418</ele>
        <time>2017-10-26T01:55:29Z</time>
      </trkpt>
      <trkpt lat="46.69887" lon="9.5569">
        <ele>1418</ele>
        <time>2017-10-26T01:57:29Z</time>
      </trkpt>
      <trkpt lat="46.69879" lon="9.55692">
        <ele>1418</ele>
        <time>2017-10-26T01:59:29Z</time>
      </trkpt>
      <trkpt lat="46.69867" lon="9.55696">
        <ele>1418</ele>
        <time>2017-10-26T02:01:29Z</time>
      </trkpt>
      <trkpt lat="46.69858" lon="9.55701">
        <ele>1418</ele>
        <time>2017-10-26T02:03:29Z</time>
      </trkpt>
      <trkpt lat="46.69841" lon="9.5571">
        <ele>1418</ele>
        <time>2017-10-26T02:05:29Z</time>
      </trkpt>
      <trkpt lat="46.69825" lon="9.55718">
        <ele>1418</ele>
        <time>2017-10-26T02:07:29Z</time>
      </trkpt>
      <trkpt lat="46.69813" lon="9.55722">
        <ele>1419</ele>
        <time>2017-10-26T02:09:29Z</time>
      </trkpt>
      <trkpt lat="46.69809" lon="9.55725">
        <ele>1419</ele>
        <time>2017-10-26T02:11:29Z</time>
      </trkpt>
      <trkpt lat="46.69801" lon="9.5573">
        <ele>1419</ele>
        <time>2017-10-26T02:13:29Z</time>
      </trkpt>
      <trkpt lat="46.69795" lon="9.55736">
        <ele>1419</ele>
        <time>2017-10-26T02:15:29Z</time>
      </trkpt>
      <trkpt lat="46.69779" lon="9.55747">
        <ele>1419</ele>
        <time>2017-10-26T02:17:29Z</time>
      </trkpt>
      <trkpt lat="46.69733" lon="9.55773">
        <ele>1420</ele>
        <time>2017-10-26T02:19:29Z</time>
      </trkpt>
      <trkpt lat="46.69732" lon="9.55773">
        <ele>1420</ele>
        <time>2017-10-26T02:21:29Z</time>
      </trkpt>
      <trkpt lat="46.69684" lon="9.55797">
        <ele>1420</ele>
        <time>2017-10-26T02:23:29Z</time>
      </trkpt>
      <trkpt lat="46.69653" lon="9.55818">
        <ele>1419</ele>
        <time>2017-10-26T02:25:29Z</time>
      </trkpt>
      <trkpt lat="46.69627" lon="9.55838">
        <ele>1418</ele>
        <time>2017-10-26T02:27:29Z</time>
      </trkpt>
      <trkpt lat="46.69605" lon="9.55852">
        <ele>1418</ele>
        <time>2017-10-26T02:29:29Z</time>
      </trkpt>
      <trkpt lat="46.69594" lon="9.5586">
        <ele>1418</ele>
        <time>2017-10-26T02:31:29Z</time>
      </trkpt>
      <trkpt lat="46.69586" lon="9.55868">
        <ele>1418</ele>
        <time>2017-10-26T02:33:29Z</time>
      </trkpt>
      <trkpt lat="46.69582" lon="9.55877">
        <ele>1418</ele>
        <time>2017-10-26T02:35:29Z</time>
      </trkpt>
      <trkpt lat="46.69582" lon="9.55877">
        <ele>1418</ele>
        <time>2017-10-26T02:37:29Z</time>
      </trkpt>
      <trkpt lat="46.69556" lon="9.55886">
        <ele>1417</ele>
        <time>2017-10-26T02:39:29Z</time>
      </trkpt>
      <trkpt lat="46.69443" lon="9.55927">
        <ele>1412</ele>
        <time>2017-10-26T02:41:29Z</time>
      </trkpt>
      <trkpt lat="46.69412" lon="9.55939">
        <ele>1411</ele>
        <time>2017-10-26T02:43:29Z</time>
      </trkpt>
      <trkpt lat="46.69296" lon="9.55981">
        <ele>1406</ele>
        <time>2017-10-26T02:45:29Z</time>
      </trkpt>
      <trkpt lat="46.69234" lon="9.56003">
        <ele>1398</ele>
        <time>2017-10-26T02:47:29Z</time>
      </trkpt>
      <trkpt lat="46.69216" lon="9.56011">
        <ele>1396</ele>
        <time>2017-10-26T02:49:29Z</time>
      </trkpt>
      <trkpt lat="46.692" lon="9.56021">
        <ele>1394</ele>
        <time>2017-10-26T02:51:29Z</time>
      </trkpt>
      <trkpt lat="46.69187" lon="9.56031">
        <ele>1393</ele>
        <time>2017-10-26T02:53:29Z</time>
      </trkpt>
      <trkpt lat="46.69116" lon="9.5609">
        <ele>1385</ele>
        <time>2017-10-26T02:55:29Z</time>
      </trkpt>
      <trkpt lat="46.6909" lon="9.56113">
        <ele>1382</ele>
        <time>2017-10-26T02:57:29Z</time>
      </trkpt>
      <trkpt lat="46.69081" lon="9.5612">
        <ele>1381</ele>
        <time>2017-10-26T02:59:29Z</time>
      </trkpt>
      <trkpt lat="46.69063" lon="9.56134">
        <ele>1379</ele>
        <time>2017-10-26T03:01:29Z</time>
      </trkpt>
      <trkpt lat="46.69041" lon="9.56153">
        <ele>1376</ele>
        <time>2017-10-26T03:03:29Z</time>
      </trkpt>
      <trkpt lat="46.69018" lon="9.56172">
        <ele>1373</ele>
        <time>2017-10-26T03:05:29Z</time>
      </trkpt>
      <trkpt lat="46.68981" lon="9.56203">
        <ele>1370</ele>
        <time>2017-10-26T03:07:29Z</time>
      </trkpt>
      <trkpt lat="46.68977" lon="9.56206">
        <ele>1370</ele>
        <time>2017-10-26T03:09:29Z</time>
      </trkpt>
      <trkpt lat="46.68939" lon="9.56239">
        <ele>1367</ele>
        <time>2017-10-26T03:11:29Z</time>
      </trkpt>
      <trkpt lat="46.68929" lon="9.56246">
        <ele>1366</ele>
        <time>2017-10-26T03:13:29Z</time>
      </trkpt>
      <trkpt lat="46.68908" lon="9.56267">
        <ele>1364</ele>
        <time>2017-10-26T03:15:29Z</time>
      </trkpt>
      <trkpt lat="46.68883" lon="9.56286">
        <ele>1361</ele>
        <time>2017-10-26T03:17:29Z</time>
      </trkpt>
      <trkpt lat="46.68877" lon="9.5629">
        <ele>1360</ele>
        <time>2017-10-26T03:19:29Z</time>
      </trkpt>
      <trkpt lat="46.68868" lon="9.56295">
        <ele>1358</ele>
        <time>2017-10-26T03:21:29Z</time>
      </trkpt>
      <trkpt lat="46.68858" lon="9.563">
        <ele>1357</ele>
        <time>2017-10-26T03:23:29Z</time>
      </trkpt>
      <trkpt lat="46.68844" lon="9.56305">
        <ele>1355</ele>
        <time>2017-10-26T03:25:29Z</time>
      </trkpt>
      <trkpt lat="46.68821" lon="9.56307">
        <ele>1352</ele>
        <time>2017-10-26T03:27:29Z</time>
      </trkpt>
      <trkpt lat="46.68806" lon="9.56309">
        <ele>1350</ele>
        <time>2017-10-26T03:29:29Z</time>
      </trkpt>
      <trkpt lat="46.68759" lon="9.56312">
        <ele>1346</ele>
        <time>2017-10-26T03:31:29Z</time>
      </trkpt>
      <trkpt lat="46.68738" lon="9.56314">
        <ele>1344</ele>
        <time>2017-10-26T03:33:29Z</time>
      </trkpt>
      <trkpt lat="46.68676" lon="9.56319">
        <ele>1338</ele>
        <time>2017-10-26T03:35:29Z</time>
      </trkpt>
      <trkpt lat="46.6863" lon="9.56323">
        <ele>1333</ele>
        <time>2017-10-26T03:37:29Z</time>
      </trkpt>
      <trkpt lat="46.68587" lon="9.56327">
        <ele>1329</ele>
        <time>2017-10-26T03:39:29Z</time>
      </trkpt>
      <trkpt lat="46.68546" lon="9.56328">
        <ele>1326</ele>
        <time>2017-10-26T03:41:29Z</time>
      </trkpt>
      <trkpt lat="46.68524" lon="9.56329">
        <ele>1325</ele>
        <time>2017-10-26T03:43:29Z</time>
      </trkpt>
      <trkpt lat="46.68487" lon="9.56334">
        <ele>1323</ele>
        <time>2017-10-26T03:45:29Z</time>
      </trkpt>
      <trkpt lat="46.68468" lon="9.56338">
        <ele>1322</ele>
        <time>2017-10-26T03:47:29Z</time>
      </trkpt>
      <trkpt lat="46.68463" lon="9.56339">
        <ele>1321</ele>
        <time>2017-10-26T03:49:29Z</time>
      </trkpt>
      <trkpt lat="46.68453" lon="9.56344">
        <ele>1320</ele>
        <time>2017-10-26T03:51:29Z</time>
      </trkpt>
      <trkpt lat="46.68443" lon="9.56349">
        <ele>1319</ele>
        <time>2017-10-26T03:53:29Z</time>
      </trkpt>
      <trkpt lat="46.68434" lon="9.56357">
        <ele>1318</ele>
        <time>2017-10-26T03:55:29Z</time>
      </trkpt>
      <trkpt lat="46.68406" lon="9.56381">
        <ele>1315</ele>
        <time>2017-10-26T03:57:29Z</time>
      </trkpt>
      <trkpt lat="46.68391" lon="9.56394">
        <ele>1314</ele>
        <time>2017-10-26T03:59:29Z</time>
      </trkpt>
      <trkpt lat="46.68361" lon="9.56424">
        <ele>1311</ele>
        <time>2017-10-26T04:01:29Z</time>
      </trkpt>
      <trkpt lat="46.68353" lon="9.5643">
        <ele>1310</ele>
        <time>2017-10-26T04:03:29Z</time>
      </trkpt>
      <trkpt lat="46.68343" lon="9.56437">
        <ele>1309</ele>
        <time>2017-10-26T04:05:29Z</time>
      </trkpt>
      <trkpt lat="46.68305" lon="9.56464">
        <ele>1305</ele>
        <time>2017-10-26T04:07:29Z</time>
      </trkpt>
      <trkpt lat="46.68271" lon="9.56497">
        <ele>1301</ele>
        <time>2017-10-26T04:09:29Z</time>
      </trkpt>
      <trkpt lat="46.68225" lon="9.56547">
        <ele>1295</ele>
        <time>2017-10-26T04:11:29Z</time>
      </trkpt>
      <trkpt lat="46.68218" lon="9.56556">
        <ele>1294</ele>
        <time>2017-10-26T04:13:29Z</time>
      </trkpt>
      <trkpt lat="46.68167" lon="9.56608">
        <ele>1291</ele>
        <time>2017-10-26T04:15:29Z</time>
      </trkpt>
      <trkpt lat="46.68167" lon="9.56608">
        <ele>1291</ele>
        <time>2017-10-26T04:17:29Z</time>
      </trkpt>
      <trkpt lat="46.68172" lon="9.56611">
        <ele>1291</ele>
        <time>2017-10-26T04:19:29Z</time>
      </trkpt>
      <trkpt lat="46.68174" lon="9.56613">
        <ele>1291</ele>
        <time>2017-10-26T04:21:29Z</time>
      </trkpt>
      <trkpt lat="46.68175" lon="9.56614">
        <ele>1291</ele>
        <time>2017-10-26T04:23:29Z</time>
      </trkpt>
      <trkpt lat="46.68176" lon="9.56616">
        <ele>1291</ele>
        <time>2017-10-26T04:25:29Z</time>
      </trkpt>
      <trkpt lat="46.68177" lon="9.56617">
        <ele>1291</ele>
        <time>2017-10-26T04:27:29Z</time>
      </trkpt>
      <trkpt lat="46.68177" lon="9.56619">
        <ele>1291</ele>
        <time>2017-10-26T04:29:29Z</time>
      </trkpt>
      <trkpt lat="46.68178" lon="9.56622">
        <ele>1291</ele>
        <time>2017-10-26T04:31:29Z</time>
      </trkpt>
      <trkpt lat="46.68178" lon="9.56624">
        <ele>1291</ele>
        <time>2017-10-26T04:33:29Z</time>
      </trkpt>
      <trkpt lat="46.68177" lon="9.56628">
        <ele>1291</ele>
        <time>2017-10-26T04:35:29Z</time>
      </trkpt>
      <trkpt lat="46.68176" lon="9.56631">
        <ele>1291</ele>
        <time>2017-10-26T04:37:29Z</time>
      </trkpt>
      <trkpt lat="46.68174" lon="9.56633">
        <ele>1290</ele>
        <time>2017-10-26T04:39:29Z</time>
      </trkpt>
      <trkpt lat="46.68171" lon="9.56635">
        <ele>1290</ele>
        <time>2017-10-26T04:41:29Z</time>
      </trkpt>
      <trkpt lat="46.68167" lon="9.56637">
        <ele>1290</ele>
        <time>2017-10-26T04:43:29Z</time>
      </trkpt>
      <trkpt lat="46.68126" lon="9.56717">
        <ele>1288</ele>
        <time>2017-10-26T04:45:29Z</time>
      </trkpt>
      <trkpt lat="46.68077" lon="9.5681">
        <ele>1289</ele>
        <time>2017-10-26T04:47:29Z</time>
      </trkpt>
      <trkpt lat="46.68068" lon="9.56822">
        <ele>1288</ele>
        <time>2017-10-26T04:49:29Z</time>
      </trkpt>
      <trkpt lat="46.68037" lon="9.56869">
        <ele>1287</ele>
        <time>2017-10-26T04:51:29Z</time>
      </trkpt>
      <trkpt lat="46.67999" lon="9.5692">
        <ele>1286</ele>
        <time>2017-10-26T04:53:29Z</time>
      </trkpt>
      <trkpt lat="46.67903" lon="9.57033">
        <ele>1278</ele>
        <time>2017-10-26T04:55:29Z</time>
      </trkpt>
      <trkpt lat="46.67868" lon="9.57077">
        <ele>1276</ele>
        <time>2017-10-26T04:57:29Z</time>
      </trkpt>
      <trkpt lat="46.67852" lon="9.57102">
        <ele>1274</ele>
        <time>2017-10-26T04:59:29Z</time>
      </trkpt>
      <trkpt lat="46.67828" lon="9.5715">
        <ele>1271</ele>
        <time>2017-10-26T05:01:29Z</time>
      </trkpt>
      <trkpt lat="46.67794" lon="9.57231">
        <ele>1268</ele>
        <time>2017-10-26T05:03:29Z</time>
      </trkpt>
      <trkpt lat="46.67747" lon="9.57343">
        <ele>1264</ele>
        <time>2017-10-26T05:05:29Z</time>
      </trkpt>
      <trkpt lat="46.67734" lon="9.57372">
        <ele>1262</ele>
        <time>2017-10-26T05:07:29Z</time>
      </trkpt>
      <trkpt lat="46.6772" lon="9.57409">
        <ele>1260</ele>
        <time>2017-10-26T05:09:29Z</time>
      </trkpt>
      <trkpt lat="46.67702" lon="9.57448">
        <ele>1258</ele>
        <time>2017-10-26T05:11:29Z</time>
      </trkpt>
      <trkpt lat="46.67682" lon="9.57482">
        <ele>1256</ele>
        <time>2017-10-26T05:13:29Z</time>
      </trkpt>
      <trkpt lat="46.67656" lon="9.57525">
        <ele>1253</ele>
        <time>2017-10-26T05:15:29Z</time>
      </trkpt>
      <trkpt lat="46.67615" lon="9.57594">
        <ele>1249</ele>
        <time>2017-10-26T05:17:29Z</time>
      </trkpt>
      <trkpt lat="46.676" lon="9.57621">
        <ele>1247</ele>
        <time>2017-10-26T05:19:29Z</time>
      </trkpt>
      <trkpt lat="46.67593" lon="9.57638">
        <ele>1247</ele>
        <time>2017-10-26T05:21:29Z</time>
      </trkpt>
      <trkpt lat="46.67589" lon="9.5765">
        <ele>1246</ele>
        <time>2017-10-26T05:23:29Z</time>
      </trkpt>
      <trkpt lat="46.67584" lon="9.57671">
        <ele>1246</ele>
        <time>2017-10-26T05:25:29Z</time>
      </trkpt>
      <trkpt lat="46.67574" lon="9.57721">
        <ele>1244</ele>
        <time>2017-10-26T05:27:29Z</time>
      </trkpt>
      <trkpt lat="46.67566" lon="9.57763">
        <ele>1244</ele>
        <time>2017-10-26T05:29:29Z</time>
      </trkpt>
      <trkpt lat="46.67563" lon="9.57777">
        <ele>1246</ele>
        <time>2017-10-26T05:31:29Z</time>
      </trkpt>
      <trkpt lat="46.67558" lon="9.57794">
        <ele>1248</ele>
        <time>2017-10-26T05:33:29Z</time>
      </trkpt>
      <trkpt lat="46.6755" lon="9.57809">
        <ele>1248</ele>
        <time>2017-10-26T05:35:29Z</time>
      </trkpt>
      <trkpt lat="46.6754" lon="9.57823">
        <ele>1248</ele>
        <time>2017-10-26T05:37:29Z</time>
      </trkpt>
      <trkpt lat="46.67528" lon="9.57833">
        <ele>1247</ele>
        <time>2017-10-26T05:39:29Z</time>
      </trkpt>
      <trkpt lat="46.6748" lon="9.57847">
        <ele>1241</ele>
        <time>2017-10-26T05:41:29Z</time>
      </trkpt>
      <trkpt lat="46.67452" lon="9.57858">
        <ele>1238</ele>
        <time>2017-10-26T05:43:29Z</time>
      </trkpt>
      <trkpt lat="46.67424" lon="9.57875">
        <ele>1236</ele>
        <time>2017-10-26T05:45:29Z</time>
      </trkpt>
      <trkpt lat="46.67394" lon="9.57895">
        <ele>1234</ele>
        <time>2017-10-26T05:47:29Z</time>
      </trkpt>
      <trkpt lat="46.6736" lon="9.57926">
        <ele>1233</ele>
        <time>2017-10-26T05:49:29Z</time>
      </trkpt>
      <trkpt lat="46.67289" lon="9.57997">
        <ele>1229</ele>
        <time>2017-10-26T05:51:29Z</time>
      </trkpt>
      <trkpt lat="46.67247" lon="9.58042">
        <ele>1222</ele>
        <time>2017-10-26T05:53:29Z</time>
      </trkpt>
      <trkpt lat="46.67221" lon="9.58077">
        <ele>1221</ele>
        <time>2017-10-26T05:55:29Z</time>
      </trkpt>
      <trkpt lat="46.67169" lon="9.58155">
        <ele>1220</ele>
        <time>2017-10-26T05:57:29Z</time>
      </trkpt>
      <trkpt lat="46.67148" lon="9.582">
        <ele>1219</ele>
        <time>2017-10-26T05:59:29Z</time>
      </trkpt>
      <trkpt lat="46.67135" lon="9.58229">
        <ele>1218</ele>
        <time>2017-10-26T06:01:29Z</time>
      </trkpt>
      <trkpt lat="46.67121" lon="9.58254">
        <ele>1215</ele>
        <time>2017-10-26T06:03:29Z</time>
      </trkpt>
      <trkpt lat="46.67109" lon="9.58272">
        <ele>1213</ele>
        <time>2017-10-26T06:05:29Z</time>
      </trkpt>
      <trkpt lat="46.67088" lon="9.58297">
        <ele>1208</ele>
        <time>2017-10-26T06:07:29Z</time>
      </trkpt>
      <trkpt lat="46.6705" lon="9.5834">
        <ele>1203</ele>
        <time>2017-10-26T06:09:29Z</time>
      </trkpt>
      <trkpt lat="46.67027" lon="9.58366">
        <ele>1200</ele>
        <time>2017-10-26T06:11:29Z</time>
      </trkpt>
      <trkpt lat="46.67009" lon="9.58388">
        <ele>1197</ele>
        <time>2017-10-26T06:13:29Z</time>
      </trkpt>
      <trkpt lat="46.67" lon="9.584">
        <ele>1196</ele>
        <time>2017-10-26T06:15:29Z</time>
      </trkpt>
      <trkpt lat="46.66989" lon="9.5842">
        <ele>1194</ele>
        <time>2017-10-26T06:17:29Z</time>
      </trkpt>
      <trkpt lat="46.66984" lon="9.58434">
        <ele>1192</ele>
        <time>2017-10-26T06:19:29Z</time>
      </trkpt>
      <trkpt lat="46.6698" lon="9.58445">
        <ele>1191</ele>
        <time>2017-10-26T06:21:29Z</time>
      </trkpt>
      <trkpt lat="46.66976" lon="9.58458">
        <ele>1190</ele>
        <time>2017-10-26T06:23:29Z</time>
      </trkpt>
      <trkpt lat="46.66974" lon="9.58467">
        <ele>1189</ele>
        <time>2017-10-26T06:25:29Z</time>
      </trkpt>
      <trkpt lat="46.66973" lon="9.58473">
        <ele>1189</ele>
        <time>2017-10-26T06:27:29Z</time>
      </trkpt>
      <trkpt lat="46.6697" lon="9.58482">
        <ele>1188</ele>
        <time>2017-10-26T06:29:29Z</time>
      </trkpt>
      <trkpt lat="46.6697" lon="9.58482">
        <ele>1188</ele>
        <time>2017-10-26T06:31:29Z</time>
      </trkpt>
      <trkpt lat="46.66967" lon="9.58498">
        <ele>1188</ele>
        <time>2017-10-26T06:33:29Z</time>
      </trkpt>
      <trkpt lat="46.66964" lon="9.58513">
        <ele>1187</ele>
        <time>2017-10-26T06:35:29Z</time>
      </trkpt>
      <trkpt lat="46.66962" lon="9.58533">
        <ele>1186</ele>
        <time>2017-10-26T06:37:29Z</time>
      </trkpt>
      <trkpt lat="46.66962" lon="9.58553">
        <ele>1186</ele>
        <time>2017-10-26T06:39:29Z</time>
      </trkpt>
      <trkpt lat="46.66962" lon="9.58568">
        <ele>1185</ele>
        <time>2017-10-26T06:41:29Z</time>
      </trkpt>
      <trkpt lat="46.66964" lon="9.58575">
        <ele>1186</ele>
        <time>2017-10-26T06:43:29Z</time>
      </trkpt>
      <trkpt lat="46.66968" lon="9.5859">
        <ele>1186</ele>
        <time>2017-10-26T06:45:29Z</time>
      </trkpt>
      <trkpt lat="46.66986" lon="9.58641">
        <ele>1186</ele>
        <time>2017-10-26T06:47:29Z</time>
      </trkpt>
      <trkpt lat="46.66999" lon="9.58676">
        <ele>1187</ele>
        <time>2017-10-26T06:49:29Z</time>
      </trkpt>
      <trkpt lat="46.6701" lon="9.58703">
        <ele>1190</ele>
        <time>2017-10-26T06:51:29Z</time>
      </trkpt>
      <trkpt lat="46.6702" lon="9.58731">
        <ele>1194</ele>
        <time>2017-10-26T06:53:29Z</time>
      </trkpt>
      <trkpt lat="46.67022" lon="9.58739">
        <ele>1194</ele>
        <time>2017-10-26T06:55:29Z</time>
      </trkpt>
      <trkpt lat="46.67024" lon="9.58745">
        <ele>1195</ele>
        <time>2017-10-26T06:57:29Z</time>
      </trkpt>
      <trkpt lat="46.67026" lon="9.58752">
        <ele>1195</ele>
        <time>2017-10-26T06:59:29Z</time>
      </trkpt>
      <trkpt lat="46.67027" lon="9.58758">
        <ele>1195</ele>
        <time>2017-10-26T07:01:29Z</time>
      </trkpt>
      <trkpt lat="46.67029" lon="9.58766">
        <ele>1195</ele>
        <time>2017-10-26T07:03:29Z</time>
      </trkpt>
      <trkpt lat="46.67029" lon="9.58775">
        <ele>1194</ele>
        <time>2017-10-26T07:05:29Z</time>
      </trkpt>
      <trkpt lat="46.6703" lon="9.58797">
        <ele>1191</ele>
        <time>2017-10-26T07:07:29Z</time>
      </trkpt>
      <trkpt lat="46.67033" lon="9.58831">
        <ele>1188</ele>
        <time>2017-10-26T07:09:29Z</time>
      </trkpt>
      <trkpt lat="46.67036" lon="9.58844">
        <ele>1187</ele>
        <time>2017-10-26T07:11:29Z</time>
      </trkpt>
      <trkpt lat="46.67042" lon="9.58872">
        <ele>1185</ele>
        <time>2017-10-26T07:13:29Z</time>
      </trkpt>
      <trkpt lat="46.67047" lon="9.58891">
        <ele>1184</ele>
        <time>2017-10-26T07:15:29Z</time>
      </trkpt>
      <trkpt lat="46.67052" lon="9.58907">
        <ele>1183</ele>
        <time>2017-10-26T07:17:29Z</time>
      </trkpt>
      <trkpt lat="46.67054" lon="9.58916">
        <ele>1182</ele>
        <time>2017-10-26T07:19:29Z</time>
      </trkpt>
      <trkpt lat="46.67055" lon="9.58925">
        <ele>1181</ele>
        <time>2017-10-26T07:21:29Z</time>
      </trkpt>
      <trkpt lat="46.67055" lon="9.58935">
        <ele>1180</ele>
        <time>2017-10-26T07:23:29Z</time>
      </trkpt>
      <trkpt lat="46.67055" lon="9.5895">
        <ele>1178</ele>
        <time>2017-10-26T07:25:29Z</time>
      </trkpt>
      <trkpt lat="46.67055" lon="9.58973">
        <ele>1175</ele>
        <time>2017-10-26T07:27:29Z</time>
      </trkpt>
      <trkpt lat="46.67054" lon="9.58995">
        <ele>1172</ele>
        <time>2017-10-26T07:29:29Z</time>
      </trkpt>
      <trkpt lat="46.67055" lon="9.59018">
        <ele>1170</ele>
        <time>2017-10-26T07:31:29Z</time>
      </trkpt>
      <trkpt lat="46.67057" lon="9.59034">
        <ele>1170</ele>
        <time>2017-10-26T07:33:29Z</time>
      </trkpt>
      <trkpt lat="46.67062" lon="9.59053">
        <ele>1170</ele>
        <time>2017-10-26T07:35:29Z</time>
      </trkpt>
      <trkpt lat="46.67067" lon="9.59066">
        <ele>1170</ele>
        <time>2017-10-26T07:37:29Z</time>
      </trkpt>
      <trkpt lat="46.67076" lon="9.59085">
        <ele>1171</ele>
        <time>2017-10-26T07:39:29Z</time>
      </trkpt>
      <trkpt lat="46.67084" lon="9.59103">
        <ele>1171</ele>
        <time>2017-10-26T07:41:29Z</time>
      </trkpt>
      <trkpt lat="46.67088" lon="9.59114">
        <ele>1172</ele>
        <time>2017-10-26T07:43:29Z</time>
      </trkpt>
      <trkpt lat="46.67091" lon="9.59124">
        <ele>1172</ele>
        <time>2017-10-26T07:45:29Z</time>
      </trkpt>
      <trkpt lat="46.67094" lon="9.59135">
        <ele>1171</ele>
        <time>2017-10-26T07:47:29Z</time>
      </trkpt>
      <trkpt lat="46.67096" lon="9.59143">
        <ele>1171</ele>
        <time>2017-10-26T07:49:29Z</time>
      </trkpt>
      <trkpt lat="46.67097" lon="9.59154">
        <ele>1170</ele>
        <time>2017-10-26T07:51:29Z</time>
      </trkpt>
      <trkpt lat="46.67098" lon="9.59163">
        <ele>1170</ele>
        <time>2017-10-26T07:53:29Z</time>
      </trkpt>
      <trkpt lat="46.67097" lon="9.59179">
        <ele>1168</ele>
        <time>2017-10-26T07:55:29Z</time>
      </trkpt>
      <trkpt lat="46.67097" lon="9.59189">
        <ele>1167</ele>
        <time>2017-10-26T07:57:29Z</time>
      </trkpt>
      <trkpt lat="46.67096" lon="9.59198">
        <ele>1166</ele>
        <time>2017-10-26T07:59:29Z</time>
      </trkpt>
      <trkpt lat="46.67095" lon="9.59205">
        <ele>1165</ele>
        <time>2017-10-26T08:01:29Z</time>
      </trkpt>
      <trkpt lat="46.67092" lon="9.59218">
        <ele>1163</ele>
        <time>2017-10-26T08:03:29Z</time>
      </trkpt>
      <trkpt lat="46.6709" lon="9.59227">
        <ele>1162</ele>
        <time>2017-10-26T08:05:29Z</time>
      </trkpt>
      <trkpt lat="46.67085" lon="9.59241">
        <ele>1158</ele>
        <time>2017-10-26T08:07:29Z</time>
      </trkpt>
      <trkpt lat="46.67082" lon="9.5925">
        <ele>1157</ele>
        <time>2017-10-26T08:09:29Z</time>
      </trkpt>
      <trkpt lat="46.67072" lon="9.59272">
        <ele>1156</ele>
        <time>2017-10-26T08:11:29Z</time>
      </trkpt>
      <trkpt lat="46.67061" lon="9.59295">
        <ele>1155</ele>
        <time>2017-10-26T08:13:29Z</time>
      </trkpt>
      <trkpt lat="46.67053" lon="9.59311">
        <ele>1155</ele>
        <time>2017-10-26T08:15:29Z</time>
      </trkpt>
      <trkpt lat="46.67045" lon="9.59326">
        <ele>1154</ele>
        <time>2017-10-26T08:17:29Z</time>
      </trkpt>
      <trkpt lat="46.67038" lon="9.59337">
        <ele>1153</ele>
        <time>2017-10-26T08:19:29Z</time>
      </trkpt>
      <trkpt lat="46.6702" lon="9.5936">
        <ele>1150</ele>
        <time>2017-10-26T08:21:29Z</time>
      </trkpt>
      <trkpt lat="46.67005" lon="9.59376">
        <ele>1147</ele>
        <time>2017-10-26T08:23:29Z</time>
      </trkpt>
      <trkpt lat="46.66984" lon="9.59394">
        <ele>1146</ele>
        <time>2017-10-26T08:25:29Z</time>
      </trkpt>
      <trkpt lat="46.66961" lon="9.59411">
        <ele>1147</ele>
        <time>2017-10-26T08:27:29Z</time>
      </trkpt>
      <trkpt lat="46.66944" lon="9.59427">
        <ele>1149</ele>
        <time>2017-10-26T08:29:29Z</time>
      </trkpt>
      <trkpt lat="46.66938" lon="9.59434">
        <ele>1149</ele>
        <time>2017-10-26T08:31:29Z</time>
      </trkpt>
      <trkpt lat="46.66935" lon="9.59438">
        <ele>1149</ele>
        <time>2017-10-26T08:33:29Z</time>
      </trkpt>
      <trkpt lat="46.66932" lon="9.59443">
        <ele>1150</ele>
        <time>2017-10-26T08:35:29Z</time>
      </trkpt>
      <trkpt lat="46.6693" lon="9.59449">
        <ele>1150</ele>
        <time>2017-10-26T08:37:29Z</time>
      </trkpt>
      <trkpt lat="46.66927" lon="9.59459">
        <ele>1150</ele>
        <time>2017-10-26T08:39:29Z</time>
      </trkpt>
      <trkpt lat="46.66924" lon="9.59471">
        <ele>1151</ele>
        <time>2017-10-26T08:41:29Z</time>
      </trkpt>
      <trkpt lat="46.66913" lon="9.59515">
        <ele>1151</ele>
        <time>2017-10-26T08:43:29Z</time>
      </trkpt>
      <trkpt lat="46.66905" lon="9.59542">
        <ele>1148</ele>
        <time>2017-10-26T08:45:29Z</time>
      </trkpt>
      <trkpt lat="46.66897" lon="9.59566">
        <ele>1146</ele>
        <time>2017-10-26T08:47:29Z</time>
      </trkpt>
      <trkpt lat="46.6689" lon="9.59588">
        <ele>1144</ele>
        <time>2017-10-26T08:49:29Z</time>
      </trkpt>
      <trkpt lat="46.66872" lon="9.59649">
        <ele>1140</ele>
        <time>2017-10-26T08:51:29Z</time>
      </trkpt>
      <trkpt lat="46.66861" lon="9.59688">
        <ele>1137</ele>
        <time>2017-10-26T08:53:29Z</time>
      </trkpt>
      <trkpt lat="46.66856" lon="9.59719">
        <ele>1136</ele>
        <time>2017-10-26T08:55:29Z</time>
      </trkpt>
      <trkpt lat="46.66853" lon="9.59741">
        <ele>1134</ele>
        <time>2017-10-26T08:57:29Z</time>
      </trkpt>
      <trkpt lat="46.66852" lon="9.59758">
        <ele>1133</ele>
        <time>2017-10-26T08:59:29Z</time>
      </trkpt>
      <trkpt lat="46.66856" lon="9.59777">
        <ele>1133</ele>
        <time>2017-10-26T09:01:29Z</time>
      </trkpt>
      <trkpt lat="46.66863" lon="9.59803">
        <ele>1134</ele>
        <time>2017-10-26T09:03:29Z</time>
      </trkpt>
      <trkpt lat="46.66872" lon="9.59836">
        <ele>1136</ele>
        <time>2017-10-26T09:05:29Z</time>
      </trkpt>
      <trkpt lat="46.66887" lon="9.59898">
        <ele>1139</ele>
        <time>2017-10-26T09:07:29Z</time>
      </trkpt>
      <trkpt lat="46.66895" lon="9.59938">
        <ele>1138</ele>
        <time>2017-10-26T09:09:29Z</time>
      </trkpt>
      <trkpt lat="46.66904" lon="9.59982">
        <ele>1135</ele>
        <time>2017-10-26T09:11:29Z</time>
      </trkpt>
      <trkpt lat="46.66908" lon="9.60017">
        <ele>1132</ele>
        <time>2017-10-26T09:13:29Z</time>
      </trkpt>
      <trkpt lat="46.6691" lon="9.60042">
        <ele>1130</ele>
        <time>2017-10-26T09:15:29Z</time>
      </trkpt>
      <trkpt lat="46.6691" lon="9.60051">
        <ele>1129</ele>
        <time>2017-10-26T09:17:29Z</time>
      </trkpt>
      <trkpt lat="46.66908" lon="9.6006">
        <ele>1127</ele>
        <time>2017-10-26T09:19:29Z</time>
      </trkpt>
      <trkpt lat="46.66906" lon="9.60069">
        <ele>1125</ele>
        <time>2017-10-26T09:21:29Z</time>
      </trkpt>
      <trkpt lat="46.66904" lon="9.60078">
        <ele>1123</ele>
        <time>2017-10-26T09:23:29Z</time>
      </trkpt>
      <trkpt lat="46.66902" lon="9.60086">
        <ele>1121</ele>
        <time>2017-10-26T09:25:29Z</time>
      </trkpt>
      <trkpt lat="46.669" lon="9.60095">
        <ele>1120</ele>
        <time>2017-10-26T09:27:29Z</time>
      </trkpt>
      <trkpt lat="46.669" lon="9.60106">
        <ele>1120</ele>
        <time>2017-10-26T09:29:29Z</time>
      </trkpt>
      <trkpt lat="46.669" lon="9.60114">
        <ele>1119</ele>
        <time>2017-10-26T09:31:29Z</time>
      </trkpt>
      <trkpt lat="46.669" lon="9.60124">
        <ele>1119</ele>
        <time>2017-10-26T09:33:29Z</time>
      </trkpt>
      <trkpt lat="46.66902" lon="9.60135">
        <ele>1119</ele>
        <time>2017-10-26T09:35:29Z</time>
      </trkpt>
      <trkpt lat="46.66904" lon="9.60156">
        <ele>1120</ele>
        <time>2017-10-26T09:37:29Z</time>
      </trkpt>
      <trkpt lat="46.66906" lon="9.60174">
        <ele>1120</ele>
        <time>2017-10-26T09:39:29Z</time>
      </trkpt>
      <trkpt lat="46.66906" lon="9.60183">
        <ele>1119</ele>
        <time>2017-10-26T09:41:29Z</time>
      </trkpt>
      <trkpt lat="46.66907" lon="9.60197">
        <ele>1119</ele>
        <time>2017-10-26T09:43:29Z</time>
      </trkpt>
      <trkpt lat="46.66908" lon="9.6021">
        <ele>1119</ele>
        <time>2017-10-26T09:45:29Z</time>
      </trkpt>
      <trkpt lat="46.66909" lon="9.6022">
        <ele>1119</ele>
        <time>2017-10-26T09:47:29Z</time>
      </trkpt>
      <trkpt lat="46.6691" lon="9.60229">
        <ele>1119</ele>
        <time>2017-10-26T09:49:29Z</time>
      </trkpt>
      <trkpt lat="46.66911" lon="9.60241">
        <ele>1119</ele>
        <time>2017-10-26T09:51:29Z</time>
      </trkpt>
      <trkpt lat="46.66915" lon="9.60256">
        <ele>1119</ele>
        <time>2017-10-26T09:53:29Z</time>
      </trkpt>
      <trkpt lat="46.66926" lon="9.6029">
        <ele>1120</ele>
        <time>2017-10-26T09:55:29Z</time>
      </trkpt>
      <trkpt lat="46.66935" lon="9.60327">
        <ele>1120</ele>
        <time>2017-10-26T09:57:29Z</time>
      </trkpt>
      <trkpt lat="46.66937" lon="9.60338">
        <ele>1119</ele>
        <time>2017-10-26T09:59:29Z</time>
      </trkpt>
      <trkpt lat="46.66938" lon="9.60348">
        <ele>1118</ele>
        <time>2017-10-26T10:01:29Z</time>
      </trkpt>
      <trkpt lat="46.66942" lon="9.60378">
        <ele>1115</ele>
        <time>2017-10-26T10:03:29Z</time>
      </trkpt>
      <trkpt lat="46.66946" lon="9.60395">
        <ele>1114</ele>
        <time>2017-10-26T10:05:29Z</time>
      </trkpt>
      <trkpt lat="46.66948" lon="9.60402">
        <ele>1113</ele>
        <time>2017-10-26T10:07:29Z</time>
      </trkpt>
      <trkpt lat="46.66951" lon="9.60408">
        <ele>1113</ele>
        <time>2017-10-26T10:09:29Z</time>
      </trkpt>
      <trkpt lat="46.66959" lon="9.60425">
        <ele>1113</ele>
        <time>2017-10-26T10:11:29Z</time>
      </trkpt>
      <trkpt lat="46.66965" lon="9.60435">
        <ele>1114</ele>
        <time>2017-10-26T10:13:29Z</time>
      </trkpt>
      <trkpt lat="46.66976" lon="9.60448">
        <ele>1116</ele>
        <time>2017-10-26T10:15:29Z</time>
      </trkpt>
      <trkpt lat="46.66991" lon="9.60462">
        <ele>1119</ele>
        <time>2017-10-26T10:17:29Z</time>
      </trkpt>
      <trkpt lat="46.67003" lon="9.60471">
        <ele>1122</ele>
        <time>2017-10-26T10:19:29Z</time>
      </trkpt>
      <trkpt lat="46.67014" lon="9.60481">
        <ele>1125</ele>
        <time>2017-10-26T10:21:29Z</time>
      </trkpt>
      <trkpt lat="46.67021" lon="9.6049">
        <ele>1127</ele>
        <time>2017-10-26T10:23:29Z</time>
      </trkpt>
      <trkpt lat="46.67026" lon="9.60496">
        <ele>1128</ele>
        <time>2017-10-26T10:25:29Z</time>
      </trkpt>
      <trkpt lat="46.67029" lon="9.60504">
        <ele>1128</ele>
        <time>2017-10-26T10:27:29Z</time>
      </trkpt>
      <trkpt lat="46.6703" lon="9.60511">
        <ele>1128</ele>
        <time>2017-10-26T10:29:29Z</time>
      </trkpt>
      <trkpt lat="46.6703" lon="9.60518">
        <ele>1126</ele>
        <time>2017-10-26T10:31:29Z</time>
      </trkpt>
      <trkpt lat="46.6703" lon="9.60532">
        <ele>1124</ele>
        <time>2017-10-26T10:33:29Z</time>
      </trkpt>
      <trkpt lat="46.67029" lon="9.60546">
        <ele>1121</ele>
        <time>2017-10-26T10:35:29Z</time>
      </trkpt>
      <trkpt lat="46.67026" lon="9.60562">
        <ele>1118</ele>
        <time>2017-10-26T10:37:29Z</time>
      </trkpt>
      <trkpt lat="46.67023" lon="9.60575">
        <ele>1114</ele>
        <time>2017-10-26T10:39:29Z</time>
      </trkpt>
      <trkpt lat="46.6702" lon="9.60594">
        <ele>1112</ele>
        <time>2017-10-26T10:41:29Z</time>
      </trkpt>
      <trkpt lat="46.67019" lon="9.60602">
        <ele>1111</ele>
        <time>2017-10-26T10:43:29Z</time>
      </trkpt>
      <trkpt lat="46.67019" lon="9.6061">
        <ele>1111</ele>
        <time>2017-10-26T10:45:29Z</time>
      </trkpt>
      <trkpt lat="46.67019" lon="9.60632">
        <ele>1111</ele>
        <time>2017-10-26T10:47:29Z</time>
      </trkpt>
      <trkpt lat="46.67019" lon="9.60644">
        <ele>1111</ele>
        <time>2017-10-26T10:49:29Z</time>
      </trkpt>
      <trkpt lat="46.67021" lon="9.60656">
        <ele>1112</ele>
        <time>2017-10-26T10:51:29Z</time>
      </trkpt>
      <trkpt lat="46.67024" lon="9.60671">
        <ele>1112</ele>
        <time>2017-10-26T10:53:29Z</time>
      </trkpt>
      <trkpt lat="46.67034" lon="9.60721">
        <ele>1112</ele>
        <time>2017-10-26T10:55:29Z</time>
      </trkpt>
      <trkpt lat="46.67038" lon="9.60741">
        <ele>1111</ele>
        <time>2017-10-26T10:57:29Z</time>
      </trkpt>
      <trkpt lat="46.67043" lon="9.60758">
        <ele>1111</ele>
        <time>2017-10-26T10:59:29Z</time>
      </trkpt>
      <trkpt lat="46.67048" lon="9.60765">
        <ele>1112</ele>
        <time>2017-10-26T11:01:29Z</time>
      </trkpt>
      <trkpt lat="46.67051" lon="9.60769">
        <ele>1112</ele>
        <time>2017-10-26T11:03:29Z</time>
      </trkpt>
      <trkpt lat="46.67059" lon="9.60776">
        <ele>1113</ele>
        <time>2017-10-26T11:05:29Z</time>
      </trkpt>
      <trkpt lat="46.67073" lon="9.60785">
        <ele>1116</ele>
        <time>2017-10-26T11:07:29Z</time>
      </trkpt>
      <trkpt lat="46.6709" lon="9.60795">
        <ele>1121</ele>
        <time>2017-10-26T11:09:29Z</time>
      </trkpt>
      <trkpt lat="46.671" lon="9.60804">
        <ele>1125</ele>
        <time>2017-10-26T11:11:29Z</time>
      </trkpt>
      <trkpt lat="46.67106" lon="9.60812">
        <ele>1126</ele>
        <time>2017-10-26T11:13:29Z</time>
      </trkpt>
      <trkpt lat="46.67111" lon="9.60818">
        <ele>1128</ele>
        <time>2017-10-26T11:15:29Z</time>
      </trkpt>
      <trkpt lat="46.67115" lon="9.60824">
        <ele>1129</ele>
        <time>2017-10-26T11:17:29Z</time>
      </trkpt>
      <trkpt lat="46.67121" lon="9.60834">
        <ele>1130</ele>
        <time>2017-10-26T11:19:29Z</time>
      </trkpt>
      <trkpt lat="46.67125" lon="9.60847">
        <ele>1131</ele>
        <time>2017-10-26T11:21:29Z</time>
      </trkpt>
      <trkpt lat="46.67127" lon="9.60855">
        <ele>1131</ele>
        <time>2017-10-26T11:23:29Z</time>
      </trkpt>
      <trkpt lat="46.67128" lon="9.60862">
        <ele>1131</ele>
        <time>2017-10-26T11:25:29Z</time>
      </trkpt>
      <trkpt lat="46.67128" lon="9.60877">
        <ele>1129</ele>
        <time>2017-10-26T11:27:29Z</time>
      </trkpt>
      <trkpt lat="46.67125" lon="9.60896">
        <ele>1124</ele>
        <time>2017-10-26T11:29:29Z</time>
      </trkpt>
      <trkpt lat="46.67122" lon="9.60908">
        <ele>1120</ele>
        <time>2017-10-26T11:31:29Z</time>
      </trkpt>
      <trkpt lat="46.67118" lon="9.6092">
        <ele>1117</ele>
        <time>2017-10-26T11:33:29Z</time>
      </trkpt>
      <trkpt lat="46.67109" lon="9.60936">
        <ele>1114</ele>
        <time>2017-10-26T11:35:29Z</time>
      </trkpt>
      <trkpt lat="46.67101" lon="9.60944">
        <ele>1110</ele>
        <time>2017-10-26T11:37:29Z</time>
      </trkpt>
      <trkpt lat="46.67086" lon="9.60954">
        <ele>1102</ele>
        <time>2017-10-26T11:39:29Z</time>
      </trkpt>
      <trkpt lat="46.67075" lon="9.6096">
        <ele>1099</ele>
        <time>2017-10-26T11:41:29Z</time>
      </trkpt>
      <trkpt lat="46.67068" lon="9.60967">
        <ele>1097</ele>
        <time>2017-10-26T11:43:29Z</time>
      </trkpt>
      <trkpt lat="46.67044" lon="9.60997">
        <ele>1093</ele>
        <time>2017-10-26T11:45:29Z</time>
      </trkpt>
      <trkpt lat="46.67028" lon="9.61013">
        <ele>1088</ele>
        <time>2017-10-26T11:47:29Z</time>
      </trkpt>
      <trkpt lat="46.6702" lon="9.61024">
        <ele>1085</ele>
        <time>2017-10-26T11:49:29Z</time>
      </trkpt>
      <trkpt lat="46.67016" lon="9.61031">
        <ele>1084</ele>
        <time>2017-10-26T11:51:29Z</time>
      </trkpt>
      <trkpt lat="46.67015" lon="9.61039">
        <ele>1085</ele>
        <time>2017-10-26T11:53:29Z</time>
      </trkpt>
      <trkpt lat="46.67015" lon="9.61049">
        <ele>1086</ele>
        <time>2017-10-26T11:55:29Z</time>
      </trkpt>
      <trkpt lat="46.67015" lon="9.61083">
        <ele>1091</ele>
        <time>2017-10-26T11:57:29Z</time>
      </trkpt>
      <trkpt lat="46.67017" lon="9.61106">
        <ele>1094</ele>
        <time>2017-10-26T11:59:29Z</time>
      </trkpt>
      <trkpt lat="46.67018" lon="9.61113">
        <ele>1095</ele>
        <time>2017-10-26T12:01:29Z</time>
      </trkpt>
      <trkpt lat="46.67017" lon="9.61119">
        <ele>1095</ele>
        <time>2017-10-26T12:03:29Z</time>
      </trkpt>
      <trkpt lat="46.67018" lon="9.61126">
        <ele>1096</ele>
        <time>2017-10-26T12:05:29Z</time>
      </trkpt>
      <trkpt lat="46.67016" lon="9.61135">
        <ele>1096</ele>
        <time>2017-10-26T12:07:29Z</time>
      </trkpt>
      <trkpt lat="46.67015" lon="9.61143">
        <ele>1096</ele>
        <time>2017-10-26T12:09:29Z</time>
      </trkpt>
      <trkpt lat="46.67012" lon="9.6115">
        <ele>1095</ele>
        <time>2017-10-26T12:11:29Z</time>
      </trkpt>
      <trkpt lat="46.67007" lon="9.61159">
        <ele>1092</ele>
        <time>2017-10-26T12:13:29Z</time>
      </trkpt>
      <trkpt lat="46.67005" lon="9.61169">
        <ele>1092</ele>
        <time>2017-10-26T12:15:29Z</time>
      </trkpt>
      <trkpt lat="46.67006" lon="9.61182">
        <ele>1093</ele>
        <time>2017-10-26T12:17:29Z</time>
      </trkpt>
      <trkpt lat="46.67008" lon="9.61215">
        <ele>1095</ele>
        <time>2017-10-26T12:19:29Z</time>
      </trkpt>
      <trkpt lat="46.6701" lon="9.61254">
        <ele>1097</ele>
        <time>2017-10-26T12:21:29Z</time>
      </trkpt>
      <trkpt lat="46.67009" lon="9.61279">
        <ele>1098</ele>
        <time>2017-10-26T12:23:29Z</time>
      </trkpt>
      <trkpt lat="46.67007" lon="9.61306">
        <ele>1097</ele>
        <time>2017-10-26T12:25:29Z</time>
      </trkpt>
      <trkpt lat="46.67002" lon="9.61334">
        <ele>1095</ele>
        <time>2017-10-26T12:27:29Z</time>
      </trkpt>
      <trkpt lat="46.66994" lon="9.61367">
        <ele>1094</ele>
        <time>2017-10-26T12:29:29Z</time>
      </trkpt>
      <trkpt lat="46.66984" lon="9.61401">
        <ele>1093</ele>
        <time>2017-10-26T12:31:29Z</time>
      </trkpt>
      <trkpt lat="46.66973" lon="9.61437">
        <ele>1091</ele>
        <time>2017-10-26T12:33:29Z</time>
      </trkpt>
      <trkpt lat="46.66969" lon="9.6145">
        <ele>1090</ele>
        <time>2017-10-26T12:35:29Z</time>
      </trkpt>
      <trkpt lat="46.66968" lon="9.61463">
        <ele>1091</ele>
        <time>2017-10-26T12:37:29Z</time>
      </trkpt>
      <trkpt lat="46.66967" lon="9.61474">
        <ele>1092</ele>
        <time>2017-10-26T12:39:29Z</time>
      </trkpt>
      <trkpt lat="46.66967" lon="9.61487">
        <ele>1093</ele>
        <time>2017-10-26T12:41:29Z</time>
      </trkpt>
      <trkpt lat="46.66964" lon="9.61504">
        <ele>1093</ele>
        <time>2017-10-26T12:43:29Z</time>
      </trkpt>
      <trkpt lat="46.66959" lon="9.61521">
        <ele>1092</ele>
        <time>2017-10-26T12:45:29Z</time>
      </trkpt>
      <trkpt lat="46.66954" lon="9.61534">
        <ele>1091</ele>
        <time>2017-10-26T12:47:29Z</time>
      </trkpt>
      <trkpt lat="46.66946" lon="9.61553">
        <ele>1089</ele>
        <time>2017-10-26T12:49:29Z</time>
      </trkpt>
      <trkpt lat="46.66932" lon="9.61581">
        <ele>1085</ele>
        <time>2017-10-26T12:51:29Z</time>
      </trkpt>
      <trkpt lat="46.66922" lon="9.616">
        <ele>1083</ele>
        <time>2017-10-26T12:53:29Z</time>
      </trkpt>
      <trkpt lat="46.66915" lon="9.61617">
        <ele>1082</ele>
        <time>2017-10-26T12:55:29Z</time>
      </trkpt>
      <trkpt lat="46.66908" lon="9.61632">
        <ele>1079</ele>
        <time>2017-10-26T12:57:29Z</time>
      </trkpt>
      <trkpt lat="46.66904" lon="9.61644">
        <ele>1078</ele>
        <time>2017-10-26T12:59:29Z</time>
      </trkpt>
      <trkpt lat="46.66902" lon="9.61658">
        <ele>1079</ele>
        <time>2017-10-26T13:01:29Z</time>
      </trkpt>
      <trkpt lat="46.66901" lon="9.61675">
        <ele>1079</ele>
        <time>2017-10-26T13:03:29Z</time>
      </trkpt>
      <trkpt lat="46.66901" lon="9.61694">
        <ele>1077</ele>
        <time>2017-10-26T13:05:29Z</time>
      </trkpt>
      <trkpt lat="46.66903" lon="9.61703">
        <ele>1078</ele>
        <time>2017-10-26T13:07:29Z</time>
      </trkpt>
      <trkpt lat="46.66904" lon="9.61711">
        <ele>1078</ele>
        <time>2017-10-26T13:09:29Z</time>
      </trkpt>
      <trkpt lat="46.66905" lon="9.61718">
        <ele>1078</ele>
        <time>2017-10-26T13:11:29Z</time>
      </trkpt>
      <trkpt lat="46.66905" lon="9.61725">
        <ele>1078</ele>
        <time>2017-10-26T13:13:29Z</time>
      </trkpt>
      <trkpt lat="46.66904" lon="9.61734">
        <ele>1076</ele>
        <time>2017-10-26T13:15:29Z</time>
      </trkpt>
      <trkpt lat="46.66902" lon="9.61742">
        <ele>1074</ele>
        <time>2017-10-26T13:17:29Z</time>
      </trkpt>
      <trkpt lat="46.66899" lon="9.61752">
        <ele>1071</ele>
        <time>2017-10-26T13:19:29Z</time>
      </trkpt>
      <trkpt lat="46.66898" lon="9.6176">
        <ele>1069</ele>
        <time>2017-10-26T13:21:29Z</time>
      </trkpt>
      <trkpt lat="46.66896" lon="9.61766">
        <ele>1067</ele>
        <time>2017-10-26T13:23:29Z</time>
      </trkpt>
      <trkpt lat="46.66897" lon="9.61772">
        <ele>1067</ele>
        <time>2017-10-26T13:25:29Z</time>
      </trkpt>
      <trkpt lat="46.66899" lon="9.6178">
        <ele>1068</ele>
        <time>2017-10-26T13:27:29Z</time>
      </trkpt>
      <trkpt lat="46.66902" lon="9.61789">
        <ele>1069</ele>
        <time>2017-10-26T13:29:29Z</time>
      </trkpt>
      <trkpt lat="46.66908" lon="9.61798">
        <ele>1073</ele>
        <time>2017-10-26T13:31:29Z</time>
      </trkpt>
      <trkpt lat="46.66917" lon="9.6181">
        <ele>1079</ele>
        <time>2017-10-26T13:33:29Z</time>
      </trkpt>
      <trkpt lat="46.66935" lon="9.61831">
        <ele>1084</ele>
        <time>2017-10-26T13:35:29Z</time>
      </trkpt>
      <trkpt lat="46.66951" lon="9.61851">
        <ele>1087</ele>
        <time>2017-10-26T13:37:29Z</time>
      </trkpt>
      <trkpt lat="46.66959" lon="9.61866">
        <ele>1087</ele>
        <time>2017-10-26T13:39:29Z</time>
      </trkpt>
      <trkpt lat="46.66963" lon="9.6188">
        <ele>1086</ele>
        <time>2017-10-26T13:41:29Z</time>
      </trkpt>
      <trkpt lat="46.66964" lon="9.61893">
        <ele>1084</ele>
        <time>2017-10-26T13:43:29Z</time>
      </trkpt>
      <trkpt lat="46.66966" lon="9.6191">
        <ele>1081</ele>
        <time>2017-10-26T13:45:29Z</time>
      </trkpt>
      <trkpt lat="46.66957" lon="9.61946">
        <ele>1076</ele>
        <time>2017-10-26T13:47:29Z</time>
      </trkpt>
      <trkpt lat="46.66953" lon="9.6197">
        <ele>1074</ele>
        <time>2017-10-26T13:49:29Z</time>
      </trkpt>
      <trkpt lat="46.66955" lon="9.61992">
        <ele>1074</ele>
        <time>2017-10-26T13:51:29Z</time>
      </trkpt>
      <trkpt lat="46.66962" lon="9.62019">
        <ele>1075</ele>
        <time>2017-10-26T13:53:29Z</time>
      </trkpt>
      <trkpt lat="46.66986" lon="9.6206">
        <ele>1079</ele>
        <time>2017-10-26T13:55:29Z</time>
      </trkpt>
      <trkpt lat="46.67004" lon="9.62092">
        <ele>1082</ele>
        <time>2017-10-26T13:57:29Z</time>
      </trkpt>
      <trkpt lat="46.67021" lon="9.62126">
        <ele>1082</ele>
        <time>2017-10-26T13:59:29Z</time>
      </trkpt>
      <trkpt lat="46.67051" lon="9.62177">
        <ele>1083</ele>
        <time>2017-10-26T14:01:29Z</time>
      </trkpt>
      <trkpt lat="46.67066" lon="9.62207">
        <ele>1084</ele>
        <time>2017-10-26T14:03:29Z</time>
      </trkpt>
      <trkpt lat="46.67073" lon="9.6223">
        <ele>1084</ele>
        <time>2017-10-26T14:05:29Z</time>
      </trkpt>
      <trkpt lat="46.67076" lon="9.62246">
        <ele>1084</ele>
        <time>2017-10-26T14:07:29Z</time>
      </trkpt>
      <trkpt lat="46.67078" lon="9.62261">
        <ele>1083</ele>
        <time>2017-10-26T14:09:29Z</time>
      </trkpt>
      <trkpt lat="46.67079" lon="9.62282">
        <ele>1081</ele>
        <time>2017-10-26T14:11:29Z</time>
      </trkpt>
      <trkpt lat="46.67081" lon="9.62303">
        <ele>1080</ele>
        <time>2017-10-26T14:13:29Z</time>
      </trkpt>
      <trkpt lat="46.67084" lon="9.62325">
        <ele>1078</ele>
        <time>2017-10-26T14:15:29Z</time>
      </trkpt>
      <trkpt lat="46.67089" lon="9.62344">
        <ele>1078</ele>
        <time>2017-10-26T14:17:29Z</time>
      </trkpt>
      <trkpt lat="46.67097" lon="9.62366">
        <ele>1078</ele>
        <time>2017-10-26T14:19:29Z</time>
      </trkpt>
      <trkpt lat="46.67111" lon="9.62402">
        <ele>1079</ele>
        <time>2017-10-26T14:21:29Z</time>
      </trkpt>
      <trkpt lat="46.67112" lon="9.62451">
        <ele>1077</ele>
        <time>2017-10-26T14:23:29Z</time>
      </trkpt>
      <trkpt lat="46.67113" lon="9.62493">
        <ele>1075</ele>
        <time>2017-10-26T14:25:29Z</time>
      </trkpt>
      <trkpt lat="46.67119" lon="9.62545">
        <ele>1074</ele>
        <time>2017-10-26T14:27:29Z</time>
      </trkpt>
      <trkpt lat="46.67126" lon="9.62603">
        <ele>1072</ele>
        <time>2017-10-26T14:29:29Z</time>
      </trkpt>
      <trkpt lat="46.67137" lon="9.62661">
        <ele>1071</ele>
        <time>2017-10-26T14:31:29Z</time>
      </trkpt>
      <trkpt lat="46.67146" lon="9.62695">
        <ele>1066</ele>
        <time>2017-10-26T14:33:29Z</time>
      </trkpt>
      <trkpt lat="46.67155" lon="9.62718">
        <ele>1063</ele>
        <time>2017-10-26T14:35:29Z</time>
      </trkpt>
      <trkpt lat="46.67171" lon="9.6273">
        <ele>1063</ele>
        <time>2017-10-26T14:37:29Z</time>
      </trkpt>
      <trkpt lat="46.67185" lon="9.62739">
        <ele>1063</ele>
        <time>2017-10-26T14:39:29Z</time>
      </trkpt>
      <trkpt lat="46.67205" lon="9.62761">
        <ele>1062</ele>
        <time>2017-10-26T14:41:29Z</time>
      </trkpt>
      <trkpt lat="46.67224" lon="9.62787">
        <ele>1061</ele>
        <time>2017-10-26T14:43:29Z</time>
      </trkpt>
      <trkpt lat="46.67236" lon="9.62823">
        <ele>1057</ele>
        <time>2017-10-26T14:45:29Z</time>
      </trkpt>
      <trkpt lat="46.67247" lon="9.62867">
        <ele>1058</ele>
        <time>2017-10-26T14:47:29Z</time>
      </trkpt>
      <trkpt lat="46.67265" lon="9.62932">
        <ele>1060</ele>
        <time>2017-10-26T14:49:29Z</time>
      </trkpt>
      <trkpt lat="46.67268" lon="9.62945">
        <ele>1061</ele>
        <time>2017-10-26T14:51:29Z</time>
      </trkpt>
      <trkpt lat="46.67269" lon="9.62951">
        <ele>1061</ele>
        <time>2017-10-26T14:53:29Z</time>
      </trkpt>
      <trkpt lat="46.67269" lon="9.62958">
        <ele>1061</ele>
        <time>2017-10-26T14:55:29Z</time>
      </trkpt>
      <trkpt lat="46.67268" lon="9.62967">
        <ele>1061</ele>
        <time>2017-10-26T14:57:29Z</time>
      </trkpt>
      <trkpt lat="46.67266" lon="9.62976">
        <ele>1060</ele>
        <time>2017-10-26T14:59:29Z</time>
      </trkpt>
      <trkpt lat="46.67265" lon="9.62984">
        <ele>1060</ele>
        <time>2017-10-26T15:01:29Z</time>
      </trkpt>
      <trkpt lat="46.6726" lon="9.62991">
        <ele>1060</ele>
        <time>2017-10-26T15:03:29Z</time>
      </trkpt>
      <trkpt lat="46.6725" lon="9.63001">
        <ele>1058</ele>
        <time>2017-10-26T15:05:29Z</time>
      </trkpt>
      <trkpt lat="46.6724" lon="9.63043">
        <ele>1057</ele>
        <time>2017-10-26T15:07:29Z</time>
      </trkpt>
      <trkpt lat="46.6724" lon="9.63043">
        <ele>1057</ele>
        <time>2017-10-26T15:09:29Z</time>
      </trkpt>
      <trkpt lat="46.67258" lon="9.6306">
        <ele>1061</ele>
        <time>2017-10-26T15:11:29Z</time>
      </trkpt>
      <trkpt lat="46.67273" lon="9.63075">
        <ele>1066</ele>
        <time>2017-10-26T15:13:29Z</time>
      </trkpt>
      <trkpt lat="46.67278" lon="9.63085">
        <ele>1068</ele>
        <time>2017-10-26T15:15:29Z</time>
      </trkpt>
      <trkpt lat="46.67282" lon="9.63093">
        <ele>1069</ele>
        <time>2017-10-26T15:17:29Z</time>
      </trkpt>
      <trkpt lat="46.67287" lon="9.63113">
        <ele>1070</ele>
        <time>2017-10-26T15:19:29Z</time>
      </trkpt>
      <trkpt lat="46.67291" lon="9.63127">
        <ele>1071</ele>
        <time>2017-10-26T15:21:29Z</time>
      </trkpt>
      <trkpt lat="46.67296" lon="9.6314">
        <ele>1073</ele>
        <time>2017-10-26T15:23:29Z</time>
      </trkpt>
      <trkpt lat="46.67299" lon="9.63144">
        <ele>1073</ele>
        <time>2017-10-26T15:25:29Z</time>
      </trkpt>
      <trkpt lat="46.67302" lon="9.63148">
        <ele>1074</ele>
        <time>2017-10-26T15:27:29Z</time>
      </trkpt>
      <trkpt lat="46.67305" lon="9.63151">
        <ele>1075</ele>
        <time>2017-10-26T15:29:29Z</time>
      </trkpt>
      <trkpt lat="46.67313" lon="9.63157">
        <ele>1076</ele>
        <time>2017-10-26T15:31:29Z</time>
      </trkpt>
      <trkpt lat="46.6732" lon="9.63162">
        <ele>1078</ele>
        <time>2017-10-26T15:33:29Z</time>
      </trkpt>
      <trkpt lat="46.67333" lon="9.63176">
        <ele>1080</ele>
        <time>2017-10-26T15:35:29Z</time>
      </trkpt>
      <trkpt lat="46.67341" lon="9.63188">
        <ele>1082</ele>
        <time>2017-10-26T15:37:29Z</time>
      </trkpt>
      <trkpt lat="46.67345" lon="9.63197">
        <ele>1082</ele>
        <time>2017-10-26T15:39:29Z</time>
      </trkpt>
      <trkpt lat="46.67351" lon="9.63218">
        <ele>1083</ele>
        <time>2017-10-26T15:41:29Z</time>
      </trkpt>
      <trkpt lat="46.67355" lon="9.63243">
        <ele>1082</ele>
        <time>2017-10-26T15:43:29Z</time>
      </trkpt>
      <trkpt lat="46.6736" lon="9.63276">
        <ele>1084</ele>
        <time>2017-10-26T15:45:29Z</time>
      </trkpt>
      <trkpt lat="46.67365" lon="9.63302">
        <ele>1085</ele>
        <time>2017-10-26T15:47:29Z</time>
      </trkpt>
      <trkpt lat="46.67373" lon="9.63326">
        <ele>1087</ele>
        <time>2017-10-26T15:49:29Z</time>
      </trkpt>
      <trkpt lat="46.67381" lon="9.63345">
        <ele>1089</ele>
        <time>2017-10-26T15:51:29Z</time>
      </trkpt>
      <trkpt lat="46.67387" lon="9.63362">
        <ele>1089</ele>
        <time>2017-10-26T15:53:29Z</time>
      </trkpt>
      <trkpt lat="46.6739" lon="9.63371">
        <ele>1089</ele>
        <time>2017-10-26T15:55:29Z</time>
      </trkpt>
      <trkpt lat="46.6739" lon="9.63377">
        <ele>1089</ele>
        <time>2017-10-26T15:57:29Z</time>
      </trkpt>
      <trkpt lat="46.67391" lon="9.63387">
        <ele>1089</ele>
        <time>2017-10-26T15:59:29Z</time>
      </trkpt>
      <trkpt lat="46.6739" lon="9.63394">
        <ele>1088</ele>
        <time>2017-10-26T16:01:29Z</time>
      </trkpt>
      <trkpt lat="46.67387" lon="9.63401">
        <ele>1088</ele>
        <time>2017-10-26T16:03:29Z</time>
      </trkpt>
      <trkpt lat="46.67384" lon="9.63407">
        <ele>1087</ele>
        <time>2017-10-26T16:05:29Z</time>
      </trkpt>
      <trkpt lat="46.67381" lon="9.6341">
        <ele>1087</ele>
        <time>2017-10-26T16:07:29Z</time>
      </trkpt>
      <trkpt lat="46.67377" lon="9.63412">
        <ele>1087</ele>
        <time>2017-10-26T16:09:29Z</time>
      </trkpt>
      <trkpt lat="46.67369" lon="9.63415">
        <ele>1087</ele>
        <time>2017-10-26T16:11:29Z</time>
      </trkpt>
      <trkpt lat="46.67365" lon="9.63416">
        <ele>1087</ele>
        <time>2017-10-26T16:13:29Z</time>
      </trkpt>
      <trkpt lat="46.6736" lon="9.63416">
        <ele>1087</ele>
        <time>2017-10-26T16:15:29Z</time>
      </trkpt>
      <trkpt lat="46.67354" lon="9.63413">
        <ele>1087</ele>
        <time>2017-10-26T16:17:29Z</time>
      </trkpt>
      <trkpt lat="46.67348" lon="9.63408">
        <ele>1086</ele>
        <time>2017-10-26T16:19:29Z</time>
      </trkpt>
      <trkpt lat="46.67342" lon="9.63403">
        <ele>1086</ele>
        <time>2017-10-26T16:21:29Z</time>
      </trkpt>
      <trkpt lat="46.67328" lon="9.63389">
        <ele>1084</ele>
        <time>2017-10-26T16:23:29Z</time>
      </trkpt>
      <trkpt lat="46.67318" lon="9.63375">
        <ele>1084</ele>
        <time>2017-10-26T16:25:29Z</time>
      </trkpt>
      <trkpt lat="46.67308" lon="9.63352">
        <ele>1083</ele>
        <time>2017-10-26T16:27:29Z</time>
      </trkpt>
      <trkpt lat="46.67299" lon="9.63324">
        <ele>1081</ele>
        <time>2017-10-26T16:29:29Z</time>
      </trkpt>
      <trkpt lat="46.67287" lon="9.63294">
        <ele>1080</ele>
        <time>2017-10-26T16:31:29Z</time>
      </trkpt>
      <trkpt lat="46.67283" lon="9.63286">
        <ele>1080</ele>
        <time>2017-10-26T16:33:29Z</time>
      </trkpt>
      <trkpt lat="46.6728" lon="9.63281">
        <ele>1080</ele>
        <time>2017-10-26T16:35:29Z</time>
      </trkpt>
      <trkpt lat="46.67276" lon="9.63276">
        <ele>1080</ele>
        <time>2017-10-26T16:37:29Z</time>
      </trkpt>
      <trkpt lat="46.67273" lon="9.63274">
        <ele>1080</ele>
        <time>2017-10-26T16:39:29Z</time>
      </trkpt>
      <trkpt lat="46.67268" lon="9.63271">
        <ele>1080</ele>
        <time>2017-10-26T16:41:29Z</time>
      </trkpt>
      <trkpt lat="46.67259" lon="9.63267">
        <ele>1081</ele>
        <time>2017-10-26T16:43:29Z</time>
      </trkpt>
      <trkpt lat="46.67254" lon="9.63267">
        <ele>1081</ele>
        <time>2017-10-26T16:45:29Z</time>
      </trkpt>
      <trkpt lat="46.67241" lon="9.63268">
        <ele>1082</ele>
        <time>2017-10-26T16:47:29Z</time>
      </trkpt>
      <trkpt lat="46.67217" lon="9.63279">
        <ele>1085</ele>
        <time>2017-10-26T16:49:29Z</time>
      </trkpt>
      <trkpt lat="46.67216" lon="9.6328">
        <ele>1085</ele>
        <time>2017-10-26T16:51:29Z</time>
      </trkpt>
      <trkpt lat="46.67215" lon="9.63281">
        <ele>1085</ele>
        <time>2017-10-26T16:53:29Z</time>
      </trkpt>
      <trkpt lat="46.6719" lon="9.63307">
        <ele>1088</ele>
        <time>2017-10-26T16:55:29Z</time>
      </trkpt>
      <trkpt lat="46.6716" lon="9.63338">
        <ele>1090</ele>
        <time>2017-10-26T16:57:29Z</time>
      </trkpt>
      <trkpt lat="46.67141" lon="9.63353">
        <ele>1090</ele>
        <time>2017-10-26T16:59:29Z</time>
      </trkpt>
      <trkpt lat="46.67121" lon="9.63365">
        <ele>1090</ele>
        <time>2017-10-26T17:01:29Z</time>
      </trkpt>
      <trkpt lat="46.67103" lon="9.63377">
        <ele>1090</ele>
        <time>2017-10-26T17:03:29Z</time>
      </trkpt>
      <trkpt lat="46.67082" lon="9.63386">
        <ele>1091</ele>
        <time>2017-10-26T17:05:29Z</time>
      </trkpt>
      <trkpt lat="46.6707" lon="9.63389">
        <ele>1091</ele>
        <time>2017-10-26T17:07:29Z</time>
      </trkpt>
      <trkpt lat="46.67058" lon="9.6339">
        <ele>1090</ele>
        <time>2017-10-26T17:09:29Z</time>
      </trkpt>
      <trkpt lat="46.67046" lon="9.63392">
        <ele>1090</ele>
        <time>2017-10-26T17:11:29Z</time>
      </trkpt>
      <trkpt lat="46.67043" lon="9.63393">
        <ele>1089</ele>
        <time>2017-10-26T17:13:29Z</time>
      </trkpt>
      <trkpt lat="46.67038" lon="9.63395">
        <ele>1089</ele>
        <time>2017-10-26T17:15:29Z</time>
      </trkpt>
      <trkpt lat="46.67034" lon="9.634">
        <ele>1090</ele>
        <time>2017-10-26T17:17:29Z</time>
      </trkpt>
      <trkpt lat="46.67033" lon="9.63402">
        <ele>1090</ele>
        <time>2017-10-26T17:19:29Z</time>
      </trkpt>
      <trkpt lat="46.67032" lon="9.63405">
        <ele>1090</ele>
        <time>2017-10-26T17:21:29Z</time>
      </trkpt>
      <trkpt lat="46.67032" lon="9.63408">
        <ele>1091</ele>
        <time>2017-10-26T17:23:29Z</time>
      </trkpt>
      <trkpt lat="46.67032" lon="9.63411">
        <ele>1091</ele>
        <time>2017-10-26T17:25:29Z</time>
      </trkpt>
      <trkpt lat="46.67032" lon="9.63414">
        <ele>1092</ele>
        <time>2017-10-26T17:27:29Z</time>
      </trkpt>
      <trkpt lat="46.67035" lon="9.6342">
        <ele>1092</ele>
        <time>2017-10-26T17:29:29Z</time>
      </trkpt>
      <trkpt lat="46.67036" lon="9.63422">
        <ele>1092</ele>
        <time>2017-10-26T17:31:29Z</time>
      </trkpt>
      <trkpt lat="46.67038" lon="9.63425">
        <ele>1093</ele>
        <time>2017-10-26T17:33:29Z</time>
      </trkpt>
      <trkpt lat="46.67047" lon="9.63435">
        <ele>1094</ele>
        <time>2017-10-26T17:35:29Z</time>
      </trkpt>
      <trkpt lat="46.67102" lon="9.63473">
        <ele>1098</ele>
        <time>2017-10-26T17:37:29Z</time>
      </trkpt>
      <trkpt lat="46.67153" lon="9.63514">
        <ele>1104</ele>
        <time>2017-10-26T17:39:29Z</time>
      </trkpt>
      <trkpt lat="46.67182" lon="9.63534">
        <ele>1109</ele>
        <time>2017-10-26T17:41:29Z</time>
      </trkpt>
      <trkpt lat="46.67191" lon="9.63536">
        <ele>1110</ele>
        <time>2017-10-26T17:43:29Z</time>
      </trkpt>
      <trkpt lat="46.67202" lon="9.63536">
        <ele>1111</ele>
        <time>2017-10-26T17:45:29Z</time>
      </trkpt>
      <trkpt lat="46.67217" lon="9.63532">
        <ele>1111</ele>
        <time>2017-10-26T17:47:29Z</time>
      </trkpt>
      <trkpt lat="46.67235" lon="9.63525">
        <ele>1111</ele>
        <time>2017-10-26T17:49:29Z</time>
      </trkpt>
      <trkpt lat="46.6725" lon="9.63519">
        <ele>1111</ele>
        <time>2017-10-26T17:51:29Z</time>
      </trkpt>
      <trkpt lat="46.67262" lon="9.6352">
        <ele>1112</ele>
        <time>2017-10-26T17:53:29Z</time>
      </trkpt>
      <trkpt lat="46.67278" lon="9.63527">
        <ele>1113</ele>
        <time>2017-10-26T17:55:29Z</time>
      </trkpt>
      <trkpt lat="46.67298" lon="9.63539">
        <ele>1116</ele>
        <time>2017-10-26T17:57:29Z</time>
      </trkpt>
      <trkpt lat="46.67316" lon="9.63545">
        <ele>1118</ele>
        <time>2017-10-26T17:59:29Z</time>
      </trkpt>
      <trkpt lat="46.67328" lon="9.63549">
        <ele>1120</ele>
        <time>2017-10-26T18:01:29Z</time>
      </trkpt>
      <trkpt lat="46.67341" lon="9.63556">
        <ele>1121</ele>
        <time>2017-10-26T18:03:29Z</time>
      </trkpt>
      <trkpt lat="46.67354" lon="9.63569">
        <ele>1123</ele>
        <time>2017-10-26T18:05:29Z</time>
      </trkpt>
      <trkpt lat="46.67395" lon="9.63622">
        <ele>1128</ele>
        <time>2017-10-26T18:07:29Z</time>
      </trkpt>
      <trkpt lat="46.67431" lon="9.63666">
        <ele>1131</ele>
        <time>2017-10-26T18:09:29Z</time>
      </trkpt>
      <trkpt lat="46.67453" lon="9.63699">
        <ele>1136</ele>
        <time>2017-10-26T18:11:29Z</time>
      </trkpt>
      <trkpt lat="46.67493" lon="9.63788">
        <ele>1142</ele>
        <time>2017-10-26T18:13:29Z</time>
      </trkpt>
      <trkpt lat="46.6753" lon="9.63871">
        <ele>1146</ele>
        <time>2017-10-26T18:15:29Z</time>
      </trkpt>
      <trkpt lat="46.67539" lon="9.63889">
        <ele>1147</ele>
        <time>2017-10-26T18:17:29Z</time>
      </trkpt>
      <trkpt lat="46.67546" lon="9.63902">
        <ele>1148</ele>
        <time>2017-10-26T18:19:29Z</time>
      </trkpt>
      <trkpt lat="46.67555" lon="9.63912">
        <ele>1148</ele>
        <time>2017-10-26T18:21:29Z</time>
      </trkpt>
      <trkpt lat="46.67561" lon="9.63917">
        <ele>1148</ele>
        <time>2017-10-26T18:23:29Z</time>
      </trkpt>
      <trkpt lat="46.67569" lon="9.63922">
        <ele>1149</ele>
        <time>2017-10-26T18:25:29Z</time>
      </trkpt>
      <trkpt lat="46.67583" lon="9.63929">
        <ele>1149</ele>
        <time>2017-10-26T18:27:29Z</time>
      </trkpt>
      <trkpt lat="46.67596" lon="9.63937">
        <ele>1150</ele>
        <time>2017-10-26T18:29:29Z</time>
      </trkpt>
      <trkpt lat="46.67606" lon="9.63944">
        <ele>1150</ele>
        <time>2017-10-26T18:31:29Z</time>
      </trkpt>
      <trkpt lat="46.67614" lon="9.63952">
        <ele>1150</ele>
        <time>2017-10-26T18:33:29Z</time>
      </trkpt>
      <trkpt lat="46.67626" lon="9.63973">
        <ele>1151</ele>
        <time>2017-10-26T18:35:29Z</time>
      </trkpt>
      <trkpt lat="46.67635" lon="9.63991">
        <ele>1151</ele>
        <time>2017-10-26T18:37:29Z</time>
      </trkpt>
      <trkpt lat="46.67672" lon="9.64057">
        <ele>1154</ele>
        <time>2017-10-26T18:39:29Z</time>
      </trkpt>
      <trkpt lat="46.67695" lon="9.64096">
        <ele>1158</ele>
        <time>2017-10-26T18:41:29Z</time>
      </trkpt>
      <trkpt lat="46.677" lon="9.64107">
        <ele>1160</ele>
        <time>2017-10-26T18:43:29Z</time>
      </trkpt>
      <trkpt lat="46.67705" lon="9.64123">
        <ele>1161</ele>
        <time>2017-10-26T18:45:29Z</time>
      </trkpt>
      <trkpt lat="46.67705" lon="9.64123">
        <ele>1161</ele>
        <time>2017-10-26T18:47:29Z</time>
      </trkpt>
      <trkpt lat="46.67705" lon="9.64131">
        <ele>1162</ele>
        <time>2017-10-26T18:49:29Z</time>
      </trkpt>
      <trkpt lat="46.67709" lon="9.64156">
        <ele>1164</ele>
        <time>2017-10-26T18:51:29Z</time>
      </trkpt>
      <trkpt lat="46.67712" lon="9.64216">
        <ele>1167</ele>
        <time>2017-10-26T18:53:29Z</time>
      </trkpt>
      <trkpt lat="46.67713" lon="9.64241">
        <ele>1168</ele>
        <time>2017-10-26T18:55:29Z</time>
      </trkpt>
      <trkpt lat="46.67718" lon="9.64273">
        <ele>1169</ele>
        <time>2017-10-26T18:57:29Z</time>
      </trkpt>
      <trkpt lat="46.67724" lon="9.64293">
        <ele>1169</ele>
        <time>2017-10-26T18:59:29Z</time>
      </trkpt>
      <trkpt lat="46.67731" lon="9.64303">
        <ele>1170</ele>
        <time>2017-10-26T19:01:29Z</time>
      </trkpt>
      <trkpt lat="46.6774" lon="9.64317">
        <ele>1170</ele>
        <time>2017-10-26T19:03:29Z</time>
      </trkpt>
      <trkpt lat="46.67764" lon="9.64346">
        <ele>1172</ele>
        <time>2017-10-26T19:05:29Z</time>
      </trkpt>
      <trkpt lat="46.6778" lon="9.64363">
        <ele>1174</ele>
        <time>2017-10-26T19:07:29Z</time>
      </trkpt>
      <trkpt lat="46.67815" lon="9.64407">
        <ele>1176</ele>
        <time>2017-10-26T19:09:29Z</time>
      </trkpt>
      <trkpt lat="46.6782" lon="9.64413">
        <ele>1176</ele>
        <time>2017-10-26T19:11:29Z</time>
      </trkpt>
      <trkpt lat="46.67834" lon="9.6443">
        <ele>1177</ele>
        <time>2017-10-26T19:13:29Z</time>
      </trkpt>
      <trkpt lat="46.67843" lon="9.64446">
        <ele>1179</ele>
        <time>2017-10-26T19:15:29Z</time>
      </trkpt>
      <trkpt lat="46.67846" lon="9.64453">
        <ele>1179</ele>
        <time>2017-10-26T19:17:29Z</time>
      </trkpt>
      <trkpt lat="46.67848" lon="9.64459">
        <ele>1180</ele>
        <time>2017-10-26T19:19:29Z</time>
      </trkpt>
      <trkpt lat="46.67852" lon="9.64478">
        <ele>1181</ele>
        <time>2017-10-26T19:21:29Z</time>
      </trkpt>
      <trkpt lat="46.67861" lon="9.64523">
        <ele>1183</ele>
        <time>2017-10-26T19:23:29Z</time>
      </trkpt>
      <trkpt lat="46.67863" lon="9.64556">
        <ele>1185</ele>
        <time>2017-10-26T19:25:29Z</time>
      </trkpt>
      <trkpt lat="46.67863" lon="9.64574">
        <ele>1185</ele>
        <time>2017-10-26T19:27:29Z</time>
      </trkpt>
      <trkpt lat="46.67862" lon="9.64592">
        <ele>1185</ele>
        <time>2017-10-26T19:29:29Z</time>
      </trkpt>
      <trkpt lat="46.67863" lon="9.64606">
        <ele>1185</ele>
        <time>2017-10-26T19:31:29Z</time>
      </trkpt>
      <trkpt lat="46.67863" lon="9.6463">
        <ele>1185</ele>
        <time>2017-10-26T19:33:29Z</time>
      </trkpt>
      <trkpt lat="46.67865" lon="9.64657">
        <ele>1184</ele>
        <time>2017-10-26T19:35:29Z</time>
      </trkpt>
      <trkpt lat="46.67871" lon="9.64719">
        <ele>1183</ele>
        <time>2017-10-26T19:37:29Z</time>
      </trkpt>
      <trkpt lat="46.67885" lon="9.64778">
        <ele>1182</ele>
        <time>2017-10-26T19:39:29Z</time>
      </trkpt>
      <trkpt lat="46.6789" lon="9.64805">
        <ele>1182</ele>
        <time>2017-10-26T19:41:29Z</time>
      </trkpt>
      <trkpt lat="46.67893" lon="9.64823">
        <ele>1182</ele>
        <time>2017-10-26T19:43:29Z</time>
      </trkpt>
      <trkpt lat="46.67903" lon="9.64874">
        <ele>1182</ele>
        <time>2017-10-26T19:45:29Z</time>
      </trkpt>
      <trkpt lat="46.67903" lon="9.64878">
        <ele>1182</ele>
        <time>2017-10-26T19:47:29Z</time>
      </trkpt>
      <trkpt lat="46.67913" lon="9.64916">
        <ele>1182</ele>
        <time>2017-10-26T19:49:29Z</time>
      </trkpt>
      <trkpt lat="46.67926" lon="9.64945">
        <ele>1185</ele>
        <time>2017-10-26T19:51:29Z</time>
      </trkpt>
      <trkpt lat="46.67937" lon="9.64961">
        <ele>1188</ele>
        <time>2017-10-26T19:53:29Z</time>
      </trkpt>
      <trkpt lat="46.67965" lon="9.64996">
        <ele>1196</ele>
        <time>2017-10-26T19:55:29Z</time>
      </trkpt>
      <trkpt lat="46.67965" lon="9.64996">
        <ele>1196</ele>
        <time>2017-10-26T19:57:29Z</time>
      </trkpt>
      <trkpt lat="46.67978" lon="9.65026">
        <ele>1200</ele>
        <time>2017-10-26T19:59:29Z</time>
      </trkpt>
      <trkpt lat="46.67984" lon="9.65044">
        <ele>1202</ele>
        <time>2017-10-26T20:01:29Z</time>
      </trkpt>
      <trkpt lat="46.67989" lon="9.65069">
        <ele>1204</ele>
        <time>2017-10-26T20:03:29Z</time>
      </trkpt>
      <trkpt lat="46.67995" lon="9.65095">
        <ele>1205</ele>
        <time>2017-10-26T20:05:29Z</time>
      </trkpt>
      <trkpt lat="46.67999" lon="9.65116">
        <ele>1204</ele>
        <time>2017-10-26T20:07:29Z</time>
      </trkpt>
      <trkpt lat="46.68003" lon="9.65133">
        <ele>1205</ele>
        <time>2017-10-26T20:09:29Z</time>
      </trkpt>
      <trkpt lat="46.68005" lon="9.65146">
        <ele>1205</ele>
        <time>2017-10-26T20:11:29Z</time>
      </trkpt>
      <trkpt lat="46.68007" lon="9.65153">
        <ele>1206</ele>
        <time>2017-10-26T20:13:29Z</time>
      </trkpt>
      <trkpt lat="46.6801" lon="9.65162">
        <ele>1207</ele>
        <time>2017-10-26T20:15:29Z</time>
      </trkpt>
      <trkpt lat="46.68014" lon="9.65171">
        <ele>1209</ele>
        <time>2017-10-26T20:17:29Z</time>
      </trkpt>
      <trkpt lat="46.68018" lon="9.65181">
        <ele>1211</ele>
        <time>2017-10-26T20:19:29Z</time>
      </trkpt>
      <trkpt lat="46.68021" lon="9.6519">
        <ele>1212</ele>
        <time>2017-10-26T20:21:29Z</time>
      </trkpt>
      <trkpt lat="46.68024" lon="9.65198">
        <ele>1213</ele>
        <time>2017-10-26T20:23:29Z</time>
      </trkpt>
      <trkpt lat="46.68028" lon="9.65208">
        <ele>1215</ele>
        <time>2017-10-26T20:25:29Z</time>
      </trkpt>
      <trkpt lat="46.68032" lon="9.65221">
        <ele>1216</ele>
        <time>2017-10-26T20:27:29Z</time>
      </trkpt>
      <trkpt lat="46.68035" lon="9.65241">
        <ele>1216</ele>
        <time>2017-10-26T20:29:29Z</time>
      </trkpt>
      <trkpt lat="46.68039" lon="9.65262">
        <ele>1218</ele>
        <time>2017-10-26T20:31:29Z</time>
      </trkpt>
      <trkpt lat="46.68043" lon="9.65286">
        <ele>1220</ele>
        <time>2017-10-26T20:33:29Z</time>
      </trkpt>
      <trkpt lat="46.68045" lon="9.65307">
        <ele>1221</ele>
        <time>2017-10-26T20:35:29Z</time>
      </trkpt>
      <trkpt lat="46.68045" lon="9.65331">
        <ele>1221</ele>
        <time>2017-10-26T20:37:29Z</time>
      </trkpt>
      <trkpt lat="46.68044" lon="9.65349">
        <ele>1222</ele>
        <time>2017-10-26T20:39:29Z</time>
      </trkpt>
      <trkpt lat="46.68044" lon="9.65365">
        <ele>1222</ele>
        <time>2017-10-26T20:41:29Z</time>
      </trkpt>
      <trkpt lat="46.68046" lon="9.65381">
        <ele>1223</ele>
        <time>2017-10-26T20:43:29Z</time>
      </trkpt>
      <trkpt lat="46.68049" lon="9.65394">
        <ele>1224</ele>
        <time>2017-10-26T20:45:29Z</time>
      </trkpt>
      <trkpt lat="46.68059" lon="9.65415">
        <ele>1227</ele>
        <time>2017-10-26T20:47:29Z</time>
      </trkpt>
      <trkpt lat="46.68074" lon="9.65439">
        <ele>1230</ele>
        <time>2017-10-26T20:49:29Z</time>
      </trkpt>
      <trkpt lat="46.68088" lon="9.65464">
        <ele>1234</ele>
        <time>2017-10-26T20:51:29Z</time>
      </trkpt>
      <trkpt lat="46.68102" lon="9.65493">
        <ele>1241</ele>
        <time>2017-10-26T20:53:29Z</time>
      </trkpt>
      <trkpt lat="46.68116" lon="9.65524">
        <ele>1249</ele>
        <time>2017-10-26T20:55:29Z</time>
      </trkpt>
      <trkpt lat="46.68127" lon="9.6555">
        <ele>1254</ele>
        <time>2017-10-26T20:57:29Z</time>
      </trkpt>
      <trkpt lat="46.68131" lon="9.65569">
        <ele>1255</ele>
        <time>2017-10-26T20:59:29Z</time>
      </trkpt>
      <trkpt lat="46.68134" lon="9.6559">
        <ele>1256</ele>
        <time>2017-10-26T21:01:29Z</time>
      </trkpt>
      <trkpt lat="46.68137" lon="9.65612">
        <ele>1258</ele>
        <time>2017-10-26T21:03:29Z</time>
      </trkpt>
      <trkpt lat="46.6814" lon="9.65638">
        <ele>1259</ele>
        <time>2017-10-26T21:05:29Z</time>
      </trkpt>
      <trkpt lat="46.68143" lon="9.65661">
        <ele>1260</ele>
        <time>2017-10-26T21:07:29Z</time>
      </trkpt>
      <trkpt lat="46.68147" lon="9.6569">
        <ele>1261</ele>
        <time>2017-10-26T21:09:29Z</time>
      </trkpt>
      <trkpt lat="46.68149" lon="9.65712">
        <ele>1262</ele>
        <time>2017-10-26T21:11:29Z</time>
      </trkpt>
      <trkpt lat="46.68152" lon="9.65744">
        <ele>1264</ele>
        <time>2017-10-26T21:13:29Z</time>
      </trkpt>
      <trkpt lat="46.68151" lon="9.65766">
        <ele>1264</ele>
        <time>2017-10-26T21:15:29Z</time>
      </trkpt>
      <trkpt lat="46.68152" lon="9.65787">
        <ele>1265</ele>
        <time>2017-10-26T21:17:29Z</time>
      </trkpt>
      <trkpt lat="46.68151" lon="9.65807">
        <ele>1265</ele>
        <time>2017-10-26T21:19:29Z</time>
      </trkpt>
      <trkpt lat="46.68149" lon="9.6583">
        <ele>1265</ele>
        <time>2017-10-26T21:21:29Z</time>
      </trkpt>
      <trkpt lat="46.68146" lon="9.65845">
        <ele>1264</ele>
        <time>2017-10-26T21:23:29Z</time>
      </trkpt>
      <trkpt lat="46.68144" lon="9.65862">
        <ele>1263</ele>
        <time>2017-10-26T21:25:29Z</time>
      </trkpt>
      <trkpt lat="46.68142" lon="9.65881">
        <ele>1262</ele>
        <time>2017-10-26T21:27:29Z</time>
      </trkpt>
      <trkpt lat="46.6814" lon="9.65894">
        <ele>1261</ele>
        <time>2017-10-26T21:29:29Z</time>
      </trkpt>
      <trkpt lat="46.68139" lon="9.6591">
        <ele>1260</ele>
        <time>2017-10-26T21:31:29Z</time>
      </trkpt>
      <trkpt lat="46.68137" lon="9.65926">
        <ele>1259</ele>
        <time>2017-10-26T21:33:29Z</time>
      </trkpt>
      <trkpt lat="46.68136" lon="9.65938">
        <ele>1258</ele>
        <time>2017-10-26T21:35:29Z</time>
      </trkpt>
      <trkpt lat="46.68135" lon="9.65948">
        <ele>1257</ele>
        <time>2017-10-26T21:37:29Z</time>
      </trkpt>
      <trkpt lat="46.68135" lon="9.6596">
        <ele>1257</ele>
        <time>2017-10-26T21:39:29Z</time>
      </trkpt>
      <trkpt lat="46.68135" lon="9.65975">
        <ele>1256</ele>
        <time>2017-10-26T21:41:29Z</time>
      </trkpt>
      <trkpt lat="46.68137" lon="9.65988">
        <ele>1256</ele>
        <time>2017-10-26T21:43:29Z</time>
      </trkpt>
      <trkpt lat="46.6814" lon="9.65997">
        <ele>1257</ele>
        <time>2017-10-26T21:45:29Z</time>
      </trkpt>
      <trkpt lat="46.68146" lon="9.66014">
        <ele>1257</ele>
        <time>2017-10-26T21:47:29Z</time>
      </trkpt>
      <trkpt lat="46.68149" lon="9.66028">
        <ele>1256</ele>
        <time>2017-10-26T21:49:29Z</time>
      </trkpt>
      <trkpt lat="46.68155" lon="9.66047">
        <ele>1254</ele>
        <time>2017-10-26T21:51:29Z</time>
      </trkpt>
      <trkpt lat="46.6816" lon="9.66063">
        <ele>1252</ele>
        <time>2017-10-26T21:53:29Z</time>
      </trkpt>
      <trkpt lat="46.68165" lon="9.66076">
        <ele>1251</ele>
        <time>2017-10-26T21:55:29Z</time>
      </trkpt>
      <trkpt lat="46.68179" lon="9.66099">
        <ele>1253</ele>
        <time>2017-10-26T21:57:29Z</time>
      </trkpt>
      <trkpt lat="46.682" lon="9.66129">
        <ele>1256</ele>
        <time>2017-10-26T21:59:29Z</time>
      </trkpt>
      <trkpt lat="46.68216" lon="9.66156">
        <ele>1256</ele>
        <time>2017-10-26T22:01:29Z</time>
      </trkpt>
      <trkpt lat="46.68224" lon="9.66176">
        <ele>1254</ele>
        <time>2017-10-26T22:03:29Z</time>
      </trkpt>
      <trkpt lat="46.68231" lon="9.662">
        <ele>1253</ele>
        <time>2017-10-26T22:05:29Z</time>
      </trkpt>
      <trkpt lat="46.68236" lon="9.66217">
        <ele>1253</ele>
        <time>2017-10-26T22:07:29Z</time>
      </trkpt>
      <trkpt lat="46.68255" lon="9.66255">
        <ele>1255</ele>
        <time>2017-10-26T22:09:29Z</time>
      </trkpt>
      <trkpt lat="46.68281" lon="9.66298">
        <ele>1257</ele>
        <time>2017-10-26T22:11:29Z</time>
      </trkpt>
      <trkpt lat="46.68299" lon="9.66331">
        <ele>1258</ele>
        <time>2017-10-26T22:13:29Z</time>
      </trkpt>
      <trkpt lat="46.68316" lon="9.66365">
        <ele>1259</ele>
        <time>2017-10-26T22:15:29Z</time>
      </trkpt>
      <trkpt lat="46.6834" lon="9.66421">
        <ele>1258</ele>
        <time>2017-10-26T22:17:29Z</time>
      </trkpt>
      <trkpt lat="46.68347" lon="9.66436">
        <ele>1259</ele>
        <time>2017-10-26T22:19:29Z</time>
      </trkpt>
      <trkpt lat="46.68352" lon="9.66451">
        <ele>1259</ele>
        <time>2017-10-26T22:21:29Z</time>
      </trkpt>
      <trkpt lat="46.68355" lon="9.66463">
        <ele>1259</ele>
        <time>2017-10-26T22:23:29Z</time>
      </trkpt>
      <trkpt lat="46.6836" lon="9.6648">
        <ele>1258</ele>
        <time>2017-10-26T22:25:29Z</time>
      </trkpt>
      <trkpt lat="46.68363" lon="9.66498">
        <ele>1256</ele>
        <time>2017-10-26T22:27:29Z</time>
      </trkpt>
      <trkpt lat="46.68367" lon="9.6652">
        <ele>1253</ele>
        <time>2017-10-26T22:29:29Z</time>
      </trkpt>
      <trkpt lat="46.6837" lon="9.66537">
        <ele>1251</ele>
        <time>2017-10-26T22:31:29Z</time>
      </trkpt>
      <trkpt lat="46.68373" lon="9.66556">
        <ele>1248</ele>
        <time>2017-10-26T22:33:29Z</time>
      </trkpt>
      <trkpt lat="46.68376" lon="9.66569">
        <ele>1247</ele>
        <time>2017-10-26T22:35:29Z</time>
      </trkpt>
      <trkpt lat="46.6838" lon="9.66582">
        <ele>1246</ele>
        <time>2017-10-26T22:37:29Z</time>
      </trkpt>
      <trkpt lat="46.68382" lon="9.66589">
        <ele>1246</ele>
        <time>2017-10-26T22:39:29Z</time>
      </trkpt>
      <trkpt lat="46.68385" lon="9.66593">
        <ele>1246</ele>
        <time>2017-10-26T22:41:29Z</time>
      </trkpt>
      <trkpt lat="46.68387" lon="9.66597">
        <ele>1247</ele>
        <time>2017-10-26T22:43:29Z</time>
      </trkpt>
      <trkpt lat="46.6839" lon="9.666">
        <ele>1247</ele>
        <time>2017-10-26T22:45:29Z</time>
      </trkpt>
      <trkpt lat="46.684" lon="9.66609">
        <ele>1250</ele>
        <time>2017-10-26T22:47:29Z</time>
      </trkpt>
      <trkpt lat="46.68409" lon="9.66616">
        <ele>1253</ele>
        <time>2017-10-26T22:49:29Z</time>
      </trkpt>
      <trkpt lat="46.68414" lon="9.66624">
        <ele>1254</ele>
        <time>2017-10-26T22:51:29Z</time>
      </trkpt>
      <trkpt lat="46.68423" lon="9.66647">
        <ele>1253</ele>
        <time>2017-10-26T22:53:29Z</time>
      </trkpt>
      <trkpt lat="46.68432" lon="9.66671">
        <ele>1252</ele>
        <time>2017-10-26T22:55:29Z</time>
      </trkpt>
      <trkpt lat="46.68445" lon="9.66706">
        <ele>1251</ele>
        <time>2017-10-26T22:57:29Z</time>
      </trkpt>
      <trkpt lat="46.68453" lon="9.66722">
        <ele>1251</ele>
        <time>2017-10-26T22:59:29Z</time>
      </trkpt>
      <trkpt lat="46.68459" lon="9.66731">
        <ele>1251</ele>
        <time>2017-10-26T23:01:29Z</time>
      </trkpt>
      <trkpt lat="46.68467" lon="9.66738">
        <ele>1252</ele>
        <time>2017-10-26T23:03:29Z</time>
      </trkpt>
      <trkpt lat="46.68479" lon="9.66746">
        <ele>1254</ele>
        <time>2017-10-26T23:05:29Z</time>
      </trkpt>
      <trkpt lat="46.68486" lon="9.66748">
        <ele>1255</ele>
        <time>2017-10-26T23:07:29Z</time>
      </trkpt>
      <trkpt lat="46.68509" lon="9.66751">
        <ele>1259</ele>
        <time>2017-10-26T23:09:29Z</time>
      </trkpt>
      <trkpt lat="46.68509" lon="9.66751">
        <ele>1259</ele>
        <time>2017-10-26T23:11:29Z</time>
      </trkpt>
      <trkpt lat="46.68529" lon="9.66745">
        <ele>1262</ele>
        <time>2017-10-26T23:13:29Z</time>
      </trkpt>
      <trkpt lat="46.68548" lon="9.66741">
        <ele>1265</ele>
        <time>2017-10-26T23:15:29Z</time>
      </trkpt>
      <trkpt lat="46.68566" lon="9.66744">
        <ele>1267</ele>
        <time>2017-10-26T23:17:29Z</time>
      </trkpt>
      <trkpt lat="46.68582" lon="9.66753">
        <ele>1266</ele>
        <time>2017-10-26T23:19:29Z</time>
      </trkpt>
      <trkpt lat="46.6861" lon="9.6677">
        <ele>1273</ele>
        <time>2017-10-26T23:21:29Z</time>
      </trkpt>
      <trkpt lat="46.68633" lon="9.66785">
        <ele>1279</ele>
        <time>2017-10-26T23:23:29Z</time>
      </trkpt>
      <trkpt lat="46.68653" lon="9.66801">
        <ele>1282</ele>
        <time>2017-10-26T23:25:29Z</time>
      </trkpt>
      <trkpt lat="46.68676" lon="9.66835">
        <ele>1282</ele>
        <time>2017-10-26T23:27:29Z</time>
      </trkpt>
      <trkpt lat="46.68703" lon="9.66903">
        <ele>1278</ele>
        <time>2017-10-26T23:29:29Z</time>
      </trkpt>
      <trkpt lat="46.68723" lon="9.66944">
        <ele>1276</ele>
        <time>2017-10-26T23:31:29Z</time>
      </trkpt>
      <trkpt lat="46.68741" lon="9.66967">
        <ele>1276</ele>
        <time>2017-10-26T23:33:29Z</time>
      </trkpt>
      <trkpt lat="46.68753" lon="9.66983">
        <ele>1275</ele>
        <time>2017-10-26T23:35:29Z</time>
      </trkpt>
      <trkpt lat="46.68761" lon="9.67">
        <ele>1274</ele>
        <time>2017-10-26T23:37:29Z</time>
      </trkpt>
      <trkpt lat="46.68765" lon="9.67018">
        <ele>1274</ele>
        <time>2017-10-26T23:39:29Z</time>
      </trkpt>
      <trkpt lat="46.68772" lon="9.67077">
        <ele>1269</ele>
        <time>2017-10-26T23:41:29Z</time>
      </trkpt>
      <trkpt lat="46.68772" lon="9.67077">
        <ele>1269</ele>
        <time>2017-10-26T23:43:29Z</time>
      </trkpt>
      <trkpt lat="46.68791" lon="9.67089">
        <ele>1273</ele>
        <time>2017-10-26T23:45:29Z</time>
      </trkpt>
      <trkpt lat="46.68804" lon="9.67097">
        <ele>1276</ele>
        <time>2017-10-26T23:47:29Z</time>
      </trkpt>
      <trkpt lat="46.68815" lon="9.67105">
        <ele>1278</ele>
        <time>2017-10-26T23:49:29Z</time>
      </trkpt>
      <trkpt lat="46.68822" lon="9.67107">
        <ele>1279</ele>
        <time>2017-10-26T23:51:29Z</time>
      </trkpt>
      <trkpt lat="46.68837" lon="9.67117">
        <ele>1281</ele>
        <time>2017-10-26T23:53:29Z</time>
      </trkpt>
      <trkpt lat="46.6885" lon="9.67128">
        <ele>1282</ele>
        <time>2017-10-26T23:55:29Z</time>
      </trkpt>
      <trkpt lat="46.68854" lon="9.67132">
        <ele>1283</ele>
        <time>2017-10-26T23:57:29Z</time>
      </trkpt>
      <trkpt lat="46.68858" lon="9.67138">
        <ele>1283</ele>
        <time>2017-10-26T23:59:29Z</time>
      </trkpt>
      <trkpt lat="46.6886" lon="9.67143">
        <ele>1282</ele>
        <time>2017-10-27T00:01:29Z</time>
      </trkpt>
      <trkpt lat="46.6886" lon="9.67149">
        <ele>1281</ele>
        <time>2017-10-27T00:03:29Z</time>
      </trkpt>
      <trkpt lat="46.6886" lon="9.67155">
        <ele>1280</ele>
        <time>2017-10-27T00:05:29Z</time>
      </trkpt>
      <trkpt lat="46.68859" lon="9.6716">
        <ele>1279</ele>
        <time>2017-10-27T00:07:29Z</time>
      </trkpt>
      <trkpt lat="46.68857" lon="9.67167">
        <ele>1277</ele>
        <time>2017-10-27T00:09:29Z</time>
      </trkpt>
      <trkpt lat="46.68854" lon="9.67174">
        <ele>1278</ele>
        <time>2017-10-27T00:11:29Z</time>
      </trkpt>
      <trkpt lat="46.68848" lon="9.6718">
        <ele>1278</ele>
        <time>2017-10-27T00:13:29Z</time>
      </trkpt>
      <trkpt lat="46.68834" lon="9.67191">
        <ele>1278</ele>
        <time>2017-10-27T00:15:29Z</time>
      </trkpt>
      <trkpt lat="46.68817" lon="9.67202">
        <ele>1278</ele>
        <time>2017-10-27T00:17:29Z</time>
      </trkpt>
      <trkpt lat="46.68807" lon="9.67214">
        <ele>1280</ele>
        <time>2017-10-27T00:19:29Z</time>
      </trkpt>
      <trkpt lat="46.68796" lon="9.67224">
        <ele>1281</ele>
        <time>2017-10-27T00:21:29Z</time>
      </trkpt>
      <trkpt lat="46.68795" lon="9.67245">
        <ele>1285</ele>
        <time>2017-10-27T00:23:29Z</time>
      </trkpt>
      <trkpt lat="46.68796" lon="9.67267">
        <ele>1287</ele>
        <time>2017-10-27T00:25:29Z</time>
      </trkpt>
      <trkpt lat="46.68797" lon="9.673">
        <ele>1291</ele>
        <time>2017-10-27T00:27:29Z</time>
      </trkpt>
      <trkpt lat="46.68796" lon="9.67331">
        <ele>1293</ele>
        <time>2017-10-27T00:29:29Z</time>
      </trkpt>
      <trkpt lat="46.68799" lon="9.67363">
        <ele>1294</ele>
        <time>2017-10-27T00:31:29Z</time>
      </trkpt>
      <trkpt lat="46.68802" lon="9.67381">
        <ele>1295</ele>
        <time>2017-10-27T00:33:29Z</time>
      </trkpt>
      <trkpt lat="46.68807" lon="9.67409">
        <ele>1295</ele>
        <time>2017-10-27T00:35:29Z</time>
      </trkpt>
      <trkpt lat="46.68811" lon="9.67435">
        <ele>1295</ele>
        <time>2017-10-27T00:37:29Z</time>
      </trkpt>
      <trkpt lat="46.68805" lon="9.67478">
        <ele>1293</ele>
        <time>2017-10-27T00:39:29Z</time>
      </trkpt>
      <trkpt lat="46.688" lon="9.67518">
        <ele>1291</ele>
        <time>2017-10-27T00:41:29Z</time>
      </trkpt>
      <trkpt lat="46.68799" lon="9.67543">
        <ele>1291</ele>
        <time>2017-10-27T00:43:29Z</time>
      </trkpt>
      <trkpt lat="46.68801" lon="9.67567">
        <ele>1291</ele>
        <time>2017-10-27T00:45:29Z</time>
      </trkpt>
      <trkpt lat="46.68802" lon="9.67586">
        <ele>1291</ele>
        <time>2017-10-27T00:47:29Z</time>
      </trkpt>
      <trkpt lat="46.68808" lon="9.67614">
        <ele>1292</ele>
        <time>2017-10-27T00:49:29Z</time>
      </trkpt>
      <trkpt lat="46.68815" lon="9.67641">
        <ele>1293</ele>
        <time>2017-10-27T00:51:29Z</time>
      </trkpt>
      <trkpt lat="46.6882" lon="9.67658">
        <ele>1293</ele>
        <time>2017-10-27T00:53:29Z</time>
      </trkpt>
      <trkpt lat="46.68829" lon="9.6768">
        <ele>1293</ele>
        <time>2017-10-27T00:55:29Z</time>
      </trkpt>
      <trkpt lat="46.68836" lon="9.67713">
        <ele>1294</ele>
        <time>2017-10-27T00:57:29Z</time>
      </trkpt>
      <trkpt lat="46.6884" lon="9.67742">
        <ele>1296</ele>
        <time>2017-10-27T00:59:29Z</time>
      </trkpt>
      <trkpt lat="46.68843" lon="9.67772">
        <ele>1298</ele>
        <time>2017-10-27T01:01:29Z</time>
      </trkpt>
      <trkpt lat="46.68845" lon="9.67789">
        <ele>1300</ele>
        <time>2017-10-27T01:03:29Z</time>
      </trkpt>
      <trkpt lat="46.68847" lon="9.67827">
        <ele>1303</ele>
        <time>2017-10-27T01:05:29Z</time>
      </trkpt>
      <trkpt lat="46.68849" lon="9.6785">
        <ele>1305</ele>
        <time>2017-10-27T01:07:29Z</time>
      </trkpt>
      <trkpt lat="46.68848" lon="9.67875">
        <ele>1305</ele>
        <time>2017-10-27T01:09:29Z</time>
      </trkpt>
      <trkpt lat="46.68848" lon="9.67894">
        <ele>1306</ele>
        <time>2017-10-27T01:11:29Z</time>
      </trkpt>
      <trkpt lat="46.68844" lon="9.67931">
        <ele>1304</ele>
        <time>2017-10-27T01:13:29Z</time>
      </trkpt>
      <trkpt lat="46.68843" lon="9.67998">
        <ele>1300</ele>
        <time>2017-10-27T01:15:29Z</time>
      </trkpt>
      <trkpt lat="46.6884" lon="9.6802">
        <ele>1299</ele>
        <time>2017-10-27T01:17:29Z</time>
      </trkpt>
      <trkpt lat="46.68835" lon="9.68051">
        <ele>1298</ele>
        <time>2017-10-27T01:19:29Z</time>
      </trkpt>
      <trkpt lat="46.68829" lon="9.68087">
        <ele>1298</ele>
        <time>2017-10-27T01:21:29Z</time>
      </trkpt>
      <trkpt lat="46.68825" lon="9.6812">
        <ele>1299</ele>
        <time>2017-10-27T01:23:29Z</time>
      </trkpt>
      <trkpt lat="46.68822" lon="9.68148">
        <ele>1300</ele>
        <time>2017-10-27T01:25:29Z</time>
      </trkpt>
      <trkpt lat="46.68822" lon="9.68169">
        <ele>1301</ele>
        <time>2017-10-27T01:27:29Z</time>
      </trkpt>
      <trkpt lat="46.68826" lon="9.68204">
        <ele>1301</ele>
        <time>2017-10-27T01:29:29Z</time>
      </trkpt>
      <trkpt lat="46.68832" lon="9.68246">
        <ele>1301</ele>
        <time>2017-10-27T01:31:29Z</time>
      </trkpt>
      <trkpt lat="46.68838" lon="9.68289">
        <ele>1303</ele>
        <time>2017-10-27T01:33:29Z</time>
      </trkpt>
      <trkpt lat="46.68846" lon="9.68318">
        <ele>1306</ele>
        <time>2017-10-27T01:35:29Z</time>
      </trkpt>
      <trkpt lat="46.68858" lon="9.68363">
        <ele>1309</ele>
        <time>2017-10-27T01:37:29Z</time>
      </trkpt>
      <trkpt lat="46.68878" lon="9.68432">
        <ele>1311</ele>
        <time>2017-10-27T01:39:29Z</time>
      </trkpt>
      <trkpt lat="46.68909" lon="9.68519">
        <ele>1312</ele>
        <time>2017-10-27T01:41:29Z</time>
      </trkpt>
      <trkpt lat="46.68927" lon="9.68568">
        <ele>1314</ele>
        <time>2017-10-27T01:43:29Z</time>
      </trkpt>
      <trkpt lat="46.68948" lon="9.68617">
        <ele>1317</ele>
        <time>2017-10-27T01:45:29Z</time>
      </trkpt>
      <trkpt lat="46.68974" lon="9.68669">
        <ele>1319</ele>
        <time>2017-10-27T01:47:29Z</time>
      </trkpt>
      <trkpt lat="46.68993" lon="9.68725">
        <ele>1318</ele>
        <time>2017-10-27T01:49:29Z</time>
      </trkpt>
      <trkpt lat="46.69017" lon="9.68784">
        <ele>1319</ele>
        <time>2017-10-27T01:51:29Z</time>
      </trkpt>
      <trkpt lat="46.6904" lon="9.68824">
        <ele>1321</ele>
        <time>2017-10-27T01:53:29Z</time>
      </trkpt>
      <trkpt lat="46.69076" lon="9.68878">
        <ele>1325</ele>
        <time>2017-10-27T01:55:29Z</time>
      </trkpt>
      <trkpt lat="46.69084" lon="9.68894">
        <ele>1325</ele>
        <time>2017-10-27T01:57:29Z</time>
      </trkpt>
      <trkpt lat="46.69088" lon="9.68906">
        <ele>1324</ele>
        <time>2017-10-27T01:59:29Z</time>
      </trkpt>
      <trkpt lat="46.69089" lon="9.68917">
        <ele>1322</ele>
        <time>2017-10-27T02:01:29Z</time>
      </trkpt>
      <trkpt lat="46.69088" lon="9.68942">
        <ele>1319</ele>
        <time>2017-10-27T02:03:29Z</time>
      </trkpt>
      <trkpt lat="46.69089" lon="9.68958">
        <ele>1318</ele>
        <time>2017-10-27T02:05:29Z</time>
      </trkpt>
      <trkpt lat="46.6909" lon="9.6897">
        <ele>1317</ele>
        <time>2017-10-27T02:07:29Z</time>
      </trkpt>
      <trkpt lat="46.69092" lon="9.68976">
        <ele>1318</ele>
        <time>2017-10-27T02:09:29Z</time>
      </trkpt>
      <trkpt lat="46.69099" lon="9.68987">
        <ele>1321</ele>
        <time>2017-10-27T02:11:29Z</time>
      </trkpt>
      <trkpt lat="46.69112" lon="9.69003">
        <ele>1327</ele>
        <time>2017-10-27T02:13:29Z</time>
      </trkpt>
      <trkpt lat="46.69127" lon="9.69018">
        <ele>1332</ele>
        <time>2017-10-27T02:15:29Z</time>
      </trkpt>
      <trkpt lat="46.69138" lon="9.69035">
        <ele>1333</ele>
        <time>2017-10-27T02:17:29Z</time>
      </trkpt>
      <trkpt lat="46.69144" lon="9.69053">
        <ele>1331</ele>
        <time>2017-10-27T02:19:29Z</time>
      </trkpt>
      <trkpt lat="46.69152" lon="9.69071">
        <ele>1331</ele>
        <time>2017-10-27T02:21:29Z</time>
      </trkpt>
      <trkpt lat="46.69171" lon="9.69095">
        <ele>1334</ele>
        <time>2017-10-27T02:23:29Z</time>
      </trkpt>
      <trkpt lat="46.6919" lon="9.69114">
        <ele>1340</ele>
        <time>2017-10-27T02:25:29Z</time>
      </trkpt>
      <trkpt lat="46.692" lon="9.69125">
        <ele>1343</ele>
        <time>2017-10-27T02:27:29Z</time>
      </trkpt>
      <trkpt lat="46.69209" lon="9.69138">
        <ele>1344</ele>
        <time>2017-10-27T02:29:29Z</time>
      </trkpt>
      <trkpt lat="46.69216" lon="9.69156">
        <ele>1342</ele>
        <time>2017-10-27T02:31:29Z</time>
      </trkpt>
      <trkpt lat="46.69225" lon="9.69199">
        <ele>1337</ele>
        <time>2017-10-27T02:33:29Z</time>
      </trkpt>
      <trkpt lat="46.69238" lon="9.6923">
        <ele>1337</ele>
        <time>2017-10-27T02:35:29Z</time>
      </trkpt>
      <trkpt lat="46.69246" lon="9.69249">
        <ele>1337</ele>
        <time>2017-10-27T02:37:29Z</time>
      </trkpt>
      <trkpt lat="46.69266" lon="9.69286">
        <ele>1345</ele>
        <time>2017-10-27T02:39:29Z</time>
      </trkpt>
      <trkpt lat="46.6927" lon="9.69301">
        <ele>1346</ele>
        <time>2017-10-27T02:41:29Z</time>
      </trkpt>
      <trkpt lat="46.69271" lon="9.69312">
        <ele>1345</ele>
        <time>2017-10-27T02:43:29Z</time>
      </trkpt>
      <trkpt lat="46.69272" lon="9.69323">
        <ele>1344</ele>
        <time>2017-10-27T02:45:29Z</time>
      </trkpt>
      <trkpt lat="46.6927" lon="9.69333">
        <ele>1342</ele>
        <time>2017-10-27T02:47:29Z</time>
      </trkpt>
      <trkpt lat="46.69267" lon="9.6935">
        <ele>1341</ele>
        <time>2017-10-27T02:49:29Z</time>
      </trkpt>
      <trkpt lat="46.6926" lon="9.69368">
        <ele>1338</ele>
        <time>2017-10-27T02:51:29Z</time>
      </trkpt>
      <trkpt lat="46.69257" lon="9.69383">
        <ele>1337</ele>
        <time>2017-10-27T02:53:29Z</time>
      </trkpt>
      <trkpt lat="46.69255" lon="9.69397">
        <ele>1336</ele>
        <time>2017-10-27T02:55:29Z</time>
      </trkpt>
      <trkpt lat="46.69255" lon="9.69407">
        <ele>1336</ele>
        <time>2017-10-27T02:57:29Z</time>
      </trkpt>
      <trkpt lat="46.69258" lon="9.69423">
        <ele>1338</ele>
        <time>2017-10-27T02:59:29Z</time>
      </trkpt>
      <trkpt lat="46.69261" lon="9.69437">
        <ele>1339</ele>
        <time>2017-10-27T03:01:29Z</time>
      </trkpt>
      <trkpt lat="46.69263" lon="9.69444">
        <ele>1339</ele>
        <time>2017-10-27T03:03:29Z</time>
      </trkpt>
      <trkpt lat="46.69266" lon="9.6945">
        <ele>1340</ele>
        <time>2017-10-27T03:05:29Z</time>
      </trkpt>
      <trkpt lat="46.69284" lon="9.69475">
        <ele>1348</ele>
        <time>2017-10-27T03:07:29Z</time>
      </trkpt>
      <trkpt lat="46.693" lon="9.69501">
        <ele>1355</ele>
        <time>2017-10-27T03:09:29Z</time>
      </trkpt>
      <trkpt lat="46.69308" lon="9.69525">
        <ele>1357</ele>
        <time>2017-10-27T03:11:29Z</time>
      </trkpt>
      <trkpt lat="46.69311" lon="9.69534">
        <ele>1358</ele>
        <time>2017-10-27T03:13:29Z</time>
      </trkpt>
      <trkpt lat="46.69313" lon="9.69541">
        <ele>1359</ele>
        <time>2017-10-27T03:15:29Z</time>
      </trkpt>
      <trkpt lat="46.69315" lon="9.69555">
        <ele>1359</ele>
        <time>2017-10-27T03:17:29Z</time>
      </trkpt>
      <trkpt lat="46.69314" lon="9.69585">
        <ele>1357</ele>
        <time>2017-10-27T03:19:29Z</time>
      </trkpt>
      <trkpt lat="46.69313" lon="9.69612">
        <ele>1355</ele>
        <time>2017-10-27T03:21:29Z</time>
      </trkpt>
      <trkpt lat="46.69315" lon="9.69627">
        <ele>1354</ele>
        <time>2017-10-27T03:23:29Z</time>
      </trkpt>
      <trkpt lat="46.69322" lon="9.69645">
        <ele>1356</ele>
        <time>2017-10-27T03:25:29Z</time>
      </trkpt>
      <trkpt lat="46.6933" lon="9.69661">
        <ele>1357</ele>
        <time>2017-10-27T03:27:29Z</time>
      </trkpt>
      <trkpt lat="46.69345" lon="9.69692">
        <ele>1358</ele>
        <time>2017-10-27T03:29:29Z</time>
      </trkpt>
      <trkpt lat="46.69357" lon="9.69718">
        <ele>1357</ele>
        <time>2017-10-27T03:31:29Z</time>
      </trkpt>
      <trkpt lat="46.6936" lon="9.69728">
        <ele>1355</ele>
        <time>2017-10-27T03:33:29Z</time>
      </trkpt>
      <trkpt lat="46.69365" lon="9.69737">
        <ele>1354</ele>
        <time>2017-10-27T03:35:29Z</time>
      </trkpt>
      <trkpt lat="46.6937" lon="9.69745">
        <ele>1354</ele>
        <time>2017-10-27T03:37:29Z</time>
      </trkpt>
      <trkpt lat="46.69377" lon="9.69752">
        <ele>1353</ele>
        <time>2017-10-27T03:39:29Z</time>
      </trkpt>
      <trkpt lat="46.69383" lon="9.69756">
        <ele>1352</ele>
        <time>2017-10-27T03:41:29Z</time>
      </trkpt>
      <trkpt lat="46.69394" lon="9.69761">
        <ele>1352</ele>
        <time>2017-10-27T03:43:29Z</time>
      </trkpt>
      <trkpt lat="46.69418" lon="9.6976">
        <ele>1356</ele>
        <time>2017-10-27T03:45:29Z</time>
      </trkpt>
      <trkpt lat="46.69436" lon="9.69754">
        <ele>1363</ele>
        <time>2017-10-27T03:47:29Z</time>
      </trkpt>
      <trkpt lat="46.69458" lon="9.6975">
        <ele>1369</ele>
        <time>2017-10-27T03:49:29Z</time>
      </trkpt>
      <trkpt lat="46.69485" lon="9.69745">
        <ele>1376</ele>
        <time>2017-10-27T03:51:29Z</time>
      </trkpt>
      <trkpt lat="46.69519" lon="9.69749">
        <ele>1376</ele>
        <time>2017-10-27T03:53:29Z</time>
      </trkpt>
      <trkpt lat="46.69563" lon="9.69757">
        <ele>1369</ele>
        <time>2017-10-27T03:55:29Z</time>
      </trkpt>
      <trkpt lat="46.69612" lon="9.69757">
        <ele>1370</ele>
        <time>2017-10-27T03:57:29Z</time>
      </trkpt>
      <trkpt lat="46.69693" lon="9.69736">
        <ele>1389</ele>
        <time>2017-10-27T03:59:29Z</time>
      </trkpt>
      <trkpt lat="46.69729" lon="9.69731">
        <ele>1397</ele>
        <time>2017-10-27T04:01:29Z</time>
      </trkpt>
      <trkpt lat="46.69738" lon="9.6973">
        <ele>1399</ele>
        <time>2017-10-27T04:03:29Z</time>
      </trkpt>
      <trkpt lat="46.69748" lon="9.69731">
        <ele>1400</ele>
        <time>2017-10-27T04:05:29Z</time>
      </trkpt>
      <trkpt lat="46.69753" lon="9.69733">
        <ele>1400</ele>
        <time>2017-10-27T04:07:29Z</time>
      </trkpt>
      <trkpt lat="46.69781" lon="9.69748">
        <ele>1405</ele>
        <time>2017-10-27T04:09:29Z</time>
      </trkpt>
      <trkpt lat="46.69783" lon="9.69757">
        <ele>1405</ele>
        <time>2017-10-27T04:11:29Z</time>
      </trkpt>
      <trkpt lat="46.69787" lon="9.69769">
        <ele>1407</ele>
        <time>2017-10-27T04:13:29Z</time>
      </trkpt>
      <trkpt lat="46.69789" lon="9.6978">
        <ele>1408</ele>
        <time>2017-10-27T04:15:29Z</time>
      </trkpt>
      <trkpt lat="46.69789" lon="9.6979">
        <ele>1408</ele>
        <time>2017-10-27T04:17:29Z</time>
      </trkpt>
      <trkpt lat="46.69784" lon="9.69806">
        <ele>1404</ele>
        <time>2017-10-27T04:19:29Z</time>
      </trkpt>
      <trkpt lat="46.69778" lon="9.69816">
        <ele>1400</ele>
        <time>2017-10-27T04:21:29Z</time>
      </trkpt>
      <trkpt lat="46.69769" lon="9.69826">
        <ele>1394</ele>
        <time>2017-10-27T04:23:29Z</time>
      </trkpt>
      <trkpt lat="46.69761" lon="9.69833">
        <ele>1388</ele>
        <time>2017-10-27T04:25:29Z</time>
      </trkpt>
      <trkpt lat="46.69756" lon="9.69838">
        <ele>1387</ele>
        <time>2017-10-27T04:27:29Z</time>
      </trkpt>
      <trkpt lat="46.69747" lon="9.69849">
        <ele>1385</ele>
        <time>2017-10-27T04:29:29Z</time>
      </trkpt>
      <trkpt lat="46.69742" lon="9.69858">
        <ele>1387</ele>
        <time>2017-10-27T04:31:29Z</time>
      </trkpt>
      <trkpt lat="46.69739" lon="9.69871">
        <ele>1390</ele>
        <time>2017-10-27T04:33:29Z</time>
      </trkpt>
      <trkpt lat="46.69736" lon="9.69887">
        <ele>1394</ele>
        <time>2017-10-27T04:35:29Z</time>
      </trkpt>
      <trkpt lat="46.69731" lon="9.69907">
        <ele>1399</ele>
        <time>2017-10-27T04:37:29Z</time>
      </trkpt>
      <trkpt lat="46.69722" lon="9.69921">
        <ele>1401</ele>
        <time>2017-10-27T04:39:29Z</time>
      </trkpt>
      <trkpt lat="46.69687" lon="9.69951">
        <ele>1399</ele>
        <time>2017-10-27T04:41:29Z</time>
      </trkpt>
      <trkpt lat="46.6966" lon="9.69973">
        <ele>1395</ele>
        <time>2017-10-27T04:43:29Z</time>
      </trkpt>
      <trkpt lat="46.69645" lon="9.69986">
        <ele>1392</ele>
        <time>2017-10-27T04:45:29Z</time>
      </trkpt>
      <trkpt lat="46.6963" lon="9.70005">
        <ele>1390</ele>
        <time>2017-10-27T04:47:29Z</time>
      </trkpt>
      <trkpt lat="46.69619" lon="9.70022">
        <ele>1386</ele>
        <time>2017-10-27T04:49:29Z</time>
      </trkpt>
      <trkpt lat="46.6961" lon="9.70041">
        <ele>1384</ele>
        <time>2017-10-27T04:51:29Z</time>
      </trkpt>
      <trkpt lat="46.69605" lon="9.7006">
        <ele>1385</ele>
        <time>2017-10-27T04:53:29Z</time>
      </trkpt>
      <trkpt lat="46.69603" lon="9.70076">
        <ele>1387</ele>
        <time>2017-10-27T04:55:29Z</time>
      </trkpt>
      <trkpt lat="46.69604" lon="9.70089">
        <ele>1389</ele>
        <time>2017-10-27T04:57:29Z</time>
      </trkpt>
      <trkpt lat="46.69612" lon="9.70107">
        <ele>1392</ele>
        <time>2017-10-27T04:59:29Z</time>
      </trkpt>
      <trkpt lat="46.69626" lon="9.70137">
        <ele>1397</ele>
        <time>2017-10-27T05:01:29Z</time>
      </trkpt>
      <trkpt lat="46.69641" lon="9.70177">
        <ele>1400</ele>
        <time>2017-10-27T05:03:29Z</time>
      </trkpt>
      <trkpt lat="46.69653" lon="9.70202">
        <ele>1400</ele>
        <time>2017-10-27T05:05:29Z</time>
      </trkpt>
      <trkpt lat="46.69678" lon="9.70235">
        <ele>1402</ele>
        <time>2017-10-27T05:07:29Z</time>
      </trkpt>
      <trkpt lat="46.69716" lon="9.70287">
        <ele>1404</ele>
        <time>2017-10-27T05:09:29Z</time>
      </trkpt>
      <trkpt lat="46.6975" lon="9.70351">
        <ele>1403</ele>
        <time>2017-10-27T05:11:29Z</time>
      </trkpt>
      <trkpt lat="46.69776" lon="9.704">
        <ele>1405</ele>
        <time>2017-10-27T05:13:29Z</time>
      </trkpt>
      <trkpt lat="46.69801" lon="9.70446">
        <ele>1406</ele>
        <time>2017-10-27T05:15:29Z</time>
      </trkpt>
      <trkpt lat="46.69847" lon="9.70514">
        <ele>1412</ele>
        <time>2017-10-27T05:17:29Z</time>
      </trkpt>
      <trkpt lat="46.69854" lon="9.70527">
        <ele>1412</ele>
        <time>2017-10-27T05:19:29Z</time>
      </trkpt>
      <trkpt lat="46.6987" lon="9.70559">
        <ele>1411</ele>
        <time>2017-10-27T05:21:29Z</time>
      </trkpt>
      <trkpt lat="46.6988" lon="9.70573">
        <ele>1412</ele>
        <time>2017-10-27T05:23:29Z</time>
      </trkpt>
      <trkpt lat="46.69892" lon="9.70585">
        <ele>1413</ele>
        <time>2017-10-27T05:25:29Z</time>
      </trkpt>
      <trkpt lat="46.69911" lon="9.70602">
        <ele>1416</ele>
        <time>2017-10-27T05:27:29Z</time>
      </trkpt>
      <trkpt lat="46.69918" lon="9.70611">
        <ele>1417</ele>
        <time>2017-10-27T05:29:29Z</time>
      </trkpt>
      <trkpt lat="46.6994" lon="9.70659">
        <ele>1416</ele>
        <time>2017-10-27T05:31:29Z</time>
      </trkpt>
      <trkpt lat="46.69956" lon="9.70689">
        <ele>1416</ele>
        <time>2017-10-27T05:33:29Z</time>
      </trkpt>
      <trkpt lat="46.69973" lon="9.70717">
        <ele>1418</ele>
        <time>2017-10-27T05:35:29Z</time>
      </trkpt>
      <trkpt lat="46.69994" lon="9.70752">
        <ele>1420</ele>
        <time>2017-10-27T05:37:29Z</time>
      </trkpt>
      <trkpt lat="46.70005" lon="9.70771">
        <ele>1421</ele>
        <time>2017-10-27T05:39:29Z</time>
      </trkpt>
      <trkpt lat="46.70028" lon="9.70813">
        <ele>1419</ele>
        <time>2017-10-27T05:41:29Z</time>
      </trkpt>
      <trkpt lat="46.70104" lon="9.70954">
        <ele>1426</ele>
        <time>2017-10-27T05:43:29Z</time>
      </trkpt>
      <trkpt lat="46.70161" lon="9.71064">
        <ele>1430</ele>
        <time>2017-10-27T05:45:29Z</time>
      </trkpt>
      <trkpt lat="46.70197" lon="9.71132">
        <ele>1426</ele>
        <time>2017-10-27T05:47:29Z</time>
      </trkpt>
      <trkpt lat="46.70215" lon="9.71159">
        <ele>1426</ele>
        <time>2017-10-27T05:49:29Z</time>
      </trkpt>
      <trkpt lat="46.70255" lon="9.71207">
        <ele>1429</ele>
        <time>2017-10-27T05:51:29Z</time>
      </trkpt>
      <trkpt lat="46.70275" lon="9.71228">
        <ele>1432</ele>
        <time>2017-10-27T05:53:29Z</time>
      </trkpt>
      <trkpt lat="46.70292" lon="9.71248">
        <ele>1434</ele>
        <time>2017-10-27T05:55:29Z</time>
      </trkpt>
      <trkpt lat="46.70304" lon="9.71269">
        <ele>1436</ele>
        <time>2017-10-27T05:57:29Z</time>
      </trkpt>
      <trkpt lat="46.70316" lon="9.71299">
        <ele>1437</ele>
        <time>2017-10-27T05:59:29Z</time>
      </trkpt>
      <trkpt lat="46.70359" lon="9.71422">
        <ele>1436</ele>
        <time>2017-10-27T06:01:29Z</time>
      </trkpt>
      <trkpt lat="46.7037" lon="9.71449">
        <ele>1434</ele>
        <time>2017-10-27T06:03:29Z</time>
      </trkpt>
      <trkpt lat="46.70383" lon="9.71471">
        <ele>1432</ele>
        <time>2017-10-27T06:05:29Z</time>
      </trkpt>
      <trkpt lat="46.70394" lon="9.71491">
        <ele>1429</ele>
        <time>2017-10-27T06:07:29Z</time>
      </trkpt>
      <trkpt lat="46.70404" lon="9.715">
        <ele>1429</ele>
        <time>2017-10-27T06:09:29Z</time>
      </trkpt>
      <trkpt lat="46.70419" lon="9.71513">
        <ele>1428</ele>
        <time>2017-10-27T06:11:29Z</time>
      </trkpt>
      <trkpt lat="46.70429" lon="9.71518">
        <ele>1428</ele>
        <time>2017-10-27T06:13:29Z</time>
      </trkpt>
      <trkpt lat="46.70448" lon="9.71519">
        <ele>1430</ele>
        <time>2017-10-27T06:15:29Z</time>
      </trkpt>
      <trkpt lat="46.70456" lon="9.71521">
        <ele>1430</ele>
        <time>2017-10-27T06:17:29Z</time>
      </trkpt>
      <trkpt lat="46.70463" lon="9.71523">
        <ele>1431</ele>
        <time>2017-10-27T06:19:29Z</time>
      </trkpt>
      <trkpt lat="46.70467" lon="9.71527">
        <ele>1431</ele>
        <time>2017-10-27T06:21:29Z</time>
      </trkpt>
      <trkpt lat="46.70471" lon="9.71538">
        <ele>1429</ele>
        <time>2017-10-27T06:23:29Z</time>
      </trkpt>
      <trkpt lat="46.70474" lon="9.71552">
        <ele>1428</ele>
        <time>2017-10-27T06:25:29Z</time>
      </trkpt>
      <trkpt lat="46.70478" lon="9.71561">
        <ele>1427</ele>
        <time>2017-10-27T06:27:29Z</time>
      </trkpt>
      <trkpt lat="46.7048" lon="9.71571">
        <ele>1425</ele>
        <time>2017-10-27T06:29:29Z</time>
      </trkpt>
      <trkpt lat="46.70481" lon="9.71582">
        <ele>1424</ele>
        <time>2017-10-27T06:31:29Z</time>
      </trkpt>
      <trkpt lat="46.70479" lon="9.71587">
        <ele>1424</ele>
        <time>2017-10-27T06:33:29Z</time>
      </trkpt>
      <trkpt lat="46.70477" lon="9.71596">
        <ele>1425</ele>
        <time>2017-10-27T06:35:29Z</time>
      </trkpt>
      <trkpt lat="46.70477" lon="9.71596">
        <ele>1425</ele>
        <time>2017-10-27T06:37:29Z</time>
      </trkpt>
      <trkpt lat="46.70474" lon="9.71598">
        <ele>1425</ele>
        <time>2017-10-27T06:39:29Z</time>
      </trkpt>
      <trkpt lat="46.70466" lon="9.71603">
        <ele>1425</ele>
        <time>2017-10-27T06:41:29Z</time>
      </trkpt>
      <trkpt lat="46.70441" lon="9.71611">
        <ele>1422</ele>
        <time>2017-10-27T06:43:29Z</time>
      </trkpt>
      <trkpt lat="46.70437" lon="9.71612">
        <ele>1422</ele>
        <time>2017-10-27T06:45:29Z</time>
      </trkpt>
      <trkpt lat="46.70414" lon="9.71616">
        <ele>1420</ele>
        <time>2017-10-27T06:47:29Z</time>
      </trkpt>
      <trkpt lat="46.70387" lon="9.7162">
        <ele>1417</ele>
        <time>2017-10-27T06:49:29Z</time>
      </trkpt>
      <trkpt lat="46.70353" lon="9.71615">
        <ele>1414</ele>
        <time>2017-10-27T06:51:29Z</time>
      </trkpt>
      <trkpt lat="46.70317" lon="9.71611">
        <ele>1410</ele>
        <time>2017-10-27T06:53:29Z</time>
      </trkpt>
      <trkpt lat="46.70303" lon="9.71607">
        <ele>1409</ele>
        <time>2017-10-27T06:55:29Z</time>
      </trkpt>
      <trkpt lat="46.70295" lon="9.71603">
        <ele>1408</ele>
        <time>2017-10-27T06:57:29Z</time>
      </trkpt>
      <trkpt lat="46.70289" lon="9.71597">
        <ele>1408</ele>
        <time>2017-10-27T06:59:29Z</time>
      </trkpt>
      <trkpt lat="46.70287" lon="9.71594">
        <ele>1407</ele>
        <time>2017-10-27T07:01:29Z</time>
      </trkpt>
      <trkpt lat="46.7028" lon="9.71585">
        <ele>1406</ele>
        <time>2017-10-27T07:03:29Z</time>
      </trkpt>
      <trkpt lat="46.70265" lon="9.71561">
        <ele>1405</ele>
        <time>2017-10-27T07:05:29Z</time>
      </trkpt>
      <trkpt lat="46.70249" lon="9.71541">
        <ele>1402</ele>
        <time>2017-10-27T07:07:29Z</time>
      </trkpt>
      <trkpt lat="46.70228" lon="9.71507">
        <ele>1405</ele>
        <time>2017-10-27T07:09:29Z</time>
      </trkpt>
      <trkpt lat="46.70223" lon="9.71496">
        <ele>1406</ele>
        <time>2017-10-27T07:11:29Z</time>
      </trkpt>
      <trkpt lat="46.70221" lon="9.71489">
        <ele>1408</ele>
        <time>2017-10-27T07:13:29Z</time>
      </trkpt>
      <trkpt lat="46.70219" lon="9.71477">
        <ele>1409</ele>
        <time>2017-10-27T07:15:29Z</time>
      </trkpt>
      <trkpt lat="46.70217" lon="9.71462">
        <ele>1411</ele>
        <time>2017-10-27T07:17:29Z</time>
      </trkpt>
      <trkpt lat="46.70211" lon="9.71392">
        <ele>1412</ele>
        <time>2017-10-27T07:19:29Z</time>
      </trkpt>
      <trkpt lat="46.70208" lon="9.71367">
        <ele>1409</ele>
        <time>2017-10-27T07:21:29Z</time>
      </trkpt>
      <trkpt lat="46.70208" lon="9.71354">
        <ele>1407</ele>
        <time>2017-10-27T07:23:29Z</time>
      </trkpt>
      <trkpt lat="46.70205" lon="9.71332">
        <ele>1404</ele>
        <time>2017-10-27T07:25:29Z</time>
      </trkpt>
      <trkpt lat="46.70201" lon="9.71318">
        <ele>1402</ele>
        <time>2017-10-27T07:27:29Z</time>
      </trkpt>
      <trkpt lat="46.70194" lon="9.71306">
        <ele>1400</ele>
        <time>2017-10-27T07:29:29Z</time>
      </trkpt>
      <trkpt lat="46.70186" lon="9.713">
        <ele>1398</ele>
        <time>2017-10-27T07:31:29Z</time>
      </trkpt>
      <trkpt lat="46.70177" lon="9.71296">
        <ele>1395</ele>
        <time>2017-10-27T07:33:29Z</time>
      </trkpt>
      <trkpt lat="46.70167" lon="9.71296">
        <ele>1392</ele>
        <time>2017-10-27T07:35:29Z</time>
      </trkpt>
      <trkpt lat="46.70118" lon="9.71304">
        <ele>1381</ele>
        <time>2017-10-27T07:37:29Z</time>
      </trkpt>
      <trkpt lat="46.701" lon="9.71308">
        <ele>1377</ele>
        <time>2017-10-27T07:39:29Z</time>
      </trkpt>
      <trkpt lat="46.70092" lon="9.71313">
        <ele>1376</ele>
        <time>2017-10-27T07:41:29Z</time>
      </trkpt>
      <trkpt lat="46.70083" lon="9.71323">
        <ele>1377</ele>
        <time>2017-10-27T07:43:29Z</time>
      </trkpt>
      <trkpt lat="46.70075" lon="9.7134">
        <ele>1377</ele>
        <time>2017-10-27T07:45:29Z</time>
      </trkpt>
      <trkpt lat="46.70068" lon="9.71357">
        <ele>1378</ele>
        <time>2017-10-27T07:47:29Z</time>
      </trkpt>
      <trkpt lat="46.70061" lon="9.71371">
        <ele>1379</ele>
        <time>2017-10-27T07:49:29Z</time>
      </trkpt>
      <trkpt lat="46.70046" lon="9.71397">
        <ele>1379</ele>
        <time>2017-10-27T07:51:29Z</time>
      </trkpt>
      <trkpt lat="46.70026" lon="9.7142">
        <ele>1376</ele>
        <time>2017-10-27T07:53:29Z</time>
      </trkpt>
      <trkpt lat="46.70006" lon="9.7144">
        <ele>1372</ele>
        <time>2017-10-27T07:55:29Z</time>
      </trkpt>
      <trkpt lat="46.69988" lon="9.71454">
        <ele>1370</ele>
        <time>2017-10-27T07:57:29Z</time>
      </trkpt>
      <trkpt lat="46.69971" lon="9.71464">
        <ele>1368</ele>
        <time>2017-10-27T07:59:29Z</time>
      </trkpt>
      <trkpt lat="46.69957" lon="9.71474">
        <ele>1368</ele>
        <time>2017-10-27T08:01:29Z</time>
      </trkpt>
      <trkpt lat="46.69948" lon="9.71485">
        <ele>1368</ele>
        <time>2017-10-27T08:03:29Z</time>
      </trkpt>
      <trkpt lat="46.69941" lon="9.71495">
        <ele>1369</ele>
        <time>2017-10-27T08:05:29Z</time>
      </trkpt>
      <trkpt lat="46.69936" lon="9.71508">
        <ele>1368</ele>
        <time>2017-10-27T08:07:29Z</time>
      </trkpt>
      <trkpt lat="46.69932" lon="9.71521">
        <ele>1366</ele>
        <time>2017-10-27T08:09:29Z</time>
      </trkpt>
      <trkpt lat="46.69929" lon="9.7154">
        <ele>1364</ele>
        <time>2017-10-27T08:11:29Z</time>
      </trkpt>
      <trkpt lat="46.69923" lon="9.71593">
        <ele>1359</ele>
        <time>2017-10-27T08:13:29Z</time>
      </trkpt>
      <trkpt lat="46.69918" lon="9.71646">
        <ele>1353</ele>
        <time>2017-10-27T08:15:29Z</time>
      </trkpt>
      <trkpt lat="46.69918" lon="9.71667">
        <ele>1351</ele>
        <time>2017-10-27T08:17:29Z</time>
      </trkpt>
      <trkpt lat="46.69921" lon="9.7168">
        <ele>1352</ele>
        <time>2017-10-27T08:19:29Z</time>
      </trkpt>
      <trkpt lat="46.69925" lon="9.71693">
        <ele>1352</ele>
        <time>2017-10-27T08:21:29Z</time>
      </trkpt>
      <trkpt lat="46.69935" lon="9.7171">
        <ele>1354</ele>
        <time>2017-10-27T08:23:29Z</time>
      </trkpt>
      <trkpt lat="46.69952" lon="9.7173">
        <ele>1359</ele>
        <time>2017-10-27T08:25:29Z</time>
      </trkpt>
      <trkpt lat="46.69964" lon="9.71744">
        <ele>1362</ele>
        <time>2017-10-27T08:27:29Z</time>
      </trkpt>
      <trkpt lat="46.69977" lon="9.71766">
        <ele>1361</ele>
        <time>2017-10-27T08:29:29Z</time>
      </trkpt>
      <trkpt lat="46.69987" lon="9.71778">
        <ele>1361</ele>
        <time>2017-10-27T08:31:29Z</time>
      </trkpt>
      <trkpt lat="46.7" lon="9.71789">
        <ele>1363</ele>
        <time>2017-10-27T08:33:29Z</time>
      </trkpt>
      <trkpt lat="46.70017" lon="9.71801">
        <ele>1367</ele>
        <time>2017-10-27T08:35:29Z</time>
      </trkpt>
      <trkpt lat="46.70033" lon="9.71816">
        <ele>1370</ele>
        <time>2017-10-27T08:37:29Z</time>
      </trkpt>
      <trkpt lat="46.70045" lon="9.71832">
        <ele>1371</ele>
        <time>2017-10-27T08:39:29Z</time>
      </trkpt>
      <trkpt lat="46.70051" lon="9.71848">
        <ele>1372</ele>
        <time>2017-10-27T08:41:29Z</time>
      </trkpt>
      <trkpt lat="46.70054" lon="9.71861">
        <ele>1371</ele>
        <time>2017-10-27T08:43:29Z</time>
      </trkpt>
      <trkpt lat="46.70052" lon="9.71876">
        <ele>1368</ele>
        <time>2017-10-27T08:45:29Z</time>
      </trkpt>
      <trkpt lat="46.70047" lon="9.71894">
        <ele>1363</ele>
        <time>2017-10-27T08:47:29Z</time>
      </trkpt>
      <trkpt lat="46.70034" lon="9.71938">
        <ele>1353</ele>
        <time>2017-10-27T08:49:29Z</time>
      </trkpt>
      <trkpt lat="46.70022" lon="9.71977">
        <ele>1348</ele>
        <time>2017-10-27T08:51:29Z</time>
      </trkpt>
      <trkpt lat="46.70017" lon="9.71993">
        <ele>1346</ele>
        <time>2017-10-27T08:53:29Z</time>
      </trkpt>
      <trkpt lat="46.70017" lon="9.72">
        <ele>1346</ele>
        <time>2017-10-27T08:55:29Z</time>
      </trkpt>
      <trkpt lat="46.70017" lon="9.7201">
        <ele>1344</ele>
        <time>2017-10-27T08:57:29Z</time>
      </trkpt>
      <trkpt lat="46.70021" lon="9.72023">
        <ele>1344</ele>
        <time>2017-10-27T08:59:29Z</time>
      </trkpt>
      <trkpt lat="46.70029" lon="9.72039">
        <ele>1346</ele>
        <time>2017-10-27T09:01:29Z</time>
      </trkpt>
      <trkpt lat="46.70045" lon="9.72066">
        <ele>1349</ele>
        <time>2017-10-27T09:03:29Z</time>
      </trkpt>
      <trkpt lat="46.70065" lon="9.7209">
        <ele>1352</ele>
        <time>2017-10-27T09:05:29Z</time>
      </trkpt>
      <trkpt lat="46.70074" lon="9.72108">
        <ele>1351</ele>
        <time>2017-10-27T09:07:29Z</time>
      </trkpt>
      <trkpt lat="46.70078" lon="9.72121">
        <ele>1348</ele>
        <time>2017-10-27T09:09:29Z</time>
      </trkpt>
      <trkpt lat="46.7008" lon="9.72135">
        <ele>1345</ele>
        <time>2017-10-27T09:11:29Z</time>
      </trkpt>
      <trkpt lat="46.70079" lon="9.72156">
        <ele>1337</ele>
        <time>2017-10-27T09:13:29Z</time>
      </trkpt>
      <trkpt lat="46.70078" lon="9.72175">
        <ele>1331</ele>
        <time>2017-10-27T09:15:29Z</time>
      </trkpt>
      <trkpt lat="46.7008" lon="9.72185">
        <ele>1330</ele>
        <time>2017-10-27T09:17:29Z</time>
      </trkpt>
      <trkpt lat="46.70085" lon="9.72195">
        <ele>1330</ele>
        <time>2017-10-27T09:19:29Z</time>
      </trkpt>
      <trkpt lat="46.70101" lon="9.72214">
        <ele>1330</ele>
        <time>2017-10-27T09:21:29Z</time>
      </trkpt>
      <trkpt lat="46.70113" lon="9.72229">
        <ele>1329</ele>
        <time>2017-10-27T09:23:29Z</time>
      </trkpt>
      <trkpt lat="46.70119" lon="9.72242">
        <ele>1328</ele>
        <time>2017-10-27T09:25:29Z</time>
      </trkpt>
      <trkpt lat="46.70123" lon="9.72264">
        <ele>1321</ele>
        <time>2017-10-27T09:27:29Z</time>
      </trkpt>
      <trkpt lat="46.70125" lon="9.72289">
        <ele>1312</ele>
        <time>2017-10-27T09:29:29Z</time>
      </trkpt>
      <trkpt lat="46.70138" lon="9.72306">
        <ele>1307</ele>
        <time>2017-10-27T09:31:29Z</time>
      </trkpt>
      <trkpt lat="46.70147" lon="9.7231">
        <ele>1307</ele>
        <time>2017-10-27T09:33:29Z</time>
      </trkpt>
      <trkpt lat="46.70155" lon="9.72309">
        <ele>1309</ele>
        <time>2017-10-27T09:35:29Z</time>
      </trkpt>
      <trkpt lat="46.70174" lon="9.72296">
        <ele>1316</ele>
        <time>2017-10-27T09:37:29Z</time>
      </trkpt>
      <trkpt lat="46.70216" lon="9.72252">
        <ele>1326</ele>
        <time>2017-10-27T09:39:29Z</time>
      </trkpt>
      <trkpt lat="46.70228" lon="9.72241">
        <ele>1328</ele>
        <time>2017-10-27T09:41:29Z</time>
      </trkpt>
      <trkpt lat="46.70244" lon="9.72228">
        <ele>1330</ele>
        <time>2017-10-27T09:43:29Z</time>
      </trkpt>
      <trkpt lat="46.70261" lon="9.72217">
        <ele>1332</ele>
        <time>2017-10-27T09:45:29Z</time>
      </trkpt>
      <trkpt lat="46.7028" lon="9.72211">
        <ele>1332</ele>
        <time>2017-10-27T09:47:29Z</time>
      </trkpt>
      <trkpt lat="46.70297" lon="9.72208">
        <ele>1331</ele>
        <time>2017-10-27T09:49:29Z</time>
      </trkpt>
      <trkpt lat="46.70311" lon="9.72209">
        <ele>1328</ele>
        <time>2017-10-27T09:51:29Z</time>
      </trkpt>
      <trkpt lat="46.70323" lon="9.72211">
        <ele>1326</ele>
        <time>2017-10-27T09:53:29Z</time>
      </trkpt>
      <trkpt lat="46.70332" lon="9.72215">
        <ele>1323</ele>
        <time>2017-10-27T09:55:29Z</time>
      </trkpt>
      <trkpt lat="46.70339" lon="9.72222">
        <ele>1319</ele>
        <time>2017-10-27T09:57:29Z</time>
      </trkpt>
      <trkpt lat="46.70349" lon="9.72235">
        <ele>1314</ele>
        <time>2017-10-27T09:59:29Z</time>
      </trkpt>
      <trkpt lat="46.70355" lon="9.72251">
        <ele>1307</ele>
        <time>2017-10-27T10:01:29Z</time>
      </trkpt>
      <trkpt lat="46.70356" lon="9.72264">
        <ele>1308</ele>
        <time>2017-10-27T10:03:29Z</time>
      </trkpt>
      <trkpt lat="46.70355" lon="9.72279">
        <ele>1309</ele>
        <time>2017-10-27T10:05:29Z</time>
      </trkpt>
      <trkpt lat="46.7035" lon="9.72294">
        <ele>1310</ele>
        <time>2017-10-27T10:07:29Z</time>
      </trkpt>
      <trkpt lat="46.70343" lon="9.72304">
        <ele>1310</ele>
        <time>2017-10-27T10:09:29Z</time>
      </trkpt>
      <trkpt lat="46.70268" lon="9.72372">
        <ele>1290</ele>
        <time>2017-10-27T10:11:29Z</time>
      </trkpt>
      <trkpt lat="46.7025" lon="9.72391">
        <ele>1282</ele>
        <time>2017-10-27T10:13:29Z</time>
      </trkpt>
      <trkpt lat="46.70227" lon="9.72422">
        <ele>1276</ele>
        <time>2017-10-27T10:15:29Z</time>
      </trkpt>
      <trkpt lat="46.70219" lon="9.7244">
        <ele>1274</ele>
        <time>2017-10-27T10:17:29Z</time>
      </trkpt>
      <trkpt lat="46.70213" lon="9.72464">
        <ele>1271</ele>
        <time>2017-10-27T10:19:29Z</time>
      </trkpt>
      <trkpt lat="46.70193" lon="9.72546">
        <ele>1272</ele>
        <time>2017-10-27T10:21:29Z</time>
      </trkpt>
      <trkpt lat="46.70193" lon="9.72546">
        <ele>1272</ele>
        <time>2017-10-27T10:23:29Z</time>
      </trkpt>
      <trkpt lat="46.70189" lon="9.72563">
        <ele>1274</ele>
        <time>2017-10-27T10:25:29Z</time>
      </trkpt>
      <trkpt lat="46.70186" lon="9.72573">
        <ele>1276</ele>
        <time>2017-10-27T10:27:29Z</time>
      </trkpt>
      <trkpt lat="46.70179" lon="9.72601">
        <ele>1287</ele>
        <time>2017-10-27T10:29:29Z</time>
      </trkpt>
      <trkpt lat="46.70168" lon="9.72654">
        <ele>1316</ele>
        <time>2017-10-27T10:31:29Z</time>
      </trkpt>
      <trkpt lat="46.7016" lon="9.72694">
        <ele>1335</ele>
        <time>2017-10-27T10:33:29Z</time>
      </trkpt>
      <trkpt lat="46.70156" lon="9.72729">
        <ele>1349</ele>
        <time>2017-10-27T10:35:29Z</time>
      </trkpt>
      <trkpt lat="46.70154" lon="9.72757">
        <ele>1356</ele>
        <time>2017-10-27T10:37:29Z</time>
      </trkpt>
      <trkpt lat="46.70153" lon="9.72794">
        <ele>1353</ele>
        <time>2017-10-27T10:39:29Z</time>
      </trkpt>
      <trkpt lat="46.70154" lon="9.72832">
        <ele>1352</ele>
        <time>2017-10-27T10:41:29Z</time>
      </trkpt>
      <trkpt lat="46.70158" lon="9.7287">
        <ele>1345</ele>
        <time>2017-10-27T10:43:29Z</time>
      </trkpt>
      <trkpt lat="46.70164" lon="9.72932">
        <ele>1285</ele>
        <time>2017-10-27T10:45:29Z</time>
      </trkpt>
      <trkpt lat="46.70175" lon="9.73023">
        <ele>1460</ele>
        <time>2017-10-27T10:47:29Z</time>
      </trkpt>
      <trkpt lat="46.70186" lon="9.73106">
        <ele>1437</ele>
        <time>2017-10-27T10:49:29Z</time>
      </trkpt>
      <trkpt lat="46.70197" lon="9.73189">
        <ele>1404</ele>
        <time>2017-10-27T10:51:29Z</time>
      </trkpt>
      <trkpt lat="46.70206" lon="9.73265">
        <ele>1421</ele>
        <time>2017-10-27T10:53:29Z</time>
      </trkpt>
      <trkpt lat="46.70218" lon="9.73363">
        <ele>1438</ele>
        <time>2017-10-27T10:55:29Z</time>
      </trkpt>
      <trkpt lat="46.70228" lon="9.73448">
        <ele>1457</ele>
        <time>2017-10-27T10:57:29Z</time>
      </trkpt>
      <trkpt lat="46.70246" lon="9.73596">
        <ele>1484</ele>
        <time>2017-10-27T10:59:29Z</time>
      </trkpt>
      <trkpt lat="46.70272" lon="9.73782">
        <ele>1465</ele>
        <time>2017-10-27T11:01:29Z</time>
      </trkpt>
      <trkpt lat="46.70296" lon="9.73923">
        <ele>1453</ele>
        <time>2017-10-27T11:03:29Z</time>
      </trkpt>
      <trkpt lat="46.70329" lon="9.74074">
        <ele>1451</ele>
        <time>2017-10-27T11:05:29Z</time>
      </trkpt>
      <trkpt lat="46.7038" lon="9.74241">
        <ele>1373</ele>
        <time>2017-10-27T11:07:29Z</time>
      </trkpt>
      <trkpt lat="46.70422" lon="9.74371">
        <ele>1339</ele>
        <time>2017-10-27T11:09:29Z</time>
      </trkpt>
      <trkpt lat="46.70459" lon="9.74456">
        <ele>1352</ele>
        <time>2017-10-27T11:11:29Z</time>
      </trkpt>
      <trkpt lat="46.70523" lon="9.74595">
        <ele>1361</ele>
        <time>2017-10-27T11:13:29Z</time>
      </trkpt>
      <trkpt lat="46.70572" lon="9.74684">
        <ele>1358</ele>
        <time>2017-10-27T11:15:29Z</time>
      </trkpt>
      <trkpt lat="46.70629" lon="9.74784">
        <ele>1360</ele>
        <time>2017-10-27T11:17:29Z</time>
      </trkpt>
      <trkpt lat="46.70679" lon="9.74869">
        <ele>1393</ele>
        <time>2017-10-27T11:19:29Z</time>
      </trkpt>
      <trkpt lat="46.70747" lon="9.74978">
        <ele>1446</ele>
        <time>2017-10-27T11:21:29Z</time>
      </trkpt>
      <trkpt lat="46.70818" lon="9.75092">
        <ele>1468</ele>
        <time>2017-10-27T11:23:29Z</time>
      </trkpt>
      <trkpt lat="46.70912" lon="9.75247">
        <ele>1418</ele>
        <time>2017-10-27T11:25:29Z</time>
      </trkpt>
      <trkpt lat="46.70979" lon="9.75357">
        <ele>1385</ele>
        <time>2017-10-27T11:27:29Z</time>
      </trkpt>
      <trkpt lat="46.71062" lon="9.75492">
        <ele>1380</ele>
        <time>2017-10-27T11:29:29Z</time>
      </trkpt>
      <trkpt lat="46.7114" lon="9.75622">
        <ele>1379</ele>
        <time>2017-10-27T11:31:29Z</time>
      </trkpt>
      <trkpt lat="46.71181" lon="9.75688">
        <ele>1374</ele>
        <time>2017-10-27T11:33:29Z</time>
      </trkpt>
      <trkpt lat="46.71211" lon="9.7573">
        <ele>1362</ele>
        <time>2017-10-27T11:35:29Z</time>
      </trkpt>
      <trkpt lat="46.71235" lon="9.75752">
        <ele>1354</ele>
        <time>2017-10-27T11:37:29Z</time>
      </trkpt>
      <trkpt lat="46.71264" lon="9.75774">
        <ele>1351</ele>
        <time>2017-10-27T11:39:29Z</time>
      </trkpt>
      <trkpt lat="46.71301" lon="9.75793">
        <ele>1347</ele>
        <time>2017-10-27T11:41:29Z</time>
      </trkpt>
      <trkpt lat="46.71337" lon="9.75807">
        <ele>1344</ele>
        <time>2017-10-27T11:43:29Z</time>
      </trkpt>
      <trkpt lat="46.71356" lon="9.75817">
        <ele>1344</ele>
        <time>2017-10-27T11:45:29Z</time>
      </trkpt>
      <trkpt lat="46.71356" lon="9.75817">
        <ele>1344</ele>
        <time>2017-10-27T11:47:29Z</time>
      </trkpt>
      <trkpt lat="46.71406" lon="9.75845">
        <ele>1345</ele>
        <time>2017-10-27T11:49:29Z</time>
      </trkpt>
      <trkpt lat="46.7151" lon="9.75915">
        <ele>1347</ele>
        <time>2017-10-27T11:51:29Z</time>
      </trkpt>
      <trkpt lat="46.71557" lon="9.75947">
        <ele>1348</ele>
        <time>2017-10-27T11:53:29Z</time>
      </trkpt>
      <trkpt lat="46.71612" lon="9.75988">
        <ele>1351</ele>
        <time>2017-10-27T11:55:29Z</time>
      </trkpt>
      <trkpt lat="46.71665" lon="9.76037">
        <ele>1357</ele>
        <time>2017-10-27T11:57:29Z</time>
      </trkpt>
      <trkpt lat="46.71712" lon="9.7609">
        <ele>1363</ele>
        <time>2017-10-27T11:59:29Z</time>
      </trkpt>
      <trkpt lat="46.71758" lon="9.76158">
        <ele>1365</ele>
        <time>2017-10-27T12:01:29Z</time>
      </trkpt>
      <trkpt lat="46.71842" lon="9.76289">
        <ele>1375</ele>
        <time>2017-10-27T12:03:29Z</time>
      </trkpt>
      <trkpt lat="46.71855" lon="9.76317">
        <ele>1378</ele>
        <time>2017-10-27T12:05:29Z</time>
      </trkpt>
      <trkpt lat="46.71865" lon="9.76339">
        <ele>1379</ele>
        <time>2017-10-27T12:07:29Z</time>
      </trkpt>
      <trkpt lat="46.71876" lon="9.76364">
        <ele>1379</ele>
        <time>2017-10-27T12:09:29Z</time>
      </trkpt>
      <trkpt lat="46.71902" lon="9.76418">
        <ele>1369</ele>
        <time>2017-10-27T12:11:29Z</time>
      </trkpt>
      <trkpt lat="46.71912" lon="9.76434">
        <ele>1366</ele>
        <time>2017-10-27T12:13:29Z</time>
      </trkpt>
      <trkpt lat="46.71936" lon="9.76481">
        <ele>1367</ele>
        <time>2017-10-27T12:15:29Z</time>
      </trkpt>
      <trkpt lat="46.71958" lon="9.76521">
        <ele>1369</ele>
        <time>2017-10-27T12:17:29Z</time>
      </trkpt>
      <trkpt lat="46.71982" lon="9.76563">
        <ele>1371</ele>
        <time>2017-10-27T12:19:29Z</time>
      </trkpt>
      <trkpt lat="46.71998" lon="9.76585">
        <ele>1368</ele>
        <time>2017-10-27T12:21:29Z</time>
      </trkpt>
      <trkpt lat="46.72024" lon="9.76612">
        <ele>1375</ele>
        <time>2017-10-27T12:23:29Z</time>
      </trkpt>
      <trkpt lat="46.72075" lon="9.76654">
        <ele>1375</ele>
        <time>2017-10-27T12:25:29Z</time>
      </trkpt>
      <trkpt lat="46.72142" lon="9.76712">
        <ele>1380</ele>
        <time>2017-10-27T12:27:29Z</time>
      </trkpt>
      <trkpt lat="46.72173" lon="9.76738">
        <ele>1379</ele>
        <time>2017-10-27T12:29:29Z</time>
      </trkpt>
      <trkpt lat="46.72202" lon="9.76766">
        <ele>1382</ele>
        <time>2017-10-27T12:31:29Z</time>
      </trkpt>
      <trkpt lat="46.7228" lon="9.76831">
        <ele>1386</ele>
        <time>2017-10-27T12:33:29Z</time>
      </trkpt>
      <trkpt lat="46.72302" lon="9.76847">
        <ele>1389</ele>
        <time>2017-10-27T12:35:29Z</time>
      </trkpt>
      <trkpt lat="46.7231" lon="9.76852">
        <ele>1389</ele>
        <time>2017-10-27T12:37:29Z</time>
      </trkpt>
      <trkpt lat="46.72338" lon="9.76871">
        <ele>1392</ele>
        <time>2017-10-27T12:39:29Z</time>
      </trkpt>
      <trkpt lat="46.72357" lon="9.76881">
        <ele>1392</ele>
        <time>2017-10-27T12:41:29Z</time>
      </trkpt>
      <trkpt lat="46.72398" lon="9.76898">
        <ele>1390</ele>
        <time>2017-10-27T12:43:29Z</time>
      </trkpt>
      <trkpt lat="46.72408" lon="9.76902">
        <ele>1390</ele>
        <time>2017-10-27T12:45:29Z</time>
      </trkpt>
      <trkpt lat="46.7245" lon="9.76915">
        <ele>1386</ele>
        <time>2017-10-27T12:47:29Z</time>
      </trkpt>
      <trkpt lat="46.72479" lon="9.76923">
        <ele>1385</ele>
        <time>2017-10-27T12:49:29Z</time>
      </trkpt>
      <trkpt lat="46.72513" lon="9.76937">
        <ele>1386</ele>
        <time>2017-10-27T12:51:29Z</time>
      </trkpt>
      <trkpt lat="46.72527" lon="9.76943">
        <ele>1388</ele>
        <time>2017-10-27T12:53:29Z</time>
      </trkpt>
      <trkpt lat="46.72539" lon="9.76951">
        <ele>1389</ele>
        <time>2017-10-27T12:55:29Z</time>
      </trkpt>
      <trkpt lat="46.72553" lon="9.76961">
        <ele>1390</ele>
        <time>2017-10-27T12:57:29Z</time>
      </trkpt>
      <trkpt lat="46.72576" lon="9.76979">
        <ele>1390</ele>
        <time>2017-10-27T12:59:29Z</time>
      </trkpt>
      <trkpt lat="46.72594" lon="9.76998">
        <ele>1390</ele>
        <time>2017-10-27T13:01:29Z</time>
      </trkpt>
      <trkpt lat="46.72608" lon="9.77015">
        <ele>1393</ele>
        <time>2017-10-27T13:03:29Z</time>
      </trkpt>
      <trkpt lat="46.72639" lon="9.77057">
        <ele>1395</ele>
        <time>2017-10-27T13:05:29Z</time>
      </trkpt>
      <trkpt lat="46.72684" lon="9.77115">
        <ele>1396</ele>
        <time>2017-10-27T13:07:29Z</time>
      </trkpt>
      <trkpt lat="46.72724" lon="9.77146">
        <ele>1399</ele>
        <time>2017-10-27T13:09:29Z</time>
      </trkpt>
      <trkpt lat="46.72732" lon="9.77151">
        <ele>1399</ele>
        <time>2017-10-27T13:11:29Z</time>
      </trkpt>
      <trkpt lat="46.72742" lon="9.77155">
        <ele>1399</ele>
        <time>2017-10-27T13:13:29Z</time>
      </trkpt>
      <trkpt lat="46.72756" lon="9.77156">
        <ele>1399</ele>
        <time>2017-10-27T13:15:29Z</time>
      </trkpt>
      <trkpt lat="46.72774" lon="9.77157">
        <ele>1400</ele>
        <time>2017-10-27T13:17:29Z</time>
      </trkpt>
      <trkpt lat="46.72809" lon="9.77156">
        <ele>1403</ele>
        <time>2017-10-27T13:19:29Z</time>
      </trkpt>
      <trkpt lat="46.72836" lon="9.77151">
        <ele>1404</ele>
        <time>2017-10-27T13:21:29Z</time>
      </trkpt>
      <trkpt lat="46.72852" lon="9.77153">
        <ele>1405</ele>
        <time>2017-10-27T13:23:29Z</time>
      </trkpt>
      <trkpt lat="46.7287" lon="9.7716">
        <ele>1405</ele>
        <time>2017-10-27T13:25:29Z</time>
      </trkpt>
      <trkpt lat="46.72879" lon="9.77166">
        <ele>1405</ele>
        <time>2017-10-27T13:27:29Z</time>
      </trkpt>
      <trkpt lat="46.7289" lon="9.77174">
        <ele>1405</ele>
        <time>2017-10-27T13:29:29Z</time>
      </trkpt>
      <trkpt lat="46.72905" lon="9.77187">
        <ele>1407</ele>
        <time>2017-10-27T13:31:29Z</time>
      </trkpt>
      <trkpt lat="46.72946" lon="9.77226">
        <ele>1408</ele>
        <time>2017-10-27T13:33:29Z</time>
      </trkpt>
      <trkpt lat="46.73017" lon="9.77317">
        <ele>1415</ele>
        <time>2017-10-27T13:35:29Z</time>
      </trkpt>
      <trkpt lat="46.73068" lon="9.77376">
        <ele>1418</ele>
        <time>2017-10-27T13:37:29Z</time>
      </trkpt>
      <trkpt lat="46.73077" lon="9.77383">
        <ele>1417</ele>
        <time>2017-10-27T13:39:29Z</time>
      </trkpt>
      <trkpt lat="46.73077" lon="9.77384">
        <ele>1417</ele>
        <time>2017-10-27T13:41:29Z</time>
      </trkpt>
      <trkpt lat="46.73111" lon="9.77416">
        <ele>1419</ele>
        <time>2017-10-27T13:43:29Z</time>
      </trkpt>
      <trkpt lat="46.73141" lon="9.77441">
        <ele>1424</ele>
        <time>2017-10-27T13:45:29Z</time>
      </trkpt>
      <trkpt lat="46.73176" lon="9.77453">
        <ele>1424</ele>
        <time>2017-10-27T13:47:29Z</time>
      </trkpt>
      <trkpt lat="46.73216" lon="9.77472">
        <ele>1425</ele>
        <time>2017-10-27T13:49:29Z</time>
      </trkpt>
      <trkpt lat="46.73242" lon="9.77483">
        <ele>1424</ele>
        <time>2017-10-27T13:51:29Z</time>
      </trkpt>
      <trkpt lat="46.73269" lon="9.77492">
        <ele>1421</ele>
        <time>2017-10-27T13:53:29Z</time>
      </trkpt>
      <trkpt lat="46.73304" lon="9.77499">
        <ele>1418</ele>
        <time>2017-10-27T13:55:29Z</time>
      </trkpt>
      <trkpt lat="46.73343" lon="9.77502">
        <ele>1415</ele>
        <time>2017-10-27T13:57:29Z</time>
      </trkpt>
      <trkpt lat="46.73359" lon="9.77506">
        <ele>1416</ele>
        <time>2017-10-27T13:59:29Z</time>
      </trkpt>
      <trkpt lat="46.73376" lon="9.77516">
        <ele>1417</ele>
        <time>2017-10-27T14:01:29Z</time>
      </trkpt>
      <trkpt lat="46.73396" lon="9.77534">
        <ele>1419</ele>
        <time>2017-10-27T14:03:29Z</time>
      </trkpt>
      <trkpt lat="46.73441" lon="9.77582">
        <ele>1423</ele>
        <time>2017-10-27T14:05:29Z</time>
      </trkpt>
      <trkpt lat="46.73474" lon="9.77611">
        <ele>1430</ele>
        <time>2017-10-27T14:07:29Z</time>
      </trkpt>
      <trkpt lat="46.73505" lon="9.77635">
        <ele>1435</ele>
        <time>2017-10-27T14:09:29Z</time>
      </trkpt>
      <trkpt lat="46.73529" lon="9.7765">
        <ele>1436</ele>
        <time>2017-10-27T14:11:29Z</time>
      </trkpt>
      <trkpt lat="46.73551" lon="9.77656">
        <ele>1433</ele>
        <time>2017-10-27T14:13:29Z</time>
      </trkpt>
      <trkpt lat="46.73569" lon="9.77661">
        <ele>1431</ele>
        <time>2017-10-27T14:15:29Z</time>
      </trkpt>
      <trkpt lat="46.7361" lon="9.77675">
        <ele>1433</ele>
        <time>2017-10-27T14:17:29Z</time>
      </trkpt>
      <trkpt lat="46.73639" lon="9.77678">
        <ele>1435</ele>
        <time>2017-10-27T14:19:29Z</time>
      </trkpt>
      <trkpt lat="46.73669" lon="9.77678">
        <ele>1436</ele>
        <time>2017-10-27T14:21:29Z</time>
      </trkpt>
      <trkpt lat="46.73697" lon="9.77674">
        <ele>1436</ele>
        <time>2017-10-27T14:23:29Z</time>
      </trkpt>
      <trkpt lat="46.73728" lon="9.77665">
        <ele>1436</ele>
        <time>2017-10-27T14:25:29Z</time>
      </trkpt>
      <trkpt lat="46.73752" lon="9.77655">
        <ele>1436</ele>
        <time>2017-10-27T14:27:29Z</time>
      </trkpt>
      <trkpt lat="46.7378" lon="9.77641">
        <ele>1436</ele>
        <time>2017-10-27T14:29:29Z</time>
      </trkpt>
      <trkpt lat="46.73797" lon="9.77634">
        <ele>1436</ele>
        <time>2017-10-27T14:31:29Z</time>
      </trkpt>
      <trkpt lat="46.73818" lon="9.77629">
        <ele>1437</ele>
        <time>2017-10-27T14:33:29Z</time>
      </trkpt>
      <trkpt lat="46.73834" lon="9.7763">
        <ele>1437</ele>
        <time>2017-10-27T14:35:29Z</time>
      </trkpt>
      <trkpt lat="46.73847" lon="9.77634">
        <ele>1437</ele>
        <time>2017-10-27T14:37:29Z</time>
      </trkpt>
      <trkpt lat="46.73859" lon="9.77639">
        <ele>1437</ele>
        <time>2017-10-27T14:39:29Z</time>
      </trkpt>
      <trkpt lat="46.73872" lon="9.77646">
        <ele>1436</ele>
        <time>2017-10-27T14:41:29Z</time>
      </trkpt>
      <trkpt lat="46.73885" lon="9.77659">
        <ele>1436</ele>
        <time>2017-10-27T14:43:29Z</time>
      </trkpt>
      <trkpt lat="46.73898" lon="9.77671">
        <ele>1435</ele>
        <time>2017-10-27T14:45:29Z</time>
      </trkpt>
      <trkpt lat="46.73929" lon="9.77712">
        <ele>1440</ele>
        <time>2017-10-27T14:47:29Z</time>
      </trkpt>
      <trkpt lat="46.73949" lon="9.77739">
        <ele>1442</ele>
        <time>2017-10-27T14:49:29Z</time>
      </trkpt>
      <trkpt lat="46.73967" lon="9.77757">
        <ele>1444</ele>
        <time>2017-10-27T14:51:29Z</time>
      </trkpt>
      <trkpt lat="46.73992" lon="9.77773">
        <ele>1447</ele>
        <time>2017-10-27T14:53:29Z</time>
      </trkpt>
      <trkpt lat="46.74007" lon="9.77779">
        <ele>1447</ele>
        <time>2017-10-27T14:55:29Z</time>
      </trkpt>
      <trkpt lat="46.74056" lon="9.77788">
        <ele>1448</ele>
        <time>2017-10-27T14:57:29Z</time>
      </trkpt>
      <trkpt lat="46.74077" lon="9.77794">
        <ele>1448</ele>
        <time>2017-10-27T14:59:29Z</time>
      </trkpt>
      <trkpt lat="46.74098" lon="9.778">
        <ele>1449</ele>
        <time>2017-10-27T15:01:29Z</time>
      </trkpt>
      <trkpt lat="46.74113" lon="9.77803">
        <ele>1448</ele>
        <time>2017-10-27T15:03:29Z</time>
      </trkpt>
      <trkpt lat="46.74126" lon="9.77807">
        <ele>1448</ele>
        <time>2017-10-27T15:05:29Z</time>
      </trkpt>
      <trkpt lat="46.7415" lon="9.77817">
        <ele>1448</ele>
        <time>2017-10-27T15:07:29Z</time>
      </trkpt>
      <trkpt lat="46.7418" lon="9.77852">
        <ele>1451</ele>
        <time>2017-10-27T15:09:29Z</time>
      </trkpt>
      <trkpt lat="46.74206" lon="9.77883">
        <ele>1454</ele>
        <time>2017-10-27T15:11:29Z</time>
      </trkpt>
      <trkpt lat="46.74252" lon="9.77946">
        <ele>1462</ele>
        <time>2017-10-27T15:13:29Z</time>
      </trkpt>
      <trkpt lat="46.74257" lon="9.77951">
        <ele>1464</ele>
        <time>2017-10-27T15:15:29Z</time>
      </trkpt>
      <trkpt lat="46.74266" lon="9.77958">
        <ele>1466</ele>
        <time>2017-10-27T15:17:29Z</time>
      </trkpt>
      <trkpt lat="46.74272" lon="9.77962">
        <ele>1466</ele>
        <time>2017-10-27T15:19:29Z</time>
      </trkpt>
      <trkpt lat="46.74279" lon="9.77965">
        <ele>1467</ele>
        <time>2017-10-27T15:21:29Z</time>
      </trkpt>
      <trkpt lat="46.74286" lon="9.77967">
        <ele>1466</ele>
        <time>2017-10-27T15:23:29Z</time>
      </trkpt>
      <trkpt lat="46.74304" lon="9.77973">
        <ele>1466</ele>
        <time>2017-10-27T15:25:29Z</time>
      </trkpt>
      <trkpt lat="46.7435" lon="9.77979">
        <ele>1462</ele>
        <time>2017-10-27T15:27:29Z</time>
      </trkpt>
      <trkpt lat="46.74434" lon="9.77988">
        <ele>1457</ele>
        <time>2017-10-27T15:29:29Z</time>
      </trkpt>
      <trkpt lat="46.74472" lon="9.77992">
        <ele>1457</ele>
        <time>2017-10-27T15:31:29Z</time>
      </trkpt>
      <trkpt lat="46.74492" lon="9.77996">
        <ele>1458</ele>
        <time>2017-10-27T15:33:29Z</time>
      </trkpt>
      <trkpt lat="46.74508" lon="9.78">
        <ele>1458</ele>
        <time>2017-10-27T15:35:29Z</time>
      </trkpt>
      <trkpt lat="46.74526" lon="9.78007">
        <ele>1459</ele>
        <time>2017-10-27T15:37:29Z</time>
      </trkpt>
      <trkpt lat="46.74552" lon="9.78018">
        <ele>1460</ele>
        <time>2017-10-27T15:39:29Z</time>
      </trkpt>
      <trkpt lat="46.7461" lon="9.78042">
        <ele>1462</ele>
        <time>2017-10-27T15:41:29Z</time>
      </trkpt>
      <trkpt lat="46.74646" lon="9.78057">
        <ele>1464</ele>
        <time>2017-10-27T15:43:29Z</time>
      </trkpt>
      <trkpt lat="46.74684" lon="9.78074">
        <ele>1465</ele>
        <time>2017-10-27T15:45:29Z</time>
      </trkpt>
      <trkpt lat="46.74707" lon="9.78085">
        <ele>1465</ele>
        <time>2017-10-27T15:47:29Z</time>
      </trkpt>
      <trkpt lat="46.7475" lon="9.78101">
        <ele>1467</ele>
        <time>2017-10-27T15:49:29Z</time>
      </trkpt>
      <trkpt lat="46.74769" lon="9.78106">
        <ele>1469</ele>
        <time>2017-10-27T15:51:29Z</time>
      </trkpt>
      <trkpt lat="46.74784" lon="9.78109">
        <ele>1469</ele>
        <time>2017-10-27T15:53:29Z</time>
      </trkpt>
      <trkpt lat="46.74798" lon="9.78111">
        <ele>1469</ele>
        <time>2017-10-27T15:55:29Z</time>
      </trkpt>
      <trkpt lat="46.74815" lon="9.78111">
        <ele>1469</ele>
        <time>2017-10-27T15:57:29Z</time>
      </trkpt>
      <trkpt lat="46.74833" lon="9.78114">
        <ele>1469</ele>
        <time>2017-10-27T15:59:29Z</time>
      </trkpt>
      <trkpt lat="46.74846" lon="9.78118">
        <ele>1470</ele>
        <time>2017-10-27T16:01:29Z</time>
      </trkpt>
      <trkpt lat="46.7486" lon="9.78123">
        <ele>1470</ele>
        <time>2017-10-27T16:03:29Z</time>
      </trkpt>
      <trkpt lat="46.74887" lon="9.78151">
        <ele>1471</ele>
        <time>2017-10-27T16:05:29Z</time>
      </trkpt>
      <trkpt lat="46.7496" lon="9.78239">
        <ele>1477</ele>
        <time>2017-10-27T16:07:29Z</time>
      </trkpt>
      <trkpt lat="46.74988" lon="9.7827">
        <ele>1482</ele>
        <time>2017-10-27T16:09:29Z</time>
      </trkpt>
      <trkpt lat="46.75026" lon="9.78316">
        <ele>1491</ele>
        <time>2017-10-27T16:11:29Z</time>
      </trkpt>
      <trkpt lat="46.75053" lon="9.78346">
        <ele>1493</ele>
        <time>2017-10-27T16:13:29Z</time>
      </trkpt>
      <trkpt lat="46.75058" lon="9.78352">
        <ele>1493</ele>
        <time>2017-10-27T16:15:29Z</time>
      </trkpt>
      <trkpt lat="46.75064" lon="9.78359">
        <ele>1494</ele>
        <time>2017-10-27T16:17:29Z</time>
      </trkpt>
      <trkpt lat="46.75079" lon="9.78372">
        <ele>1493</ele>
        <time>2017-10-27T16:19:29Z</time>
      </trkpt>
      <trkpt lat="46.75091" lon="9.78382">
        <ele>1493</ele>
        <time>2017-10-27T16:21:29Z</time>
      </trkpt>
      <trkpt lat="46.75109" lon="9.78391">
        <ele>1493</ele>
        <time>2017-10-27T16:23:29Z</time>
      </trkpt>
      <trkpt lat="46.75117" lon="9.78396">
        <ele>1493</ele>
        <time>2017-10-27T16:25:29Z</time>
      </trkpt>
      <trkpt lat="46.75121" lon="9.78398">
        <ele>1493</ele>
        <time>2017-10-27T16:27:29Z</time>
      </trkpt>
      <trkpt lat="46.75129" lon="9.78401">
        <ele>1492</ele>
        <time>2017-10-27T16:29:29Z</time>
      </trkpt>
      <trkpt lat="46.7516" lon="9.78415">
        <ele>1489</ele>
        <time>2017-10-27T16:31:29Z</time>
      </trkpt>
      <trkpt lat="46.75175" lon="9.78419">
        <ele>1489</ele>
        <time>2017-10-27T16:33:29Z</time>
      </trkpt>
      <trkpt lat="46.75202" lon="9.78425">
        <ele>1491</ele>
        <time>2017-10-27T16:35:29Z</time>
      </trkpt>
      <trkpt lat="46.7523" lon="9.78434">
        <ele>1491</ele>
        <time>2017-10-27T16:37:29Z</time>
      </trkpt>
      <trkpt lat="46.75239" lon="9.7844">
        <ele>1491</ele>
        <time>2017-10-27T16:39:29Z</time>
      </trkpt>
      <trkpt lat="46.75249" lon="9.78447">
        <ele>1490</ele>
        <time>2017-10-27T16:41:29Z</time>
      </trkpt>
      <trkpt lat="46.75264" lon="9.78463">
        <ele>1490</ele>
        <time>2017-10-27T16:43:29Z</time>
      </trkpt>
      <trkpt lat="46.75314" lon="9.78526">
        <ele>1488</ele>
        <time>2017-10-27T16:45:29Z</time>
      </trkpt>
      <trkpt lat="46.75349" lon="9.78566">
        <ele>1485</ele>
        <time>2017-10-27T16:47:29Z</time>
      </trkpt>
      <trkpt lat="46.75355" lon="9.78572">
        <ele>1485</ele>
        <time>2017-10-27T16:49:29Z</time>
      </trkpt>
      <trkpt lat="46.75362" lon="9.78576">
        <ele>1486</ele>
        <time>2017-10-27T16:51:29Z</time>
      </trkpt>
      <trkpt lat="46.75369" lon="9.7858">
        <ele>1486</ele>
        <time>2017-10-27T16:53:29Z</time>
      </trkpt>
      <trkpt lat="46.75376" lon="9.78584">
        <ele>1486</ele>
        <time>2017-10-27T16:55:29Z</time>
      </trkpt>
      <trkpt lat="46.75397" lon="9.78587">
        <ele>1487</ele>
        <time>2017-10-27T16:57:29Z</time>
      </trkpt>
      <trkpt lat="46.75453" lon="9.78593">
        <ele>1495</ele>
        <time>2017-10-27T16:59:29Z</time>
      </trkpt>
      <trkpt lat="46.75474" lon="9.78598">
        <ele>1498</ele>
        <time>2017-10-27T17:01:29Z</time>
      </trkpt>
      <trkpt lat="46.75483" lon="9.78605">
        <ele>1498</ele>
        <time>2017-10-27T17:03:29Z</time>
      </trkpt>
      <trkpt lat="46.75496" lon="9.78615">
        <ele>1498</ele>
        <time>2017-10-27T17:05:29Z</time>
      </trkpt>
      <trkpt lat="46.75542" lon="9.78654">
        <ele>1489</ele>
        <time>2017-10-27T17:07:29Z</time>
      </trkpt>
      <trkpt lat="46.75555" lon="9.7866">
        <ele>1488</ele>
        <time>2017-10-27T17:09:29Z</time>
      </trkpt>
      <trkpt lat="46.75568" lon="9.78663">
        <ele>1487</ele>
        <time>2017-10-27T17:11:29Z</time>
      </trkpt>
      <trkpt lat="46.75603" lon="9.78657">
        <ele>1489</ele>
        <time>2017-10-27T17:13:29Z</time>
      </trkpt>
      <trkpt lat="46.75635" lon="9.78648">
        <ele>1492</ele>
        <time>2017-10-27T17:15:29Z</time>
      </trkpt>
      <trkpt lat="46.75646" lon="9.78646">
        <ele>1493</ele>
        <time>2017-10-27T17:17:29Z</time>
      </trkpt>
      <trkpt lat="46.7566" lon="9.78648">
        <ele>1493</ele>
        <time>2017-10-27T17:19:29Z</time>
      </trkpt>
      <trkpt lat="46.75674" lon="9.78651">
        <ele>1494</ele>
        <time>2017-10-27T17:21:29Z</time>
      </trkpt>
      <trkpt lat="46.75686" lon="9.78657">
        <ele>1496</ele>
        <time>2017-10-27T17:23:29Z</time>
      </trkpt>
      <trkpt lat="46.75698" lon="9.78668">
        <ele>1497</ele>
        <time>2017-10-27T17:25:29Z</time>
      </trkpt>
      <trkpt lat="46.75713" lon="9.78684">
        <ele>1499</ele>
        <time>2017-10-27T17:27:29Z</time>
      </trkpt>
      <trkpt lat="46.75745" lon="9.78734">
        <ele>1502</ele>
        <time>2017-10-27T17:29:29Z</time>
      </trkpt>
      <trkpt lat="46.75768" lon="9.78776">
        <ele>1504</ele>
        <time>2017-10-27T17:31:29Z</time>
      </trkpt>
      <trkpt lat="46.75779" lon="9.78801">
        <ele>1505</ele>
        <time>2017-10-27T17:33:29Z</time>
      </trkpt>
      <trkpt lat="46.75786" lon="9.78829">
        <ele>1504</ele>
        <time>2017-10-27T17:35:29Z</time>
      </trkpt>
      <trkpt lat="46.75795" lon="9.78875">
        <ele>1503</ele>
        <time>2017-10-27T17:37:29Z</time>
      </trkpt>
      <trkpt lat="46.75801" lon="9.78918">
        <ele>1501</ele>
        <time>2017-10-27T17:39:29Z</time>
      </trkpt>
      <trkpt lat="46.75811" lon="9.78964">
        <ele>1501</ele>
        <time>2017-10-27T17:41:29Z</time>
      </trkpt>
      <trkpt lat="46.75814" lon="9.79019">
        <ele>1500</ele>
        <time>2017-10-27T17:43:29Z</time>
      </trkpt>
      <trkpt lat="46.75813" lon="9.79046">
        <ele>1500</ele>
        <time>2017-10-27T17:45:29Z</time>
      </trkpt>
      <trkpt lat="46.75815" lon="9.79063">
        <ele>1500</ele>
        <time>2017-10-27T17:47:29Z</time>
      </trkpt>
      <trkpt lat="46.75818" lon="9.79081">
        <ele>1500</ele>
        <time>2017-10-27T17:49:29Z</time>
      </trkpt>
      <trkpt lat="46.75826" lon="9.79112">
        <ele>1501</ele>
        <time>2017-10-27T17:51:29Z</time>
      </trkpt>
      <trkpt lat="46.75834" lon="9.79134">
        <ele>1501</ele>
        <time>2017-10-27T17:53:29Z</time>
      </trkpt>
      <trkpt lat="46.75838" lon="9.79148">
        <ele>1502</ele>
        <time>2017-10-27T17:55:29Z</time>
      </trkpt>
      <trkpt lat="46.75844" lon="9.79169">
        <ele>1503</ele>
        <time>2017-10-27T17:57:29Z</time>
      </trkpt>
      <trkpt lat="46.75857" lon="9.79222">
        <ele>1502</ele>
        <time>2017-10-27T17:59:29Z</time>
      </trkpt>
      <trkpt lat="46.75872" lon="9.79282">
        <ele>1499</ele>
        <time>2017-10-27T18:01:29Z</time>
      </trkpt>
      <trkpt lat="46.75883" lon="9.79308">
        <ele>1497</ele>
        <time>2017-10-27T18:03:29Z</time>
      </trkpt>
      <trkpt lat="46.75902" lon="9.79334">
        <ele>1495</ele>
        <time>2017-10-27T18:05:29Z</time>
      </trkpt>
      <trkpt lat="46.75955" lon="9.79386">
        <ele>1497</ele>
        <time>2017-10-27T18:07:29Z</time>
      </trkpt>
      <trkpt lat="46.76016" lon="9.79435">
        <ele>1497</ele>
        <time>2017-10-27T18:09:29Z</time>
      </trkpt>
      <trkpt lat="46.76028" lon="9.79444">
        <ele>1497</ele>
        <time>2017-10-27T18:11:29Z</time>
      </trkpt>
      <trkpt lat="46.76046" lon="9.79454">
        <ele>1497</ele>
        <time>2017-10-27T18:13:29Z</time>
      </trkpt>
      <trkpt lat="46.76066" lon="9.79459">
        <ele>1497</ele>
        <time>2017-10-27T18:15:29Z</time>
      </trkpt>
      <trkpt lat="46.76097" lon="9.79467">
        <ele>1498</ele>
        <time>2017-10-27T18:17:29Z</time>
      </trkpt>
      <trkpt lat="46.76114" lon="9.79472">
        <ele>1499</ele>
        <time>2017-10-27T18:19:29Z</time>
      </trkpt>
      <trkpt lat="46.76122" lon="9.79478">
        <ele>1499</ele>
        <time>2017-10-27T18:21:29Z</time>
      </trkpt>
      <trkpt lat="46.7613" lon="9.79486">
        <ele>1499</ele>
        <time>2017-10-27T18:23:29Z</time>
      </trkpt>
      <trkpt lat="46.76136" lon="9.79494">
        <ele>1499</ele>
        <time>2017-10-27T18:25:29Z</time>
      </trkpt>
      <trkpt lat="46.76146" lon="9.7951">
        <ele>1499</ele>
        <time>2017-10-27T18:27:29Z</time>
      </trkpt>
      <trkpt lat="46.76149" lon="9.79515">
        <ele>1499</ele>
        <time>2017-10-27T18:29:29Z</time>
      </trkpt>
      <trkpt lat="46.76164" lon="9.79543">
        <ele>1498</ele>
        <time>2017-10-27T18:31:29Z</time>
      </trkpt>
      <trkpt lat="46.76178" lon="9.7957">
        <ele>1498</ele>
        <time>2017-10-27T18:33:29Z</time>
      </trkpt>
      <trkpt lat="46.76193" lon="9.79594">
        <ele>1498</ele>
        <time>2017-10-27T18:35:29Z</time>
      </trkpt>
      <trkpt lat="46.76215" lon="9.79614">
        <ele>1499</ele>
        <time>2017-10-27T18:37:29Z</time>
      </trkpt>
      <trkpt lat="46.76261" lon="9.79648">
        <ele>1501</ele>
        <time>2017-10-27T18:39:29Z</time>
      </trkpt>
      <trkpt lat="46.76348" lon="9.79709">
        <ele>1502</ele>
        <time>2017-10-27T18:41:29Z</time>
      </trkpt>
      <trkpt lat="46.76352" lon="9.79712">
        <ele>1502</ele>
        <time>2017-10-27T18:43:29Z</time>
      </trkpt>
      <trkpt lat="46.76368" lon="9.79723">
        <ele>1503</ele>
        <time>2017-10-27T18:45:29Z</time>
      </trkpt>
      <trkpt lat="46.76415" lon="9.79754">
        <ele>1504</ele>
        <time>2017-10-27T18:47:29Z</time>
      </trkpt>
      <trkpt lat="46.76433" lon="9.79761">
        <ele>1504</ele>
        <time>2017-10-27T18:49:29Z</time>
      </trkpt>
      <trkpt lat="46.7645" lon="9.7976">
        <ele>1505</ele>
        <time>2017-10-27T18:51:29Z</time>
      </trkpt>
      <trkpt lat="46.76464" lon="9.79758">
        <ele>1505</ele>
        <time>2017-10-27T18:53:29Z</time>
      </trkpt>
      <trkpt lat="46.76485" lon="9.79746">
        <ele>1506</ele>
        <time>2017-10-27T18:55:29Z</time>
      </trkpt>
      <trkpt lat="46.76528" lon="9.79727">
        <ele>1507</ele>
        <time>2017-10-27T18:57:29Z</time>
      </trkpt>
      <trkpt lat="46.76538" lon="9.79725">
        <ele>1507</ele>
        <time>2017-10-27T18:59:29Z</time>
      </trkpt>
      <trkpt lat="46.76541" lon="9.79724">
        <ele>1507</ele>
        <time>2017-10-27T19:01:29Z</time>
      </trkpt>
      <trkpt lat="46.76553" lon="9.79724">
        <ele>1507</ele>
        <time>2017-10-27T19:03:29Z</time>
      </trkpt>
      <trkpt lat="46.76571" lon="9.79725">
        <ele>1507</ele>
        <time>2017-10-27T19:05:29Z</time>
      </trkpt>
      <trkpt lat="46.76593" lon="9.79738">
        <ele>1507</ele>
        <time>2017-10-27T19:07:29Z</time>
      </trkpt>
      <trkpt lat="46.76616" lon="9.79755">
        <ele>1508</ele>
        <time>2017-10-27T19:09:29Z</time>
      </trkpt>
      <trkpt lat="46.76633" lon="9.79776">
        <ele>1508</ele>
        <time>2017-10-27T19:11:29Z</time>
      </trkpt>
      <trkpt lat="46.76649" lon="9.79804">
        <ele>1509</ele>
        <time>2017-10-27T19:13:29Z</time>
      </trkpt>
      <trkpt lat="46.76694" lon="9.79903">
        <ele>1510</ele>
        <time>2017-10-27T19:15:29Z</time>
      </trkpt>
      <trkpt lat="46.76735" lon="9.80004">
        <ele>1510</ele>
        <time>2017-10-27T19:17:29Z</time>
      </trkpt>
      <trkpt lat="46.76741" lon="9.80012">
        <ele>1511</ele>
        <time>2017-10-27T19:19:29Z</time>
      </trkpt>
      <trkpt lat="46.7675" lon="9.80022">
        <ele>1511</ele>
        <time>2017-10-27T19:21:29Z</time>
      </trkpt>
      <trkpt lat="46.76759" lon="9.80029">
        <ele>1511</ele>
        <time>2017-10-27T19:23:29Z</time>
      </trkpt>
      <trkpt lat="46.76774" lon="9.80041">
        <ele>1512</ele>
        <time>2017-10-27T19:25:29Z</time>
      </trkpt>
      <trkpt lat="46.76786" lon="9.80048">
        <ele>1512</ele>
        <time>2017-10-27T19:27:29Z</time>
      </trkpt>
      <trkpt lat="46.76796" lon="9.80053">
        <ele>1512</ele>
        <time>2017-10-27T19:29:29Z</time>
      </trkpt>
      <trkpt lat="46.76807" lon="9.80057">
        <ele>1513</ele>
        <time>2017-10-27T19:31:29Z</time>
      </trkpt>
      <trkpt lat="46.76816" lon="9.80058">
        <ele>1513</ele>
        <time>2017-10-27T19:33:29Z</time>
      </trkpt>
      <trkpt lat="46.7684" lon="9.80059">
        <ele>1514</ele>
        <time>2017-10-27T19:35:29Z</time>
      </trkpt>
      <trkpt lat="46.76868" lon="9.80059">
        <ele>1515</ele>
        <time>2017-10-27T19:37:29Z</time>
      </trkpt>
      <trkpt lat="46.76893" lon="9.80058">
        <ele>1515</ele>
        <time>2017-10-27T19:39:29Z</time>
      </trkpt>
      <trkpt lat="46.76901" lon="9.80058">
        <ele>1515</ele>
        <time>2017-10-27T19:41:29Z</time>
      </trkpt>
      <trkpt lat="46.76932" lon="9.80059">
        <ele>1515</ele>
        <time>2017-10-27T19:43:29Z</time>
      </trkpt>
      <trkpt lat="46.76964" lon="9.80055">
        <ele>1514</ele>
        <time>2017-10-27T19:45:29Z</time>
      </trkpt>
      <trkpt lat="46.76986" lon="9.80052">
        <ele>1514</ele>
        <time>2017-10-27T19:47:29Z</time>
      </trkpt>
      <trkpt lat="46.77057" lon="9.80034">
        <ele>1514</ele>
        <time>2017-10-27T19:49:29Z</time>
      </trkpt>
      <trkpt lat="46.77097" lon="9.80024">
        <ele>1515</ele>
        <time>2017-10-27T19:51:29Z</time>
      </trkpt>
      <trkpt lat="46.77125" lon="9.80022">
        <ele>1517</ele>
        <time>2017-10-27T19:53:29Z</time>
      </trkpt>
      <trkpt lat="46.77147" lon="9.80024">
        <ele>1519</ele>
        <time>2017-10-27T19:55:29Z</time>
      </trkpt>
      <trkpt lat="46.77163" lon="9.80026">
        <ele>1520</ele>
        <time>2017-10-27T19:57:29Z</time>
      </trkpt>
      <trkpt lat="46.77182" lon="9.80033">
        <ele>1522</ele>
        <time>2017-10-27T19:59:29Z</time>
      </trkpt>
      <trkpt lat="46.77208" lon="9.80046">
        <ele>1523</ele>
        <time>2017-10-27T20:01:29Z</time>
      </trkpt>
      <trkpt lat="46.77242" lon="9.80068">
        <ele>1520</ele>
        <time>2017-10-27T20:03:29Z</time>
      </trkpt>
      <trkpt lat="46.7726" lon="9.80088">
        <ele>1517</ele>
        <time>2017-10-27T20:05:29Z</time>
      </trkpt>
      <trkpt lat="46.7729" lon="9.80122">
        <ele>1521</ele>
        <time>2017-10-27T20:07:29Z</time>
      </trkpt>
      <trkpt lat="46.77311" lon="9.80165">
        <ele>1514</ele>
        <time>2017-10-27T20:09:29Z</time>
      </trkpt>
      <trkpt lat="46.77338" lon="9.80221">
        <ele>1516</ele>
        <time>2017-10-27T20:11:29Z</time>
      </trkpt>
      <trkpt lat="46.77365" lon="9.80273">
        <ele>1518</ele>
        <time>2017-10-27T20:13:29Z</time>
      </trkpt>
      <trkpt lat="46.77382" lon="9.80297">
        <ele>1517</ele>
        <time>2017-10-27T20:15:29Z</time>
      </trkpt>
      <trkpt lat="46.77397" lon="9.80315">
        <ele>1516</ele>
        <time>2017-10-27T20:17:29Z</time>
      </trkpt>
      <trkpt lat="46.77406" lon="9.80325">
        <ele>1515</ele>
        <time>2017-10-27T20:19:29Z</time>
      </trkpt>
      <trkpt lat="46.77416" lon="9.80336">
        <ele>1514</ele>
        <time>2017-10-27T20:21:29Z</time>
      </trkpt>
      <trkpt lat="46.77445" lon="9.80357">
        <ele>1515</ele>
        <time>2017-10-27T20:23:29Z</time>
      </trkpt>
      <trkpt lat="46.77481" lon="9.80378">
        <ele>1517</ele>
        <time>2017-10-27T20:25:29Z</time>
      </trkpt>
      <trkpt lat="46.77533" lon="9.80407">
        <ele>1520</ele>
        <time>2017-10-27T20:27:29Z</time>
      </trkpt>
      <trkpt lat="46.77556" lon="9.80423">
        <ele>1520</ele>
        <time>2017-10-27T20:29:29Z</time>
      </trkpt>
      <trkpt lat="46.77591" lon="9.80452">
        <ele>1522</ele>
        <time>2017-10-27T20:31:29Z</time>
      </trkpt>
      <trkpt lat="46.77609" lon="9.80468">
        <ele>1526</ele>
        <time>2017-10-27T20:33:29Z</time>
      </trkpt>
      <trkpt lat="46.77626" lon="9.80486">
        <ele>1528</ele>
        <time>2017-10-27T20:35:29Z</time>
      </trkpt>
      <trkpt lat="46.77655" lon="9.80519">
        <ele>1529</ele>
        <time>2017-10-27T20:37:29Z</time>
      </trkpt>
      <trkpt lat="46.77669" lon="9.80538">
        <ele>1528</ele>
        <time>2017-10-27T20:39:29Z</time>
      </trkpt>
      <trkpt lat="46.77695" lon="9.80574">
        <ele>1527</ele>
        <time>2017-10-27T20:41:29Z</time>
      </trkpt>
      <trkpt lat="46.77717" lon="9.80607">
        <ele>1526</ele>
        <time>2017-10-27T20:43:29Z</time>
      </trkpt>
      <trkpt lat="46.7773" lon="9.80625">
        <ele>1525</ele>
        <time>2017-10-27T20:45:29Z</time>
      </trkpt>
      <trkpt lat="46.77752" lon="9.80652">
        <ele>1522</ele>
        <time>2017-10-27T20:47:29Z</time>
      </trkpt>
      <trkpt lat="46.77777" lon="9.80676">
        <ele>1526</ele>
        <time>2017-10-27T20:49:29Z</time>
      </trkpt>
      <trkpt lat="46.77805" lon="9.80703">
        <ele>1530</ele>
        <time>2017-10-27T20:51:29Z</time>
      </trkpt>
      <trkpt lat="46.77821" lon="9.80719">
        <ele>1530</ele>
        <time>2017-10-27T20:53:29Z</time>
      </trkpt>
      <trkpt lat="46.77855" lon="9.80749">
        <ele>1528</ele>
        <time>2017-10-27T20:55:29Z</time>
      </trkpt>
      <trkpt lat="46.77855" lon="9.80749">
        <ele>1528</ele>
        <time>2017-10-27T20:57:29Z</time>
      </trkpt>
      <trkpt lat="46.77833" lon="9.8076">
        <ele>1521</ele>
        <time>2017-10-27T20:59:29Z</time>
      </trkpt>
      <trkpt lat="46.77808" lon="9.80764">
        <ele>1519</ele>
        <time>2017-10-27T21:01:29Z</time>
      </trkpt>
      <trkpt lat="46.77789" lon="9.80771">
        <ele>1518</ele>
        <time>2017-10-27T21:03:29Z</time>
      </trkpt>
      <trkpt lat="46.77778" lon="9.80775">
        <ele>1517</ele>
        <time>2017-10-27T21:05:29Z</time>
      </trkpt>
      <trkpt lat="46.7777" lon="9.80781">
        <ele>1517</ele>
        <time>2017-10-27T21:07:29Z</time>
      </trkpt>
      <trkpt lat="46.77767" lon="9.80786">
        <ele>1516</ele>
        <time>2017-10-27T21:09:29Z</time>
      </trkpt>
      <trkpt lat="46.77765" lon="9.80791">
        <ele>1516</ele>
        <time>2017-10-27T21:11:29Z</time>
      </trkpt>
      <trkpt lat="46.77755" lon="9.80809">
        <ele>1515</ele>
        <time>2017-10-27T21:13:29Z</time>
      </trkpt>
      <trkpt lat="46.77753" lon="9.80815">
        <ele>1515</ele>
        <time>2017-10-27T21:15:29Z</time>
      </trkpt>
      <trkpt lat="46.77748" lon="9.80823">
        <ele>1515</ele>
        <time>2017-10-27T21:17:29Z</time>
      </trkpt>
      <trkpt lat="46.77747" lon="9.80826">
        <ele>1515</ele>
        <time>2017-10-27T21:19:29Z</time>
      </trkpt>
      <trkpt lat="46.77747" lon="9.80826">
        <ele>1515</ele>
        <time>2017-10-27T21:21:29Z</time>
      </trkpt>
      <trkpt lat="46.77736" lon="9.80845">
        <ele>1515</ele>
        <time>2017-10-27T21:23:29Z</time>
      </trkpt>
      <trkpt lat="46.7773" lon="9.80853">
        <ele>1515</ele>
        <time>2017-10-27T21:25:29Z</time>
      </trkpt>
      <trkpt lat="46.77724" lon="9.80858">
        <ele>1515</ele>
        <time>2017-10-27T21:27:29Z</time>
      </trkpt>
      <trkpt lat="46.77718" lon="9.8086">
        <ele>1515</ele>
        <time>2017-10-27T21:29:29Z</time>
      </trkpt>
      <trkpt lat="46.77708" lon="9.80864">
        <ele>1515</ele>
        <time>2017-10-27T21:31:29Z</time>
      </trkpt>
      <trkpt lat="46.77696" lon="9.80865">
        <ele>1515</ele>
        <time>2017-10-27T21:33:29Z</time>
      </trkpt>
      <trkpt lat="46.77696" lon="9.80865">
        <ele>1515</ele>
        <time>2017-10-27T21:35:29Z</time>
      </trkpt>
      <trkpt lat="46.77703" lon="9.80886">
        <ele>1515</ele>
        <time>2017-10-27T21:37:29Z</time>
      </trkpt>
      <trkpt lat="46.77703" lon="9.80886">
        <ele>1515</ele>
        <time>2017-10-27T21:39:29Z</time>
      </trkpt>
      <trkpt lat="46.77732" lon="9.80907">
        <ele>1514</ele>
        <time>2017-10-27T21:41:29Z</time>
      </trkpt>
      <trkpt lat="46.77745" lon="9.8091">
        <ele>1514</ele>
        <time>2017-10-27T21:43:29Z</time>
      </trkpt>
      <trkpt lat="46.77753" lon="9.80915">
        <ele>1514</ele>
        <time>2017-10-27T21:45:29Z</time>
      </trkpt>
      <trkpt lat="46.77766" lon="9.80922">
        <ele>1514</ele>
        <time>2017-10-27T21:47:29Z</time>
      </trkpt>
      <trkpt lat="46.77781" lon="9.80932">
        <ele>1514</ele>
        <time>2017-10-27T21:49:29Z</time>
      </trkpt>
      <trkpt lat="46.77806" lon="9.80954">
        <ele>1515</ele>
        <time>2017-10-27T21:51:29Z</time>
      </trkpt>
      <trkpt lat="46.77828" lon="9.8098">
        <ele>1514</ele>
        <time>2017-10-27T21:53:29Z</time>
      </trkpt>
      <trkpt lat="46.77842" lon="9.81">
        <ele>1514</ele>
        <time>2017-10-27T21:55:29Z</time>
      </trkpt>
      <trkpt lat="46.77863" lon="9.81036">
        <ele>1516</ele>
        <time>2017-10-27T21:57:29Z</time>
      </trkpt>
      <trkpt lat="46.77869" lon="9.81044">
        <ele>1516</ele>
        <time>2017-10-27T21:59:29Z</time>
      </trkpt>
      <trkpt lat="46.77895" lon="9.8107">
        <ele>1517</ele>
        <time>2017-10-27T22:01:29Z</time>
      </trkpt>
      <trkpt lat="46.77929" lon="9.81105">
        <ele>1519</ele>
        <time>2017-10-27T22:03:29Z</time>
      </trkpt>
      <trkpt lat="46.77962" lon="9.81133">
        <ele>1519</ele>
        <time>2017-10-27T22:05:29Z</time>
      </trkpt>
      <trkpt lat="46.77981" lon="9.81152">
        <ele>1519</ele>
        <time>2017-10-27T22:07:29Z</time>
      </trkpt>
      <trkpt lat="46.77999" lon="9.81172">
        <ele>1519</ele>
        <time>2017-10-27T22:09:29Z</time>
      </trkpt>
      <trkpt lat="46.7802" lon="9.81194">
        <ele>1520</ele>
        <time>2017-10-27T22:11:29Z</time>
      </trkpt>
      <trkpt lat="46.78042" lon="9.81204">
        <ele>1520</ele>
        <time>2017-10-27T22:13:29Z</time>
      </trkpt>
      <trkpt lat="46.78053" lon="9.81213">
        <ele>1520</ele>
        <time>2017-10-27T22:15:29Z</time>
      </trkpt>
      <trkpt lat="46.78065" lon="9.81224">
        <ele>1520</ele>
        <time>2017-10-27T22:17:29Z</time>
      </trkpt>
      <trkpt lat="46.78065" lon="9.81224">
        <ele>1520</ele>
        <time>2017-10-27T22:19:29Z</time>
      </trkpt>
      <trkpt lat="46.78067" lon="9.81226">
        <ele>1520</ele>
        <time>2017-10-27T22:21:29Z</time>
      </trkpt>
      <trkpt lat="46.78078" lon="9.81235">
        <ele>1519</ele>
        <time>2017-10-27T22:23:29Z</time>
      </trkpt>
      <trkpt lat="46.78098" lon="9.81251">
        <ele>1519</ele>
        <time>2017-10-27T22:25:29Z</time>
      </trkpt>
      <trkpt lat="46.78126" lon="9.8128">
        <ele>1521</ele>
        <time>2017-10-27T22:27:29Z</time>
      </trkpt>
      <trkpt lat="46.78159" lon="9.81316">
        <ele>1523</ele>
        <time>2017-10-27T22:29:29Z</time>
      </trkpt>
      <trkpt lat="46.78159" lon="9.81316">
        <ele>1523</ele>
        <time>2017-10-27T22:31:29Z</time>
      </trkpt>
      <trkpt lat="46.7815" lon="9.81324">
        <ele>1523</ele>
        <time>2017-10-27T22:33:29Z</time>
      </trkpt>
      <trkpt lat="46.7815" lon="9.81324">
        <ele>1523</ele>
        <time>2017-10-27T22:35:29Z</time>
      </trkpt>
      <trkpt lat="46.78163" lon="9.8135">
        <ele>1524</ele>
        <time>2017-10-27T22:37:29Z</time>
      </trkpt>
      <trkpt lat="46.7818" lon="9.8138">
        <ele>1526</ele>
        <time>2017-10-27T22:39:29Z</time>
      </trkpt>
      <trkpt lat="46.78185" lon="9.81389">
        <ele>1527</ele>
        <time>2017-10-27T22:41:29Z</time>
      </trkpt>
      <trkpt lat="46.78217" lon="9.81426">
        <ele>1529</ele>
        <time>2017-10-27T22:43:29Z</time>
      </trkpt>
      <trkpt lat="46.78238" lon="9.81443">
        <ele>1530</ele>
        <time>2017-10-27T22:45:29Z</time>
      </trkpt>
      <trkpt lat="46.78249" lon="9.81453">
        <ele>1531</ele>
        <time>2017-10-27T22:47:29Z</time>
      </trkpt>
      <trkpt lat="46.78274" lon="9.81472">
        <ele>1532</ele>
        <time>2017-10-27T22:49:29Z</time>
      </trkpt>
      <trkpt lat="46.78297" lon="9.8149">
        <ele>1533</ele>
        <time>2017-10-27T22:51:29Z</time>
      </trkpt>
      <trkpt lat="46.78325" lon="9.8151">
        <ele>1535</ele>
        <time>2017-10-27T22:53:29Z</time>
      </trkpt>
      <trkpt lat="46.78356" lon="9.8153">
        <ele>1535</ele>
        <time>2017-10-27T22:55:29Z</time>
      </trkpt>
      <trkpt lat="46.78389" lon="9.8155">
        <ele>1535</ele>
        <time>2017-10-27T22:57:29Z</time>
      </trkpt>
      <trkpt lat="46.78441" lon="9.81574">
        <ele>1536</ele>
        <time>2017-10-27T22:59:29Z</time>
      </trkpt>
      <trkpt lat="46.78465" lon="9.81585">
        <ele>1536</ele>
        <time>2017-10-27T23:01:29Z</time>
      </trkpt>
      <trkpt lat="46.78465" lon="9.81585">
        <ele>1536</ele>
        <time>2017-10-27T23:03:29Z</time>
      </trkpt>
      <trkpt lat="46.78468" lon="9.81576">
        <ele>1535</ele>
        <time>2017-10-27T23:05:29Z</time>
      </trkpt>
      <trkpt lat="46.78471" lon="9.81571">
        <ele>1534</ele>
        <time>2017-10-27T23:07:29Z</time>
      </trkpt>
      <trkpt lat="46.78476" lon="9.81567">
        <ele>1534</ele>
        <time>2017-10-27T23:09:29Z</time>
      </trkpt>
      <trkpt lat="46.78482" lon="9.81565">
        <ele>1534</ele>
        <time>2017-10-27T23:11:29Z</time>
      </trkpt>
      <trkpt lat="46.78488" lon="9.81564">
        <ele>1533</ele>
        <time>2017-10-27T23:13:29Z</time>
      </trkpt>
      <trkpt lat="46.78499" lon="9.81566">
        <ele>1533</ele>
        <time>2017-10-27T23:15:29Z</time>
      </trkpt>
      <trkpt lat="46.78515" lon="9.8157">
        <ele>1533</ele>
        <time>2017-10-27T23:17:29Z</time>
      </trkpt>
      <trkpt lat="46.7853" lon="9.81574">
        <ele>1533</ele>
        <time>2017-10-27T23:19:29Z</time>
      </trkpt>
      <trkpt lat="46.78551" lon="9.81576">
        <ele>1532</ele>
        <time>2017-10-27T23:21:29Z</time>
      </trkpt>
      <trkpt lat="46.78557" lon="9.81576">
        <ele>1532</ele>
        <time>2017-10-27T23:23:29Z</time>
      </trkpt>
      <trkpt lat="46.7856" lon="9.81577">
        <ele>1532</ele>
        <time>2017-10-27T23:25:29Z</time>
      </trkpt>
      <trkpt lat="46.78565" lon="9.81579">
        <ele>1532</ele>
        <time>2017-10-27T23:27:29Z</time>
      </trkpt>
      <trkpt lat="46.78569" lon="9.81581">
        <ele>1532</ele>
        <time>2017-10-27T23:29:29Z</time>
      </trkpt>
      <trkpt lat="46.78575" lon="9.81584">
        <ele>1532</ele>
        <time>2017-10-27T23:31:29Z</time>
      </trkpt>
      <trkpt lat="46.78583" lon="9.81591">
        <ele>1532</ele>
        <time>2017-10-27T23:33:29Z</time>
      </trkpt>
      <trkpt lat="46.78597" lon="9.81605">
        <ele>1533</ele>
        <time>2017-10-27T23:35:29Z</time>
      </trkpt>
      <trkpt lat="46.78612" lon="9.81628">
        <ele>1534</ele>
        <time>2017-10-27T23:37:29Z</time>
      </trkpt>
      <trkpt lat="46.78622" lon="9.81646">
        <ele>1534</ele>
        <time>2017-10-27T23:39:29Z</time>
      </trkpt>
      <trkpt lat="46.78631" lon="9.81659">
        <ele>1534</ele>
        <time>2017-10-27T23:41:29Z</time>
      </trkpt>
      <trkpt lat="46.78664" lon="9.81699">
        <ele>1533</ele>
        <time>2017-10-27T23:43:29Z</time>
      </trkpt>
      <trkpt lat="46.78683" lon="9.81719">
        <ele>1534</ele>
        <time>2017-10-27T23:45:29Z</time>
      </trkpt>
      <trkpt lat="46.7869" lon="9.81727">
        <ele>1535</ele>
        <time>2017-10-27T23:47:29Z</time>
      </trkpt>
      <trkpt lat="46.78694" lon="9.8173">
        <ele>1535</ele>
        <time>2017-10-27T23:49:29Z</time>
      </trkpt>
      <trkpt lat="46.78698" lon="9.81731">
        <ele>1535</ele>
        <time>2017-10-27T23:51:29Z</time>
      </trkpt>
      <trkpt lat="46.78702" lon="9.81731">
        <ele>1535</ele>
        <time>2017-10-27T23:53:29Z</time>
      </trkpt>
      <trkpt lat="46.78712" lon="9.81727">
        <ele>1535</ele>
        <time>2017-10-27T23:55:29Z</time>
      </trkpt>
      <trkpt lat="46.78718" lon="9.81724">
        <ele>1535</ele>
        <time>2017-10-27T23:57:29Z</time>
      </trkpt>
      <trkpt lat="46.78727" lon="9.81722">
        <ele>1535</ele>
        <time>2017-10-27T23:59:29Z</time>
      </trkpt>
      <trkpt lat="46.7874" lon="9.81723">
        <ele>1536</ele>
        <time>2017-10-28T00:01:29Z</time>
      </trkpt>
      <trkpt lat="46.78751" lon="9.81725">
        <ele>1536</ele>
        <time>2017-10-28T00:03:29Z</time>
      </trkpt>
      <trkpt lat="46.78755" lon="9.81727">
        <ele>1536</ele>
        <time>2017-10-28T00:05:29Z</time>
      </trkpt>
      <trkpt lat="46.78761" lon="9.8173">
        <ele>1537</ele>
        <time>2017-10-28T00:07:29Z</time>
      </trkpt>
      <trkpt lat="46.78773" lon="9.81744">
        <ele>1537</ele>
        <time>2017-10-28T00:09:29Z</time>
      </trkpt>
      <trkpt lat="46.78851" lon="9.81822">
        <ele>1538</ele>
        <time>2017-10-28T00:11:29Z</time>
      </trkpt>
      <trkpt lat="46.78872" lon="9.8184">
        <ele>1538</ele>
        <time>2017-10-28T00:13:29Z</time>
      </trkpt>
      <trkpt lat="46.78938" lon="9.81898">
        <ele>1539</ele>
        <time>2017-10-28T00:15:29Z</time>
      </trkpt>
      <trkpt lat="46.78938" lon="9.81899">
        <ele>1539</ele>
        <time>2017-10-28T00:17:29Z</time>
      </trkpt>
      <trkpt lat="46.78939" lon="9.819">
        <ele>1539</ele>
        <time>2017-10-28T00:19:29Z</time>
      </trkpt>
      <trkpt lat="46.78941" lon="9.81919">
        <ele>1539</ele>
        <time>2017-10-28T00:21:29Z</time>
      </trkpt>
      <trkpt lat="46.78955" lon="9.81938">
        <ele>1539</ele>
        <time>2017-10-28T00:23:29Z</time>
      </trkpt>
      <trkpt lat="46.78955" lon="9.81938">
        <ele>1539</ele>
        <time>2017-10-28T00:25:29Z</time>
      </trkpt>
      <trkpt lat="46.78947" lon="9.81968">
        <ele>1537</ele>
        <time>2017-10-28T00:27:29Z</time>
      </trkpt>
      <trkpt lat="46.78942" lon="9.81984">
        <ele>1536</ele>
        <time>2017-10-28T00:29:29Z</time>
      </trkpt>
      <trkpt lat="46.78941" lon="9.81988">
        <ele>1536</ele>
        <time>2017-10-28T00:31:29Z</time>
      </trkpt>
      <trkpt lat="46.78941" lon="9.81992">
        <ele>1536</ele>
        <time>2017-10-28T00:33:29Z</time>
      </trkpt>
      <trkpt lat="46.78941" lon="9.81995">
        <ele>1536</ele>
        <time>2017-10-28T00:35:29Z</time>
      </trkpt>
      <trkpt lat="46.78943" lon="9.82">
        <ele>1536</ele>
        <time>2017-10-28T00:37:29Z</time>
      </trkpt>
      <trkpt lat="46.78943" lon="9.82">
        <ele>1536</ele>
        <time>2017-10-28T00:39:29Z</time>
      </trkpt>
      <trkpt lat="46.78958" lon="9.82024">
        <ele>1536</ele>
        <time>2017-10-28T00:41:29Z</time>
      </trkpt>
      <trkpt lat="46.7898" lon="9.82054">
        <ele>1537</ele>
        <time>2017-10-28T00:43:29Z</time>
      </trkpt>
      <trkpt lat="46.78992" lon="9.82071">
        <ele>1538</ele>
        <time>2017-10-28T00:45:29Z</time>
      </trkpt>
      <trkpt lat="46.79" lon="9.82085">
        <ele>1538</ele>
        <time>2017-10-28T00:47:29Z</time>
      </trkpt>
      <trkpt lat="46.79007" lon="9.82095">
        <ele>1538</ele>
        <time>2017-10-28T00:49:29Z</time>
      </trkpt>
      <trkpt lat="46.79013" lon="9.82103">
        <ele>1538</ele>
        <time>2017-10-28T00:51:29Z</time>
      </trkpt>
      <trkpt lat="46.79051" lon="9.82141">
        <ele>1539</ele>
        <time>2017-10-28T00:53:29Z</time>
      </trkpt>
      <trkpt lat="46.79141" lon="9.82223">
        <ele>1538</ele>
        <time>2017-10-28T00:55:29Z</time>
      </trkpt>
      <trkpt lat="46.79175" lon="9.82255">
        <ele>1537</ele>
        <time>2017-10-28T00:57:29Z</time>
      </trkpt>
      <trkpt lat="46.79186" lon="9.82263">
        <ele>1537</ele>
        <time>2017-10-28T00:59:29Z</time>
      </trkpt>
      <trkpt lat="46.79318" lon="9.82379">
        <ele>1539</ele>
        <time>2017-10-28T01:01:29Z</time>
      </trkpt>
      <trkpt lat="46.79318" lon="9.82379">
        <ele>1539</ele>
        <time>2017-10-28T01:03:29Z</time>
      </trkpt>
      <trkpt lat="46.79312" lon="9.82405">
        <ele>1539</ele>
        <time>2017-10-28T01:05:29Z</time>
      </trkpt>
      <trkpt lat="46.79312" lon="9.82405">
        <ele>1539</ele>
        <time>2017-10-28T01:07:29Z</time>
      </trkpt>
      <trkpt lat="46.79325" lon="9.8242">
        <ele>1539</ele>
        <time>2017-10-28T01:09:29Z</time>
      </trkpt>
      <trkpt lat="46.79383" lon="9.8247">
        <ele>1540</ele>
        <time>2017-10-28T01:11:29Z</time>
      </trkpt>
      <trkpt lat="46.79411" lon="9.82499">
        <ele>1539</ele>
        <time>2017-10-28T01:13:29Z</time>
      </trkpt>
      <trkpt lat="46.79429" lon="9.82516">
        <ele>1539</ele>
        <time>2017-10-28T01:15:29Z</time>
      </trkpt>
      <trkpt lat="46.79429" lon="9.82516">
        <ele>1539</ele>
        <time>2017-10-28T01:17:29Z</time>
      </trkpt>
      <trkpt lat="46.79413" lon="9.82539">
        <ele>1539</ele>
        <time>2017-10-28T01:19:29Z</time>
      </trkpt>
      <trkpt lat="46.79406" lon="9.82552">
        <ele>1539</ele>
        <time>2017-10-28T01:21:29Z</time>
      </trkpt>
      <trkpt lat="46.79401" lon="9.82562">
        <ele>1539</ele>
        <time>2017-10-28T01:23:29Z</time>
      </trkpt>
      <trkpt lat="46.79394" lon="9.82591">
        <ele>1539</ele>
        <time>2017-10-28T01:25:29Z</time>
      </trkpt>
      <trkpt lat="46.79384" lon="9.82634">
        <ele>1540</ele>
        <time>2017-10-28T01:27:29Z</time>
      </trkpt>
      <trkpt lat="46.79374" lon="9.82679">
        <ele>1541</ele>
        <time>2017-10-28T01:29:29Z</time>
      </trkpt>
      <trkpt lat="46.79372" lon="9.82693">
        <ele>1541</ele>
        <time>2017-10-28T01:31:29Z</time>
      </trkpt>
      <trkpt lat="46.79372" lon="9.82703">
        <ele>1541</ele>
        <time>2017-10-28T01:33:29Z</time>
      </trkpt>
      <trkpt lat="46.79372" lon="9.82711">
        <ele>1541</ele>
        <time>2017-10-28T01:35:29Z</time>
      </trkpt>
      <trkpt lat="46.79375" lon="9.82726">
        <ele>1541</ele>
        <time>2017-10-28T01:37:29Z</time>
      </trkpt>
      <trkpt lat="46.79381" lon="9.82748">
        <ele>1541</ele>
        <time>2017-10-28T01:39:29Z</time>
      </trkpt>
      <trkpt lat="46.7939" lon="9.82769">
        <ele>1541</ele>
        <time>2017-10-28T01:41:29Z</time>
      </trkpt>
      <trkpt lat="46.79396" lon="9.82784">
        <ele>1541</ele>
        <time>2017-10-28T01:43:29Z</time>
      </trkpt>
      <trkpt lat="46.79411" lon="9.82814">
        <ele>1541</ele>
        <time>2017-10-28T01:45:29Z</time>
      </trkpt>
      <trkpt lat="46.79434" lon="9.82852">
        <ele>1541</ele>
        <time>2017-10-28T01:47:29Z</time>
      </trkpt>
      <trkpt lat="46.79467" lon="9.82906">
        <ele>1541</ele>
        <time>2017-10-28T01:49:29Z</time>
      </trkpt>
      <trkpt lat="46.795" lon="9.8296">
        <ele>1541</ele>
        <time>2017-10-28T01:51:29Z</time>
      </trkpt>
      <trkpt lat="46.79515" lon="9.82985">
        <ele>1542</ele>
        <time>2017-10-28T01:53:29Z</time>
      </trkpt>
      <trkpt lat="46.79543" lon="9.83029">
        <ele>1544</ele>
        <time>2017-10-28T01:55:29Z</time>
      </trkpt>
      <trkpt lat="46.79566" lon="9.83068">
        <ele>1544</ele>
        <time>2017-10-28T01:57:29Z</time>
      </trkpt>
      <trkpt lat="46.79591" lon="9.83111">
        <ele>1545</ele>
        <time>2017-10-28T01:59:29Z</time>
      </trkpt>
      <trkpt lat="46.79609" lon="9.8315">
        <ele>1546</ele>
        <time>2017-10-28T02:01:29Z</time>
      </trkpt>
      <trkpt lat="46.79647" lon="9.83238">
        <ele>1547</ele>
        <time>2017-10-28T02:03:29Z</time>
      </trkpt>
      <trkpt lat="46.7965" lon="9.83246">
        <ele>1547</ele>
        <time>2017-10-28T02:05:29Z</time>
      </trkpt>
      <trkpt lat="46.79664" lon="9.83278">
        <ele>1546</ele>
        <time>2017-10-28T02:07:29Z</time>
      </trkpt>
      <trkpt lat="46.79673" lon="9.83299">
        <ele>1547</ele>
        <time>2017-10-28T02:09:29Z</time>
      </trkpt>
      <trkpt lat="46.79703" lon="9.83367">
        <ele>1549</ele>
        <time>2017-10-28T02:11:29Z</time>
      </trkpt>
      <trkpt lat="46.79717" lon="9.834">
        <ele>1550</ele>
        <time>2017-10-28T02:13:29Z</time>
      </trkpt>
      <trkpt lat="46.79766" lon="9.83507">
        <ele>1549</ele>
        <time>2017-10-28T02:15:29Z</time>
      </trkpt>
      <trkpt lat="46.79771" lon="9.83527">
        <ele>1549</ele>
        <time>2017-10-28T02:17:29Z</time>
      </trkpt>
      <trkpt lat="46.79786" lon="9.83593">
        <ele>1549</ele>
        <time>2017-10-28T02:19:29Z</time>
      </trkpt>
      <trkpt lat="46.798" lon="9.83654">
        <ele>1549</ele>
        <time>2017-10-28T02:21:29Z</time>
      </trkpt>
      <trkpt lat="46.79809" lon="9.83712">
        <ele>1551</ele>
        <time>2017-10-28T02:23:29Z</time>
      </trkpt>
      <trkpt lat="46.79831" lon="9.83834">
        <ele>1550</ele>
        <time>2017-10-28T02:25:29Z</time>
      </trkpt>
      <trkpt lat="46.79852" lon="9.83955">
        <ele>1551</ele>
        <time>2017-10-28T02:27:29Z</time>
      </trkpt>
      <trkpt lat="46.79856" lon="9.8398">
        <ele>1552</ele>
        <time>2017-10-28T02:29:29Z</time>
      </trkpt>
      <trkpt lat="46.79862" lon="9.84042">
        <ele>1553</ele>
        <time>2017-10-28T02:31:29Z</time>
      </trkpt>
      <trkpt lat="46.79864" lon="9.84083">
        <ele>1553</ele>
        <time>2017-10-28T02:33:29Z</time>
      </trkpt>
      <trkpt lat="46.79868" lon="9.84123">
        <ele>1553</ele>
        <time>2017-10-28T02:35:29Z</time>
      </trkpt>
      <trkpt lat="46.79871" lon="9.84143">
        <ele>1553</ele>
        <time>2017-10-28T02:37:29Z</time>
      </trkpt>
      <trkpt lat="46.79872" lon="9.84153">
        <ele>1553</ele>
        <time>2017-10-28T02:39:29Z</time>
      </trkpt>
      <trkpt lat="46.79872" lon="9.8418">
        <ele>1553</ele>
        <time>2017-10-28T02:41:29Z</time>
      </trkpt>
      <trkpt lat="46.7987" lon="9.8422">
        <ele>1553</ele>
        <time>2017-10-28T02:43:29Z</time>
      </trkpt>
      <trkpt lat="46.79869" lon="9.84256">
        <ele>1553</ele>
        <time>2017-10-28T02:45:29Z</time>
      </trkpt>
      <trkpt lat="46.79869" lon="9.84271">
        <ele>1554</ele>
        <time>2017-10-28T02:47:29Z</time>
      </trkpt>
      <trkpt lat="46.79872" lon="9.84289">
        <ele>1554</ele>
        <time>2017-10-28T02:49:29Z</time>
      </trkpt>
      <trkpt lat="46.79873" lon="9.84296">
        <ele>1554</ele>
        <time>2017-10-28T02:51:29Z</time>
      </trkpt>
      <trkpt lat="46.79875" lon="9.84302">
        <ele>1554</ele>
        <time>2017-10-28T02:53:29Z</time>
      </trkpt>
      <trkpt lat="46.79876" lon="9.84308">
        <ele>1554</ele>
        <time>2017-10-28T02:55:29Z</time>
      </trkpt>
      <trkpt lat="46.79876" lon="9.84314">
        <ele>1554</ele>
        <time>2017-10-28T02:57:29Z</time>
      </trkpt>
      <trkpt lat="46.79875" lon="9.84323">
        <ele>1554</ele>
        <time>2017-10-28T02:59:29Z</time>
      </trkpt>
      <trkpt lat="46.79875" lon="9.84327">
        <ele>1554</ele>
        <time>2017-10-28T03:01:29Z</time>
      </trkpt>
      <trkpt lat="46.79861" lon="9.84392">
        <ele>1555</ele>
        <time>2017-10-28T03:03:29Z</time>
      </trkpt>
      <trkpt lat="46.79849" lon="9.84455">
        <ele>1557</ele>
        <time>2017-10-28T03:05:29Z</time>
      </trkpt>
      <trkpt lat="46.79849" lon="9.84455">
        <ele>1557</ele>
        <time>2017-10-28T03:07:29Z</time>
      </trkpt>
      <trkpt lat="46.79844" lon="9.84464">
        <ele>1557</ele>
        <time>2017-10-28T03:09:29Z</time>
      </trkpt>
      <trkpt lat="46.79828" lon="9.84496">
        <ele>1558</ele>
        <time>2017-10-28T03:11:29Z</time>
      </trkpt>
      <trkpt lat="46.79817" lon="9.84522">
        <ele>1559</ele>
        <time>2017-10-28T03:13:29Z</time>
      </trkpt>
      <trkpt lat="46.79803" lon="9.84559">
        <ele>1560</ele>
        <time>2017-10-28T03:15:29Z</time>
      </trkpt>
      <trkpt lat="46.79792" lon="9.84586">
        <ele>1559</ele>
        <time>2017-10-28T03:17:29Z</time>
      </trkpt>
      <trkpt lat="46.79777" lon="9.84623">
        <ele>1559</ele>
        <time>2017-10-28T03:19:29Z</time>
      </trkpt>
      <trkpt lat="46.79761" lon="9.84668">
        <ele>1559</ele>
        <time>2017-10-28T03:21:29Z</time>
      </trkpt>
      <trkpt lat="46.79744" lon="9.8473">
        <ele>1562</ele>
        <time>2017-10-28T03:23:29Z</time>
      </trkpt>
      <trkpt lat="46.79734" lon="9.84762">
        <ele>1563</ele>
        <time>2017-10-28T03:25:29Z</time>
      </trkpt>
      <trkpt lat="46.79723" lon="9.84791">
        <ele>1565</ele>
        <time>2017-10-28T03:27:29Z</time>
      </trkpt>
      <trkpt lat="46.79715" lon="9.84809">
        <ele>1566</ele>
        <time>2017-10-28T03:29:29Z</time>
      </trkpt>
      <trkpt lat="46.79707" lon="9.84831">
        <ele>1567</ele>
        <time>2017-10-28T03:31:29Z</time>
      </trkpt>
      <trkpt lat="46.797" lon="9.8485">
        <ele>1568</ele>
        <time>2017-10-28T03:33:29Z</time>
      </trkpt>
      <trkpt lat="46.79697" lon="9.84861">
        <ele>1569</ele>
        <time>2017-10-28T03:35:29Z</time>
      </trkpt>
      <trkpt lat="46.79696" lon="9.84871">
        <ele>1570</ele>
        <time>2017-10-28T03:37:29Z</time>
      </trkpt>
      <trkpt lat="46.79696" lon="9.8488">
        <ele>1570</ele>
        <time>2017-10-28T03:39:29Z</time>
      </trkpt>
      <trkpt lat="46.79698" lon="9.84893">
        <ele>1570</ele>
        <time>2017-10-28T03:41:29Z</time>
      </trkpt>
      <trkpt lat="46.79701" lon="9.84904">
        <ele>1571</ele>
        <time>2017-10-28T03:43:29Z</time>
      </trkpt>
      <trkpt lat="46.79706" lon="9.84923">
        <ele>1571</ele>
        <time>2017-10-28T03:45:29Z</time>
      </trkpt>
      <trkpt lat="46.7971" lon="9.84943">
        <ele>1572</ele>
        <time>2017-10-28T03:47:29Z</time>
      </trkpt>
      <trkpt lat="46.79711" lon="9.84964">
        <ele>1573</ele>
        <time>2017-10-28T03:49:29Z</time>
      </trkpt>
      <trkpt lat="46.79711" lon="9.84973">
        <ele>1573</ele>
        <time>2017-10-28T03:51:29Z</time>
      </trkpt>
      <trkpt lat="46.79703" lon="9.85055">
        <ele>1576</ele>
        <time>2017-10-28T03:53:29Z</time>
      </trkpt>
      <trkpt lat="46.79692" lon="9.85169">
        <ele>1582</ele>
        <time>2017-10-28T03:55:29Z</time>
      </trkpt>
      <trkpt lat="46.79686" lon="9.8523">
        <ele>1587</ele>
        <time>2017-10-28T03:57:29Z</time>
      </trkpt>
      <trkpt lat="46.79674" lon="9.85321">
        <ele>1590</ele>
        <time>2017-10-28T03:59:29Z</time>
      </trkpt>
      <trkpt lat="46.7966" lon="9.85406">
        <ele>1591</ele>
        <time>2017-10-28T04:01:29Z</time>
      </trkpt>
      <trkpt lat="46.7966" lon="9.8542">
        <ele>1591</ele>
        <time>2017-10-28T04:03:29Z</time>
      </trkpt>
      <trkpt lat="46.79663" lon="9.85431">
        <ele>1591</ele>
        <time>2017-10-28T04:05:29Z</time>
      </trkpt>
      <trkpt lat="46.79664" lon="9.85436">
        <ele>1591</ele>
        <time>2017-10-28T04:07:29Z</time>
      </trkpt>
      <trkpt lat="46.79667" lon="9.85448">
        <ele>1591</ele>
        <time>2017-10-28T04:09:29Z</time>
      </trkpt>
      <trkpt lat="46.79667" lon="9.8545">
        <ele>1592</ele>
        <time>2017-10-28T04:11:29Z</time>
      </trkpt>
      <trkpt lat="46.79665" lon="9.85467">
        <ele>1592</ele>
        <time>2017-10-28T04:13:29Z</time>
      </trkpt>
      <trkpt lat="46.79662" lon="9.8548">
        <ele>1592</ele>
        <time>2017-10-28T04:15:29Z</time>
      </trkpt>
      <trkpt lat="46.79656" lon="9.85503">
        <ele>1592</ele>
        <time>2017-10-28T04:17:29Z</time>
      </trkpt>
      <trkpt lat="46.79645" lon="9.8554">
        <ele>1593</ele>
        <time>2017-10-28T04:19:29Z</time>
      </trkpt>
      <trkpt lat="46.79637" lon="9.85571">
        <ele>1593</ele>
        <time>2017-10-28T04:21:29Z</time>
      </trkpt>
      <trkpt lat="46.79628" lon="9.856">
        <ele>1594</ele>
        <time>2017-10-28T04:23:29Z</time>
      </trkpt>
      <trkpt lat="46.7962" lon="9.85623">
        <ele>1594</ele>
        <time>2017-10-28T04:25:29Z</time>
      </trkpt>
      <trkpt lat="46.7961" lon="9.85642">
        <ele>1593</ele>
        <time>2017-10-28T04:27:29Z</time>
      </trkpt>
      <trkpt lat="46.79588" lon="9.85681">
        <ele>1590</ele>
        <time>2017-10-28T04:29:29Z</time>
      </trkpt>
      <trkpt lat="46.79573" lon="9.85716">
        <ele>1591</ele>
        <time>2017-10-28T04:31:29Z</time>
      </trkpt>
      <trkpt lat="46.79552" lon="9.85759">
        <ele>1594</ele>
        <time>2017-10-28T04:33:29Z</time>
      </trkpt>
      <trkpt lat="46.79537" lon="9.85789">
        <ele>1596</ele>
        <time>2017-10-28T04:35:29Z</time>
      </trkpt>
      <trkpt lat="46.79506" lon="9.8585">
        <ele>1594</ele>
        <time>2017-10-28T04:37:29Z</time>
      </trkpt>
      <trkpt lat="46.79487" lon="9.85894">
        <ele>1596</ele>
        <time>2017-10-28T04:39:29Z</time>
      </trkpt>
      <trkpt lat="46.79478" lon="9.85913">
        <ele>1597</ele>
        <time>2017-10-28T04:41:29Z</time>
      </trkpt>
      <trkpt lat="46.79469" lon="9.8593">
        <ele>1599</ele>
        <time>2017-10-28T04:43:29Z</time>
      </trkpt>
      <trkpt lat="46.79453" lon="9.85955">
        <ele>1600</ele>
        <time>2017-10-28T04:45:29Z</time>
      </trkpt>
      <trkpt lat="46.79439" lon="9.85976">
        <ele>1599</ele>
        <time>2017-10-28T04:47:29Z</time>
      </trkpt>
      <trkpt lat="46.79423" lon="9.86001">
        <ele>1597</ele>
        <time>2017-10-28T04:49:29Z</time>
      </trkpt>
      <trkpt lat="46.79413" lon="9.86022">
        <ele>1598</ele>
        <time>2017-10-28T04:51:29Z</time>
      </trkpt>
      <trkpt lat="46.79413" lon="9.86023">
        <ele>1598</ele>
        <time>2017-10-28T04:53:29Z</time>
      </trkpt>
      <trkpt lat="46.79405" lon="9.86042">
        <ele>1600</ele>
        <time>2017-10-28T04:55:29Z</time>
      </trkpt>
      <trkpt lat="46.79396" lon="9.86063">
        <ele>1601</ele>
        <time>2017-10-28T04:57:29Z</time>
      </trkpt>
      <trkpt lat="46.7939" lon="9.86071">
        <ele>1601</ele>
        <time>2017-10-28T04:59:29Z</time>
      </trkpt>
      <trkpt lat="46.79336" lon="9.86149">
        <ele>1597</ele>
        <time>2017-10-28T05:01:29Z</time>
      </trkpt>
      <trkpt lat="46.79311" lon="9.86175">
        <ele>1598</ele>
        <time>2017-10-28T05:03:29Z</time>
      </trkpt>
      <trkpt lat="46.79246" lon="9.86219">
        <ele>1596</ele>
        <time>2017-10-28T05:05:29Z</time>
      </trkpt>
      <trkpt lat="46.79164" lon="9.86304">
        <ele>1594</ele>
        <time>2017-10-28T05:07:29Z</time>
      </trkpt>
      <trkpt lat="46.79164" lon="9.86304">
        <ele>1594</ele>
        <time>2017-10-28T05:09:29Z</time>
      </trkpt>
      <trkpt lat="46.79155" lon="9.86286">
        <ele>1593</ele>
        <time>2017-10-28T05:11:29Z</time>
      </trkpt>
      <trkpt lat="46.79151" lon="9.86266">
        <ele>1592</ele>
        <time>2017-10-28T05:13:29Z</time>
      </trkpt>
      <trkpt lat="46.79146" lon="9.86248">
        <ele>1592</ele>
        <time>2017-10-28T05:15:29Z</time>
      </trkpt>
      <trkpt lat="46.79137" lon="9.86231">
        <ele>1592</ele>
        <time>2017-10-28T05:17:29Z</time>
      </trkpt>
      <trkpt lat="46.79119" lon="9.86197">
        <ele>1594</ele>
        <time>2017-10-28T05:19:29Z</time>
      </trkpt>
      <trkpt lat="46.79119" lon="9.86197">
        <ele>1594</ele>
        <time>2017-10-28T05:21:29Z</time>
      </trkpt>
      <trkpt lat="46.79102" lon="9.86219">
        <ele>1593</ele>
        <time>2017-10-28T05:23:29Z</time>
      </trkpt>
      <trkpt lat="46.79081" lon="9.86257">
        <ele>1591</ele>
        <time>2017-10-28T05:25:29Z</time>
      </trkpt>
      <trkpt lat="46.79069" lon="9.86279">
        <ele>1592</ele>
        <time>2017-10-28T05:27:29Z</time>
      </trkpt>
      <trkpt lat="46.7906" lon="9.86294">
        <ele>1592</ele>
        <time>2017-10-28T05:29:29Z</time>
      </trkpt>
      <trkpt lat="46.79042" lon="9.86319">
        <ele>1593</ele>
        <time>2017-10-28T05:31:29Z</time>
      </trkpt>
      <trkpt lat="46.79026" lon="9.86338">
        <ele>1593</ele>
        <time>2017-10-28T05:33:29Z</time>
      </trkpt>
      <trkpt lat="46.79017" lon="9.86348">
        <ele>1594</ele>
        <time>2017-10-28T05:35:29Z</time>
      </trkpt>
      <trkpt lat="46.79011" lon="9.86354">
        <ele>1594</ele>
        <time>2017-10-28T05:37:29Z</time>
      </trkpt>
      <trkpt lat="46.79006" lon="9.86355">
        <ele>1594</ele>
        <time>2017-10-28T05:39:29Z</time>
      </trkpt>
      <trkpt lat="46.79001" lon="9.86354">
        <ele>1594</ele>
        <time>2017-10-28T05:41:29Z</time>
      </trkpt>
      <trkpt lat="46.78994" lon="9.86354">
        <ele>1595</ele>
        <time>2017-10-28T05:43:29Z</time>
      </trkpt>
      <trkpt lat="46.78987" lon="9.86354">
        <ele>1596</ele>
        <time>2017-10-28T05:45:29Z</time>
      </trkpt>
      <trkpt lat="46.78981" lon="9.86357">
        <ele>1597</ele>
        <time>2017-10-28T05:47:29Z</time>
      </trkpt>
      <trkpt lat="46.78971" lon="9.86366">
        <ele>1598</ele>
        <time>2017-10-28T05:49:29Z</time>
      </trkpt>
      <trkpt lat="46.78961" lon="9.86378">
        <ele>1598</ele>
        <time>2017-10-28T05:51:29Z</time>
      </trkpt>
      <trkpt lat="46.78956" lon="9.86382">
        <ele>1599</ele>
        <time>2017-10-28T05:53:29Z</time>
      </trkpt>
      <trkpt lat="46.78944" lon="9.8639">
        <ele>1599</ele>
        <time>2017-10-28T05:55:29Z</time>
      </trkpt>
      <trkpt lat="46.78932" lon="9.86396">
        <ele>1599</ele>
        <time>2017-10-28T05:57:29Z</time>
      </trkpt>
      <trkpt lat="46.78903" lon="9.86416">
        <ele>1602</ele>
        <time>2017-10-28T05:59:29Z</time>
      </trkpt>
      <trkpt lat="46.78881" lon="9.86441">
        <ele>1605</ele>
        <time>2017-10-28T06:01:29Z</time>
      </trkpt>
      <trkpt lat="46.78863" lon="9.86468">
        <ele>1605</ele>
        <time>2017-10-28T06:03:29Z</time>
      </trkpt>
      <trkpt lat="46.78853" lon="9.86484">
        <ele>1604</ele>
        <time>2017-10-28T06:05:29Z</time>
      </trkpt>
      <trkpt lat="46.78847" lon="9.86493">
        <ele>1604</ele>
        <time>2017-10-28T06:07:29Z</time>
      </trkpt>
      <trkpt lat="46.78844" lon="9.86499">
        <ele>1603</ele>
        <time>2017-10-28T06:09:29Z</time>
      </trkpt>
      <trkpt lat="46.78842" lon="9.86509">
        <ele>1602</ele>
        <time>2017-10-28T06:11:29Z</time>
      </trkpt>
      <trkpt lat="46.7884" lon="9.8652">
        <ele>1602</ele>
        <time>2017-10-28T06:13:29Z</time>
      </trkpt>
      <trkpt lat="46.78838" lon="9.86531">
        <ele>1601</ele>
        <time>2017-10-28T06:15:29Z</time>
      </trkpt>
      <trkpt lat="46.78832" lon="9.86544">
        <ele>1601</ele>
        <time>2017-10-28T06:17:29Z</time>
      </trkpt>
      <trkpt lat="46.78822" lon="9.8657">
        <ele>1600</ele>
        <time>2017-10-28T06:19:29Z</time>
      </trkpt>
      <trkpt lat="46.78817" lon="9.8659">
        <ele>1599</ele>
        <time>2017-10-28T06:21:29Z</time>
      </trkpt>
      <trkpt lat="46.78815" lon="9.86599">
        <ele>1600</ele>
        <time>2017-10-28T06:23:29Z</time>
      </trkpt>
      <trkpt lat="46.78813" lon="9.86605">
        <ele>1600</ele>
        <time>2017-10-28T06:25:29Z</time>
      </trkpt>
      <trkpt lat="46.78812" lon="9.8661">
        <ele>1600</ele>
        <time>2017-10-28T06:27:29Z</time>
      </trkpt>
      <trkpt lat="46.78808" lon="9.86615">
        <ele>1601</ele>
        <time>2017-10-28T06:29:29Z</time>
      </trkpt>
      <trkpt lat="46.788" lon="9.86625">
        <ele>1602</ele>
        <time>2017-10-28T06:31:29Z</time>
      </trkpt>
      <trkpt lat="46.78783" lon="9.86639">
        <ele>1602</ele>
        <time>2017-10-28T06:33:29Z</time>
      </trkpt>
      <trkpt lat="46.78771" lon="9.86649">
        <ele>1603</ele>
        <time>2017-10-28T06:35:29Z</time>
      </trkpt>
      <trkpt lat="46.7874" lon="9.86661">
        <ele>1604</ele>
        <time>2017-10-28T06:37:29Z</time>
      </trkpt>
      <trkpt lat="46.78718" lon="9.86675">
        <ele>1605</ele>
        <time>2017-10-28T06:39:29Z</time>
      </trkpt>
      <trkpt lat="46.78702" lon="9.86688">
        <ele>1606</ele>
        <time>2017-10-28T06:41:29Z</time>
      </trkpt>
      <trkpt lat="46.78691" lon="9.86701">
        <ele>1606</ele>
        <time>2017-10-28T06:43:29Z</time>
      </trkpt>
      <trkpt lat="46.78681" lon="9.86712">
        <ele>1606</ele>
        <time>2017-10-28T06:45:29Z</time>
      </trkpt>
      <trkpt lat="46.78673" lon="9.86721">
        <ele>1606</ele>
        <time>2017-10-28T06:47:29Z</time>
      </trkpt>
      <trkpt lat="46.78668" lon="9.86724">
        <ele>1605</ele>
        <time>2017-10-28T06:49:29Z</time>
      </trkpt>
      <trkpt lat="46.78662" lon="9.86728">
        <ele>1606</ele>
        <time>2017-10-28T06:51:29Z</time>
      </trkpt>
      <trkpt lat="46.78651" lon="9.8673">
        <ele>1608</ele>
        <time>2017-10-28T06:53:29Z</time>
      </trkpt>
      <trkpt lat="46.78642" lon="9.86734">
        <ele>1609</ele>
        <time>2017-10-28T06:55:29Z</time>
      </trkpt>
      <trkpt lat="46.78633" lon="9.86739">
        <ele>1609</ele>
        <time>2017-10-28T06:57:29Z</time>
      </trkpt>
      <trkpt lat="46.78624" lon="9.86745">
        <ele>1610</ele>
        <time>2017-10-28T06:59:29Z</time>
      </trkpt>
      <trkpt lat="46.78619" lon="9.86749">
        <ele>1610</ele>
        <time>2017-10-28T07:01:29Z</time>
      </trkpt>
      <trkpt lat="46.78612" lon="9.86759">
        <ele>1610</ele>
        <time>2017-10-28T07:03:29Z</time>
      </trkpt>
      <trkpt lat="46.78605" lon="9.86768">
        <ele>1610</ele>
        <time>2017-10-28T07:05:29Z</time>
      </trkpt>
      <trkpt lat="46.78602" lon="9.86774">
        <ele>1610</ele>
        <time>2017-10-28T07:07:29Z</time>
      </trkpt>
      <trkpt lat="46.78595" lon="9.86785">
        <ele>1610</ele>
        <time>2017-10-28T07:09:29Z</time>
      </trkpt>
      <trkpt lat="46.78588" lon="9.86796">
        <ele>1610</ele>
        <time>2017-10-28T07:11:29Z</time>
      </trkpt>
      <trkpt lat="46.78579" lon="9.86805">
        <ele>1610</ele>
        <time>2017-10-28T07:13:29Z</time>
      </trkpt>
      <trkpt lat="46.78569" lon="9.86818">
        <ele>1610</ele>
        <time>2017-10-28T07:15:29Z</time>
      </trkpt>
      <trkpt lat="46.78561" lon="9.86827">
        <ele>1611</ele>
        <time>2017-10-28T07:17:29Z</time>
      </trkpt>
      <trkpt lat="46.78551" lon="9.86836">
        <ele>1612</ele>
        <time>2017-10-28T07:19:29Z</time>
      </trkpt>
      <trkpt lat="46.78545" lon="9.86839">
        <ele>1613</ele>
        <time>2017-10-28T07:21:29Z</time>
      </trkpt>
      <trkpt lat="46.78531" lon="9.86845">
        <ele>1614</ele>
        <time>2017-10-28T07:23:29Z</time>
      </trkpt>
      <trkpt lat="46.78516" lon="9.86851">
        <ele>1616</ele>
        <time>2017-10-28T07:25:29Z</time>
      </trkpt>
      <trkpt lat="46.78501" lon="9.86853">
        <ele>1618</ele>
        <time>2017-10-28T07:27:29Z</time>
      </trkpt>
      <trkpt lat="46.78492" lon="9.86855">
        <ele>1620</ele>
        <time>2017-10-28T07:29:29Z</time>
      </trkpt>
      <trkpt lat="46.78487" lon="9.86857">
        <ele>1621</ele>
        <time>2017-10-28T07:31:29Z</time>
      </trkpt>
      <trkpt lat="46.78478" lon="9.86861">
        <ele>1623</ele>
        <time>2017-10-28T07:33:29Z</time>
      </trkpt>
      <trkpt lat="46.78473" lon="9.86866">
        <ele>1623</ele>
        <time>2017-10-28T07:35:29Z</time>
      </trkpt>
      <trkpt lat="46.78458" lon="9.86881">
        <ele>1624</ele>
        <time>2017-10-28T07:37:29Z</time>
      </trkpt>
      <trkpt lat="46.78444" lon="9.86893">
        <ele>1626</ele>
        <time>2017-10-28T07:39:29Z</time>
      </trkpt>
      <trkpt lat="46.78424" lon="9.86916">
        <ele>1626</ele>
        <time>2017-10-28T07:41:29Z</time>
      </trkpt>
      <trkpt lat="46.78404" lon="9.8694">
        <ele>1628</ele>
        <time>2017-10-28T07:43:29Z</time>
      </trkpt>
      <trkpt lat="46.78375" lon="9.86973">
        <ele>1630</ele>
        <time>2017-10-28T07:45:29Z</time>
      </trkpt>
      <trkpt lat="46.78359" lon="9.86991">
        <ele>1631</ele>
        <time>2017-10-28T07:47:29Z</time>
      </trkpt>
      <trkpt lat="46.78352" lon="9.87001">
        <ele>1630</ele>
        <time>2017-10-28T07:49:29Z</time>
      </trkpt>
      <trkpt lat="46.78346" lon="9.87004">
        <ele>1631</ele>
        <time>2017-10-28T07:51:29Z</time>
      </trkpt>
      <trkpt lat="46.78341" lon="9.87008">
        <ele>1631</ele>
        <time>2017-10-28T07:53:29Z</time>
      </trkpt>
      <trkpt lat="46.78336" lon="9.87011">
        <ele>1632</ele>
        <time>2017-10-28T07:55:29Z</time>
      </trkpt>
      <trkpt lat="46.78327" lon="9.87014">
        <ele>1632</ele>
        <time>2017-10-28T07:57:29Z</time>
      </trkpt>
      <trkpt lat="46.78315" lon="9.87017">
        <ele>1634</ele>
        <time>2017-10-28T07:59:29Z</time>
      </trkpt>
      <trkpt lat="46.78303" lon="9.87023">
        <ele>1634</ele>
        <time>2017-10-28T08:01:29Z</time>
      </trkpt>
      <trkpt lat="46.78295" lon="9.8703">
        <ele>1634</ele>
        <time>2017-10-28T08:03:29Z</time>
      </trkpt>
      <trkpt lat="46.78289" lon="9.87032">
        <ele>1634</ele>
        <time>2017-10-28T08:05:29Z</time>
      </trkpt>
      <trkpt lat="46.78277" lon="9.87036">
        <ele>1635</ele>
        <time>2017-10-28T08:07:29Z</time>
      </trkpt>
      <trkpt lat="46.7827" lon="9.87039">
        <ele>1635</ele>
        <time>2017-10-28T08:09:29Z</time>
      </trkpt>
      <trkpt lat="46.78262" lon="9.87044">
        <ele>1635</ele>
        <time>2017-10-28T08:11:29Z</time>
      </trkpt>
      <trkpt lat="46.78258" lon="9.87047">
        <ele>1635</ele>
        <time>2017-10-28T08:13:29Z</time>
      </trkpt>
      <trkpt lat="46.78247" lon="9.87052">
        <ele>1635</ele>
        <time>2017-10-28T08:15:29Z</time>
      </trkpt>
      <trkpt lat="46.78225" lon="9.87061">
        <ele>1637</ele>
        <time>2017-10-28T08:17:29Z</time>
      </trkpt>
      <trkpt lat="46.78206" lon="9.87071">
        <ele>1638</ele>
        <time>2017-10-28T08:19:29Z</time>
      </trkpt>
      <trkpt lat="46.78191" lon="9.8708">
        <ele>1638</ele>
        <time>2017-10-28T08:21:29Z</time>
      </trkpt>
      <trkpt lat="46.78177" lon="9.87088">
        <ele>1640</ele>
        <time>2017-10-28T08:23:29Z</time>
      </trkpt>
      <trkpt lat="46.78161" lon="9.87098">
        <ele>1642</ele>
        <time>2017-10-28T08:25:29Z</time>
      </trkpt>
      <trkpt lat="46.78148" lon="9.8711">
        <ele>1643</ele>
        <time>2017-10-28T08:27:29Z</time>
      </trkpt>
      <trkpt lat="46.78141" lon="9.87117">
        <ele>1644</ele>
        <time>2017-10-28T08:29:29Z</time>
      </trkpt>
      <trkpt lat="46.78131" lon="9.87127">
        <ele>1644</ele>
        <time>2017-10-28T08:31:29Z</time>
      </trkpt>
      <trkpt lat="46.78126" lon="9.87133">
        <ele>1644</ele>
        <time>2017-10-28T08:33:29Z</time>
      </trkpt>
      <trkpt lat="46.78121" lon="9.87142">
        <ele>1644</ele>
        <time>2017-10-28T08:35:29Z</time>
      </trkpt>
      <trkpt lat="46.78116" lon="9.87147">
        <ele>1644</ele>
        <time>2017-10-28T08:37:29Z</time>
      </trkpt>
      <trkpt lat="46.78113" lon="9.8715">
        <ele>1644</ele>
        <time>2017-10-28T08:39:29Z</time>
      </trkpt>
      <trkpt lat="46.78106" lon="9.87156">
        <ele>1644</ele>
        <time>2017-10-28T08:41:29Z</time>
      </trkpt>
      <trkpt lat="46.78099" lon="9.87158">
        <ele>1644</ele>
        <time>2017-10-28T08:43:29Z</time>
      </trkpt>
      <trkpt lat="46.78087" lon="9.87163">
        <ele>1645</ele>
        <time>2017-10-28T08:45:29Z</time>
      </trkpt>
      <trkpt lat="46.78079" lon="9.87166">
        <ele>1646</ele>
        <time>2017-10-28T08:47:29Z</time>
      </trkpt>
      <trkpt lat="46.7807" lon="9.87168">
        <ele>1649</ele>
        <time>2017-10-28T08:49:29Z</time>
      </trkpt>
      <trkpt lat="46.7806" lon="9.87169">
        <ele>1651</ele>
        <time>2017-10-28T08:51:29Z</time>
      </trkpt>
      <trkpt lat="46.78057" lon="9.87169">
        <ele>1652</ele>
        <time>2017-10-28T08:53:29Z</time>
      </trkpt>
      <trkpt lat="46.78054" lon="9.87169">
        <ele>1653</ele>
        <time>2017-10-28T08:55:29Z</time>
      </trkpt>
      <trkpt lat="46.78051" lon="9.8717">
        <ele>1654</ele>
        <time>2017-10-28T08:57:29Z</time>
      </trkpt>
      <trkpt lat="46.78047" lon="9.87174">
        <ele>1654</ele>
        <time>2017-10-28T08:59:29Z</time>
      </trkpt>
      <trkpt lat="46.78042" lon="9.8718">
        <ele>1655</ele>
        <time>2017-10-28T09:01:29Z</time>
      </trkpt>
      <trkpt lat="46.78031" lon="9.87193">
        <ele>1656</ele>
        <time>2017-10-28T09:03:29Z</time>
      </trkpt>
      <trkpt lat="46.78021" lon="9.87202">
        <ele>1658</ele>
        <time>2017-10-28T09:05:29Z</time>
      </trkpt>
      <trkpt lat="46.77999" lon="9.87216">
        <ele>1660</ele>
        <time>2017-10-28T09:07:29Z</time>
      </trkpt>
      <trkpt lat="46.77976" lon="9.8723">
        <ele>1661</ele>
        <time>2017-10-28T09:09:29Z</time>
      </trkpt>
      <trkpt lat="46.77962" lon="9.87246">
        <ele>1660</ele>
        <time>2017-10-28T09:11:29Z</time>
      </trkpt>
      <trkpt lat="46.77954" lon="9.87255">
        <ele>1661</ele>
        <time>2017-10-28T09:13:29Z</time>
      </trkpt>
      <trkpt lat="46.77945" lon="9.87265">
        <ele>1662</ele>
        <time>2017-10-28T09:15:29Z</time>
      </trkpt>
      <trkpt lat="46.7794" lon="9.87274">
        <ele>1662</ele>
        <time>2017-10-28T09:17:29Z</time>
      </trkpt>
      <trkpt lat="46.77938" lon="9.87278">
        <ele>1662</ele>
        <time>2017-10-28T09:19:29Z</time>
      </trkpt>
      <trkpt lat="46.77927" lon="9.87301">
        <ele>1662</ele>
        <time>2017-10-28T09:21:29Z</time>
      </trkpt>
      <trkpt lat="46.7791" lon="9.87313">
        <ele>1663</ele>
        <time>2017-10-28T09:23:29Z</time>
      </trkpt>
      <trkpt lat="46.7787" lon="9.87325">
        <ele>1662</ele>
        <time>2017-10-28T09:25:29Z</time>
      </trkpt>
      <trkpt lat="46.77844" lon="9.87334">
        <ele>1660</ele>
        <time>2017-10-28T09:27:29Z</time>
      </trkpt>
      <trkpt lat="46.77829" lon="9.87342">
        <ele>1661</ele>
        <time>2017-10-28T09:29:29Z</time>
      </trkpt>
      <trkpt lat="46.77818" lon="9.8735">
        <ele>1663</ele>
        <time>2017-10-28T09:31:29Z</time>
      </trkpt>
      <trkpt lat="46.77811" lon="9.87355">
        <ele>1664</ele>
        <time>2017-10-28T09:33:29Z</time>
      </trkpt>
      <trkpt lat="46.77789" lon="9.87381">
        <ele>1665</ele>
        <time>2017-10-28T09:35:29Z</time>
      </trkpt>
      <trkpt lat="46.77758" lon="9.87422">
        <ele>1664</ele>
        <time>2017-10-28T09:37:29Z</time>
      </trkpt>
      <trkpt lat="46.77688" lon="9.87496">
        <ele>1675</ele>
        <time>2017-10-28T09:39:29Z</time>
      </trkpt>
      <trkpt lat="46.77655" lon="9.87536">
        <ele>1681</ele>
        <time>2017-10-28T09:41:29Z</time>
      </trkpt>
      <trkpt lat="46.77624" lon="9.87613">
        <ele>1685</ele>
        <time>2017-10-28T09:43:29Z</time>
      </trkpt>
      <trkpt lat="46.77572" lon="9.87675">
        <ele>1689</ele>
        <time>2017-10-28T09:45:29Z</time>
      </trkpt>
      <trkpt lat="46.7754" lon="9.87697">
        <ele>1697</ele>
        <time>2017-10-28T09:47:29Z</time>
      </trkpt>
      <trkpt lat="46.77493" lon="9.87733">
        <ele>1698</ele>
        <time>2017-10-28T09:49:29Z</time>
      </trkpt>
      <trkpt lat="46.77482" lon="9.87747">
        <ele>1696</ele>
        <time>2017-10-28T09:51:29Z</time>
      </trkpt>
      <trkpt lat="46.77468" lon="9.87763">
        <ele>1697</ele>
        <time>2017-10-28T09:53:29Z</time>
      </trkpt>
      <trkpt lat="46.77459" lon="9.87769">
        <ele>1698</ele>
        <time>2017-10-28T09:55:29Z</time>
      </trkpt>
      <trkpt lat="46.77438" lon="9.87783">
        <ele>1700</ele>
        <time>2017-10-28T09:57:29Z</time>
      </trkpt>
      <trkpt lat="46.77424" lon="9.87793">
        <ele>1700</ele>
        <time>2017-10-28T09:59:29Z</time>
      </trkpt>
      <trkpt lat="46.77419" lon="9.87799">
        <ele>1699</ele>
        <time>2017-10-28T10:01:29Z</time>
      </trkpt>
      <trkpt lat="46.77415" lon="9.87806">
        <ele>1698</ele>
        <time>2017-10-28T10:03:29Z</time>
      </trkpt>
      <trkpt lat="46.77411" lon="9.87814">
        <ele>1697</ele>
        <time>2017-10-28T10:05:29Z</time>
      </trkpt>
      <trkpt lat="46.77407" lon="9.8782">
        <ele>1696</ele>
        <time>2017-10-28T10:07:29Z</time>
      </trkpt>
      <trkpt lat="46.77405" lon="9.87823">
        <ele>1696</ele>
        <time>2017-10-28T10:09:29Z</time>
      </trkpt>
      <trkpt lat="46.77399" lon="9.87826">
        <ele>1696</ele>
        <time>2017-10-28T10:11:29Z</time>
      </trkpt>
      <trkpt lat="46.77395" lon="9.87829">
        <ele>1696</ele>
        <time>2017-10-28T10:13:29Z</time>
      </trkpt>
      <trkpt lat="46.7739" lon="9.87837">
        <ele>1696</ele>
        <time>2017-10-28T10:15:29Z</time>
      </trkpt>
      <trkpt lat="46.7736" lon="9.87879">
        <ele>1696</ele>
        <time>2017-10-28T10:17:29Z</time>
      </trkpt>
      <trkpt lat="46.77345" lon="9.87893">
        <ele>1696</ele>
        <time>2017-10-28T10:19:29Z</time>
      </trkpt>
    </trkseg>
  </trk>
</gpx>